<?xml version="1.0" encoding="UTF-8" standalone="no" ?>
<gpx xmlns="http://www.topografix.com/GPX/1/1" xmlns:xsi="http://www.w3.org/2001/XMLSchema-instance" xsi:schemaLocation="http://www.topografix.com/GPX/1/1 http://www.topografix.com/GPX/1/1/gpx.xsd" version="1.1" creator="VisuGPX - https://www.visugpx.com">
  <metadata>
    <name>Cadiz</name>
  </metadata>
  <trk>
    <name><![CDATA[Cadiz]]></name>
    <extensions>
      <line xmlns="http://www.topografix.com/GPX/gpx_style/0/2">
        <color>0000FF</color>
        <width>4</width>
      </line>
    </extensions>
    <trkseg>
      <trkpt lat="36.50758" lon="-6.2794">
        <ele>14.596474</ele>
        <time>2022-04-14T09:32:57.000Z</time>
      </trkpt>
      <trkpt lat="36.50752" lon="-6.27986">
        <ele>14.596474</ele>
        <time>2022-04-14T09:33:05.000Z</time>
      </trkpt>
      <trkpt lat="36.50755" lon="-6.27975">
        <ele>14.596474</ele>
        <time>2022-04-14T09:33:07.000Z</time>
      </trkpt>
      <trkpt lat="36.50763" lon="-6.27966">
        <ele>14.596474</ele>
        <time>2022-04-14T09:33:10.000Z</time>
      </trkpt>
      <trkpt lat="36.50764" lon="-6.27968">
        <ele>14.596474</ele>
        <time>2022-04-14T09:33:11.000Z</time>
      </trkpt>
      <trkpt lat="36.50771" lon="-6.27973">
        <ele>14.596474</ele>
        <time>2022-04-14T09:33:14.000Z</time>
      </trkpt>
      <trkpt lat="36.50776" lon="-6.27975">
        <ele>14.596474</ele>
        <time>2022-04-14T09:33:16.000Z</time>
      </trkpt>
      <trkpt lat="36.50782" lon="-6.27977">
        <ele>14.596474</ele>
        <time>2022-04-14T09:33:18.000Z</time>
      </trkpt>
      <trkpt lat="36.50786" lon="-6.27978">
        <ele>14.596474</ele>
        <time>2022-04-14T09:33:19.000Z</time>
      </trkpt>
      <trkpt lat="36.50789" lon="-6.27979">
        <ele>14.596474</ele>
        <time>2022-04-14T09:33:21.000Z</time>
      </trkpt>
      <trkpt lat="36.50793" lon="-6.2798">
        <ele>14.597445</ele>
        <time>2022-04-14T09:33:22.000Z</time>
      </trkpt>
      <trkpt lat="36.50799" lon="-6.27981">
        <ele>14.635476</ele>
        <time>2022-04-14T09:33:24.000Z</time>
      </trkpt>
      <trkpt lat="36.50806" lon="-6.27983">
        <ele>14.68156</ele>
        <time>2022-04-14T09:33:26.000Z</time>
      </trkpt>
      <trkpt lat="36.50819" lon="-6.27991">
        <ele>14.774764</ele>
        <time>2022-04-14T09:33:30.000Z</time>
      </trkpt>
      <trkpt lat="36.50859" lon="-6.28021">
        <ele>15.071444</ele>
        <time>2022-04-14T09:33:39.000Z</time>
      </trkpt>
      <trkpt lat="36.50873" lon="-6.28029">
        <ele>15.170421</ele>
        <time>2022-04-14T09:33:42.000Z</time>
      </trkpt>
      <trkpt lat="36.50894" lon="-6.28043">
        <ele>15.323801</ele>
        <time>2022-04-14T09:33:48.000Z</time>
      </trkpt>
      <trkpt lat="36.50921" lon="-6.28062">
        <ele>15.521281</ele>
        <time>2022-04-14T09:33:56.000Z</time>
      </trkpt>
      <trkpt lat="36.50928" lon="-6.28066">
        <ele>15.572022</ele>
        <time>2022-04-14T09:33:58.000Z</time>
      </trkpt>
      <trkpt lat="36.50945" lon="-6.28076">
        <ele>15.691325</ele>
        <time>2022-04-14T09:34:03.000Z</time>
      </trkpt>
      <trkpt lat="36.50958" lon="-6.28085">
        <ele>15.767311</ele>
        <time>2022-04-14T09:34:07.000Z</time>
      </trkpt>
      <trkpt lat="36.50969" lon="-6.28091">
        <ele>15.803703</ele>
        <time>2022-04-14T09:34:10.000Z</time>
      </trkpt>
      <trkpt lat="36.50979" lon="-6.28098">
        <ele>15.841483</ele>
        <time>2022-04-14T09:34:13.000Z</time>
      </trkpt>
      <trkpt lat="36.50999" lon="-6.28111">
        <ele>15.91538</ele>
        <time>2022-04-14T09:34:19.000Z</time>
      </trkpt>
      <trkpt lat="36.51006" lon="-6.28115">
        <ele>15.938875</ele>
        <time>2022-04-14T09:34:21.000Z</time>
      </trkpt>
      <trkpt lat="36.51022" lon="-6.28126">
        <ele>15.996193</ele>
        <time>2022-04-14T09:34:26.000Z</time>
      </trkpt>
      <trkpt lat="36.51025" lon="-6.28128">
        <ele>16.007423</ele>
        <time>2022-04-14T09:34:27.000Z</time>
      </trkpt>
      <trkpt lat="36.51028" lon="-6.2813">
        <ele>16.019302</ele>
        <time>2022-04-14T09:34:28.000Z</time>
      </trkpt>
      <trkpt lat="36.51043" lon="-6.28143">
        <ele>16.078086</ele>
        <time>2022-04-14T09:34:33.000Z</time>
      </trkpt>
      <trkpt lat="36.51056" lon="-6.28151">
        <ele>16.123745</ele>
        <time>2022-04-14T09:34:37.000Z</time>
      </trkpt>
      <trkpt lat="36.51071" lon="-6.2816">
        <ele>16.178026</ele>
        <time>2022-04-14T09:34:42.000Z</time>
      </trkpt>
      <trkpt lat="36.51077" lon="-6.28164">
        <ele>16.200942</ele>
        <time>2022-04-14T09:34:44.000Z</time>
      </trkpt>
      <trkpt lat="36.51103" lon="-6.28177">
        <ele>16.28966</ele>
        <time>2022-04-14T09:34:52.000Z</time>
      </trkpt>
      <trkpt lat="36.51127" lon="-6.28193">
        <ele>16.365068</ele>
        <time>2022-04-14T09:34:59.000Z</time>
      </trkpt>
      <trkpt lat="36.51137" lon="-6.28202">
        <ele>16.395975</ele>
        <time>2022-04-14T09:35:02.000Z</time>
      </trkpt>
      <trkpt lat="36.5114" lon="-6.28204">
        <ele>16.404591</ele>
        <time>2022-04-14T09:35:03.000Z</time>
      </trkpt>
      <trkpt lat="36.51152" lon="-6.28212">
        <ele>16.436709</ele>
        <time>2022-04-14T09:35:06.000Z</time>
      </trkpt>
      <trkpt lat="36.51161" lon="-6.28217">
        <ele>16.46333</ele>
        <time>2022-04-14T09:35:09.000Z</time>
      </trkpt>
      <trkpt lat="36.51164" lon="-6.2822">
        <ele>16.472573</ele>
        <time>2022-04-14T09:35:10.000Z</time>
      </trkpt>
      <trkpt lat="36.51174" lon="-6.28227">
        <ele>16.499898</ele>
        <time>2022-04-14T09:35:13.000Z</time>
      </trkpt>
      <trkpt lat="36.51196" lon="-6.2824">
        <ele>16.560092</ele>
        <time>2022-04-14T09:35:19.000Z</time>
      </trkpt>
      <trkpt lat="36.51207" lon="-6.28247">
        <ele>16.589685</ele>
        <time>2022-04-14T09:35:22.000Z</time>
      </trkpt>
      <trkpt lat="36.51225" lon="-6.28261">
        <ele>16.644094</ele>
        <time>2022-04-14T09:35:28.000Z</time>
      </trkpt>
      <trkpt lat="36.51239" lon="-6.28271">
        <ele>16.683185</ele>
        <time>2022-04-14T09:35:32.000Z</time>
      </trkpt>
      <trkpt lat="36.51249" lon="-6.28276">
        <ele>16.710477</ele>
        <time>2022-04-14T09:35:35.000Z</time>
      </trkpt>
      <trkpt lat="36.51252" lon="-6.28278">
        <ele>16.719335</ele>
        <time>2022-04-14T09:35:36.000Z</time>
      </trkpt>
      <trkpt lat="36.51259" lon="-6.28283">
        <ele>16.737735</ele>
        <time>2022-04-14T09:35:38.000Z</time>
      </trkpt>
      <trkpt lat="36.51262" lon="-6.28285">
        <ele>16.747091</ele>
        <time>2022-04-14T09:35:39.000Z</time>
      </trkpt>
      <trkpt lat="36.51269" lon="-6.2829">
        <ele>16.766362</ele>
        <time>2022-04-14T09:35:41.000Z</time>
      </trkpt>
      <trkpt lat="36.51276" lon="-6.28294">
        <ele>16.784276</ele>
        <time>2022-04-14T09:35:43.000Z</time>
      </trkpt>
      <trkpt lat="36.51282" lon="-6.28298">
        <ele>16.80065</ele>
        <time>2022-04-14T09:35:45.000Z</time>
      </trkpt>
      <trkpt lat="36.51289" lon="-6.28303">
        <ele>16.818634</ele>
        <time>2022-04-14T09:35:47.000Z</time>
      </trkpt>
      <trkpt lat="36.51293" lon="-6.28305">
        <ele>16.829078</ele>
        <time>2022-04-14T09:35:48.000Z</time>
      </trkpt>
      <trkpt lat="36.51299" lon="-6.28309">
        <ele>16.84437</ele>
        <time>2022-04-14T09:35:50.000Z</time>
      </trkpt>
      <trkpt lat="36.51309" lon="-6.28315">
        <ele>16.870422</ele>
        <time>2022-04-14T09:35:53.000Z</time>
      </trkpt>
      <trkpt lat="36.51318" lon="-6.28322">
        <ele>16.894807</ele>
        <time>2022-04-14T09:35:56.000Z</time>
      </trkpt>
      <trkpt lat="36.51342" lon="-6.28335">
        <ele>16.955189</ele>
        <time>2022-04-14T09:36:03.000Z</time>
      </trkpt>
      <trkpt lat="36.51377" lon="-6.28355">
        <ele>17.044417</ele>
        <time>2022-04-14T09:36:13.000Z</time>
      </trkpt>
      <trkpt lat="36.5141" lon="-6.28373">
        <ele>17.129696</ele>
        <time>2022-04-14T09:36:22.000Z</time>
      </trkpt>
      <trkpt lat="36.5144" lon="-6.28389">
        <ele>17.26681</ele>
        <time>2022-04-14T09:36:30.000Z</time>
      </trkpt>
      <trkpt lat="36.51444" lon="-6.28391">
        <ele>17.305562</ele>
        <time>2022-04-14T09:36:31.000Z</time>
      </trkpt>
      <trkpt lat="36.51466" lon="-6.28404">
        <ele>17.53626</ele>
        <time>2022-04-14T09:36:37.000Z</time>
      </trkpt>
      <trkpt lat="36.51489" lon="-6.28416">
        <ele>17.76839</ele>
        <time>2022-04-14T09:36:43.000Z</time>
      </trkpt>
      <trkpt lat="36.51496" lon="-6.28419">
        <ele>17.846506</ele>
        <time>2022-04-14T09:36:45.000Z</time>
      </trkpt>
      <trkpt lat="36.51514" lon="-6.2843">
        <ele>18.031308</ele>
        <time>2022-04-14T09:36:50.000Z</time>
      </trkpt>
      <trkpt lat="36.51538" lon="-6.28444">
        <ele>18.287586</ele>
        <time>2022-04-14T09:36:57.000Z</time>
      </trkpt>
      <trkpt lat="36.51548" lon="-6.28451">
        <ele>18.393615</ele>
        <time>2022-04-14T09:37:00.000Z</time>
      </trkpt>
      <trkpt lat="36.51563" lon="-6.28463">
        <ele>18.568396</ele>
        <time>2022-04-14T09:37:05.000Z</time>
      </trkpt>
      <trkpt lat="36.51566" lon="-6.28465">
        <ele>18.603187</ele>
        <time>2022-04-14T09:37:06.000Z</time>
      </trkpt>
      <trkpt lat="36.51572" lon="-6.28471">
        <ele>18.671308</ele>
        <time>2022-04-14T09:37:08.000Z</time>
      </trkpt>
      <trkpt lat="36.51598" lon="-6.28493">
        <ele>18.985755</ele>
        <time>2022-04-14T09:37:17.000Z</time>
      </trkpt>
      <trkpt lat="36.51616" lon="-6.28508">
        <ele>19.210456</ele>
        <time>2022-04-14T09:37:23.000Z</time>
      </trkpt>
      <trkpt lat="36.51619" lon="-6.28511">
        <ele>19.246639</ele>
        <time>2022-04-14T09:37:24.000Z</time>
      </trkpt>
      <trkpt lat="36.51621" lon="-6.28513">
        <ele>19.281091</ele>
        <time>2022-04-14T09:37:25.000Z</time>
      </trkpt>
      <trkpt lat="36.51627" lon="-6.28517">
        <ele>19.351662</ele>
        <time>2022-04-14T09:37:27.000Z</time>
      </trkpt>
      <trkpt lat="36.51638" lon="-6.28527">
        <ele>19.494417</ele>
        <time>2022-04-14T09:37:31.000Z</time>
      </trkpt>
      <trkpt lat="36.51641" lon="-6.28529">
        <ele>19.530122</ele>
        <time>2022-04-14T09:37:32.000Z</time>
      </trkpt>
      <trkpt lat="36.51646" lon="-6.28534">
        <ele>19.598815</ele>
        <time>2022-04-14T09:37:34.000Z</time>
      </trkpt>
      <trkpt lat="36.51649" lon="-6.28536">
        <ele>19.635879</ele>
        <time>2022-04-14T09:37:35.000Z</time>
      </trkpt>
      <trkpt lat="36.51655" lon="-6.28543">
        <ele>19.71915</ele>
        <time>2022-04-14T09:37:37.000Z</time>
      </trkpt>
      <trkpt lat="36.51661" lon="-6.28548">
        <ele>19.804163</ele>
        <time>2022-04-14T09:37:39.000Z</time>
      </trkpt>
      <trkpt lat="36.51679" lon="-6.28556">
        <ele>20.008862</ele>
        <time>2022-04-14T09:37:44.000Z</time>
      </trkpt>
      <trkpt lat="36.51712" lon="-6.28569">
        <ele>20.373427</ele>
        <time>2022-04-14T09:37:53.000Z</time>
      </trkpt>
      <trkpt lat="36.51716" lon="-6.2857">
        <ele>20.410813</ele>
        <time>2022-04-14T09:37:54.000Z</time>
      </trkpt>
      <trkpt lat="36.51718" lon="-6.28571">
        <ele>20.443337</ele>
        <time>2022-04-14T09:37:55.000Z</time>
      </trkpt>
      <trkpt lat="36.51725" lon="-6.28574">
        <ele>20.515533</ele>
        <time>2022-04-14T09:37:58.000Z</time>
      </trkpt>
      <trkpt lat="36.51739" lon="-6.28584">
        <ele>20.687924</ele>
        <time>2022-04-14T09:38:05.000Z</time>
      </trkpt>
      <trkpt lat="36.51746" lon="-6.28586">
        <ele>20.765194</ele>
        <time>2022-04-14T09:38:08.000Z</time>
      </trkpt>
      <trkpt lat="36.51757" lon="-6.28588">
        <ele>20.853862</ele>
        <time>2022-04-14T09:38:12.000Z</time>
      </trkpt>
      <trkpt lat="36.51782" lon="-6.28592">
        <ele>21.001573</ele>
        <time>2022-04-14T09:38:20.000Z</time>
      </trkpt>
      <trkpt lat="36.51806" lon="-6.28595">
        <ele>21.145944</ele>
        <time>2022-04-14T09:38:28.000Z</time>
      </trkpt>
      <trkpt lat="36.51833" lon="-6.286">
        <ele>21.31169</ele>
        <time>2022-04-14T09:38:36.000Z</time>
      </trkpt>
      <trkpt lat="36.51873" lon="-6.28607">
        <ele>21.551664</ele>
        <time>2022-04-14T09:38:47.000Z</time>
      </trkpt>
      <trkpt lat="36.5188" lon="-6.28608">
        <ele>21.59391</ele>
        <time>2022-04-14T09:38:49.000Z</time>
      </trkpt>
      <trkpt lat="36.51891" lon="-6.2861">
        <ele>21.656692</ele>
        <time>2022-04-14T09:38:52.000Z</time>
      </trkpt>
      <trkpt lat="36.51904" lon="-6.28614">
        <ele>21.736431</ele>
        <time>2022-04-14T09:38:56.000Z</time>
      </trkpt>
      <trkpt lat="36.51924" lon="-6.2862">
        <ele>21.859021</ele>
        <time>2022-04-14T09:39:02.000Z</time>
      </trkpt>
      <trkpt lat="36.51941" lon="-6.28623">
        <ele>21.939092</ele>
        <time>2022-04-14T09:39:07.000Z</time>
      </trkpt>
      <trkpt lat="36.51959" lon="-6.28626">
        <ele>22.014252</ele>
        <time>2022-04-14T09:39:12.000Z</time>
      </trkpt>
      <trkpt lat="36.51979" lon="-6.28631">
        <ele>22.095719</ele>
        <time>2022-04-14T09:39:17.000Z</time>
      </trkpt>
      <trkpt lat="36.52004" lon="-6.28632">
        <ele>22.199062</ele>
        <time>2022-04-14T09:39:24.000Z</time>
      </trkpt>
      <trkpt lat="36.52019" lon="-6.28633">
        <ele>22.260839</ele>
        <time>2022-04-14T09:39:28.000Z</time>
      </trkpt>
      <trkpt lat="36.52029" lon="-6.28633">
        <ele>22.304876</ele>
        <time>2022-04-14T09:39:31.000Z</time>
      </trkpt>
      <trkpt lat="36.52054" lon="-6.28639">
        <ele>22.408062</ele>
        <time>2022-04-14T09:39:38.000Z</time>
      </trkpt>
      <trkpt lat="36.52075" lon="-6.28647">
        <ele>22.499195</ele>
        <time>2022-04-14T09:39:44.000Z</time>
      </trkpt>
      <trkpt lat="36.5209" lon="-6.28653">
        <ele>22.561947</ele>
        <time>2022-04-14T09:39:49.000Z</time>
      </trkpt>
      <trkpt lat="36.52092" lon="-6.28655">
        <ele>22.571446</ele>
        <time>2022-04-14T09:39:50.000Z</time>
      </trkpt>
      <trkpt lat="36.52095" lon="-6.28667">
        <ele>22.612556</ele>
        <time>2022-04-14T09:39:55.000Z</time>
      </trkpt>
      <trkpt lat="36.52099" lon="-6.28673">
        <ele>22.6236</ele>
        <time>2022-04-14T09:39:59.000Z</time>
      </trkpt>
      <trkpt lat="36.52099" lon="-6.28673">
        <ele>22.623356</ele>
        <time>2022-04-14T09:40:00.000Z</time>
      </trkpt>
      <trkpt lat="36.521" lon="-6.28674">
        <ele>22.62283</ele>
        <time>2022-04-14T09:40:05.000Z</time>
      </trkpt>
      <trkpt lat="36.521" lon="-6.28674">
        <ele>22.62244</ele>
        <time>2022-04-14T09:40:12.000Z</time>
      </trkpt>
      <trkpt lat="36.521" lon="-6.28674">
        <ele>22.622385</ele>
        <time>2022-04-14T09:40:32.000Z</time>
      </trkpt>
      <trkpt lat="36.52098" lon="-6.28671">
        <ele>22.620713</ele>
        <time>2022-04-14T09:40:57.000Z</time>
      </trkpt>
      <trkpt lat="36.52098" lon="-6.28671">
        <ele>22.620401</ele>
        <time>2022-04-14T09:41:16.000Z</time>
      </trkpt>
      <trkpt lat="36.52104" lon="-6.28672">
        <ele>22.617145</ele>
        <time>2022-04-14T09:41:20.000Z</time>
      </trkpt>
      <trkpt lat="36.52107" lon="-6.28674">
        <ele>22.615231</ele>
        <time>2022-04-14T09:41:22.000Z</time>
      </trkpt>
      <trkpt lat="36.52108" lon="-6.28675">
        <ele>22.614707</ele>
        <time>2022-04-14T09:41:24.000Z</time>
      </trkpt>
      <trkpt lat="36.52108" lon="-6.28676">
        <ele>22.614281</ele>
        <time>2022-04-14T09:41:34.000Z</time>
      </trkpt>
      <trkpt lat="36.52108" lon="-6.28676">
        <ele>22.614226</ele>
        <time>2022-04-14T09:41:35.000Z</time>
      </trkpt>
      <trkpt lat="36.52108" lon="-6.28676">
        <ele>22.614226</ele>
        <time>2022-04-14T09:41:44.000Z</time>
      </trkpt>
      <trkpt lat="36.52109" lon="-6.28676">
        <ele>22.613967</ele>
        <time>2022-04-14T09:41:55.000Z</time>
      </trkpt>
      <trkpt lat="36.52109" lon="-6.28677">
        <ele>22.613386</ele>
        <time>2022-04-14T09:42:15.000Z</time>
      </trkpt>
      <trkpt lat="36.52107" lon="-6.28676">
        <ele>22.612345</ele>
        <time>2022-04-14T09:42:19.000Z</time>
      </trkpt>
      <trkpt lat="36.52107" lon="-6.28676">
        <ele>22.612345</ele>
        <time>2022-04-14T09:42:22.000Z</time>
      </trkpt>
      <trkpt lat="36.52107" lon="-6.28676">
        <ele>22.612345</ele>
        <time>2022-04-14T09:42:26.000Z</time>
      </trkpt>
      <trkpt lat="36.52104" lon="-6.28674">
        <ele>22.610552</ele>
        <time>2022-04-14T09:42:36.000Z</time>
      </trkpt>
      <trkpt lat="36.52104" lon="-6.28673">
        <ele>22.610238</ele>
        <time>2022-04-14T09:42:37.000Z</time>
      </trkpt>
      <trkpt lat="36.52103" lon="-6.28672">
        <ele>22.609891</ele>
        <time>2022-04-14T09:42:42.000Z</time>
      </trkpt>
      <trkpt lat="36.52104" lon="-6.28674">
        <ele>22.609094</ele>
        <time>2022-04-14T09:42:45.000Z</time>
      </trkpt>
      <trkpt lat="36.52105" lon="-6.28676">
        <ele>22.608217</ele>
        <time>2022-04-14T09:42:48.000Z</time>
      </trkpt>
      <trkpt lat="36.52105" lon="-6.28676">
        <ele>22.607928</ele>
        <time>2022-04-14T09:42:51.000Z</time>
      </trkpt>
      <trkpt lat="36.52106" lon="-6.28676">
        <ele>22.607501</ele>
        <time>2022-04-14T09:42:54.000Z</time>
      </trkpt>
      <trkpt lat="36.52107" lon="-6.28677">
        <ele>22.606803</ele>
        <time>2022-04-14T09:43:00.000Z</time>
      </trkpt>
      <trkpt lat="36.52107" lon="-6.28677">
        <ele>22.606683</ele>
        <time>2022-04-14T09:43:21.000Z</time>
      </trkpt>
      <trkpt lat="36.52107" lon="-6.28677">
        <ele>22.606639</ele>
        <time>2022-04-14T09:43:26.000Z</time>
      </trkpt>
      <trkpt lat="36.52106" lon="-6.28677">
        <ele>22.606295</ele>
        <time>2022-04-14T09:43:31.000Z</time>
      </trkpt>
      <trkpt lat="36.52106" lon="-6.28677">
        <ele>22.60624</ele>
        <time>2022-04-14T09:43:32.000Z</time>
      </trkpt>
      <trkpt lat="36.52105" lon="-6.28677">
        <ele>22.605797</ele>
        <time>2022-04-14T09:43:45.000Z</time>
      </trkpt>
      <trkpt lat="36.52105" lon="-6.28677">
        <ele>22.60535</ele>
        <time>2022-04-14T09:43:59.000Z</time>
      </trkpt>
      <trkpt lat="36.52104" lon="-6.28677">
        <ele>22.605128</ele>
        <time>2022-04-14T09:44:04.000Z</time>
      </trkpt>
      <trkpt lat="36.52105" lon="-6.28677">
        <ele>22.604821</ele>
        <time>2022-04-14T09:44:07.000Z</time>
      </trkpt>
      <trkpt lat="36.52104" lon="-6.28676">
        <ele>22.604186</ele>
        <time>2022-04-14T09:44:09.000Z</time>
      </trkpt>
      <trkpt lat="36.52103" lon="-6.28676">
        <ele>22.603776</ele>
        <time>2022-04-14T09:44:12.000Z</time>
      </trkpt>
      <trkpt lat="36.52103" lon="-6.28676">
        <ele>22.603598</ele>
        <time>2022-04-14T09:44:13.000Z</time>
      </trkpt>
      <trkpt lat="36.52103" lon="-6.28676">
        <ele>22.603598</ele>
        <time>2022-04-14T09:44:19.000Z</time>
      </trkpt>
      <trkpt lat="36.52103" lon="-6.28675">
        <ele>22.602936</ele>
        <time>2022-04-14T09:44:39.000Z</time>
      </trkpt>
      <trkpt lat="36.52102" lon="-6.28674">
        <ele>22.602576</ele>
        <time>2022-04-14T09:44:54.000Z</time>
      </trkpt>
      <trkpt lat="36.52102" lon="-6.28674">
        <ele>22.602388</ele>
        <time>2022-04-14T09:44:59.000Z</time>
      </trkpt>
      <trkpt lat="36.52102" lon="-6.28674">
        <ele>22.602388</ele>
        <time>2022-04-14T09:45:03.000Z</time>
      </trkpt>
      <trkpt lat="36.52102" lon="-6.28675">
        <ele>22.602115</ele>
        <time>2022-04-14T09:45:14.000Z</time>
      </trkpt>
      <trkpt lat="36.52102" lon="-6.28675">
        <ele>22.602071</ele>
        <time>2022-04-14T09:45:17.000Z</time>
      </trkpt>
      <trkpt lat="36.52102" lon="-6.28675">
        <ele>22.602015</ele>
        <time>2022-04-14T09:45:19.000Z</time>
      </trkpt>
      <trkpt lat="36.52102" lon="-6.28675">
        <ele>22.601926</ele>
        <time>2022-04-14T09:45:27.000Z</time>
      </trkpt>
      <trkpt lat="36.52102" lon="-6.28675">
        <ele>22.601926</ele>
        <time>2022-04-14T09:45:31.000Z</time>
      </trkpt>
      <trkpt lat="36.52102" lon="-6.28675">
        <ele>22.601882</ele>
        <time>2022-04-14T09:45:33.000Z</time>
      </trkpt>
      <trkpt lat="36.52103" lon="-6.28675">
        <ele>22.60134</ele>
        <time>2022-04-14T09:45:42.000Z</time>
      </trkpt>
      <trkpt lat="36.52103" lon="-6.2867">
        <ele>22.599266</ele>
        <time>2022-04-14T09:45:45.000Z</time>
      </trkpt>
      <trkpt lat="36.52104" lon="-6.28668">
        <ele>22.598256</ele>
        <time>2022-04-14T09:45:46.000Z</time>
      </trkpt>
      <trkpt lat="36.52111" lon="-6.28664">
        <ele>22.594151</ele>
        <time>2022-04-14T09:45:49.000Z</time>
      </trkpt>
      <trkpt lat="36.52114" lon="-6.28664">
        <ele>22.592323</ele>
        <time>2022-04-14T09:45:50.000Z</time>
      </trkpt>
      <trkpt lat="36.52125" lon="-6.28669">
        <ele>22.586107</ele>
        <time>2022-04-14T09:45:54.000Z</time>
      </trkpt>
      <trkpt lat="36.5213" lon="-6.28671">
        <ele>22.582947</ele>
        <time>2022-04-14T09:45:56.000Z</time>
      </trkpt>
      <trkpt lat="36.52141" lon="-6.28677">
        <ele>22.576542</ele>
        <time>2022-04-14T09:46:00.000Z</time>
      </trkpt>
      <trkpt lat="36.5215" lon="-6.28681">
        <ele>22.57116</ele>
        <time>2022-04-14T09:46:03.000Z</time>
      </trkpt>
      <trkpt lat="36.52175" lon="-6.28693">
        <ele>22.556052</ele>
        <time>2022-04-14T09:46:11.000Z</time>
      </trkpt>
      <trkpt lat="36.52204" lon="-6.28709">
        <ele>22.538644</ele>
        <time>2022-04-14T09:46:20.000Z</time>
      </trkpt>
      <trkpt lat="36.52227" lon="-6.28722">
        <ele>22.544286</ele>
        <time>2022-04-14T09:46:27.000Z</time>
      </trkpt>
      <trkpt lat="36.52248" lon="-6.28734">
        <ele>22.788942</ele>
        <time>2022-04-14T09:46:34.000Z</time>
      </trkpt>
      <trkpt lat="36.52251" lon="-6.28736">
        <ele>22.825885</ele>
        <time>2022-04-14T09:46:35.000Z</time>
      </trkpt>
      <trkpt lat="36.52257" lon="-6.2874">
        <ele>22.898055</ele>
        <time>2022-04-14T09:46:37.000Z</time>
      </trkpt>
      <trkpt lat="36.52269" lon="-6.28748">
        <ele>23.041236</ele>
        <time>2022-04-14T09:46:41.000Z</time>
      </trkpt>
      <trkpt lat="36.5228" lon="-6.28752">
        <ele>23.154701</ele>
        <time>2022-04-14T09:46:44.000Z</time>
      </trkpt>
      <trkpt lat="36.52289" lon="-6.28759">
        <ele>23.265132</ele>
        <time>2022-04-14T09:46:47.000Z</time>
      </trkpt>
      <trkpt lat="36.523" lon="-6.28767">
        <ele>23.401626</ele>
        <time>2022-04-14T09:46:51.000Z</time>
      </trkpt>
      <trkpt lat="36.52309" lon="-6.28773">
        <ele>23.50917</ele>
        <time>2022-04-14T09:46:54.000Z</time>
      </trkpt>
      <trkpt lat="36.52313" lon="-6.2878">
        <ele>23.573509</ele>
        <time>2022-04-14T09:46:56.000Z</time>
      </trkpt>
      <trkpt lat="36.52315" lon="-6.28795">
        <ele>23.706088</ele>
        <time>2022-04-14T09:47:01.000Z</time>
      </trkpt>
      <trkpt lat="36.52316" lon="-6.28802">
        <ele>23.766082</ele>
        <time>2022-04-14T09:47:03.000Z</time>
      </trkpt>
      <trkpt lat="36.52317" lon="-6.28808">
        <ele>23.819487</ele>
        <time>2022-04-14T09:47:05.000Z</time>
      </trkpt>
      <trkpt lat="36.5232" lon="-6.28813">
        <ele>23.87006</ele>
        <time>2022-04-14T09:47:07.000Z</time>
      </trkpt>
      <trkpt lat="36.52323" lon="-6.28821">
        <ele>23.94447</ele>
        <time>2022-04-14T09:47:10.000Z</time>
      </trkpt>
      <trkpt lat="36.52326" lon="-6.28829">
        <ele>24.017095</ele>
        <time>2022-04-14T09:47:13.000Z</time>
      </trkpt>
      <trkpt lat="36.52324" lon="-6.28841">
        <ele>24.119586</ele>
        <time>2022-04-14T09:47:18.000Z</time>
      </trkpt>
      <trkpt lat="36.52322" lon="-6.28846">
        <ele>24.168574</ele>
        <time>2022-04-14T09:47:22.000Z</time>
      </trkpt>
      <trkpt lat="36.52321" lon="-6.28846">
        <ele>24.175075</ele>
        <time>2022-04-14T09:47:29.000Z</time>
      </trkpt>
      <trkpt lat="36.52322" lon="-6.28845">
        <ele>24.185391</ele>
        <time>2022-04-14T09:47:32.000Z</time>
      </trkpt>
      <trkpt lat="36.52322" lon="-6.28845">
        <ele>24.185391</ele>
        <time>2022-04-14T09:47:33.000Z</time>
      </trkpt>
      <trkpt lat="36.52322" lon="-6.28845">
        <ele>24.192766</ele>
        <time>2022-04-14T09:47:36.000Z</time>
      </trkpt>
      <trkpt lat="36.52322" lon="-6.28845">
        <ele>24.192766</ele>
        <time>2022-04-14T09:47:38.000Z</time>
      </trkpt>
      <trkpt lat="36.52322" lon="-6.28845">
        <ele>24.192766</ele>
        <time>2022-04-14T09:47:41.000Z</time>
      </trkpt>
      <trkpt lat="36.52322" lon="-6.28845">
        <ele>24.192766</ele>
        <time>2022-04-14T09:47:43.000Z</time>
      </trkpt>
      <trkpt lat="36.52322" lon="-6.28845">
        <ele>24.193813</ele>
        <time>2022-04-14T09:47:50.000Z</time>
      </trkpt>
      <trkpt lat="36.52322" lon="-6.28845">
        <ele>24.197337</ele>
        <time>2022-04-14T09:47:53.000Z</time>
      </trkpt>
      <trkpt lat="36.52322" lon="-6.28845">
        <ele>24.197337</ele>
        <time>2022-04-14T09:47:54.000Z</time>
      </trkpt>
      <trkpt lat="36.52322" lon="-6.28844">
        <ele>24.200068</ele>
        <time>2022-04-14T09:47:57.000Z</time>
      </trkpt>
      <trkpt lat="36.52321" lon="-6.28842">
        <ele>24.218474</ele>
        <time>2022-04-14T09:48:05.000Z</time>
      </trkpt>
      <trkpt lat="36.52321" lon="-6.28837">
        <ele>24.260739</ele>
        <time>2022-04-14T09:48:07.000Z</time>
      </trkpt>
      <trkpt lat="36.52328" lon="-6.28829">
        <ele>24.36493</ele>
        <time>2022-04-14T09:48:11.000Z</time>
      </trkpt>
      <trkpt lat="36.52332" lon="-6.2882">
        <ele>24.443284</ele>
        <time>2022-04-14T09:48:14.000Z</time>
      </trkpt>
      <trkpt lat="36.52334" lon="-6.28815">
        <ele>24.481856</ele>
        <time>2022-04-14T09:48:16.000Z</time>
      </trkpt>
      <trkpt lat="36.52338" lon="-6.28808">
        <ele>24.538296</ele>
        <time>2022-04-14T09:48:20.000Z</time>
      </trkpt>
      <trkpt lat="36.52341" lon="-6.28807">
        <ele>24.560868</ele>
        <time>2022-04-14T09:48:22.000Z</time>
      </trkpt>
      <trkpt lat="36.52347" lon="-6.28809">
        <ele>24.612496</ele>
        <time>2022-04-14T09:48:25.000Z</time>
      </trkpt>
      <trkpt lat="36.52361" lon="-6.2882">
        <ele>24.752867</ele>
        <time>2022-04-14T09:48:30.000Z</time>
      </trkpt>
      <trkpt lat="36.52374" lon="-6.28834">
        <ele>24.890816</ele>
        <time>2022-04-14T09:48:35.000Z</time>
      </trkpt>
      <trkpt lat="36.52377" lon="-6.28837">
        <ele>24.920214</ele>
        <time>2022-04-14T09:48:36.000Z</time>
      </trkpt>
      <trkpt lat="36.52397" lon="-6.28856">
        <ele>25.128565</ele>
        <time>2022-04-14T09:48:43.000Z</time>
      </trkpt>
      <trkpt lat="36.52406" lon="-6.28865">
        <ele>25.21991</ele>
        <time>2022-04-14T09:48:46.000Z</time>
      </trkpt>
      <trkpt lat="36.5242" lon="-6.2888">
        <ele>25.373431</ele>
        <time>2022-04-14T09:48:51.000Z</time>
      </trkpt>
      <trkpt lat="36.52439" lon="-6.28897">
        <ele>25.563089</ele>
        <time>2022-04-14T09:48:57.000Z</time>
      </trkpt>
      <trkpt lat="36.52442" lon="-6.289">
        <ele>25.592713</ele>
        <time>2022-04-14T09:48:58.000Z</time>
      </trkpt>
      <trkpt lat="36.52458" lon="-6.28915">
        <ele>25.75826</ele>
        <time>2022-04-14T09:49:03.000Z</time>
      </trkpt>
      <trkpt lat="36.52487" lon="-6.28945">
        <ele>26.001513</ele>
        <time>2022-04-14T09:49:14.000Z</time>
      </trkpt>
      <trkpt lat="36.5249" lon="-6.28947">
        <ele>26.020473</ele>
        <time>2022-04-14T09:49:15.000Z</time>
      </trkpt>
      <trkpt lat="36.52506" lon="-6.28964">
        <ele>26.13007</ele>
        <time>2022-04-14T09:49:21.000Z</time>
      </trkpt>
      <trkpt lat="36.52515" lon="-6.28973">
        <ele>26.186344</ele>
        <time>2022-04-14T09:49:24.000Z</time>
      </trkpt>
      <trkpt lat="36.5252" lon="-6.28978">
        <ele>26.221801</ele>
        <time>2022-04-14T09:49:26.000Z</time>
      </trkpt>
      <trkpt lat="36.52544" lon="-6.28999">
        <ele>26.378693</ele>
        <time>2022-04-14T09:49:34.000Z</time>
      </trkpt>
      <trkpt lat="36.52569" lon="-6.29015">
        <ele>26.521567</ele>
        <time>2022-04-14T09:49:41.000Z</time>
      </trkpt>
      <trkpt lat="36.52572" lon="-6.29018">
        <ele>26.541199</ele>
        <time>2022-04-14T09:49:42.000Z</time>
      </trkpt>
      <trkpt lat="36.52582" lon="-6.29031">
        <ele>26.616069</ele>
        <time>2022-04-14T09:49:46.000Z</time>
      </trkpt>
      <trkpt lat="36.52585" lon="-6.29038">
        <ele>26.652225</ele>
        <time>2022-04-14T09:49:48.000Z</time>
      </trkpt>
      <trkpt lat="36.52594" lon="-6.29063">
        <ele>26.767085</ele>
        <time>2022-04-14T09:49:54.000Z</time>
      </trkpt>
      <trkpt lat="36.52608" lon="-6.29093">
        <ele>26.658453</ele>
        <time>2022-04-14T09:50:02.000Z</time>
      </trkpt>
      <trkpt lat="36.52625" lon="-6.29126">
        <ele>26.378838</ele>
        <time>2022-04-14T09:50:10.000Z</time>
      </trkpt>
      <trkpt lat="36.52637" lon="-6.29152">
        <ele>26.153563</ele>
        <time>2022-04-14T09:50:16.000Z</time>
      </trkpt>
      <trkpt lat="36.52645" lon="-6.29168">
        <ele>26.014671</ele>
        <time>2022-04-14T09:50:20.000Z</time>
      </trkpt>
      <trkpt lat="36.52647" lon="-6.29172">
        <ele>25.98308</ele>
        <time>2022-04-14T09:50:21.000Z</time>
      </trkpt>
      <trkpt lat="36.52649" lon="-6.2918">
        <ele>25.920541</ele>
        <time>2022-04-14T09:50:23.000Z</time>
      </trkpt>
      <trkpt lat="36.52652" lon="-6.29189">
        <ele>25.844253</ele>
        <time>2022-04-14T09:50:26.000Z</time>
      </trkpt>
      <trkpt lat="36.52653" lon="-6.29196">
        <ele>25.794957</ele>
        <time>2022-04-14T09:50:28.000Z</time>
      </trkpt>
      <trkpt lat="36.52652" lon="-6.29206">
        <ele>25.72196</ele>
        <time>2022-04-14T09:50:30.000Z</time>
      </trkpt>
      <trkpt lat="36.52653" lon="-6.29219">
        <ele>25.624969</ele>
        <time>2022-04-14T09:50:32.000Z</time>
      </trkpt>
      <trkpt lat="36.52655" lon="-6.2923">
        <ele>25.539563</ele>
        <time>2022-04-14T09:50:34.000Z</time>
      </trkpt>
      <trkpt lat="36.52657" lon="-6.29234">
        <ele>25.507318</ele>
        <time>2022-04-14T09:50:35.000Z</time>
      </trkpt>
      <trkpt lat="36.52659" lon="-6.29238">
        <ele>25.46598</ele>
        <time>2022-04-14T09:50:36.000Z</time>
      </trkpt>
      <trkpt lat="36.52673" lon="-6.29255">
        <ele>25.296743</ele>
        <time>2022-04-14T09:50:40.000Z</time>
      </trkpt>
      <trkpt lat="36.52683" lon="-6.29266">
        <ele>25.164309</ele>
        <time>2022-04-14T09:50:43.000Z</time>
      </trkpt>
      <trkpt lat="36.52693" lon="-6.29278">
        <ele>24.891116</ele>
        <time>2022-04-14T09:50:46.000Z</time>
      </trkpt>
      <trkpt lat="36.52696" lon="-6.29281">
        <ele>24.81402</ele>
        <time>2022-04-14T09:50:47.000Z</time>
      </trkpt>
      <trkpt lat="36.5271" lon="-6.29289">
        <ele>24.504502</ele>
        <time>2022-04-14T09:50:51.000Z</time>
      </trkpt>
      <trkpt lat="36.52738" lon="-6.29324">
        <ele>23.733789</ele>
        <time>2022-04-14T09:50:59.000Z</time>
      </trkpt>
      <trkpt lat="36.52741" lon="-6.29327">
        <ele>23.644774</ele>
        <time>2022-04-14T09:51:00.000Z</time>
      </trkpt>
      <trkpt lat="36.52748" lon="-6.29336">
        <ele>23.462598</ele>
        <time>2022-04-14T09:51:02.000Z</time>
      </trkpt>
      <trkpt lat="36.52777" lon="-6.29374">
        <ele>22.621709</ele>
        <time>2022-04-14T09:51:11.000Z</time>
      </trkpt>
      <trkpt lat="36.5278" lon="-6.29378">
        <ele>22.530355</ele>
        <time>2022-04-14T09:51:12.000Z</time>
      </trkpt>
      <trkpt lat="36.52792" lon="-6.29405">
        <ele>22.050128</ele>
        <time>2022-04-14T09:51:17.000Z</time>
      </trkpt>
      <trkpt lat="36.52793" lon="-6.29412">
        <ele>21.938453</ele>
        <time>2022-04-14T09:51:18.000Z</time>
      </trkpt>
      <trkpt lat="36.52796" lon="-6.29424">
        <ele>21.729362</ele>
        <time>2022-04-14T09:51:20.000Z</time>
      </trkpt>
      <trkpt lat="36.52804" lon="-6.29448">
        <ele>21.422776</ele>
        <time>2022-04-14T09:51:24.000Z</time>
      </trkpt>
      <trkpt lat="36.52815" lon="-6.29481">
        <ele>21.036719</ele>
        <time>2022-04-14T09:51:30.000Z</time>
      </trkpt>
      <trkpt lat="36.52825" lon="-6.29505">
        <ele>20.756294</ele>
        <time>2022-04-14T09:51:36.000Z</time>
      </trkpt>
      <trkpt lat="36.52834" lon="-6.2953">
        <ele>20.462018</ele>
        <time>2022-04-14T09:51:43.000Z</time>
      </trkpt>
      <trkpt lat="36.52837" lon="-6.29538">
        <ele>20.367347</ele>
        <time>2022-04-14T09:51:45.000Z</time>
      </trkpt>
      <trkpt lat="36.52846" lon="-6.29563">
        <ele>20.070005</ele>
        <time>2022-04-14T09:51:52.000Z</time>
      </trkpt>
      <trkpt lat="36.52858" lon="-6.29595">
        <ele>19.698552</ele>
        <time>2022-04-14T09:51:59.000Z</time>
      </trkpt>
      <trkpt lat="36.52869" lon="-6.29625">
        <ele>19.346079</ele>
        <time>2022-04-14T09:52:05.000Z</time>
      </trkpt>
      <trkpt lat="36.52875" lon="-6.29641">
        <ele>19.189792</ele>
        <time>2022-04-14T09:52:08.000Z</time>
      </trkpt>
      <trkpt lat="36.52888" lon="-6.29677">
        <ele>18.917195</ele>
        <time>2022-04-14T09:52:15.000Z</time>
      </trkpt>
      <trkpt lat="36.5289" lon="-6.29683">
        <ele>18.879173</ele>
        <time>2022-04-14T09:52:16.000Z</time>
      </trkpt>
      <trkpt lat="36.52892" lon="-6.29694">
        <ele>18.800285</ele>
        <time>2022-04-14T09:52:18.000Z</time>
      </trkpt>
      <trkpt lat="36.52893" lon="-6.29717">
        <ele>18.646785</ele>
        <time>2022-04-14T09:52:22.000Z</time>
      </trkpt>
      <trkpt lat="36.52893" lon="-6.2973">
        <ele>18.560347</ele>
        <time>2022-04-14T09:52:24.000Z</time>
      </trkpt>
      <trkpt lat="36.52894" lon="-6.29741">
        <ele>18.486707</ele>
        <time>2022-04-14T09:52:26.000Z</time>
      </trkpt>
      <trkpt lat="36.52894" lon="-6.2977">
        <ele>18.287027</ele>
        <time>2022-04-14T09:52:31.000Z</time>
      </trkpt>
      <trkpt lat="36.52889" lon="-6.29779">
        <ele>18.215288</ele>
        <time>2022-04-14T09:52:33.000Z</time>
      </trkpt>
      <trkpt lat="36.52886" lon="-6.29783">
        <ele>18.181378</ele>
        <time>2022-04-14T09:52:34.000Z</time>
      </trkpt>
      <trkpt lat="36.52876" lon="-6.29802">
        <ele>18.026368</ele>
        <time>2022-04-14T09:52:39.000Z</time>
      </trkpt>
      <trkpt lat="36.52874" lon="-6.29812">
        <ele>17.954429</ele>
        <time>2022-04-14T09:52:41.000Z</time>
      </trkpt>
      <trkpt lat="36.52874" lon="-6.29824">
        <ele>17.877532</ele>
        <time>2022-04-14T09:52:43.000Z</time>
      </trkpt>
      <trkpt lat="36.52873" lon="-6.29831">
        <ele>17.83013</ele>
        <time>2022-04-14T09:52:44.000Z</time>
      </trkpt>
      <trkpt lat="36.52868" lon="-6.29872">
        <ele>17.720248</ele>
        <time>2022-04-14T09:52:52.000Z</time>
      </trkpt>
      <trkpt lat="36.52864" lon="-6.29912">
        <ele>17.706274</ele>
        <time>2022-04-14T09:53:00.000Z</time>
      </trkpt>
      <trkpt lat="36.52859" lon="-6.29953">
        <ele>17.691857</ele>
        <time>2022-04-14T09:53:08.000Z</time>
      </trkpt>
      <trkpt lat="36.52857" lon="-6.29958">
        <ele>17.689963</ele>
        <time>2022-04-14T09:53:09.000Z</time>
      </trkpt>
      <trkpt lat="36.52854" lon="-6.29968">
        <ele>17.686267</ele>
        <time>2022-04-14T09:53:11.000Z</time>
      </trkpt>
      <trkpt lat="36.52853" lon="-6.29979">
        <ele>17.682565</ele>
        <time>2022-04-14T09:53:13.000Z</time>
      </trkpt>
      <trkpt lat="36.52848" lon="-6.30019">
        <ele>17.668209</ele>
        <time>2022-04-14T09:53:21.000Z</time>
      </trkpt>
      <trkpt lat="36.52835" lon="-6.30068">
        <ele>17.644641</ele>
        <time>2022-04-14T09:53:31.000Z</time>
      </trkpt>
      <trkpt lat="36.52822" lon="-6.30094">
        <ele>17.584391</ele>
        <time>2022-04-14T09:53:38.000Z</time>
      </trkpt>
      <trkpt lat="36.52814" lon="-6.30114">
        <ele>17.542329</ele>
        <time>2022-04-14T09:53:44.000Z</time>
      </trkpt>
      <trkpt lat="36.52805" lon="-6.30133">
        <ele>17.500805</ele>
        <time>2022-04-14T09:53:50.000Z</time>
      </trkpt>
      <trkpt lat="36.52788" lon="-6.30152">
        <ele>17.445658</ele>
        <time>2022-04-14T09:53:57.000Z</time>
      </trkpt>
      <trkpt lat="36.52786" lon="-6.30154">
        <ele>17.438594</ele>
        <time>2022-04-14T09:53:58.000Z</time>
      </trkpt>
      <trkpt lat="36.52779" lon="-6.30176">
        <ele>17.394672</ele>
        <time>2022-04-14T09:54:04.000Z</time>
      </trkpt>
      <trkpt lat="36.52773" lon="-6.30202">
        <ele>17.341834</ele>
        <time>2022-04-14T09:54:11.000Z</time>
      </trkpt>
      <trkpt lat="36.52771" lon="-6.30209">
        <ele>17.327396</ele>
        <time>2022-04-14T09:54:13.000Z</time>
      </trkpt>
      <trkpt lat="36.52771" lon="-6.30222">
        <ele>17.303242</ele>
        <time>2022-04-14T09:54:17.000Z</time>
      </trkpt>
      <trkpt lat="36.52774" lon="-6.30224">
        <ele>17.295143</ele>
        <time>2022-04-14T09:54:18.000Z</time>
      </trkpt>
      <trkpt lat="36.52787" lon="-6.30236">
        <ele>17.25661</ele>
        <time>2022-04-14T09:54:23.000Z</time>
      </trkpt>
      <trkpt lat="36.52789" lon="-6.30239">
        <ele>17.247646</ele>
        <time>2022-04-14T09:54:24.000Z</time>
      </trkpt>
      <trkpt lat="36.52792" lon="-6.30247">
        <ele>17.231178</ele>
        <time>2022-04-14T09:54:26.000Z</time>
      </trkpt>
      <trkpt lat="36.52792" lon="-6.30257">
        <ele>17.188908</ele>
        <time>2022-04-14T09:54:28.000Z</time>
      </trkpt>
      <trkpt lat="36.52792" lon="-6.30307">
        <ele>16.860448</ele>
        <time>2022-04-14T09:54:38.000Z</time>
      </trkpt>
      <trkpt lat="36.52791" lon="-6.3033">
        <ele>16.710134</ele>
        <time>2022-04-14T09:54:42.000Z</time>
      </trkpt>
      <trkpt lat="36.52792" lon="-6.30341">
        <ele>16.635111</ele>
        <time>2022-04-14T09:54:44.000Z</time>
      </trkpt>
      <trkpt lat="36.52792" lon="-6.30347">
        <ele>16.599624</ele>
        <time>2022-04-14T09:54:45.000Z</time>
      </trkpt>
      <trkpt lat="36.52792" lon="-6.30378">
        <ele>16.393106</ele>
        <time>2022-04-14T09:54:52.000Z</time>
      </trkpt>
      <trkpt lat="36.52792" lon="-6.30416">
        <ele>16.141353</ele>
        <time>2022-04-14T09:55:00.000Z</time>
      </trkpt>
      <trkpt lat="36.52793" lon="-6.30445">
        <ele>15.954391</ele>
        <time>2022-04-14T09:55:06.000Z</time>
      </trkpt>
      <trkpt lat="36.52798" lon="-6.30461">
        <ele>15.840908</ele>
        <time>2022-04-14T09:55:10.000Z</time>
      </trkpt>
      <trkpt lat="36.52806" lon="-6.30485">
        <ele>15.641866</ele>
        <time>2022-04-14T09:55:16.000Z</time>
      </trkpt>
      <trkpt lat="36.52816" lon="-6.30507">
        <ele>15.425971</ele>
        <time>2022-04-14T09:55:22.000Z</time>
      </trkpt>
      <trkpt lat="36.52817" lon="-6.3051">
        <ele>15.394979</ele>
        <time>2022-04-14T09:55:23.000Z</time>
      </trkpt>
      <trkpt lat="36.52818" lon="-6.30528">
        <ele>15.24328</ele>
        <time>2022-04-14T09:55:28.000Z</time>
      </trkpt>
      <trkpt lat="36.52816" lon="-6.30536">
        <ele>15.166001</ele>
        <time>2022-04-14T09:55:32.000Z</time>
      </trkpt>
      <trkpt lat="36.52812" lon="-6.30543">
        <ele>15.090857</ele>
        <time>2022-04-14T09:55:38.000Z</time>
      </trkpt>
      <trkpt lat="36.5281" lon="-6.30551">
        <ele>15.018673</ele>
        <time>2022-04-14T09:55:41.000Z</time>
      </trkpt>
      <trkpt lat="36.5281" lon="-6.30555">
        <ele>14.987146</ele>
        <time>2022-04-14T09:55:43.000Z</time>
      </trkpt>
      <trkpt lat="36.5281" lon="-6.30555">
        <ele>14.981074</ele>
        <time>2022-04-14T09:55:48.000Z</time>
      </trkpt>
      <trkpt lat="36.5281" lon="-6.30555">
        <ele>14.981074</ele>
        <time>2022-04-14T09:56:07.000Z</time>
      </trkpt>
      <trkpt lat="36.5281" lon="-6.30555">
        <ele>14.981074</ele>
        <time>2022-04-14T09:56:15.000Z</time>
      </trkpt>
      <trkpt lat="36.5281" lon="-6.30555">
        <ele>14.981074</ele>
        <time>2022-04-14T09:56:17.000Z</time>
      </trkpt>
      <trkpt lat="36.52811" lon="-6.30558">
        <ele>14.95668</ele>
        <time>2022-04-14T09:56:21.000Z</time>
      </trkpt>
      <trkpt lat="36.52815" lon="-6.30562">
        <ele>14.900977</ele>
        <time>2022-04-14T09:56:23.000Z</time>
      </trkpt>
      <trkpt lat="36.52826" lon="-6.3058">
        <ele>14.706049</ele>
        <time>2022-04-14T09:56:29.000Z</time>
      </trkpt>
      <trkpt lat="36.52828" lon="-6.30594">
        <ele>14.581638</ele>
        <time>2022-04-14T09:56:35.000Z</time>
      </trkpt>
      <trkpt lat="36.52829" lon="-6.30597">
        <ele>14.554217</ele>
        <time>2022-04-14T09:56:37.000Z</time>
      </trkpt>
      <trkpt lat="36.52829" lon="-6.30598">
        <ele>14.544073</ele>
        <time>2022-04-14T09:56:40.000Z</time>
      </trkpt>
      <trkpt lat="36.52833" lon="-6.30598">
        <ele>14.501747</ele>
        <time>2022-04-14T09:56:49.000Z</time>
      </trkpt>
      <trkpt lat="36.52835" lon="-6.30598">
        <ele>14.482315</ele>
        <time>2022-04-14T09:56:50.000Z</time>
      </trkpt>
      <trkpt lat="36.52843" lon="-6.30592">
        <ele>14.385957</ele>
        <time>2022-04-14T09:56:54.000Z</time>
      </trkpt>
      <trkpt lat="36.52845" lon="-6.30592">
        <ele>14.362144</ele>
        <time>2022-04-14T09:56:55.000Z</time>
      </trkpt>
      <trkpt lat="36.52851" lon="-6.30591">
        <ele>14.299313</ele>
        <time>2022-04-14T09:56:58.000Z</time>
      </trkpt>
      <trkpt lat="36.52853" lon="-6.3059">
        <ele>14.273993</ele>
        <time>2022-04-14T09:57:00.000Z</time>
      </trkpt>
      <trkpt lat="36.52855" lon="-6.30585">
        <ele>14.226465</ele>
        <time>2022-04-14T09:57:05.000Z</time>
      </trkpt>
      <trkpt lat="36.52856" lon="-6.30581">
        <ele>14.189789</ele>
        <time>2022-04-14T09:57:06.000Z</time>
      </trkpt>
      <trkpt lat="36.52861" lon="-6.3057">
        <ele>14.078639</ele>
        <time>2022-04-14T09:57:11.000Z</time>
      </trkpt>
      <trkpt lat="36.5287" lon="-6.30569">
        <ele>13.975949</ele>
        <time>2022-04-14T09:57:16.000Z</time>
      </trkpt>
      <trkpt lat="36.52872" lon="-6.3057">
        <ele>13.95565</ele>
        <time>2022-04-14T09:57:17.000Z</time>
      </trkpt>
      <trkpt lat="36.52874" lon="-6.30575">
        <ele>13.907476</ele>
        <time>2022-04-14T09:57:20.000Z</time>
      </trkpt>
      <trkpt lat="36.52874" lon="-6.30579">
        <ele>13.873029</ele>
        <time>2022-04-14T09:57:22.000Z</time>
      </trkpt>
      <trkpt lat="36.5287" lon="-6.3059">
        <ele>13.777054</ele>
        <time>2022-04-14T09:57:26.000Z</time>
      </trkpt>
      <trkpt lat="36.52867" lon="-6.30598">
        <ele>13.718643</ele>
        <time>2022-04-14T09:57:29.000Z</time>
      </trkpt>
      <trkpt lat="36.52865" lon="-6.30602">
        <ele>13.683313</ele>
        <time>2022-04-14T09:57:31.000Z</time>
      </trkpt>
      <trkpt lat="36.52863" lon="-6.3061">
        <ele>13.627527</ele>
        <time>2022-04-14T09:57:35.000Z</time>
      </trkpt>
      <trkpt lat="36.52862" lon="-6.30618">
        <ele>13.576475</ele>
        <time>2022-04-14T09:57:38.000Z</time>
      </trkpt>
      <trkpt lat="36.52859" lon="-6.30635">
        <ele>13.45972</ele>
        <time>2022-04-14T09:57:44.000Z</time>
      </trkpt>
      <trkpt lat="36.52858" lon="-6.3064">
        <ele>13.421407</ele>
        <time>2022-04-14T09:57:46.000Z</time>
      </trkpt>
      <trkpt lat="36.52858" lon="-6.30646">
        <ele>13.380901</ele>
        <time>2022-04-14T09:57:48.000Z</time>
      </trkpt>
      <trkpt lat="36.52857" lon="-6.30652">
        <ele>13.344486</ele>
        <time>2022-04-14T09:57:50.000Z</time>
      </trkpt>
      <trkpt lat="36.52856" lon="-6.30671">
        <ele>13.212193</ele>
        <time>2022-04-14T09:57:59.000Z</time>
      </trkpt>
      <trkpt lat="36.52853" lon="-6.30697">
        <ele>13.03822</ele>
        <time>2022-04-14T09:58:09.000Z</time>
      </trkpt>
      <trkpt lat="36.52852" lon="-6.30713">
        <ele>12.927776</ele>
        <time>2022-04-14T09:58:16.000Z</time>
      </trkpt>
      <trkpt lat="36.52851" lon="-6.30732">
        <ele>12.801868</ele>
        <time>2022-04-14T09:58:23.000Z</time>
      </trkpt>
      <trkpt lat="36.5285" lon="-6.3074">
        <ele>12.748165</ele>
        <time>2022-04-14T09:58:26.000Z</time>
      </trkpt>
      <trkpt lat="36.52848" lon="-6.3075">
        <ele>12.677201</ele>
        <time>2022-04-14T09:58:30.000Z</time>
      </trkpt>
      <trkpt lat="36.52849" lon="-6.30776">
        <ele>12.504282</ele>
        <time>2022-04-14T09:58:39.000Z</time>
      </trkpt>
      <trkpt lat="36.52849" lon="-6.30779">
        <ele>12.484523</ele>
        <time>2022-04-14T09:58:40.000Z</time>
      </trkpt>
      <trkpt lat="36.52851" lon="-6.30793">
        <ele>12.387194</ele>
        <time>2022-04-14T09:58:45.000Z</time>
      </trkpt>
      <trkpt lat="36.52852" lon="-6.30802">
        <ele>12.325269</ele>
        <time>2022-04-14T09:58:48.000Z</time>
      </trkpt>
      <trkpt lat="36.52855" lon="-6.30819">
        <ele>12.299489</ele>
        <time>2022-04-14T09:58:54.000Z</time>
      </trkpt>
      <trkpt lat="36.52855" lon="-6.30833">
        <ele>12.289142</ele>
        <time>2022-04-14T09:58:59.000Z</time>
      </trkpt>
      <trkpt lat="36.52857" lon="-6.30841">
        <ele>12.2828</ele>
        <time>2022-04-14T09:59:02.000Z</time>
      </trkpt>
      <trkpt lat="36.52859" lon="-6.30848">
        <ele>12.277518</ele>
        <time>2022-04-14T09:59:05.000Z</time>
      </trkpt>
      <trkpt lat="36.52859" lon="-6.3085">
        <ele>12.275588</ele>
        <time>2022-04-14T09:59:06.000Z</time>
      </trkpt>
      <trkpt lat="36.5286" lon="-6.30865">
        <ele>12.264777</ele>
        <time>2022-04-14T09:59:11.000Z</time>
      </trkpt>
      <trkpt lat="36.52861" lon="-6.30876">
        <ele>12.256123</ele>
        <time>2022-04-14T09:59:15.000Z</time>
      </trkpt>
      <trkpt lat="36.52866" lon="-6.30902">
        <ele>12.23601</ele>
        <time>2022-04-14T09:59:24.000Z</time>
      </trkpt>
      <trkpt lat="36.5287" lon="-6.30921">
        <ele>12.221294</ele>
        <time>2022-04-14T09:59:32.000Z</time>
      </trkpt>
      <trkpt lat="36.5287" lon="-6.30922">
        <ele>12.220876</ele>
        <time>2022-04-14T09:59:37.000Z</time>
      </trkpt>
      <trkpt lat="36.5287" lon="-6.30922">
        <ele>12.220876</ele>
        <time>2022-04-14T09:59:40.000Z</time>
      </trkpt>
      <trkpt lat="36.5287" lon="-6.30922">
        <ele>12.220876</ele>
        <time>2022-04-14T09:59:48.000Z</time>
      </trkpt>
      <trkpt lat="36.5287" lon="-6.30922">
        <ele>12.220876</ele>
        <time>2022-04-14T09:59:49.000Z</time>
      </trkpt>
      <trkpt lat="36.5287" lon="-6.30922">
        <ele>12.220876</ele>
        <time>2022-04-14T09:59:51.000Z</time>
      </trkpt>
      <trkpt lat="36.52869" lon="-6.30924">
        <ele>12.218762</ele>
        <time>2022-04-14T10:00:09.000Z</time>
      </trkpt>
      <trkpt lat="36.52865" lon="-6.30927">
        <ele>12.215102</ele>
        <time>2022-04-14T10:00:11.000Z</time>
      </trkpt>
      <trkpt lat="36.52857" lon="-6.30941">
        <ele>12.202023</ele>
        <time>2022-04-14T10:00:18.000Z</time>
      </trkpt>
      <trkpt lat="36.52856" lon="-6.30942">
        <ele>12.200768</ele>
        <time>2022-04-14T10:00:19.000Z</time>
      </trkpt>
      <trkpt lat="36.5285" lon="-6.30958">
        <ele>12.187787</ele>
        <time>2022-04-14T10:00:28.000Z</time>
      </trkpt>
      <trkpt lat="36.5285" lon="-6.3096">
        <ele>12.186396</ele>
        <time>2022-04-14T10:00:29.000Z</time>
      </trkpt>
      <trkpt lat="36.52845" lon="-6.30969">
        <ele>12.178033</ele>
        <time>2022-04-14T10:00:35.000Z</time>
      </trkpt>
      <trkpt lat="36.52841" lon="-6.30975">
        <ele>12.172483</ele>
        <time>2022-04-14T10:00:38.000Z</time>
      </trkpt>
      <trkpt lat="36.52839" lon="-6.30979">
        <ele>12.168676</ele>
        <time>2022-04-14T10:00:40.000Z</time>
      </trkpt>
      <trkpt lat="36.52835" lon="-6.30994">
        <ele>12.156997</ele>
        <time>2022-04-14T10:00:47.000Z</time>
      </trkpt>
      <trkpt lat="36.52834" lon="-6.30995">
        <ele>12.156127</ele>
        <time>2022-04-14T10:00:48.000Z</time>
      </trkpt>
      <trkpt lat="36.5283" lon="-6.31006">
        <ele>12.146487</ele>
        <time>2022-04-14T10:00:56.000Z</time>
      </trkpt>
      <trkpt lat="36.52827" lon="-6.31014">
        <ele>12.174482</ele>
        <time>2022-04-14T10:01:02.000Z</time>
      </trkpt>
      <trkpt lat="36.52825" lon="-6.31016">
        <ele>12.198116</ele>
        <time>2022-04-14T10:01:04.000Z</time>
      </trkpt>
      <trkpt lat="36.52822" lon="-6.31023">
        <ele>12.258516</ele>
        <time>2022-04-14T10:01:09.000Z</time>
      </trkpt>
      <trkpt lat="36.52822" lon="-6.31026">
        <ele>12.279986</ele>
        <time>2022-04-14T10:01:12.000Z</time>
      </trkpt>
      <trkpt lat="36.5282" lon="-6.3103">
        <ele>12.319922</ele>
        <time>2022-04-14T10:01:15.000Z</time>
      </trkpt>
      <trkpt lat="36.52817" lon="-6.31039">
        <ele>12.396522</ele>
        <time>2022-04-14T10:01:18.000Z</time>
      </trkpt>
      <trkpt lat="36.52813" lon="-6.31048">
        <ele>12.479078</ele>
        <time>2022-04-14T10:01:21.000Z</time>
      </trkpt>
      <trkpt lat="36.52807" lon="-6.31063">
        <ele>12.609337</ele>
        <time>2022-04-14T10:01:26.000Z</time>
      </trkpt>
      <trkpt lat="36.52802" lon="-6.31077">
        <ele>12.734568</ele>
        <time>2022-04-14T10:01:31.000Z</time>
      </trkpt>
      <trkpt lat="36.52797" lon="-6.31101">
        <ele>12.92573</ele>
        <time>2022-04-14T10:01:39.000Z</time>
      </trkpt>
      <trkpt lat="36.52793" lon="-6.31125">
        <ele>13.125748</ele>
        <time>2022-04-14T10:01:48.000Z</time>
      </trkpt>
      <trkpt lat="36.52793" lon="-6.31128">
        <ele>13.142531</ele>
        <time>2022-04-14T10:01:49.000Z</time>
      </trkpt>
      <trkpt lat="36.52794" lon="-6.31128">
        <ele>13.150265</ele>
        <time>2022-04-14T10:01:51.000Z</time>
      </trkpt>
      <trkpt lat="36.52794" lon="-6.31128">
        <ele>13.150265</ele>
        <time>2022-04-14T10:01:54.000Z</time>
      </trkpt>
      <trkpt lat="36.52794" lon="-6.31128">
        <ele>13.150265</ele>
        <time>2022-04-14T10:01:58.000Z</time>
      </trkpt>
      <trkpt lat="36.52794" lon="-6.31128">
        <ele>13.150265</ele>
        <time>2022-04-14T10:02:08.000Z</time>
      </trkpt>
      <trkpt lat="36.52794" lon="-6.31128">
        <ele>13.150265</ele>
        <time>2022-04-14T10:02:22.000Z</time>
      </trkpt>
      <trkpt lat="36.52794" lon="-6.31128">
        <ele>13.150265</ele>
        <time>2022-04-14T10:02:26.000Z</time>
      </trkpt>
      <trkpt lat="36.52794" lon="-6.31129">
        <ele>13.151852</ele>
        <time>2022-04-14T10:02:30.000Z</time>
      </trkpt>
      <trkpt lat="36.52793" lon="-6.31134">
        <ele>13.198559</ele>
        <time>2022-04-14T10:02:33.000Z</time>
      </trkpt>
      <trkpt lat="36.52793" lon="-6.31136">
        <ele>13.214555</ele>
        <time>2022-04-14T10:02:34.000Z</time>
      </trkpt>
      <trkpt lat="36.52791" lon="-6.31148">
        <ele>13.307359</ele>
        <time>2022-04-14T10:02:40.000Z</time>
      </trkpt>
      <trkpt lat="36.52791" lon="-6.3115">
        <ele>13.320852</ele>
        <time>2022-04-14T10:02:41.000Z</time>
      </trkpt>
      <trkpt lat="36.52791" lon="-6.31154">
        <ele>13.355787</ele>
        <time>2022-04-14T10:02:44.000Z</time>
      </trkpt>
      <trkpt lat="36.5279" lon="-6.31157">
        <ele>13.380581</ele>
        <time>2022-04-14T10:02:46.000Z</time>
      </trkpt>
      <trkpt lat="36.5279" lon="-6.3116">
        <ele>13.407938</ele>
        <time>2022-04-14T10:02:48.000Z</time>
      </trkpt>
      <trkpt lat="36.52789" lon="-6.31162">
        <ele>13.423054</ele>
        <time>2022-04-14T10:02:49.000Z</time>
      </trkpt>
      <trkpt lat="36.52789" lon="-6.31167">
        <ele>13.461469</ele>
        <time>2022-04-14T10:02:52.000Z</time>
      </trkpt>
      <trkpt lat="36.52788" lon="-6.31171">
        <ele>13.497308</ele>
        <time>2022-04-14T10:02:55.000Z</time>
      </trkpt>
      <trkpt lat="36.52787" lon="-6.31177">
        <ele>13.539744</ele>
        <time>2022-04-14T10:02:58.000Z</time>
      </trkpt>
      <trkpt lat="36.52786" lon="-6.3118">
        <ele>13.566995</ele>
        <time>2022-04-14T10:03:00.000Z</time>
      </trkpt>
      <trkpt lat="36.52786" lon="-6.31185">
        <ele>13.604933</ele>
        <time>2022-04-14T10:03:03.000Z</time>
      </trkpt>
      <trkpt lat="36.52785" lon="-6.31199">
        <ele>13.718498</ele>
        <time>2022-04-14T10:03:12.000Z</time>
      </trkpt>
      <trkpt lat="36.52785" lon="-6.31203">
        <ele>13.749843</ele>
        <time>2022-04-14T10:03:15.000Z</time>
      </trkpt>
      <trkpt lat="36.52784" lon="-6.31205">
        <ele>13.76571</ele>
        <time>2022-04-14T10:03:18.000Z</time>
      </trkpt>
      <trkpt lat="36.52784" lon="-6.31207">
        <ele>13.783024</ele>
        <time>2022-04-14T10:03:19.000Z</time>
      </trkpt>
      <trkpt lat="36.52782" lon="-6.31217">
        <ele>13.862346</ele>
        <time>2022-04-14T10:03:22.000Z</time>
      </trkpt>
      <trkpt lat="36.52783" lon="-6.31237">
        <ele>13.847392</ele>
        <time>2022-04-14T10:03:28.000Z</time>
      </trkpt>
      <trkpt lat="36.52785" lon="-6.3124">
        <ele>13.830706</ele>
        <time>2022-04-14T10:03:29.000Z</time>
      </trkpt>
      <trkpt lat="36.52788" lon="-6.31247">
        <ele>13.789023</ele>
        <time>2022-04-14T10:03:32.000Z</time>
      </trkpt>
      <trkpt lat="36.52788" lon="-6.31247">
        <ele>13.785256</ele>
        <time>2022-04-14T10:03:34.000Z</time>
      </trkpt>
      <trkpt lat="36.52788" lon="-6.31247">
        <ele>13.785256</ele>
        <time>2022-04-14T10:03:44.000Z</time>
      </trkpt>
      <trkpt lat="36.52788" lon="-6.31247">
        <ele>13.785256</ele>
        <time>2022-04-14T10:03:45.000Z</time>
      </trkpt>
      <trkpt lat="36.52788" lon="-6.31247">
        <ele>13.785256</ele>
        <time>2022-04-14T10:03:55.000Z</time>
      </trkpt>
      <trkpt lat="36.52788" lon="-6.31247">
        <ele>13.785256</ele>
        <time>2022-04-14T10:03:58.000Z</time>
      </trkpt>
      <trkpt lat="36.52788" lon="-6.31247">
        <ele>13.785256</ele>
        <time>2022-04-14T10:04:01.000Z</time>
      </trkpt>
      <trkpt lat="36.52788" lon="-6.31247">
        <ele>13.784404</ele>
        <time>2022-04-14T10:04:04.000Z</time>
      </trkpt>
      <trkpt lat="36.52789" lon="-6.31247">
        <ele>13.781306</ele>
        <time>2022-04-14T10:04:06.000Z</time>
      </trkpt>
      <trkpt lat="36.52789" lon="-6.31247">
        <ele>13.781306</ele>
        <time>2022-04-14T10:04:09.000Z</time>
      </trkpt>
      <trkpt lat="36.52789" lon="-6.31246">
        <ele>13.775849</ele>
        <time>2022-04-14T10:04:23.000Z</time>
      </trkpt>
      <trkpt lat="36.52789" lon="-6.31246">
        <ele>13.775849</ele>
        <time>2022-04-14T10:04:30.000Z</time>
      </trkpt>
      <trkpt lat="36.52789" lon="-6.31246">
        <ele>13.775849</ele>
        <time>2022-04-14T10:04:34.000Z</time>
      </trkpt>
      <trkpt lat="36.52789" lon="-6.31246">
        <ele>13.775849</ele>
        <time>2022-04-14T10:04:49.000Z</time>
      </trkpt>
      <trkpt lat="36.52789" lon="-6.31247">
        <ele>13.773337</ele>
        <time>2022-04-14T10:04:55.000Z</time>
      </trkpt>
      <trkpt lat="36.52789" lon="-6.31247">
        <ele>13.773337</ele>
        <time>2022-04-14T10:05:01.000Z</time>
      </trkpt>
      <trkpt lat="36.52789" lon="-6.31247">
        <ele>13.769933</ele>
        <time>2022-04-14T10:05:15.000Z</time>
      </trkpt>
      <trkpt lat="36.52789" lon="-6.31247">
        <ele>13.769933</ele>
        <time>2022-04-14T10:05:30.000Z</time>
      </trkpt>
      <trkpt lat="36.52789" lon="-6.31247">
        <ele>13.769933</ele>
        <time>2022-04-14T10:05:36.000Z</time>
      </trkpt>
      <trkpt lat="36.52789" lon="-6.31247">
        <ele>13.769933</ele>
        <time>2022-04-14T10:05:37.000Z</time>
      </trkpt>
      <trkpt lat="36.52789" lon="-6.31247">
        <ele>13.769933</ele>
        <time>2022-04-14T10:05:47.000Z</time>
      </trkpt>
      <trkpt lat="36.52788" lon="-6.31248">
        <ele>13.766165</ele>
        <time>2022-04-14T10:06:18.000Z</time>
      </trkpt>
      <trkpt lat="36.52788" lon="-6.31248">
        <ele>13.763499</ele>
        <time>2022-04-14T10:06:29.000Z</time>
      </trkpt>
      <trkpt lat="36.52788" lon="-6.31248">
        <ele>13.762966</ele>
        <time>2022-04-14T10:06:50.000Z</time>
      </trkpt>
      <trkpt lat="36.52788" lon="-6.31248">
        <ele>13.762115</ele>
        <time>2022-04-14T10:07:11.000Z</time>
      </trkpt>
      <trkpt lat="36.52788" lon="-6.31248">
        <ele>13.759857</ele>
        <time>2022-04-14T10:07:25.000Z</time>
      </trkpt>
      <trkpt lat="36.52788" lon="-6.31248">
        <ele>13.759324</ele>
        <time>2022-04-14T10:07:36.000Z</time>
      </trkpt>
      <trkpt lat="36.52788" lon="-6.31248">
        <ele>13.759324</ele>
        <time>2022-04-14T10:07:45.000Z</time>
      </trkpt>
      <trkpt lat="36.52788" lon="-6.31248">
        <ele>13.759324</ele>
        <time>2022-04-14T10:08:06.000Z</time>
      </trkpt>
      <trkpt lat="36.52788" lon="-6.31248">
        <ele>13.759324</ele>
        <time>2022-04-14T10:08:14.000Z</time>
      </trkpt>
      <trkpt lat="36.52788" lon="-6.31248">
        <ele>13.757245</ele>
        <time>2022-04-14T10:08:17.000Z</time>
      </trkpt>
      <trkpt lat="36.52788" lon="-6.31248">
        <ele>13.757245</ele>
        <time>2022-04-14T10:08:20.000Z</time>
      </trkpt>
      <trkpt lat="36.52788" lon="-6.31248">
        <ele>13.757245</ele>
        <time>2022-04-14T10:08:22.000Z</time>
      </trkpt>
      <trkpt lat="36.52788" lon="-6.31248">
        <ele>13.756582</ele>
        <time>2022-04-14T10:08:25.000Z</time>
      </trkpt>
      <trkpt lat="36.52788" lon="-6.31248">
        <ele>13.756582</ele>
        <time>2022-04-14T10:08:27.000Z</time>
      </trkpt>
      <trkpt lat="36.52788" lon="-6.31248">
        <ele>13.756582</ele>
        <time>2022-04-14T10:08:28.000Z</time>
      </trkpt>
      <trkpt lat="36.52788" lon="-6.31248">
        <ele>13.756582</ele>
        <time>2022-04-14T10:08:29.000Z</time>
      </trkpt>
      <trkpt lat="36.52788" lon="-6.31248">
        <ele>13.756582</ele>
        <time>2022-04-14T10:08:31.000Z</time>
      </trkpt>
      <trkpt lat="36.52789" lon="-6.31247">
        <ele>13.748978</ele>
        <time>2022-04-14T10:09:21.000Z</time>
      </trkpt>
      <trkpt lat="36.52789" lon="-6.31247">
        <ele>13.748978</ele>
        <time>2022-04-14T10:09:32.000Z</time>
      </trkpt>
      <trkpt lat="36.52789" lon="-6.31247">
        <ele>13.748978</ele>
        <time>2022-04-14T10:09:35.000Z</time>
      </trkpt>
      <trkpt lat="36.52789" lon="-6.31247">
        <ele>13.748978</ele>
        <time>2022-04-14T10:09:49.000Z</time>
      </trkpt>
      <trkpt lat="36.52789" lon="-6.31247">
        <ele>13.748978</ele>
        <time>2022-04-14T10:09:50.000Z</time>
      </trkpt>
      <trkpt lat="36.52789" lon="-6.31247">
        <ele>13.748978</ele>
        <time>2022-04-14T10:09:58.000Z</time>
      </trkpt>
      <trkpt lat="36.52789" lon="-6.31247">
        <ele>13.748978</ele>
        <time>2022-04-14T10:10:00.000Z</time>
      </trkpt>
      <trkpt lat="36.52789" lon="-6.31247">
        <ele>13.748978</ele>
        <time>2022-04-14T10:10:06.000Z</time>
      </trkpt>
      <trkpt lat="36.52789" lon="-6.31247">
        <ele>13.748978</ele>
        <time>2022-04-14T10:10:11.000Z</time>
      </trkpt>
      <trkpt lat="36.52789" lon="-6.31247">
        <ele>13.748978</ele>
        <time>2022-04-14T10:10:16.000Z</time>
      </trkpt>
      <trkpt lat="36.52789" lon="-6.31247">
        <ele>13.748978</ele>
        <time>2022-04-14T10:10:19.000Z</time>
      </trkpt>
      <trkpt lat="36.52789" lon="-6.31247">
        <ele>13.748978</ele>
        <time>2022-04-14T10:10:34.000Z</time>
      </trkpt>
      <trkpt lat="36.52789" lon="-6.31247">
        <ele>13.748978</ele>
        <time>2022-04-14T10:10:47.000Z</time>
      </trkpt>
      <trkpt lat="36.52789" lon="-6.31247">
        <ele>13.748978</ele>
        <time>2022-04-14T10:10:56.000Z</time>
      </trkpt>
      <trkpt lat="36.52789" lon="-6.31247">
        <ele>13.748978</ele>
        <time>2022-04-14T10:11:02.000Z</time>
      </trkpt>
      <trkpt lat="36.52789" lon="-6.31247">
        <ele>13.748978</ele>
        <time>2022-04-14T10:11:13.000Z</time>
      </trkpt>
      <trkpt lat="36.52789" lon="-6.31247">
        <ele>13.747651</ele>
        <time>2022-04-14T10:11:32.000Z</time>
      </trkpt>
      <trkpt lat="36.52789" lon="-6.31247">
        <ele>13.747651</ele>
        <time>2022-04-14T10:11:41.000Z</time>
      </trkpt>
      <trkpt lat="36.52789" lon="-6.31247">
        <ele>13.747651</ele>
        <time>2022-04-14T10:11:43.000Z</time>
      </trkpt>
      <trkpt lat="36.52789" lon="-6.31247">
        <ele>13.747651</ele>
        <time>2022-04-14T10:12:06.000Z</time>
      </trkpt>
      <trkpt lat="36.52789" lon="-6.31247">
        <ele>13.747651</ele>
        <time>2022-04-14T10:12:18.000Z</time>
      </trkpt>
      <trkpt lat="36.52789" lon="-6.31247">
        <ele>13.747651</ele>
        <time>2022-04-14T10:12:41.000Z</time>
      </trkpt>
      <trkpt lat="36.52789" lon="-6.31247">
        <ele>13.746988</ele>
        <time>2022-04-14T10:13:49.000Z</time>
      </trkpt>
      <trkpt lat="36.52789" lon="-6.31247">
        <ele>13.746988</ele>
        <time>2022-04-14T10:13:54.000Z</time>
      </trkpt>
      <trkpt lat="36.52789" lon="-6.31247">
        <ele>13.746988</ele>
        <time>2022-04-14T10:13:58.000Z</time>
      </trkpt>
      <trkpt lat="36.52789" lon="-6.31247">
        <ele>13.746988</ele>
        <time>2022-04-14T10:14:01.000Z</time>
      </trkpt>
      <trkpt lat="36.52789" lon="-6.31247">
        <ele>13.746988</ele>
        <time>2022-04-14T10:14:05.000Z</time>
      </trkpt>
      <trkpt lat="36.52789" lon="-6.31247">
        <ele>13.746988</ele>
        <time>2022-04-14T10:14:08.000Z</time>
      </trkpt>
      <trkpt lat="36.52789" lon="-6.31247">
        <ele>13.746988</ele>
        <time>2022-04-14T10:14:12.000Z</time>
      </trkpt>
      <trkpt lat="36.52789" lon="-6.31247">
        <ele>13.746988</ele>
        <time>2022-04-14T10:14:17.000Z</time>
      </trkpt>
      <trkpt lat="36.52789" lon="-6.31247">
        <ele>13.746988</ele>
        <time>2022-04-14T10:14:21.000Z</time>
      </trkpt>
      <trkpt lat="36.52789" lon="-6.31247">
        <ele>13.746988</ele>
        <time>2022-04-14T10:14:25.000Z</time>
      </trkpt>
      <trkpt lat="36.52789" lon="-6.31247">
        <ele>13.746988</ele>
        <time>2022-04-14T10:14:28.000Z</time>
      </trkpt>
      <trkpt lat="36.52788" lon="-6.31247">
        <ele>13.744334</ele>
        <time>2022-04-14T10:14:37.000Z</time>
      </trkpt>
      <trkpt lat="36.52788" lon="-6.31247">
        <ele>13.741627</ele>
        <time>2022-04-14T10:14:42.000Z</time>
      </trkpt>
      <trkpt lat="36.52788" lon="-6.31247">
        <ele>13.741627</ele>
        <time>2022-04-14T10:14:55.000Z</time>
      </trkpt>
      <trkpt lat="36.52788" lon="-6.31247">
        <ele>13.741627</ele>
        <time>2022-04-14T10:15:04.000Z</time>
      </trkpt>
      <trkpt lat="36.52788" lon="-6.31247">
        <ele>13.739566</ele>
        <time>2022-04-14T10:15:06.000Z</time>
      </trkpt>
      <trkpt lat="36.52783" lon="-6.31243">
        <ele>13.700221</ele>
        <time>2022-04-14T10:15:09.000Z</time>
      </trkpt>
      <trkpt lat="36.52781" lon="-6.31225">
        <ele>13.603063</ele>
        <time>2022-04-14T10:15:14.000Z</time>
      </trkpt>
      <trkpt lat="36.52782" lon="-6.31209">
        <ele>13.517161</ele>
        <time>2022-04-14T10:15:19.000Z</time>
      </trkpt>
      <trkpt lat="36.52782" lon="-6.31207">
        <ele>13.507541</ele>
        <time>2022-04-14T10:15:20.000Z</time>
      </trkpt>
      <trkpt lat="36.52783" lon="-6.31194">
        <ele>13.438477</ele>
        <time>2022-04-14T10:15:27.000Z</time>
      </trkpt>
      <trkpt lat="36.52787" lon="-6.31177">
        <ele>13.344912</ele>
        <time>2022-04-14T10:15:33.000Z</time>
      </trkpt>
      <trkpt lat="36.52788" lon="-6.31159">
        <ele>13.24933</ele>
        <time>2022-04-14T10:15:40.000Z</time>
      </trkpt>
      <trkpt lat="36.52789" lon="-6.31142">
        <ele>13.158539</ele>
        <time>2022-04-14T10:15:46.000Z</time>
      </trkpt>
      <trkpt lat="36.52794" lon="-6.3112">
        <ele>13.037336</ele>
        <time>2022-04-14T10:15:53.000Z</time>
      </trkpt>
      <trkpt lat="36.52794" lon="-6.31117">
        <ele>13.021123</ele>
        <time>2022-04-14T10:15:54.000Z</time>
      </trkpt>
      <trkpt lat="36.52794" lon="-6.31106">
        <ele>12.960818</ele>
        <time>2022-04-14T10:15:58.000Z</time>
      </trkpt>
      <trkpt lat="36.52794" lon="-6.31105">
        <ele>12.953324</ele>
        <time>2022-04-14T10:15:59.000Z</time>
      </trkpt>
      <trkpt lat="36.52794" lon="-6.31104">
        <ele>12.947422</ele>
        <time>2022-04-14T10:16:04.000Z</time>
      </trkpt>
      <trkpt lat="36.52794" lon="-6.31104">
        <ele>12.947422</ele>
        <time>2022-04-14T10:16:07.000Z</time>
      </trkpt>
      <trkpt lat="36.52794" lon="-6.31104">
        <ele>12.944768</ele>
        <time>2022-04-14T10:16:27.000Z</time>
      </trkpt>
      <trkpt lat="36.52794" lon="-6.31104">
        <ele>12.944768</ele>
        <time>2022-04-14T10:16:38.000Z</time>
      </trkpt>
      <trkpt lat="36.52794" lon="-6.31104">
        <ele>12.944768</ele>
        <time>2022-04-14T10:16:45.000Z</time>
      </trkpt>
      <trkpt lat="36.52794" lon="-6.31103">
        <ele>12.943037</ele>
        <time>2022-04-14T10:16:49.000Z</time>
      </trkpt>
      <trkpt lat="36.52797" lon="-6.3109">
        <ele>12.866273</ele>
        <time>2022-04-14T10:16:55.000Z</time>
      </trkpt>
      <trkpt lat="36.52801" lon="-6.31077">
        <ele>12.795698</ele>
        <time>2022-04-14T10:16:59.000Z</time>
      </trkpt>
      <trkpt lat="36.52804" lon="-6.31071">
        <ele>12.758884</ele>
        <time>2022-04-14T10:17:01.000Z</time>
      </trkpt>
      <trkpt lat="36.52807" lon="-6.31062">
        <ele>12.72751</ele>
        <time>2022-04-14T10:17:04.000Z</time>
      </trkpt>
      <trkpt lat="36.52809" lon="-6.31055">
        <ele>12.729819</ele>
        <time>2022-04-14T10:17:07.000Z</time>
      </trkpt>
      <trkpt lat="36.52811" lon="-6.31051">
        <ele>12.73104</ele>
        <time>2022-04-14T10:17:12.000Z</time>
      </trkpt>
      <trkpt lat="36.52811" lon="-6.31047">
        <ele>12.732427</ele>
        <time>2022-04-14T10:17:19.000Z</time>
      </trkpt>
      <trkpt lat="36.52812" lon="-6.31047">
        <ele>12.732633</ele>
        <time>2022-04-14T10:17:25.000Z</time>
      </trkpt>
      <trkpt lat="36.52812" lon="-6.31047">
        <ele>12.732633</ele>
        <time>2022-04-14T10:17:35.000Z</time>
      </trkpt>
      <trkpt lat="36.52812" lon="-6.31047">
        <ele>12.732633</ele>
        <time>2022-04-14T10:17:36.000Z</time>
      </trkpt>
      <trkpt lat="36.52812" lon="-6.31047">
        <ele>12.732733</ele>
        <time>2022-04-14T10:17:45.000Z</time>
      </trkpt>
      <trkpt lat="36.52814" lon="-6.31041">
        <ele>12.734793</ele>
        <time>2022-04-14T10:17:48.000Z</time>
      </trkpt>
      <trkpt lat="36.52819" lon="-6.31029">
        <ele>12.73904</ele>
        <time>2022-04-14T10:17:54.000Z</time>
      </trkpt>
      <trkpt lat="36.52819" lon="-6.31026">
        <ele>12.740006</ele>
        <time>2022-04-14T10:17:56.000Z</time>
      </trkpt>
      <trkpt lat="36.52825" lon="-6.31012">
        <ele>12.74501</ele>
        <time>2022-04-14T10:18:04.000Z</time>
      </trkpt>
      <trkpt lat="36.52828" lon="-6.31004">
        <ele>12.747641</ele>
        <time>2022-04-14T10:18:09.000Z</time>
      </trkpt>
      <trkpt lat="36.52829" lon="-6.31">
        <ele>12.748929</ele>
        <time>2022-04-14T10:18:12.000Z</time>
      </trkpt>
      <trkpt lat="36.52833" lon="-6.3099">
        <ele>12.752463</ele>
        <time>2022-04-14T10:18:20.000Z</time>
      </trkpt>
      <trkpt lat="36.52833" lon="-6.30988">
        <ele>12.753019</ele>
        <time>2022-04-14T10:18:21.000Z</time>
      </trkpt>
      <trkpt lat="36.52835" lon="-6.30985">
        <ele>12.754278</ele>
        <time>2022-04-14T10:18:23.000Z</time>
      </trkpt>
      <trkpt lat="36.52841" lon="-6.30974">
        <ele>12.758441</ele>
        <time>2022-04-14T10:18:29.000Z</time>
      </trkpt>
      <trkpt lat="36.52843" lon="-6.30969">
        <ele>12.7602</ele>
        <time>2022-04-14T10:18:31.000Z</time>
      </trkpt>
      <trkpt lat="36.52848" lon="-6.30959">
        <ele>12.763866</ele>
        <time>2022-04-14T10:18:35.000Z</time>
      </trkpt>
      <trkpt lat="36.52852" lon="-6.30947">
        <ele>12.76814</ele>
        <time>2022-04-14T10:18:39.000Z</time>
      </trkpt>
      <trkpt lat="36.52859" lon="-6.3093">
        <ele>12.774004</ele>
        <time>2022-04-14T10:18:44.000Z</time>
      </trkpt>
      <trkpt lat="36.52863" lon="-6.3091">
        <ele>12.780618</ele>
        <time>2022-04-14T10:18:50.000Z</time>
      </trkpt>
      <trkpt lat="36.52861" lon="-6.30889">
        <ele>12.787059</ele>
        <time>2022-04-14T10:18:55.000Z</time>
      </trkpt>
      <trkpt lat="36.52861" lon="-6.30879">
        <ele>12.790211</ele>
        <time>2022-04-14T10:18:58.000Z</time>
      </trkpt>
      <trkpt lat="36.5286" lon="-6.30875">
        <ele>12.791547</ele>
        <time>2022-04-14T10:18:59.000Z</time>
      </trkpt>
      <trkpt lat="36.52857" lon="-6.30851">
        <ele>12.840016</ele>
        <time>2022-04-14T10:19:06.000Z</time>
      </trkpt>
      <trkpt lat="36.52856" lon="-6.30837">
        <ele>12.914412</ele>
        <time>2022-04-14T10:19:12.000Z</time>
      </trkpt>
      <trkpt lat="36.52853" lon="-6.30817">
        <ele>13.018241</ele>
        <time>2022-04-14T10:19:18.000Z</time>
      </trkpt>
      <trkpt lat="36.5285" lon="-6.30792">
        <ele>13.149526</ele>
        <time>2022-04-14T10:19:24.000Z</time>
      </trkpt>
      <trkpt lat="36.52848" lon="-6.30773">
        <ele>13.250365</ele>
        <time>2022-04-14T10:19:29.000Z</time>
      </trkpt>
      <trkpt lat="36.52847" lon="-6.30754">
        <ele>13.34811</ele>
        <time>2022-04-14T10:19:34.000Z</time>
      </trkpt>
      <trkpt lat="36.52849" lon="-6.30738">
        <ele>13.433122</ele>
        <time>2022-04-14T10:19:39.000Z</time>
      </trkpt>
      <trkpt lat="36.52852" lon="-6.3071">
        <ele>13.580241</ele>
        <time>2022-04-14T10:19:47.000Z</time>
      </trkpt>
      <trkpt lat="36.52852" lon="-6.30706">
        <ele>13.596953</ele>
        <time>2022-04-14T10:19:48.000Z</time>
      </trkpt>
      <trkpt lat="36.52852" lon="-6.30697">
        <ele>13.646844</ele>
        <time>2022-04-14T10:19:51.000Z</time>
      </trkpt>
      <trkpt lat="36.52852" lon="-6.3069">
        <ele>13.682655</ele>
        <time>2022-04-14T10:19:53.000Z</time>
      </trkpt>
      <trkpt lat="36.52852" lon="-6.30683">
        <ele>13.720629</ele>
        <time>2022-04-14T10:19:55.000Z</time>
      </trkpt>
      <trkpt lat="36.52854" lon="-6.3066">
        <ele>13.837402</ele>
        <time>2022-04-14T10:20:02.000Z</time>
      </trkpt>
      <trkpt lat="36.52856" lon="-6.30642">
        <ele>13.934042</ele>
        <time>2022-04-14T10:20:10.000Z</time>
      </trkpt>
      <trkpt lat="36.52858" lon="-6.30636">
        <ele>13.963148</ele>
        <time>2022-04-14T10:20:14.000Z</time>
      </trkpt>
      <trkpt lat="36.52858" lon="-6.30632">
        <ele>13.971361</ele>
        <time>2022-04-14T10:20:15.000Z</time>
      </trkpt>
      <trkpt lat="36.52859" lon="-6.30618">
        <ele>14.006368</ele>
        <time>2022-04-14T10:20:19.000Z</time>
      </trkpt>
      <trkpt lat="36.52864" lon="-6.30603">
        <ele>14.047562</ele>
        <time>2022-04-14T10:20:26.000Z</time>
      </trkpt>
      <trkpt lat="36.52868" lon="-6.3059">
        <ele>14.080615</ele>
        <time>2022-04-14T10:20:32.000Z</time>
      </trkpt>
      <trkpt lat="36.52874" lon="-6.30572">
        <ele>14.129958</ele>
        <time>2022-04-14T10:20:38.000Z</time>
      </trkpt>
      <trkpt lat="36.52875" lon="-6.30562">
        <ele>14.15429</ele>
        <time>2022-04-14T10:20:41.000Z</time>
      </trkpt>
      <trkpt lat="36.52877" lon="-6.30546">
        <ele>14.195314</ele>
        <time>2022-04-14T10:20:46.000Z</time>
      </trkpt>
      <trkpt lat="36.52879" lon="-6.30537">
        <ele>14.217129</ele>
        <time>2022-04-14T10:20:49.000Z</time>
      </trkpt>
      <trkpt lat="36.5288" lon="-6.30534">
        <ele>14.227244</ele>
        <time>2022-04-14T10:20:52.000Z</time>
      </trkpt>
      <trkpt lat="36.5288" lon="-6.30534">
        <ele>14.227244</ele>
        <time>2022-04-14T10:20:54.000Z</time>
      </trkpt>
      <trkpt lat="36.5288" lon="-6.30534">
        <ele>14.227244</ele>
        <time>2022-04-14T10:20:56.000Z</time>
      </trkpt>
      <trkpt lat="36.5288" lon="-6.30534">
        <ele>14.227244</ele>
        <time>2022-04-14T10:20:58.000Z</time>
      </trkpt>
      <trkpt lat="36.5288" lon="-6.30534">
        <ele>14.227244</ele>
        <time>2022-04-14T10:21:04.000Z</time>
      </trkpt>
      <trkpt lat="36.52881" lon="-6.30533">
        <ele>14.227907</ele>
        <time>2022-04-14T10:21:05.000Z</time>
      </trkpt>
      <trkpt lat="36.52886" lon="-6.30532">
        <ele>14.244636</ele>
        <time>2022-04-14T10:21:07.000Z</time>
      </trkpt>
      <trkpt lat="36.52905" lon="-6.30531">
        <ele>14.304087</ele>
        <time>2022-04-14T10:21:13.000Z</time>
      </trkpt>
      <trkpt lat="36.52917" lon="-6.30528">
        <ele>14.341231</ele>
        <time>2022-04-14T10:21:16.000Z</time>
      </trkpt>
      <trkpt lat="36.52933" lon="-6.30527">
        <ele>14.390369</ele>
        <time>2022-04-14T10:21:20.000Z</time>
      </trkpt>
      <trkpt lat="36.52945" lon="-6.30523">
        <ele>14.429043</ele>
        <time>2022-04-14T10:21:23.000Z</time>
      </trkpt>
      <trkpt lat="36.52961" lon="-6.30521">
        <ele>14.478162</ele>
        <time>2022-04-14T10:21:27.000Z</time>
      </trkpt>
      <trkpt lat="36.52992" lon="-6.3052">
        <ele>14.584738</ele>
        <time>2022-04-14T10:21:34.000Z</time>
      </trkpt>
      <trkpt lat="36.53035" lon="-6.3052">
        <ele>14.744988</ele>
        <time>2022-04-14T10:21:44.000Z</time>
      </trkpt>
      <trkpt lat="36.53051" lon="-6.30519">
        <ele>14.805367</ele>
        <time>2022-04-14T10:21:49.000Z</time>
      </trkpt>
      <trkpt lat="36.53071" lon="-6.30519">
        <ele>14.88139</ele>
        <time>2022-04-14T10:21:55.000Z</time>
      </trkpt>
      <trkpt lat="36.53083" lon="-6.3052">
        <ele>14.924769</ele>
        <time>2022-04-14T10:21:58.000Z</time>
      </trkpt>
      <trkpt lat="36.53106" lon="-6.30527">
        <ele>15.012505</ele>
        <time>2022-04-14T10:22:04.000Z</time>
      </trkpt>
      <trkpt lat="36.53111" lon="-6.30533">
        <ele>15.039568</ele>
        <time>2022-04-14T10:22:06.000Z</time>
      </trkpt>
      <trkpt lat="36.53126" lon="-6.30542">
        <ele>15.101627</ele>
        <time>2022-04-14T10:22:11.000Z</time>
      </trkpt>
      <trkpt lat="36.53152" lon="-6.30557">
        <ele>15.195053</ele>
        <time>2022-04-14T10:22:19.000Z</time>
      </trkpt>
      <trkpt lat="36.53155" lon="-6.30558">
        <ele>15.201243</ele>
        <time>2022-04-14T10:22:20.000Z</time>
      </trkpt>
      <trkpt lat="36.53166" lon="-6.30564">
        <ele>15.225397</ele>
        <time>2022-04-14T10:22:24.000Z</time>
      </trkpt>
      <trkpt lat="36.53181" lon="-6.30573">
        <ele>15.25719</ele>
        <time>2022-04-14T10:22:29.000Z</time>
      </trkpt>
      <trkpt lat="36.53201" lon="-6.30585">
        <ele>15.301284</ele>
        <time>2022-04-14T10:22:36.000Z</time>
      </trkpt>
      <trkpt lat="36.53218" lon="-6.30595">
        <ele>15.337273</ele>
        <time>2022-04-14T10:22:42.000Z</time>
      </trkpt>
      <trkpt lat="36.53236" lon="-6.30604">
        <ele>15.374831</ele>
        <time>2022-04-14T10:22:49.000Z</time>
      </trkpt>
      <trkpt lat="36.53237" lon="-6.30605">
        <ele>15.377044</ele>
        <time>2022-04-14T10:22:50.000Z</time>
      </trkpt>
      <trkpt lat="36.53239" lon="-6.30612">
        <ele>15.389305</ele>
        <time>2022-04-14T10:22:53.000Z</time>
      </trkpt>
      <trkpt lat="36.53242" lon="-6.30617">
        <ele>15.397564</ele>
        <time>2022-04-14T10:22:55.000Z</time>
      </trkpt>
      <trkpt lat="36.53245" lon="-6.30618">
        <ele>15.404553</ele>
        <time>2022-04-14T10:22:57.000Z</time>
      </trkpt>
      <trkpt lat="36.5325" lon="-6.3063">
        <ele>15.426762</ele>
        <time>2022-04-14T10:23:02.000Z</time>
      </trkpt>
      <trkpt lat="36.53262" lon="-6.30655">
        <ele>15.471758</ele>
        <time>2022-04-14T10:23:09.000Z</time>
      </trkpt>
      <trkpt lat="36.53274" lon="-6.30674">
        <ele>15.509543</ele>
        <time>2022-04-14T10:23:14.000Z</time>
      </trkpt>
      <trkpt lat="36.53278" lon="-6.30683">
        <ele>15.525027</ele>
        <time>2022-04-14T10:23:16.000Z</time>
      </trkpt>
      <trkpt lat="36.53286" lon="-6.30704">
        <ele>15.574401</ele>
        <time>2022-04-14T10:23:21.000Z</time>
      </trkpt>
      <trkpt lat="36.5329" lon="-6.30711">
        <ele>15.594725</ele>
        <time>2022-04-14T10:23:23.000Z</time>
      </trkpt>
      <trkpt lat="36.53296" lon="-6.30728">
        <ele>15.637868</ele>
        <time>2022-04-14T10:23:28.000Z</time>
      </trkpt>
      <trkpt lat="36.53296" lon="-6.30737">
        <ele>15.65834</ele>
        <time>2022-04-14T10:23:32.000Z</time>
      </trkpt>
      <trkpt lat="36.53296" lon="-6.30741">
        <ele>15.668789</ele>
        <time>2022-04-14T10:23:34.000Z</time>
      </trkpt>
      <trkpt lat="36.53298" lon="-6.3075">
        <ele>15.688647</ele>
        <time>2022-04-14T10:23:39.000Z</time>
      </trkpt>
      <trkpt lat="36.53297" lon="-6.30752">
        <ele>15.694065</ele>
        <time>2022-04-14T10:23:46.000Z</time>
      </trkpt>
      <trkpt lat="36.53297" lon="-6.30752">
        <ele>15.694065</ele>
        <time>2022-04-14T10:23:50.000Z</time>
      </trkpt>
      <trkpt lat="36.53297" lon="-6.30752">
        <ele>15.694295</ele>
        <time>2022-04-14T10:24:03.000Z</time>
      </trkpt>
      <trkpt lat="36.53297" lon="-6.30752">
        <ele>15.694295</ele>
        <time>2022-04-14T10:24:10.000Z</time>
      </trkpt>
      <trkpt lat="36.53297" lon="-6.30752">
        <ele>15.694755</ele>
        <time>2022-04-14T10:24:14.000Z</time>
      </trkpt>
      <trkpt lat="36.53295" lon="-6.30747">
        <ele>15.705226</ele>
        <time>2022-04-14T10:24:16.000Z</time>
      </trkpt>
      <trkpt lat="36.53296" lon="-6.30744">
        <ele>15.711768</ele>
        <time>2022-04-14T10:24:17.000Z</time>
      </trkpt>
      <trkpt lat="36.53302" lon="-6.30735">
        <ele>15.739936</ele>
        <time>2022-04-14T10:24:22.000Z</time>
      </trkpt>
      <trkpt lat="36.53314" lon="-6.3072">
        <ele>15.788278</ele>
        <time>2022-04-14T10:24:29.000Z</time>
      </trkpt>
      <trkpt lat="36.53321" lon="-6.30727">
        <ele>15.812807</ele>
        <time>2022-04-14T10:24:33.000Z</time>
      </trkpt>
      <trkpt lat="36.53333" lon="-6.30734">
        <ele>15.852238</ele>
        <time>2022-04-14T10:24:39.000Z</time>
      </trkpt>
      <trkpt lat="36.53337" lon="-6.30732">
        <ele>15.865729</ele>
        <time>2022-04-14T10:24:41.000Z</time>
      </trkpt>
      <trkpt lat="36.53345" lon="-6.30727">
        <ele>15.889559</ele>
        <time>2022-04-14T10:24:44.000Z</time>
      </trkpt>
      <trkpt lat="36.5335" lon="-6.30722">
        <ele>15.908886</ele>
        <time>2022-04-14T10:24:46.000Z</time>
      </trkpt>
      <trkpt lat="36.53375" lon="-6.30708">
        <ele>15.986159</ele>
        <time>2022-04-14T10:24:55.000Z</time>
      </trkpt>
      <trkpt lat="36.53388" lon="-6.30699">
        <ele>16.028111</ele>
        <time>2022-04-14T10:24:59.000Z</time>
      </trkpt>
      <trkpt lat="36.53395" lon="-6.30694">
        <ele>16.063008</ele>
        <time>2022-04-14T10:25:01.000Z</time>
      </trkpt>
      <trkpt lat="36.5342" lon="-6.30678">
        <ele>16.400909</ele>
        <time>2022-04-14T10:25:08.000Z</time>
      </trkpt>
      <trkpt lat="36.53444" lon="-6.30667">
        <ele>16.70111</ele>
        <time>2022-04-14T10:25:15.000Z</time>
      </trkpt>
      <trkpt lat="36.53453" lon="-6.3067">
        <ele>16.811917</ele>
        <time>2022-04-14T10:25:20.000Z</time>
      </trkpt>
      <trkpt lat="36.53462" lon="-6.30666">
        <ele>16.917457</ele>
        <time>2022-04-14T10:25:25.000Z</time>
      </trkpt>
      <trkpt lat="36.53464" lon="-6.30665">
        <ele>16.939005</ele>
        <time>2022-04-14T10:25:30.000Z</time>
      </trkpt>
      <trkpt lat="36.53464" lon="-6.30665">
        <ele>16.939005</ele>
        <time>2022-04-14T10:25:31.000Z</time>
      </trkpt>
      <trkpt lat="36.53463" lon="-6.30665">
        <ele>16.942029</ele>
        <time>2022-04-14T10:25:35.000Z</time>
      </trkpt>
      <trkpt lat="36.53464" lon="-6.30662">
        <ele>16.968844</ele>
        <time>2022-04-14T10:25:37.000Z</time>
      </trkpt>
      <trkpt lat="36.53465" lon="-6.3066">
        <ele>16.991256</ele>
        <time>2022-04-14T10:25:38.000Z</time>
      </trkpt>
      <trkpt lat="36.53472" lon="-6.30645">
        <ele>17.15133</ele>
        <time>2022-04-14T10:25:43.000Z</time>
      </trkpt>
      <trkpt lat="36.53481" lon="-6.30631">
        <ele>17.324114</ele>
        <time>2022-04-14T10:25:48.000Z</time>
      </trkpt>
      <trkpt lat="36.53485" lon="-6.30626">
        <ele>17.395749</ele>
        <time>2022-04-14T10:25:50.000Z</time>
      </trkpt>
      <trkpt lat="36.53495" lon="-6.30605">
        <ele>17.630021</ele>
        <time>2022-04-14T10:25:57.000Z</time>
      </trkpt>
      <trkpt lat="36.53502" lon="-6.30581">
        <ele>17.861458</ele>
        <time>2022-04-14T10:26:04.000Z</time>
      </trkpt>
      <trkpt lat="36.53504" lon="-6.30577">
        <ele>17.916288</ele>
        <time>2022-04-14T10:26:06.000Z</time>
      </trkpt>
      <trkpt lat="36.53506" lon="-6.30576">
        <ele>17.934073</ele>
        <time>2022-04-14T10:26:07.000Z</time>
      </trkpt>
      <trkpt lat="36.53509" lon="-6.30577">
        <ele>17.976405</ele>
        <time>2022-04-14T10:26:09.000Z</time>
      </trkpt>
      <trkpt lat="36.53511" lon="-6.30579">
        <ele>17.999462</ele>
        <time>2022-04-14T10:26:10.000Z</time>
      </trkpt>
      <trkpt lat="36.53517" lon="-6.30585">
        <ele>18.092613</ele>
        <time>2022-04-14T10:26:14.000Z</time>
      </trkpt>
      <trkpt lat="36.53523" lon="-6.30585">
        <ele>18.162221</ele>
        <time>2022-04-14T10:26:17.000Z</time>
      </trkpt>
      <trkpt lat="36.53524" lon="-6.30583">
        <ele>18.186093</ele>
        <time>2022-04-14T10:26:18.000Z</time>
      </trkpt>
      <trkpt lat="36.53537" lon="-6.30571">
        <ele>18.324186</ele>
        <time>2022-04-14T10:26:23.000Z</time>
      </trkpt>
      <trkpt lat="36.53553" lon="-6.30564">
        <ele>18.471348</ele>
        <time>2022-04-14T10:26:28.000Z</time>
      </trkpt>
      <trkpt lat="36.53578" lon="-6.30547">
        <ele>18.711497</ele>
        <time>2022-04-14T10:26:36.000Z</time>
      </trkpt>
      <trkpt lat="36.53605" lon="-6.30529">
        <ele>18.970412</ele>
        <time>2022-04-14T10:26:44.000Z</time>
      </trkpt>
      <trkpt lat="36.53642" lon="-6.30507">
        <ele>19.321477</ele>
        <time>2022-04-14T10:26:55.000Z</time>
      </trkpt>
      <trkpt lat="36.53665" lon="-6.30491">
        <ele>19.549804</ele>
        <time>2022-04-14T10:27:03.000Z</time>
      </trkpt>
      <trkpt lat="36.5367" lon="-6.30471">
        <ele>19.689499</ele>
        <time>2022-04-14T10:27:08.000Z</time>
      </trkpt>
      <trkpt lat="36.53676" lon="-6.30445">
        <ele>19.778312</ele>
        <time>2022-04-14T10:27:14.000Z</time>
      </trkpt>
      <trkpt lat="36.53677" lon="-6.30431">
        <ele>19.817253</ele>
        <time>2022-04-14T10:27:17.000Z</time>
      </trkpt>
      <trkpt lat="36.53678" lon="-6.30409">
        <ele>19.881135</ele>
        <time>2022-04-14T10:27:22.000Z</time>
      </trkpt>
      <trkpt lat="36.53684" lon="-6.30383">
        <ele>19.958897</ele>
        <time>2022-04-14T10:27:28.000Z</time>
      </trkpt>
      <trkpt lat="36.53689" lon="-6.30341">
        <ele>20.081169</ele>
        <time>2022-04-14T10:27:37.000Z</time>
      </trkpt>
      <trkpt lat="36.53698" lon="-6.30309">
        <ele>20.176026</ele>
        <time>2022-04-14T10:27:45.000Z</time>
      </trkpt>
      <trkpt lat="36.53704" lon="-6.30296">
        <ele>20.218792</ele>
        <time>2022-04-14T10:27:49.000Z</time>
      </trkpt>
      <trkpt lat="36.53706" lon="-6.30286">
        <ele>20.250673</ele>
        <time>2022-04-14T10:27:52.000Z</time>
      </trkpt>
      <trkpt lat="36.53707" lon="-6.30279">
        <ele>20.269206</ele>
        <time>2022-04-14T10:27:54.000Z</time>
      </trkpt>
      <trkpt lat="36.53706" lon="-6.30276">
        <ele>20.277835</ele>
        <time>2022-04-14T10:27:55.000Z</time>
      </trkpt>
      <trkpt lat="36.53703" lon="-6.3027">
        <ele>20.297626</ele>
        <time>2022-04-14T10:27:57.000Z</time>
      </trkpt>
      <trkpt lat="36.53704" lon="-6.30263">
        <ele>20.319227</ele>
        <time>2022-04-14T10:27:59.000Z</time>
      </trkpt>
      <trkpt lat="36.5371" lon="-6.3024">
        <ele>20.362127</ele>
        <time>2022-04-14T10:28:06.000Z</time>
      </trkpt>
      <trkpt lat="36.53712" lon="-6.30234">
        <ele>20.368559</ele>
        <time>2022-04-14T10:28:08.000Z</time>
      </trkpt>
      <trkpt lat="36.53714" lon="-6.30229">
        <ele>20.374098</ele>
        <time>2022-04-14T10:28:10.000Z</time>
      </trkpt>
      <trkpt lat="36.53717" lon="-6.3022">
        <ele>20.384025</ele>
        <time>2022-04-14T10:28:14.000Z</time>
      </trkpt>
      <trkpt lat="36.53718" lon="-6.30217">
        <ele>20.386947</ele>
        <time>2022-04-14T10:28:15.000Z</time>
      </trkpt>
      <trkpt lat="36.53727" lon="-6.30199">
        <ele>20.407667</ele>
        <time>2022-04-14T10:28:21.000Z</time>
      </trkpt>
      <trkpt lat="36.53736" lon="-6.30181">
        <ele>20.429219</ele>
        <time>2022-04-14T10:28:27.000Z</time>
      </trkpt>
      <trkpt lat="36.53749" lon="-6.30156">
        <ele>20.459465</ele>
        <time>2022-04-14T10:28:35.000Z</time>
      </trkpt>
      <trkpt lat="36.53759" lon="-6.30131">
        <ele>20.487668</ele>
        <time>2022-04-14T10:28:42.000Z</time>
      </trkpt>
      <trkpt lat="36.53765" lon="-6.30119">
        <ele>20.501666</ele>
        <time>2022-04-14T10:28:47.000Z</time>
      </trkpt>
      <trkpt lat="36.53771" lon="-6.30113">
        <ele>20.510098</ele>
        <time>2022-04-14T10:28:50.000Z</time>
      </trkpt>
      <trkpt lat="36.53773" lon="-6.30107">
        <ele>20.517664</ele>
        <time>2022-04-14T10:28:52.000Z</time>
      </trkpt>
      <trkpt lat="36.53775" lon="-6.301">
        <ele>20.524621</ele>
        <time>2022-04-14T10:28:54.000Z</time>
      </trkpt>
      <trkpt lat="36.53782" lon="-6.30086">
        <ele>20.541127</ele>
        <time>2022-04-14T10:28:58.000Z</time>
      </trkpt>
      <trkpt lat="36.53789" lon="-6.30066">
        <ele>20.563258</ele>
        <time>2022-04-14T10:29:03.000Z</time>
      </trkpt>
      <trkpt lat="36.53792" lon="-6.30057">
        <ele>20.566965</ele>
        <time>2022-04-14T10:29:05.000Z</time>
      </trkpt>
      <trkpt lat="36.53791" lon="-6.30034">
        <ele>20.502539</ele>
        <time>2022-04-14T10:29:10.000Z</time>
      </trkpt>
      <trkpt lat="36.53779" lon="-6.30008">
        <ele>20.414721</ele>
        <time>2022-04-14T10:29:17.000Z</time>
      </trkpt>
      <trkpt lat="36.53765" lon="-6.29985">
        <ele>20.33117</ele>
        <time>2022-04-14T10:29:24.000Z</time>
      </trkpt>
      <trkpt lat="36.53748" lon="-6.29953">
        <ele>20.219315</ele>
        <time>2022-04-14T10:29:34.000Z</time>
      </trkpt>
      <trkpt lat="36.53745" lon="-6.29948">
        <ele>20.200005</ele>
        <time>2022-04-14T10:29:36.000Z</time>
      </trkpt>
      <trkpt lat="36.53738" lon="-6.29938">
        <ele>20.163626</ele>
        <time>2022-04-14T10:29:40.000Z</time>
      </trkpt>
      <trkpt lat="36.53736" lon="-6.29937">
        <ele>20.153677</ele>
        <time>2022-04-14T10:29:41.000Z</time>
      </trkpt>
      <trkpt lat="36.53731" lon="-6.29935">
        <ele>20.134462</ele>
        <time>2022-04-14T10:29:43.000Z</time>
      </trkpt>
      <trkpt lat="36.53724" lon="-6.29925">
        <ele>20.098971</ele>
        <time>2022-04-14T10:29:47.000Z</time>
      </trkpt>
      <trkpt lat="36.53721" lon="-6.29916">
        <ele>20.070866</ele>
        <time>2022-04-14T10:29:51.000Z</time>
      </trkpt>
      <trkpt lat="36.53722" lon="-6.29915">
        <ele>20.067772</ele>
        <time>2022-04-14T10:29:52.000Z</time>
      </trkpt>
      <trkpt lat="36.53725" lon="-6.29911">
        <ele>20.050746</ele>
        <time>2022-04-14T10:29:57.000Z</time>
      </trkpt>
      <trkpt lat="36.53726" lon="-6.2991">
        <ele>20.045233</ele>
        <time>2022-04-14T10:29:58.000Z</time>
      </trkpt>
      <trkpt lat="36.5373" lon="-6.29908">
        <ele>20.031011</ele>
        <time>2022-04-14T10:30:00.000Z</time>
      </trkpt>
      <trkpt lat="36.53734" lon="-6.29908">
        <ele>20.014737</ele>
        <time>2022-04-14T10:30:02.000Z</time>
      </trkpt>
      <trkpt lat="36.53737" lon="-6.29908">
        <ele>20.003554</ele>
        <time>2022-04-14T10:30:04.000Z</time>
      </trkpt>
      <trkpt lat="36.53739" lon="-6.29906">
        <ele>19.99696</ele>
        <time>2022-04-14T10:30:05.000Z</time>
      </trkpt>
      <trkpt lat="36.53744" lon="-6.29899">
        <ele>19.968375</ele>
        <time>2022-04-14T10:30:08.000Z</time>
      </trkpt>
      <trkpt lat="36.53747" lon="-6.29897">
        <ele>19.956897</ele>
        <time>2022-04-14T10:30:09.000Z</time>
      </trkpt>
      <trkpt lat="36.53749" lon="-6.29893">
        <ele>19.942209</ele>
        <time>2022-04-14T10:30:13.000Z</time>
      </trkpt>
      <trkpt lat="36.53749" lon="-6.29893">
        <ele>19.942209</ele>
        <time>2022-04-14T10:30:14.000Z</time>
      </trkpt>
      <trkpt lat="36.53749" lon="-6.29893">
        <ele>19.942209</ele>
        <time>2022-04-14T10:30:16.000Z</time>
      </trkpt>
      <trkpt lat="36.53749" lon="-6.29893">
        <ele>19.942209</ele>
        <time>2022-04-14T10:30:19.000Z</time>
      </trkpt>
      <trkpt lat="36.53749" lon="-6.29893">
        <ele>19.942209</ele>
        <time>2022-04-14T10:30:22.000Z</time>
      </trkpt>
      <trkpt lat="36.53749" lon="-6.29893">
        <ele>19.942209</ele>
        <time>2022-04-14T10:30:30.000Z</time>
      </trkpt>
      <trkpt lat="36.53749" lon="-6.29893">
        <ele>19.942209</ele>
        <time>2022-04-14T10:30:53.000Z</time>
      </trkpt>
      <trkpt lat="36.5375" lon="-6.29893">
        <ele>19.939968</ele>
        <time>2022-04-14T10:31:06.000Z</time>
      </trkpt>
      <trkpt lat="36.5375" lon="-6.29893">
        <ele>19.939968</ele>
        <time>2022-04-14T10:31:12.000Z</time>
      </trkpt>
      <trkpt lat="36.5375" lon="-6.29893">
        <ele>19.939968</ele>
        <time>2022-04-14T10:31:24.000Z</time>
      </trkpt>
      <trkpt lat="36.5375" lon="-6.29893">
        <ele>19.939968</ele>
        <time>2022-04-14T10:31:39.000Z</time>
      </trkpt>
      <trkpt lat="36.5375" lon="-6.29893">
        <ele>19.939968</ele>
        <time>2022-04-14T10:31:51.000Z</time>
      </trkpt>
      <trkpt lat="36.5375" lon="-6.29893">
        <ele>19.939968</ele>
        <time>2022-04-14T10:31:53.000Z</time>
      </trkpt>
      <trkpt lat="36.5375" lon="-6.29893">
        <ele>19.939607</ele>
        <time>2022-04-14T10:32:04.000Z</time>
      </trkpt>
      <trkpt lat="36.5375" lon="-6.29893">
        <ele>19.939607</ele>
        <time>2022-04-14T10:32:06.000Z</time>
      </trkpt>
      <trkpt lat="36.5375" lon="-6.29893">
        <ele>19.939607</ele>
        <time>2022-04-14T10:32:07.000Z</time>
      </trkpt>
      <trkpt lat="36.53749" lon="-6.29893">
        <ele>19.937294</ele>
        <time>2022-04-14T10:32:15.000Z</time>
      </trkpt>
      <trkpt lat="36.53749" lon="-6.29893">
        <ele>19.937294</ele>
        <time>2022-04-14T10:32:18.000Z</time>
      </trkpt>
      <trkpt lat="36.53749" lon="-6.29892">
        <ele>19.936134</ele>
        <time>2022-04-14T10:32:22.000Z</time>
      </trkpt>
      <trkpt lat="36.53749" lon="-6.29892">
        <ele>19.936134</ele>
        <time>2022-04-14T10:32:30.000Z</time>
      </trkpt>
      <trkpt lat="36.53749" lon="-6.29892">
        <ele>19.936134</ele>
        <time>2022-04-14T10:32:36.000Z</time>
      </trkpt>
      <trkpt lat="36.5375" lon="-6.29892">
        <ele>19.93492</ele>
        <time>2022-04-14T10:32:48.000Z</time>
      </trkpt>
      <trkpt lat="36.5375" lon="-6.29885">
        <ele>19.908178</ele>
        <time>2022-04-14T10:32:51.000Z</time>
      </trkpt>
      <trkpt lat="36.53747" lon="-6.29879">
        <ele>19.87359</ele>
        <time>2022-04-14T10:32:53.000Z</time>
      </trkpt>
      <trkpt lat="36.53744" lon="-6.29873">
        <ele>19.834003</ele>
        <time>2022-04-14T10:32:55.000Z</time>
      </trkpt>
      <trkpt lat="36.53731" lon="-6.29853">
        <ele>19.69321</ele>
        <time>2022-04-14T10:33:02.000Z</time>
      </trkpt>
      <trkpt lat="36.53727" lon="-6.29848">
        <ele>19.656106</ele>
        <time>2022-04-14T10:33:04.000Z</time>
      </trkpt>
      <trkpt lat="36.53721" lon="-6.2984">
        <ele>19.595309</ele>
        <time>2022-04-14T10:33:07.000Z</time>
      </trkpt>
      <trkpt lat="36.53709" lon="-6.29823">
        <ele>19.466778</ele>
        <time>2022-04-14T10:33:14.000Z</time>
      </trkpt>
      <trkpt lat="36.53698" lon="-6.29811">
        <ele>19.369362</ele>
        <time>2022-04-14T10:33:19.000Z</time>
      </trkpt>
      <trkpt lat="36.53693" lon="-6.29801">
        <ele>19.306101</ele>
        <time>2022-04-14T10:33:23.000Z</time>
      </trkpt>
      <trkpt lat="36.53693" lon="-6.29789">
        <ele>19.239903</ele>
        <time>2022-04-14T10:33:27.000Z</time>
      </trkpt>
      <trkpt lat="36.53693" lon="-6.29782">
        <ele>19.203796</ele>
        <time>2022-04-14T10:33:29.000Z</time>
      </trkpt>
      <trkpt lat="36.53686" lon="-6.2976">
        <ele>19.072209</ele>
        <time>2022-04-14T10:33:35.000Z</time>
      </trkpt>
      <trkpt lat="36.53683" lon="-6.29738">
        <ele>18.948195</ele>
        <time>2022-04-14T10:33:41.000Z</time>
      </trkpt>
      <trkpt lat="36.5368" lon="-6.29724">
        <ele>18.870172</ele>
        <time>2022-04-14T10:33:45.000Z</time>
      </trkpt>
      <trkpt lat="36.53676" lon="-6.29714">
        <ele>18.813504</ele>
        <time>2022-04-14T10:33:48.000Z</time>
      </trkpt>
      <trkpt lat="36.53675" lon="-6.29711">
        <ele>18.795474</ele>
        <time>2022-04-14T10:33:49.000Z</time>
      </trkpt>
      <trkpt lat="36.53673" lon="-6.29691">
        <ele>18.680531</ele>
        <time>2022-04-14T10:33:55.000Z</time>
      </trkpt>
      <trkpt lat="36.53667" lon="-6.29667">
        <ele>18.523457</ele>
        <time>2022-04-14T10:34:01.000Z</time>
      </trkpt>
      <trkpt lat="36.5366" lon="-6.29635">
        <ele>18.311086</ele>
        <time>2022-04-14T10:34:10.000Z</time>
      </trkpt>
      <trkpt lat="36.53657" lon="-6.29619">
        <ele>18.205574</ele>
        <time>2022-04-14T10:34:16.000Z</time>
      </trkpt>
      <trkpt lat="36.53654" lon="-6.29601">
        <ele>18.088718</ele>
        <time>2022-04-14T10:34:23.000Z</time>
      </trkpt>
      <trkpt lat="36.53657" lon="-6.29586">
        <ele>17.992009</ele>
        <time>2022-04-14T10:34:28.000Z</time>
      </trkpt>
      <trkpt lat="36.53658" lon="-6.29583">
        <ele>17.974259</ele>
        <time>2022-04-14T10:34:29.000Z</time>
      </trkpt>
      <trkpt lat="36.53658" lon="-6.2958">
        <ele>17.954476</ele>
        <time>2022-04-14T10:34:30.000Z</time>
      </trkpt>
      <trkpt lat="36.53661" lon="-6.29558">
        <ele>17.813849</ele>
        <time>2022-04-14T10:34:37.000Z</time>
      </trkpt>
      <trkpt lat="36.53661" lon="-6.29548">
        <ele>17.747951</ele>
        <time>2022-04-14T10:34:39.000Z</time>
      </trkpt>
      <trkpt lat="36.53659" lon="-6.29539">
        <ele>17.691403</ele>
        <time>2022-04-14T10:34:41.000Z</time>
      </trkpt>
      <trkpt lat="36.53659" lon="-6.29513">
        <ele>17.526653</ele>
        <time>2022-04-14T10:34:48.000Z</time>
      </trkpt>
      <trkpt lat="36.53664" lon="-6.29489">
        <ele>17.368654</ele>
        <time>2022-04-14T10:34:55.000Z</time>
      </trkpt>
      <trkpt lat="36.53668" lon="-6.29483">
        <ele>17.319257</ele>
        <time>2022-04-14T10:34:57.000Z</time>
      </trkpt>
      <trkpt lat="36.5367" lon="-6.29477">
        <ele>17.28003</ele>
        <time>2022-04-14T10:34:59.000Z</time>
      </trkpt>
      <trkpt lat="36.53673" lon="-6.29463">
        <ele>17.321289</ele>
        <time>2022-04-14T10:35:04.000Z</time>
      </trkpt>
      <trkpt lat="36.53677" lon="-6.29443">
        <ele>17.379966</ele>
        <time>2022-04-14T10:35:10.000Z</time>
      </trkpt>
      <trkpt lat="36.53678" lon="-6.29435">
        <ele>17.401151</ele>
        <time>2022-04-14T10:35:12.000Z</time>
      </trkpt>
      <trkpt lat="36.5368" lon="-6.29418">
        <ele>17.450237</ele>
        <time>2022-04-14T10:35:17.000Z</time>
      </trkpt>
      <trkpt lat="36.53681" lon="-6.29407">
        <ele>17.481083</ele>
        <time>2022-04-14T10:35:20.000Z</time>
      </trkpt>
      <trkpt lat="36.53686" lon="-6.29387">
        <ele>17.540272</ele>
        <time>2022-04-14T10:35:25.000Z</time>
      </trkpt>
      <trkpt lat="36.53688" lon="-6.29378">
        <ele>17.565635</ele>
        <time>2022-04-14T10:35:27.000Z</time>
      </trkpt>
      <trkpt lat="36.53689" lon="-6.2937">
        <ele>17.589716</ele>
        <time>2022-04-14T10:35:29.000Z</time>
      </trkpt>
      <trkpt lat="36.53694" lon="-6.29348">
        <ele>17.653623</ele>
        <time>2022-04-14T10:35:36.000Z</time>
      </trkpt>
      <trkpt lat="36.53694" lon="-6.29348">
        <ele>17.655164</ele>
        <time>2022-04-14T10:35:40.000Z</time>
      </trkpt>
      <trkpt lat="36.53695" lon="-6.29346">
        <ele>17.659996</ele>
        <time>2022-04-14T10:35:44.000Z</time>
      </trkpt>
      <trkpt lat="36.53695" lon="-6.29345">
        <ele>17.662355</ele>
        <time>2022-04-14T10:35:47.000Z</time>
      </trkpt>
      <trkpt lat="36.53696" lon="-6.29341">
        <ele>17.674154</ele>
        <time>2022-04-14T10:35:51.000Z</time>
      </trkpt>
      <trkpt lat="36.53697" lon="-6.29335">
        <ele>17.692596</ele>
        <time>2022-04-14T10:35:53.000Z</time>
      </trkpt>
      <trkpt lat="36.537" lon="-6.29328">
        <ele>17.713648</ele>
        <time>2022-04-14T10:35:55.000Z</time>
      </trkpt>
      <trkpt lat="36.53704" lon="-6.29313">
        <ele>17.75846</ele>
        <time>2022-04-14T10:35:59.000Z</time>
      </trkpt>
      <trkpt lat="36.53712" lon="-6.29273">
        <ele>17.875573</ele>
        <time>2022-04-14T10:36:09.000Z</time>
      </trkpt>
      <trkpt lat="36.53719" lon="-6.29245">
        <ele>17.890441</ele>
        <time>2022-04-14T10:36:16.000Z</time>
      </trkpt>
      <trkpt lat="36.53723" lon="-6.29222">
        <ele>17.863166</ele>
        <time>2022-04-14T10:36:23.000Z</time>
      </trkpt>
      <trkpt lat="36.53725" lon="-6.2921">
        <ele>17.849728</ele>
        <time>2022-04-14T10:36:27.000Z</time>
      </trkpt>
      <trkpt lat="36.53723" lon="-6.29207">
        <ele>17.846142</ele>
        <time>2022-04-14T10:36:28.000Z</time>
      </trkpt>
      <trkpt lat="36.53714" lon="-6.29204">
        <ele>17.832221</ele>
        <time>2022-04-14T10:36:32.000Z</time>
      </trkpt>
      <trkpt lat="36.53711" lon="-6.29205">
        <ele>17.828171</ele>
        <time>2022-04-14T10:36:33.000Z</time>
      </trkpt>
      <trkpt lat="36.53696" lon="-6.29212">
        <ele>17.8047</ele>
        <time>2022-04-14T10:36:39.000Z</time>
      </trkpt>
      <trkpt lat="36.5368" lon="-6.29219">
        <ele>17.780507</ele>
        <time>2022-04-14T10:36:44.000Z</time>
      </trkpt>
      <trkpt lat="36.53677" lon="-6.29221">
        <ele>17.775498</ele>
        <time>2022-04-14T10:36:45.000Z</time>
      </trkpt>
      <trkpt lat="36.53657" lon="-6.29231">
        <ele>17.745466</ele>
        <time>2022-04-14T10:36:51.000Z</time>
      </trkpt>
      <trkpt lat="36.53654" lon="-6.29232">
        <ele>17.740667</ele>
        <time>2022-04-14T10:36:52.000Z</time>
      </trkpt>
      <trkpt lat="36.5363" lon="-6.29244">
        <ele>17.703518</ele>
        <time>2022-04-14T10:37:00.000Z</time>
      </trkpt>
      <trkpt lat="36.53619" lon="-6.29249">
        <ele>17.6867</ele>
        <time>2022-04-14T10:37:04.000Z</time>
      </trkpt>
      <trkpt lat="36.53613" lon="-6.29249">
        <ele>17.67897</ele>
        <time>2022-04-14T10:37:06.000Z</time>
      </trkpt>
      <trkpt lat="36.53611" lon="-6.2925">
        <ele>17.675404</ele>
        <time>2022-04-14T10:37:07.000Z</time>
      </trkpt>
      <trkpt lat="36.53601" lon="-6.29254">
        <ele>17.660478</ele>
        <time>2022-04-14T10:37:12.000Z</time>
      </trkpt>
      <trkpt lat="36.53596" lon="-6.29259">
        <ele>17.652777</ele>
        <time>2022-04-14T10:37:17.000Z</time>
      </trkpt>
      <trkpt lat="36.53596" lon="-6.29259">
        <ele>17.652777</ele>
        <time>2022-04-14T10:37:23.000Z</time>
      </trkpt>
      <trkpt lat="36.53596" lon="-6.29259">
        <ele>17.652777</ele>
        <time>2022-04-14T10:37:31.000Z</time>
      </trkpt>
      <trkpt lat="36.53596" lon="-6.29259">
        <ele>17.652777</ele>
        <time>2022-04-14T10:37:37.000Z</time>
      </trkpt>
      <trkpt lat="36.53597" lon="-6.29259">
        <ele>17.652095</ele>
        <time>2022-04-14T10:37:47.000Z</time>
      </trkpt>
      <trkpt lat="36.53597" lon="-6.29259">
        <ele>17.652095</ele>
        <time>2022-04-14T10:37:52.000Z</time>
      </trkpt>
      <trkpt lat="36.53597" lon="-6.29259">
        <ele>17.651846</ele>
        <time>2022-04-14T10:37:57.000Z</time>
      </trkpt>
      <trkpt lat="36.53601" lon="-6.29257">
        <ele>17.648366</ele>
        <time>2022-04-14T10:37:59.000Z</time>
      </trkpt>
      <trkpt lat="36.53603" lon="-6.29255">
        <ele>17.646449</ele>
        <time>2022-04-14T10:38:00.000Z</time>
      </trkpt>
      <trkpt lat="36.53611" lon="-6.2925">
        <ele>17.639269</ele>
        <time>2022-04-14T10:38:03.000Z</time>
      </trkpt>
      <trkpt lat="36.53619" lon="-6.29247">
        <ele>17.631596</ele>
        <time>2022-04-14T10:38:06.000Z</time>
      </trkpt>
      <trkpt lat="36.53628" lon="-6.29244">
        <ele>17.624302</ele>
        <time>2022-04-14T10:38:09.000Z</time>
      </trkpt>
      <trkpt lat="36.53637" lon="-6.2924">
        <ele>17.616569</ele>
        <time>2022-04-14T10:38:12.000Z</time>
      </trkpt>
      <trkpt lat="36.53646" lon="-6.29237">
        <ele>17.608779</ele>
        <time>2022-04-14T10:38:15.000Z</time>
      </trkpt>
      <trkpt lat="36.53679" lon="-6.29222">
        <ele>17.579322</ele>
        <time>2022-04-14T10:38:25.000Z</time>
      </trkpt>
      <trkpt lat="36.53721" lon="-6.29207">
        <ele>17.54305</ele>
        <time>2022-04-14T10:38:37.000Z</time>
      </trkpt>
      <trkpt lat="36.53724" lon="-6.29208">
        <ele>17.540533</ele>
        <time>2022-04-14T10:38:38.000Z</time>
      </trkpt>
      <trkpt lat="36.53726" lon="-6.29214">
        <ele>17.535905</ele>
        <time>2022-04-14T10:38:40.000Z</time>
      </trkpt>
      <trkpt lat="36.53722" lon="-6.29234">
        <ele>17.522027</ele>
        <time>2022-04-14T10:38:45.000Z</time>
      </trkpt>
      <trkpt lat="36.53715" lon="-6.29267">
        <ele>17.462799</ele>
        <time>2022-04-14T10:38:52.000Z</time>
      </trkpt>
      <trkpt lat="36.53714" lon="-6.29272">
        <ele>17.43253</ele>
        <time>2022-04-14T10:38:53.000Z</time>
      </trkpt>
      <trkpt lat="36.53709" lon="-6.29293">
        <ele>17.311051</ele>
        <time>2022-04-14T10:38:57.000Z</time>
      </trkpt>
      <trkpt lat="36.53705" lon="-6.29312">
        <ele>17.199529</ele>
        <time>2022-04-14T10:39:01.000Z</time>
      </trkpt>
      <trkpt lat="36.53698" lon="-6.29337">
        <ele>17.048118</ele>
        <time>2022-04-14T10:39:07.000Z</time>
      </trkpt>
      <trkpt lat="36.53697" lon="-6.29345">
        <ele>17.002187</ele>
        <time>2022-04-14T10:39:11.000Z</time>
      </trkpt>
      <trkpt lat="36.53697" lon="-6.29347">
        <ele>16.990448</ele>
        <time>2022-04-14T10:39:13.000Z</time>
      </trkpt>
      <trkpt lat="36.53695" lon="-6.29351">
        <ele>16.962431</ele>
        <time>2022-04-14T10:39:17.000Z</time>
      </trkpt>
      <trkpt lat="36.53694" lon="-6.29353">
        <ele>16.950835</ele>
        <time>2022-04-14T10:39:19.000Z</time>
      </trkpt>
      <trkpt lat="36.53693" lon="-6.29357">
        <ele>16.927518</ele>
        <time>2022-04-14T10:39:22.000Z</time>
      </trkpt>
      <trkpt lat="36.53693" lon="-6.2936">
        <ele>16.911554</ele>
        <time>2022-04-14T10:39:23.000Z</time>
      </trkpt>
      <trkpt lat="36.53692" lon="-6.2938">
        <ele>16.796753</ele>
        <time>2022-04-14T10:39:28.000Z</time>
      </trkpt>
      <trkpt lat="36.53686" lon="-6.29407">
        <ele>16.636646</ele>
        <time>2022-04-14T10:39:34.000Z</time>
      </trkpt>
      <trkpt lat="36.53679" lon="-6.29442">
        <ele>16.43159</ele>
        <time>2022-04-14T10:39:42.000Z</time>
      </trkpt>
      <trkpt lat="36.53678" lon="-6.29454">
        <ele>16.36062</ele>
        <time>2022-04-14T10:39:45.000Z</time>
      </trkpt>
      <trkpt lat="36.53676" lon="-6.29461">
        <ele>16.320976</ele>
        <time>2022-04-14T10:39:47.000Z</time>
      </trkpt>
      <trkpt lat="36.53674" lon="-6.29463">
        <ele>16.302962</ele>
        <time>2022-04-14T10:39:48.000Z</time>
      </trkpt>
      <trkpt lat="36.53669" lon="-6.29463">
        <ele>16.266648</ele>
        <time>2022-04-14T10:39:50.000Z</time>
      </trkpt>
      <trkpt lat="36.53667" lon="-6.29462">
        <ele>16.254265</ele>
        <time>2022-04-14T10:39:51.000Z</time>
      </trkpt>
      <trkpt lat="36.53667" lon="-6.29461">
        <ele>16.248809</ele>
        <time>2022-04-14T10:39:55.000Z</time>
      </trkpt>
      <trkpt lat="36.53667" lon="-6.29461">
        <ele>16.248809</ele>
        <time>2022-04-14T10:40:01.000Z</time>
      </trkpt>
      <trkpt lat="36.53667" lon="-6.29461">
        <ele>16.248809</ele>
        <time>2022-04-14T10:40:08.000Z</time>
      </trkpt>
      <trkpt lat="36.53667" lon="-6.29461">
        <ele>16.248809</ele>
        <time>2022-04-14T10:40:09.000Z</time>
      </trkpt>
      <trkpt lat="36.53666" lon="-6.29461">
        <ele>16.246589</ele>
        <time>2022-04-14T10:40:12.000Z</time>
      </trkpt>
      <trkpt lat="36.53661" lon="-6.29459">
        <ele>16.188151</ele>
        <time>2022-04-14T10:40:14.000Z</time>
      </trkpt>
      <trkpt lat="36.53659" lon="-6.29457">
        <ele>16.144593</ele>
        <time>2022-04-14T10:40:15.000Z</time>
      </trkpt>
      <trkpt lat="36.5365" lon="-6.29446">
        <ele>15.969224</ele>
        <time>2022-04-14T10:40:19.000Z</time>
      </trkpt>
      <trkpt lat="36.53644" lon="-6.29431">
        <ele>15.781568</ele>
        <time>2022-04-14T10:40:24.000Z</time>
      </trkpt>
      <trkpt lat="36.53642" lon="-6.29423">
        <ele>15.680975</ele>
        <time>2022-04-14T10:40:27.000Z</time>
      </trkpt>
      <trkpt lat="36.5364" lon="-6.2942">
        <ele>15.648464</ele>
        <time>2022-04-14T10:40:28.000Z</time>
      </trkpt>
      <trkpt lat="36.53636" lon="-6.29417">
        <ele>15.575454</ele>
        <time>2022-04-14T10:40:30.000Z</time>
      </trkpt>
      <trkpt lat="36.53635" lon="-6.29415">
        <ele>15.548227</ele>
        <time>2022-04-14T10:40:31.000Z</time>
      </trkpt>
      <trkpt lat="36.53631" lon="-6.2941">
        <ele>15.480719</ele>
        <time>2022-04-14T10:40:33.000Z</time>
      </trkpt>
      <trkpt lat="36.53626" lon="-6.29405">
        <ele>15.377065</ele>
        <time>2022-04-14T10:40:36.000Z</time>
      </trkpt>
      <trkpt lat="36.53618" lon="-6.29397">
        <ele>15.246837</ele>
        <time>2022-04-14T10:40:40.000Z</time>
      </trkpt>
      <trkpt lat="36.53613" lon="-6.29388">
        <ele>15.117219</ele>
        <time>2022-04-14T10:40:44.000Z</time>
      </trkpt>
      <trkpt lat="36.53611" lon="-6.29387">
        <ele>15.089893</ele>
        <time>2022-04-14T10:40:45.000Z</time>
      </trkpt>
      <trkpt lat="36.53609" lon="-6.29385">
        <ele>15.048642</ele>
        <time>2022-04-14T10:40:47.000Z</time>
      </trkpt>
      <trkpt lat="36.53607" lon="-6.29383">
        <ele>15.024986</ele>
        <time>2022-04-14T10:40:48.000Z</time>
      </trkpt>
      <trkpt lat="36.53605" lon="-6.29382">
        <ele>14.98692</ele>
        <time>2022-04-14T10:40:50.000Z</time>
      </trkpt>
      <trkpt lat="36.53587" lon="-6.29381">
        <ele>14.730938</ele>
        <time>2022-04-14T10:40:56.000Z</time>
      </trkpt>
      <trkpt lat="36.53583" lon="-6.29381">
        <ele>14.683282</ele>
        <time>2022-04-14T10:40:57.000Z</time>
      </trkpt>
      <trkpt lat="36.5357" lon="-6.29384">
        <ele>14.491547</ele>
        <time>2022-04-14T10:41:02.000Z</time>
      </trkpt>
      <trkpt lat="36.53558" lon="-6.29382">
        <ele>14.323593</ele>
        <time>2022-04-14T10:41:07.000Z</time>
      </trkpt>
      <trkpt lat="36.53545" lon="-6.29379">
        <ele>14.134998</ele>
        <time>2022-04-14T10:41:12.000Z</time>
      </trkpt>
      <trkpt lat="36.53531" lon="-6.29375">
        <ele>13.937628</ele>
        <time>2022-04-14T10:41:17.000Z</time>
      </trkpt>
      <trkpt lat="36.53512" lon="-6.29369">
        <ele>13.69286</ele>
        <time>2022-04-14T10:41:23.000Z</time>
      </trkpt>
      <trkpt lat="36.53502" lon="-6.29365">
        <ele>13.6219</ele>
        <time>2022-04-14T10:41:26.000Z</time>
      </trkpt>
      <trkpt lat="36.53495" lon="-6.29363">
        <ele>13.578157</ele>
        <time>2022-04-14T10:41:28.000Z</time>
      </trkpt>
      <trkpt lat="36.5349" lon="-6.29363">
        <ele>13.541568</ele>
        <time>2022-04-14T10:41:31.000Z</time>
      </trkpt>
      <trkpt lat="36.53486" lon="-6.29362">
        <ele>13.516003</ele>
        <time>2022-04-14T10:41:33.000Z</time>
      </trkpt>
      <trkpt lat="36.53484" lon="-6.29363">
        <ele>13.503058</ele>
        <time>2022-04-14T10:41:34.000Z</time>
      </trkpt>
      <trkpt lat="36.5348" lon="-6.29363">
        <ele>13.47888</ele>
        <time>2022-04-14T10:41:37.000Z</time>
      </trkpt>
      <trkpt lat="36.53479" lon="-6.29364">
        <ele>13.469162</ele>
        <time>2022-04-14T10:41:38.000Z</time>
      </trkpt>
      <trkpt lat="36.53476" lon="-6.29367">
        <ele>13.443092</ele>
        <time>2022-04-14T10:41:42.000Z</time>
      </trkpt>
      <trkpt lat="36.53475" lon="-6.29368">
        <ele>13.436541</ele>
        <time>2022-04-14T10:41:43.000Z</time>
      </trkpt>
      <trkpt lat="36.53473" lon="-6.29367">
        <ele>13.422647</ele>
        <time>2022-04-14T10:41:47.000Z</time>
      </trkpt>
      <trkpt lat="36.53472" lon="-6.29365">
        <ele>13.41215</ele>
        <time>2022-04-14T10:41:48.000Z</time>
      </trkpt>
      <trkpt lat="36.53471" lon="-6.29362">
        <ele>13.393483</ele>
        <time>2022-04-14T10:41:50.000Z</time>
      </trkpt>
      <trkpt lat="36.53469" lon="-6.29363">
        <ele>13.378509</ele>
        <time>2022-04-14T10:41:52.000Z</time>
      </trkpt>
      <trkpt lat="36.53467" lon="-6.29366">
        <ele>13.358269</ele>
        <time>2022-04-14T10:41:53.000Z</time>
      </trkpt>
      <trkpt lat="36.5345" lon="-6.29367">
        <ele>13.247108</ele>
        <time>2022-04-14T10:42:01.000Z</time>
      </trkpt>
      <trkpt lat="36.53447" lon="-6.29366">
        <ele>13.22309</ele>
        <time>2022-04-14T10:42:03.000Z</time>
      </trkpt>
      <trkpt lat="36.53444" lon="-6.29364">
        <ele>13.204368</ele>
        <time>2022-04-14T10:42:04.000Z</time>
      </trkpt>
      <trkpt lat="36.53439" lon="-6.29365">
        <ele>13.167889</ele>
        <time>2022-04-14T10:42:07.000Z</time>
      </trkpt>
      <trkpt lat="36.53436" lon="-6.29367">
        <ele>13.150102</ele>
        <time>2022-04-14T10:42:11.000Z</time>
      </trkpt>
      <trkpt lat="36.53436" lon="-6.29367">
        <ele>13.150102</ele>
        <time>2022-04-14T10:42:13.000Z</time>
      </trkpt>
      <trkpt lat="36.53436" lon="-6.29367">
        <ele>13.150102</ele>
        <time>2022-04-14T10:42:17.000Z</time>
      </trkpt>
      <trkpt lat="36.53436" lon="-6.29367">
        <ele>13.150102</ele>
        <time>2022-04-14T10:42:23.000Z</time>
      </trkpt>
      <trkpt lat="36.53433" lon="-6.29367">
        <ele>13.125271</ele>
        <time>2022-04-14T10:42:26.000Z</time>
      </trkpt>
      <trkpt lat="36.53423" lon="-6.29372">
        <ele>13.054826</ele>
        <time>2022-04-14T10:42:31.000Z</time>
      </trkpt>
      <trkpt lat="36.53409" lon="-6.2937">
        <ele>12.963351</ele>
        <time>2022-04-14T10:42:37.000Z</time>
      </trkpt>
      <trkpt lat="36.53396" lon="-6.29368">
        <ele>12.88266</ele>
        <time>2022-04-14T10:42:41.000Z</time>
      </trkpt>
      <trkpt lat="36.53394" lon="-6.29368">
        <ele>12.866328</ele>
        <time>2022-04-14T10:42:42.000Z</time>
      </trkpt>
      <trkpt lat="36.53389" lon="-6.29368">
        <ele>12.832944</ele>
        <time>2022-04-14T10:42:46.000Z</time>
      </trkpt>
      <trkpt lat="36.53374" lon="-6.29368">
        <ele>12.73363</ele>
        <time>2022-04-14T10:42:51.000Z</time>
      </trkpt>
      <trkpt lat="36.53371" lon="-6.29369">
        <ele>12.714737</ele>
        <time>2022-04-14T10:42:52.000Z</time>
      </trkpt>
      <trkpt lat="36.53363" lon="-6.29363">
        <ele>12.657303</ele>
        <time>2022-04-14T10:42:54.000Z</time>
      </trkpt>
      <trkpt lat="36.53358" lon="-6.29356">
        <ele>12.608192</ele>
        <time>2022-04-14T10:42:56.000Z</time>
      </trkpt>
      <trkpt lat="36.53344" lon="-6.29352">
        <ele>12.520232</ele>
        <time>2022-04-14T10:43:02.000Z</time>
      </trkpt>
      <trkpt lat="36.5334" lon="-6.29352">
        <ele>12.502893</ele>
        <time>2022-04-14T10:43:04.000Z</time>
      </trkpt>
      <trkpt lat="36.53334" lon="-6.2935">
        <ele>12.475391</ele>
        <time>2022-04-14T10:43:07.000Z</time>
      </trkpt>
      <trkpt lat="36.5332" lon="-6.29345">
        <ele>12.410691</ele>
        <time>2022-04-14T10:43:13.000Z</time>
      </trkpt>
      <trkpt lat="36.53306" lon="-6.29339">
        <ele>12.343305</ele>
        <time>2022-04-14T10:43:20.000Z</time>
      </trkpt>
      <trkpt lat="36.53304" lon="-6.29338">
        <ele>12.333439</ele>
        <time>2022-04-14T10:43:21.000Z</time>
      </trkpt>
      <trkpt lat="36.53299" lon="-6.29337">
        <ele>12.315195</ele>
        <time>2022-04-14T10:43:23.000Z</time>
      </trkpt>
      <trkpt lat="36.53297" lon="-6.29336">
        <ele>12.302202</ele>
        <time>2022-04-14T10:43:24.000Z</time>
      </trkpt>
      <trkpt lat="36.53294" lon="-6.29337">
        <ele>12.289582</ele>
        <time>2022-04-14T10:43:26.000Z</time>
      </trkpt>
      <trkpt lat="36.53289" lon="-6.29339">
        <ele>12.265178</ele>
        <time>2022-04-14T10:43:28.000Z</time>
      </trkpt>
      <trkpt lat="36.5327" lon="-6.29337">
        <ele>12.179647</ele>
        <time>2022-04-14T10:43:36.000Z</time>
      </trkpt>
      <trkpt lat="36.53253" lon="-6.29331">
        <ele>12.103246</ele>
        <time>2022-04-14T10:43:42.000Z</time>
      </trkpt>
      <trkpt lat="36.53244" lon="-6.29325">
        <ele>12.058364</ele>
        <time>2022-04-14T10:43:48.000Z</time>
      </trkpt>
      <trkpt lat="36.53244" lon="-6.29325">
        <ele>12.055174</ele>
        <time>2022-04-14T10:43:49.000Z</time>
      </trkpt>
      <trkpt lat="36.53236" lon="-6.29324">
        <ele>12.021226</ele>
        <time>2022-04-14T10:43:53.000Z</time>
      </trkpt>
      <trkpt lat="36.53234" lon="-6.29324">
        <ele>12.010559</ele>
        <time>2022-04-14T10:43:54.000Z</time>
      </trkpt>
      <trkpt lat="36.53224" lon="-6.29321">
        <ele>11.966695</ele>
        <time>2022-04-14T10:43:57.000Z</time>
      </trkpt>
      <trkpt lat="36.53213" lon="-6.2932">
        <ele>11.916175</ele>
        <time>2022-04-14T10:44:01.000Z</time>
      </trkpt>
      <trkpt lat="36.5321" lon="-6.29319">
        <ele>11.904133</ele>
        <time>2022-04-14T10:44:02.000Z</time>
      </trkpt>
      <trkpt lat="36.53208" lon="-6.2932">
        <ele>11.895071</ele>
        <time>2022-04-14T10:44:03.000Z</time>
      </trkpt>
      <trkpt lat="36.53206" lon="-6.29319">
        <ele>11.886269</ele>
        <time>2022-04-14T10:44:04.000Z</time>
      </trkpt>
      <trkpt lat="36.53203" lon="-6.29317">
        <ele>11.87132</ele>
        <time>2022-04-14T10:44:05.000Z</time>
      </trkpt>
      <trkpt lat="36.53198" lon="-6.29314">
        <ele>11.844903</ele>
        <time>2022-04-14T10:44:07.000Z</time>
      </trkpt>
      <trkpt lat="36.53194" lon="-6.29313">
        <ele>11.829291</ele>
        <time>2022-04-14T10:44:08.000Z</time>
      </trkpt>
      <trkpt lat="36.53183" lon="-6.29311">
        <ele>11.777659</ele>
        <time>2022-04-14T10:44:12.000Z</time>
      </trkpt>
      <trkpt lat="36.53174" lon="-6.29301">
        <ele>11.730538</ele>
        <time>2022-04-14T10:44:15.000Z</time>
      </trkpt>
      <trkpt lat="36.53165" lon="-6.29294">
        <ele>11.703238</ele>
        <time>2022-04-14T10:44:20.000Z</time>
      </trkpt>
      <trkpt lat="36.53161" lon="-6.29293">
        <ele>11.691693</ele>
        <time>2022-04-14T10:44:22.000Z</time>
      </trkpt>
      <trkpt lat="36.53158" lon="-6.29289">
        <ele>11.680722</ele>
        <time>2022-04-14T10:44:24.000Z</time>
      </trkpt>
      <trkpt lat="36.53157" lon="-6.2929">
        <ele>11.678184</ele>
        <time>2022-04-14T10:44:25.000Z</time>
      </trkpt>
      <trkpt lat="36.53156" lon="-6.29292">
        <ele>11.673716</ele>
        <time>2022-04-14T10:44:28.000Z</time>
      </trkpt>
      <trkpt lat="36.53156" lon="-6.29288">
        <ele>11.665165</ele>
        <time>2022-04-14T10:44:32.000Z</time>
      </trkpt>
      <trkpt lat="36.53152" lon="-6.29276">
        <ele>11.637345</ele>
        <time>2022-04-14T10:44:34.000Z</time>
      </trkpt>
      <trkpt lat="36.53152" lon="-6.29276">
        <ele>11.636278</ele>
        <time>2022-04-14T10:44:36.000Z</time>
      </trkpt>
      <trkpt lat="36.53152" lon="-6.29276">
        <ele>11.635938</ele>
        <time>2022-04-14T10:44:41.000Z</time>
      </trkpt>
      <trkpt lat="36.5315" lon="-6.29277">
        <ele>11.631419</ele>
        <time>2022-04-14T10:44:47.000Z</time>
      </trkpt>
      <trkpt lat="36.5315" lon="-6.29277">
        <ele>11.631419</ele>
        <time>2022-04-14T10:44:48.000Z</time>
      </trkpt>
      <trkpt lat="36.5315" lon="-6.29277">
        <ele>11.631419</ele>
        <time>2022-04-14T10:44:50.000Z</time>
      </trkpt>
      <trkpt lat="36.5315" lon="-6.29277">
        <ele>11.631419</ele>
        <time>2022-04-14T10:44:58.000Z</time>
      </trkpt>
      <trkpt lat="36.5315" lon="-6.29277">
        <ele>11.631419</ele>
        <time>2022-04-14T10:45:01.000Z</time>
      </trkpt>
      <trkpt lat="36.5315" lon="-6.29277">
        <ele>11.631153</ele>
        <time>2022-04-14T10:45:09.000Z</time>
      </trkpt>
      <trkpt lat="36.5315" lon="-6.29277">
        <ele>11.631153</ele>
        <time>2022-04-14T10:45:14.000Z</time>
      </trkpt>
      <trkpt lat="36.53151" lon="-6.29277">
        <ele>11.628769</ele>
        <time>2022-04-14T10:45:21.000Z</time>
      </trkpt>
      <trkpt lat="36.53151" lon="-6.29277">
        <ele>11.628769</ele>
        <time>2022-04-14T10:45:24.000Z</time>
      </trkpt>
      <trkpt lat="36.53152" lon="-6.29279">
        <ele>11.625108</ele>
        <time>2022-04-14T10:45:35.000Z</time>
      </trkpt>
      <trkpt lat="36.53159" lon="-6.2928">
        <ele>11.605557</ele>
        <time>2022-04-14T10:45:37.000Z</time>
      </trkpt>
      <trkpt lat="36.53165" lon="-6.29279">
        <ele>11.591254</ele>
        <time>2022-04-14T10:45:47.000Z</time>
      </trkpt>
      <trkpt lat="36.53165" lon="-6.29279">
        <ele>11.591254</ele>
        <time>2022-04-14T10:45:48.000Z</time>
      </trkpt>
      <trkpt lat="36.53164" lon="-6.29278">
        <ele>11.589537</ele>
        <time>2022-04-14T10:45:49.000Z</time>
      </trkpt>
      <trkpt lat="36.53162" lon="-6.29275">
        <ele>11.580994</ele>
        <time>2022-04-14T10:45:52.000Z</time>
      </trkpt>
      <trkpt lat="36.53161" lon="-6.29275">
        <ele>11.578283</ele>
        <time>2022-04-14T10:46:00.000Z</time>
      </trkpt>
      <trkpt lat="36.53161" lon="-6.29275">
        <ele>11.57662</ele>
        <time>2022-04-14T10:46:01.000Z</time>
      </trkpt>
      <trkpt lat="36.5316" lon="-6.29276">
        <ele>11.573431</ele>
        <time>2022-04-14T10:46:03.000Z</time>
      </trkpt>
      <trkpt lat="36.5316" lon="-6.29277">
        <ele>11.570918</ele>
        <time>2022-04-14T10:46:07.000Z</time>
      </trkpt>
      <trkpt lat="36.53163" lon="-6.2928">
        <ele>11.560323</ele>
        <time>2022-04-14T10:46:12.000Z</time>
      </trkpt>
      <trkpt lat="36.53163" lon="-6.2928">
        <ele>11.558817</ele>
        <time>2022-04-14T10:46:13.000Z</time>
      </trkpt>
      <trkpt lat="36.53163" lon="-6.2928">
        <ele>11.558817</ele>
        <time>2022-04-14T10:46:19.000Z</time>
      </trkpt>
      <trkpt lat="36.53148" lon="-6.29262">
        <ele>11.502373</ele>
        <time>2022-04-14T10:46:23.000Z</time>
      </trkpt>
      <trkpt lat="36.53145" lon="-6.29262">
        <ele>11.496435</ele>
        <time>2022-04-14T10:46:24.000Z</time>
      </trkpt>
      <trkpt lat="36.53142" lon="-6.29264">
        <ele>11.48726</ele>
        <time>2022-04-14T10:46:27.000Z</time>
      </trkpt>
      <trkpt lat="36.53142" lon="-6.29262">
        <ele>11.482212</ele>
        <time>2022-04-14T10:46:28.000Z</time>
      </trkpt>
      <trkpt lat="36.5314" lon="-6.2926">
        <ele>11.477234</ele>
        <time>2022-04-14T10:46:31.000Z</time>
      </trkpt>
      <trkpt lat="36.53141" lon="-6.29262">
        <ele>11.473056</ele>
        <time>2022-04-14T10:46:36.000Z</time>
      </trkpt>
      <trkpt lat="36.53145" lon="-6.29261">
        <ele>11.463412</ele>
        <time>2022-04-14T10:46:42.000Z</time>
      </trkpt>
      <trkpt lat="36.53146" lon="-6.2926">
        <ele>11.458899</ele>
        <time>2022-04-14T10:46:49.000Z</time>
      </trkpt>
      <trkpt lat="36.53146" lon="-6.29259">
        <ele>11.457192</ele>
        <time>2022-04-14T10:46:55.000Z</time>
      </trkpt>
      <trkpt lat="36.53146" lon="-6.29259">
        <ele>11.455285</ele>
        <time>2022-04-14T10:47:02.000Z</time>
      </trkpt>
      <trkpt lat="36.53157" lon="-6.29267">
        <ele>11.420378</ele>
        <time>2022-04-14T10:47:07.000Z</time>
      </trkpt>
      <trkpt lat="36.5316" lon="-6.29273">
        <ele>11.405191</ele>
        <time>2022-04-14T10:47:11.000Z</time>
      </trkpt>
      <trkpt lat="36.5316" lon="-6.29276">
        <ele>11.398116</ele>
        <time>2022-04-14T10:47:12.000Z</time>
      </trkpt>
      <trkpt lat="36.53157" lon="-6.29277">
        <ele>11.391143</ele>
        <time>2022-04-14T10:47:14.000Z</time>
      </trkpt>
      <trkpt lat="36.53162" lon="-6.2928">
        <ele>11.377879</ele>
        <time>2022-04-14T10:47:18.000Z</time>
      </trkpt>
      <trkpt lat="36.53162" lon="-6.2928">
        <ele>11.377666</ele>
        <time>2022-04-14T10:47:19.000Z</time>
      </trkpt>
      <trkpt lat="36.53163" lon="-6.29287">
        <ele>11.362483</ele>
        <time>2022-04-14T10:47:22.000Z</time>
      </trkpt>
      <trkpt lat="36.53165" lon="-6.29298">
        <ele>11.338153</ele>
        <time>2022-04-14T10:47:25.000Z</time>
      </trkpt>
      <trkpt lat="36.53167" lon="-6.29306">
        <ele>11.319795</ele>
        <time>2022-04-14T10:47:28.000Z</time>
      </trkpt>
      <trkpt lat="36.53176" lon="-6.29302">
        <ele>11.294947</ele>
        <time>2022-04-14T10:47:30.000Z</time>
      </trkpt>
      <trkpt lat="36.53182" lon="-6.29301">
        <ele>11.277615</ele>
        <time>2022-04-14T10:47:34.000Z</time>
      </trkpt>
      <trkpt lat="36.53183" lon="-6.29302">
        <ele>11.275431</ele>
        <time>2022-04-14T10:47:35.000Z</time>
      </trkpt>
      <trkpt lat="36.53181" lon="-6.29293">
        <ele>11.261664</ele>
        <time>2022-04-14T10:47:42.000Z</time>
      </trkpt>
      <trkpt lat="36.53166" lon="-6.29278">
        <ele>11.252048</ele>
        <time>2022-04-14T10:47:48.000Z</time>
      </trkpt>
      <trkpt lat="36.53164" lon="-6.29288">
        <ele>11.248105</ele>
        <time>2022-04-14T10:47:53.000Z</time>
      </trkpt>
      <trkpt lat="36.53162" lon="-6.29284">
        <ele>11.246401</ele>
        <time>2022-04-14T10:47:57.000Z</time>
      </trkpt>
      <trkpt lat="36.53163" lon="-6.29285">
        <ele>11.245743</ele>
        <time>2022-04-14T10:47:58.000Z</time>
      </trkpt>
      <trkpt lat="36.53162" lon="-6.29283">
        <ele>11.244589</ele>
        <time>2022-04-14T10:48:01.000Z</time>
      </trkpt>
      <trkpt lat="36.53155" lon="-6.29284">
        <ele>11.241523</ele>
        <time>2022-04-14T10:48:07.000Z</time>
      </trkpt>
      <trkpt lat="36.53156" lon="-6.29283">
        <ele>11.24118</ele>
        <time>2022-04-14T10:48:11.000Z</time>
      </trkpt>
      <trkpt lat="36.53157" lon="-6.29282">
        <ele>11.240441</ele>
        <time>2022-04-14T10:48:15.000Z</time>
      </trkpt>
      <trkpt lat="36.53158" lon="-6.29283">
        <ele>11.239849</ele>
        <time>2022-04-14T10:48:16.000Z</time>
      </trkpt>
      <trkpt lat="36.53158" lon="-6.29284">
        <ele>11.239695</ele>
        <time>2022-04-14T10:48:17.000Z</time>
      </trkpt>
      <trkpt lat="36.53158" lon="-6.29284">
        <ele>11.239695</ele>
        <time>2022-04-14T10:48:22.000Z</time>
      </trkpt>
      <trkpt lat="36.53158" lon="-6.29283">
        <ele>11.239575</ele>
        <time>2022-04-14T10:48:40.000Z</time>
      </trkpt>
      <trkpt lat="36.53158" lon="-6.29283">
        <ele>11.239575</ele>
        <time>2022-04-14T10:48:44.000Z</time>
      </trkpt>
      <trkpt lat="36.53158" lon="-6.29283">
        <ele>11.239575</ele>
        <time>2022-04-14T10:48:49.000Z</time>
      </trkpt>
      <trkpt lat="36.53158" lon="-6.2928">
        <ele>11.238377</ele>
        <time>2022-04-14T10:48:54.000Z</time>
      </trkpt>
      <trkpt lat="36.53158" lon="-6.2928">
        <ele>11.238377</ele>
        <time>2022-04-14T10:49:00.000Z</time>
      </trkpt>
      <trkpt lat="36.53158" lon="-6.2928">
        <ele>11.238377</ele>
        <time>2022-04-14T10:49:06.000Z</time>
      </trkpt>
      <trkpt lat="36.53158" lon="-6.2928">
        <ele>11.238377</ele>
        <time>2022-04-14T10:49:08.000Z</time>
      </trkpt>
      <trkpt lat="36.53158" lon="-6.29278">
        <ele>11.237573</ele>
        <time>2022-04-14T10:49:17.000Z</time>
      </trkpt>
      <trkpt lat="36.53158" lon="-6.29278">
        <ele>11.237292</ele>
        <time>2022-04-14T10:49:22.000Z</time>
      </trkpt>
      <trkpt lat="36.53158" lon="-6.29278">
        <ele>11.237292</ele>
        <time>2022-04-14T10:49:35.000Z</time>
      </trkpt>
      <trkpt lat="36.53158" lon="-6.29278">
        <ele>11.237292</ele>
        <time>2022-04-14T10:49:41.000Z</time>
      </trkpt>
      <trkpt lat="36.53158" lon="-6.29277">
        <ele>11.23691</ele>
        <time>2022-04-14T10:50:04.000Z</time>
      </trkpt>
      <trkpt lat="36.53151" lon="-6.29276">
        <ele>11.233628</ele>
        <time>2022-04-14T10:50:07.000Z</time>
      </trkpt>
      <trkpt lat="36.53148" lon="-6.29277">
        <ele>11.23193</ele>
        <time>2022-04-14T10:50:13.000Z</time>
      </trkpt>
      <trkpt lat="36.53147" lon="-6.29277">
        <ele>11.231458</ele>
        <time>2022-04-14T10:50:15.000Z</time>
      </trkpt>
      <trkpt lat="36.53146" lon="-6.29276">
        <ele>11.231044</ele>
        <time>2022-04-14T10:50:18.000Z</time>
      </trkpt>
      <trkpt lat="36.53146" lon="-6.29276">
        <ele>11.231044</ele>
        <time>2022-04-14T10:50:19.000Z</time>
      </trkpt>
      <trkpt lat="36.53146" lon="-6.29276">
        <ele>11.231044</ele>
        <time>2022-04-14T10:50:20.000Z</time>
      </trkpt>
      <trkpt lat="36.53146" lon="-6.29276">
        <ele>11.231044</ele>
        <time>2022-04-14T10:50:24.000Z</time>
      </trkpt>
      <trkpt lat="36.53146" lon="-6.29276">
        <ele>11.231044</ele>
        <time>2022-04-14T10:50:25.000Z</time>
      </trkpt>
      <trkpt lat="36.53147" lon="-6.29276">
        <ele>11.230937</ele>
        <time>2022-04-14T10:50:26.000Z</time>
      </trkpt>
      <trkpt lat="36.53147" lon="-6.29277">
        <ele>11.230688</ele>
        <time>2022-04-14T10:50:28.000Z</time>
      </trkpt>
      <trkpt lat="36.53147" lon="-6.29277">
        <ele>11.230474</ele>
        <time>2022-04-14T10:50:36.000Z</time>
      </trkpt>
      <trkpt lat="36.53151" lon="-6.2928">
        <ele>11.228207</ele>
        <time>2022-04-14T10:50:41.000Z</time>
      </trkpt>
      <trkpt lat="36.53154" lon="-6.2928">
        <ele>11.226692</ele>
        <time>2022-04-14T10:50:45.000Z</time>
      </trkpt>
      <trkpt lat="36.53175" lon="-6.29303">
        <ele>11.213288</ele>
        <time>2022-04-14T10:50:48.000Z</time>
      </trkpt>
      <trkpt lat="36.53175" lon="-6.29306">
        <ele>11.211799</ele>
        <time>2022-04-14T10:50:51.000Z</time>
      </trkpt>
      <trkpt lat="36.53172" lon="-6.29303">
        <ele>11.20977</ele>
        <time>2022-04-14T10:50:55.000Z</time>
      </trkpt>
      <trkpt lat="36.53167" lon="-6.29299">
        <ele>11.206712</ele>
        <time>2022-04-14T10:51:00.000Z</time>
      </trkpt>
      <trkpt lat="36.53167" lon="-6.29299">
        <ele>11.206712</ele>
        <time>2022-04-14T10:51:03.000Z</time>
      </trkpt>
      <trkpt lat="36.53167" lon="-6.29299">
        <ele>11.206712</ele>
        <time>2022-04-14T10:51:06.000Z</time>
      </trkpt>
      <trkpt lat="36.53167" lon="-6.29299">
        <ele>11.206712</ele>
        <time>2022-04-14T10:51:07.000Z</time>
      </trkpt>
      <trkpt lat="36.53167" lon="-6.29299">
        <ele>11.206712</ele>
        <time>2022-04-14T10:51:10.000Z</time>
      </trkpt>
      <trkpt lat="36.53165" lon="-6.29289">
        <ele>11.202624</ele>
        <time>2022-04-14T10:51:17.000Z</time>
      </trkpt>
      <trkpt lat="36.53166" lon="-6.29286">
        <ele>11.201521</ele>
        <time>2022-04-14T10:51:18.000Z</time>
      </trkpt>
      <trkpt lat="36.53166" lon="-6.2928">
        <ele>11.198809</ele>
        <time>2022-04-14T10:51:19.000Z</time>
      </trkpt>
      <trkpt lat="36.53171" lon="-6.29268">
        <ele>11.193484</ele>
        <time>2022-04-14T10:51:21.000Z</time>
      </trkpt>
      <trkpt lat="36.53182" lon="-6.29268">
        <ele>11.187917</ele>
        <time>2022-04-14T10:51:55.000Z</time>
      </trkpt>
      <trkpt lat="36.53182" lon="-6.29269">
        <ele>11.187694</ele>
        <time>2022-04-14T10:51:56.000Z</time>
      </trkpt>
      <trkpt lat="36.53178" lon="-6.29267">
        <ele>11.185248</ele>
        <time>2022-04-14T10:52:01.000Z</time>
      </trkpt>
      <trkpt lat="36.53177" lon="-6.29269">
        <ele>11.18418</ele>
        <time>2022-04-14T10:52:03.000Z</time>
      </trkpt>
      <trkpt lat="36.53177" lon="-6.29269">
        <ele>11.183948</ele>
        <time>2022-04-14T10:52:10.000Z</time>
      </trkpt>
      <trkpt lat="36.53171" lon="-6.29273">
        <ele>11.180499</ele>
        <time>2022-04-14T10:52:15.000Z</time>
      </trkpt>
      <trkpt lat="36.53171" lon="-6.29273">
        <ele>11.180499</ele>
        <time>2022-04-14T10:52:16.000Z</time>
      </trkpt>
      <trkpt lat="36.5317" lon="-6.29279">
        <ele>11.178065</ele>
        <time>2022-04-14T10:52:19.000Z</time>
      </trkpt>
      <trkpt lat="36.5317" lon="-6.29278">
        <ele>11.177509</ele>
        <time>2022-04-14T10:52:21.000Z</time>
      </trkpt>
      <trkpt lat="36.53165" lon="-6.29273">
        <ele>11.174414</ele>
        <time>2022-04-14T10:52:24.000Z</time>
      </trkpt>
      <trkpt lat="36.53169" lon="-6.29261">
        <ele>11.181391</ele>
        <time>2022-04-14T10:52:25.000Z</time>
      </trkpt>
      <trkpt lat="36.53168" lon="-6.29262">
        <ele>11.182722</ele>
        <time>2022-04-14T10:52:27.000Z</time>
      </trkpt>
      <trkpt lat="36.53166" lon="-6.29264">
        <ele>11.185303</ele>
        <time>2022-04-14T10:52:29.000Z</time>
      </trkpt>
      <trkpt lat="36.53165" lon="-6.29265">
        <ele>11.185702</ele>
        <time>2022-04-14T10:52:32.000Z</time>
      </trkpt>
      <trkpt lat="36.53164" lon="-6.2927">
        <ele>11.190305</ele>
        <time>2022-04-14T10:52:36.000Z</time>
      </trkpt>
      <trkpt lat="36.53162" lon="-6.29272">
        <ele>11.192117</ele>
        <time>2022-04-14T10:52:37.000Z</time>
      </trkpt>
      <trkpt lat="36.53164" lon="-6.29272">
        <ele>11.193276</ele>
        <time>2022-04-14T10:52:39.000Z</time>
      </trkpt>
      <trkpt lat="36.53166" lon="-6.29278">
        <ele>11.19831</ele>
        <time>2022-04-14T10:52:41.000Z</time>
      </trkpt>
      <trkpt lat="36.53159" lon="-6.2928">
        <ele>11.205425</ele>
        <time>2022-04-14T10:52:43.000Z</time>
      </trkpt>
      <trkpt lat="36.53163" lon="-6.29268">
        <ele>11.215507</ele>
        <time>2022-04-14T10:52:45.000Z</time>
      </trkpt>
      <trkpt lat="36.53166" lon="-6.29261">
        <ele>11.221555</ele>
        <time>2022-04-14T10:52:52.000Z</time>
      </trkpt>
      <trkpt lat="36.53167" lon="-6.29263">
        <ele>11.222717</ele>
        <time>2022-04-14T10:52:57.000Z</time>
      </trkpt>
      <trkpt lat="36.53167" lon="-6.29263">
        <ele>11.223502</ele>
        <time>2022-04-14T10:53:07.000Z</time>
      </trkpt>
      <trkpt lat="36.53167" lon="-6.29264">
        <ele>11.223812</ele>
        <time>2022-04-14T10:53:09.000Z</time>
      </trkpt>
      <trkpt lat="36.53168" lon="-6.29264">
        <ele>11.224411</ele>
        <time>2022-04-14T10:53:11.000Z</time>
      </trkpt>
      <trkpt lat="36.53169" lon="-6.29266">
        <ele>11.226346</ele>
        <time>2022-04-14T10:53:19.000Z</time>
      </trkpt>
      <trkpt lat="36.53169" lon="-6.29266">
        <ele>11.226346</ele>
        <time>2022-04-14T10:53:32.000Z</time>
      </trkpt>
      <trkpt lat="36.53169" lon="-6.29266">
        <ele>11.226635</ele>
        <time>2022-04-14T10:53:38.000Z</time>
      </trkpt>
      <trkpt lat="36.53168" lon="-6.29266">
        <ele>11.227349</ele>
        <time>2022-04-14T10:53:41.000Z</time>
      </trkpt>
      <trkpt lat="36.53167" lon="-6.29265">
        <ele>11.22842</ele>
        <time>2022-04-14T10:53:45.000Z</time>
      </trkpt>
      <trkpt lat="36.53161" lon="-6.2926">
        <ele>11.235956</ele>
        <time>2022-04-14T10:53:49.000Z</time>
      </trkpt>
      <trkpt lat="36.53149" lon="-6.29248">
        <ele>11.250334</ele>
        <time>2022-04-14T10:53:55.000Z</time>
      </trkpt>
      <trkpt lat="36.53148" lon="-6.29249">
        <ele>11.251908</ele>
        <time>2022-04-14T10:53:56.000Z</time>
      </trkpt>
      <trkpt lat="36.53164" lon="-6.29242">
        <ele>11.268579</ele>
        <time>2022-04-14T10:54:07.000Z</time>
      </trkpt>
      <trkpt lat="36.53164" lon="-6.29242">
        <ele>11.268579</ele>
        <time>2022-04-14T10:54:10.000Z</time>
      </trkpt>
      <trkpt lat="36.53167" lon="-6.29246">
        <ele>11.272518</ele>
        <time>2022-04-14T10:54:12.000Z</time>
      </trkpt>
      <trkpt lat="36.53162" lon="-6.29257">
        <ele>11.281881</ele>
        <time>2022-04-14T10:54:15.000Z</time>
      </trkpt>
      <trkpt lat="36.53159" lon="-6.29258">
        <ele>11.28492</ele>
        <time>2022-04-14T10:54:17.000Z</time>
      </trkpt>
      <trkpt lat="36.53162" lon="-6.29258">
        <ele>11.287814</ele>
        <time>2022-04-14T10:54:20.000Z</time>
      </trkpt>
      <trkpt lat="36.53163" lon="-6.29258">
        <ele>11.288185</ele>
        <time>2022-04-14T10:54:22.000Z</time>
      </trkpt>
      <trkpt lat="36.53162" lon="-6.2926">
        <ele>11.289858</ele>
        <time>2022-04-14T10:54:28.000Z</time>
      </trkpt>
      <trkpt lat="36.53164" lon="-6.2926">
        <ele>11.291936</ele>
        <time>2022-04-14T10:54:29.000Z</time>
      </trkpt>
      <trkpt lat="36.53164" lon="-6.29253">
        <ele>11.296766</ele>
        <time>2022-04-14T10:54:31.000Z</time>
      </trkpt>
      <trkpt lat="36.53164" lon="-6.29252">
        <ele>11.297463</ele>
        <time>2022-04-14T10:54:32.000Z</time>
      </trkpt>
      <trkpt lat="36.53164" lon="-6.29252">
        <ele>11.297863</ele>
        <time>2022-04-14T10:54:35.000Z</time>
      </trkpt>
      <trkpt lat="36.53167" lon="-6.29255">
        <ele>11.301529</ele>
        <time>2022-04-14T10:54:41.000Z</time>
      </trkpt>
      <trkpt lat="36.53168" lon="-6.29255">
        <ele>11.302978</ele>
        <time>2022-04-14T10:54:43.000Z</time>
      </trkpt>
      <trkpt lat="36.53169" lon="-6.29257">
        <ele>11.30512</ele>
        <time>2022-04-14T10:54:46.000Z</time>
      </trkpt>
      <trkpt lat="36.5317" lon="-6.29257">
        <ele>11.305409</ele>
        <time>2022-04-14T10:54:54.000Z</time>
      </trkpt>
      <trkpt lat="36.53159" lon="-6.29269">
        <ele>11.319243</ele>
        <time>2022-04-14T10:55:08.000Z</time>
      </trkpt>
      <trkpt lat="36.53166" lon="-6.2926">
        <ele>11.328884</ele>
        <time>2022-04-14T10:55:12.000Z</time>
      </trkpt>
      <trkpt lat="36.53209" lon="-6.29294">
        <ele>11.332964</ele>
        <time>2022-04-14T10:55:16.000Z</time>
      </trkpt>
      <trkpt lat="36.53208" lon="-6.29285">
        <ele>11.329909</ele>
        <time>2022-04-14T10:55:20.000Z</time>
      </trkpt>
      <trkpt lat="36.53204" lon="-6.29284">
        <ele>11.327946</ele>
        <time>2022-04-14T10:55:26.000Z</time>
      </trkpt>
      <trkpt lat="36.53205" lon="-6.29284">
        <ele>11.327525</ele>
        <time>2022-04-14T10:55:29.000Z</time>
      </trkpt>
      <trkpt lat="36.53176" lon="-6.29271">
        <ele>11.31464</ele>
        <time>2022-04-14T10:55:34.000Z</time>
      </trkpt>
      <trkpt lat="36.53167" lon="-6.29268">
        <ele>11.310269</ele>
        <time>2022-04-14T10:55:42.000Z</time>
      </trkpt>
      <trkpt lat="36.53166" lon="-6.29268">
        <ele>11.310051</ele>
        <time>2022-04-14T10:55:44.000Z</time>
      </trkpt>
      <trkpt lat="36.53166" lon="-6.29268">
        <ele>11.309865</ele>
        <time>2022-04-14T10:55:45.000Z</time>
      </trkpt>
      <trkpt lat="36.53162" lon="-6.29263">
        <ele>11.30733</ele>
        <time>2022-04-14T10:55:47.000Z</time>
      </trkpt>
      <trkpt lat="36.53161" lon="-6.29256">
        <ele>11.305066</ele>
        <time>2022-04-14T10:55:51.000Z</time>
      </trkpt>
      <trkpt lat="36.53157" lon="-6.29256">
        <ele>11.3036</ele>
        <time>2022-04-14T10:55:52.000Z</time>
      </trkpt>
      <trkpt lat="36.53157" lon="-6.29264">
        <ele>11.301045</ele>
        <time>2022-04-14T10:55:59.000Z</time>
      </trkpt>
      <trkpt lat="36.53173" lon="-6.2927">
        <ele>11.293706</ele>
        <time>2022-04-14T10:57:16.000Z</time>
      </trkpt>
      <trkpt lat="36.53173" lon="-6.29266">
        <ele>11.292454</ele>
        <time>2022-04-14T10:57:17.000Z</time>
      </trkpt>
      <trkpt lat="36.53174" lon="-6.29269">
        <ele>11.291348</ele>
        <time>2022-04-14T10:57:18.000Z</time>
      </trkpt>
      <trkpt lat="36.53165" lon="-6.29269">
        <ele>11.287298</ele>
        <time>2022-04-14T10:57:20.000Z</time>
      </trkpt>
      <trkpt lat="36.53161" lon="-6.29269">
        <ele>11.285704</ele>
        <time>2022-04-14T10:57:21.000Z</time>
      </trkpt>
      <trkpt lat="36.53157" lon="-6.29271">
        <ele>11.283924</ele>
        <time>2022-04-14T10:57:22.000Z</time>
      </trkpt>
      <trkpt lat="36.53162" lon="-6.29279">
        <ele>11.280286</ele>
        <time>2022-04-14T10:57:25.000Z</time>
      </trkpt>
      <trkpt lat="36.53191" lon="-6.29315">
        <ele>11.270249</ele>
        <time>2022-04-14T10:57:27.000Z</time>
      </trkpt>
      <trkpt lat="36.53212" lon="-6.29337">
        <ele>11.271664</ele>
        <time>2022-04-14T10:57:28.000Z</time>
      </trkpt>
      <trkpt lat="36.53214" lon="-6.29304">
        <ele>11.273021</ele>
        <time>2022-04-14T10:57:29.000Z</time>
      </trkpt>
      <trkpt lat="36.53185" lon="-6.29276">
        <ele>11.274853</ele>
        <time>2022-04-14T10:57:30.000Z</time>
      </trkpt>
      <trkpt lat="36.53191" lon="-6.29271">
        <ele>11.275193</ele>
        <time>2022-04-14T10:57:31.000Z</time>
      </trkpt>
      <trkpt lat="36.53207" lon="-6.2927">
        <ele>11.276022</ele>
        <time>2022-04-14T10:57:32.000Z</time>
      </trkpt>
      <trkpt lat="36.53269" lon="-6.293">
        <ele>11.285485</ele>
        <time>2022-04-14T10:57:36.000Z</time>
      </trkpt>
      <trkpt lat="36.53274" lon="-6.29302">
        <ele>11.287784</ele>
        <time>2022-04-14T10:57:40.000Z</time>
      </trkpt>
      <trkpt lat="36.532" lon="-6.29288">
        <ele>11.319234</ele>
        <time>2022-04-14T10:57:44.000Z</time>
      </trkpt>
      <trkpt lat="36.53178" lon="-6.29285">
        <ele>11.328296</ele>
        <time>2022-04-14T10:57:46.000Z</time>
      </trkpt>
      <trkpt lat="36.53175" lon="-6.29286">
        <ele>11.329783</ele>
        <time>2022-04-14T10:57:48.000Z</time>
      </trkpt>
      <trkpt lat="36.5317" lon="-6.29287">
        <ele>11.332089</ele>
        <time>2022-04-14T10:57:49.000Z</time>
      </trkpt>
      <trkpt lat="36.53165" lon="-6.29291">
        <ele>11.334404</ele>
        <time>2022-04-14T10:57:52.000Z</time>
      </trkpt>
      <trkpt lat="36.53171" lon="-6.29292">
        <ele>11.336888</ele>
        <time>2022-04-14T10:57:53.000Z</time>
      </trkpt>
      <trkpt lat="36.53188" lon="-6.29296">
        <ele>11.344273</ele>
        <time>2022-04-14T10:57:56.000Z</time>
      </trkpt>
      <trkpt lat="36.53195" lon="-6.29289">
        <ele>11.348296</ele>
        <time>2022-04-14T10:57:57.000Z</time>
      </trkpt>
      <trkpt lat="36.53154" lon="-6.29285">
        <ele>11.40826</ele>
        <time>2022-04-14T10:58:05.000Z</time>
      </trkpt>
      <trkpt lat="36.53152" lon="-6.2927">
        <ele>11.432968</ele>
        <time>2022-04-14T10:58:06.000Z</time>
      </trkpt>
      <trkpt lat="36.53151" lon="-6.2927">
        <ele>11.435386</ele>
        <time>2022-04-14T10:58:08.000Z</time>
      </trkpt>
      <trkpt lat="36.53153" lon="-6.2927">
        <ele>11.438998</ele>
        <time>2022-04-14T10:58:09.000Z</time>
      </trkpt>
      <trkpt lat="36.53154" lon="-6.2927">
        <ele>11.442257</ele>
        <time>2022-04-14T10:58:13.000Z</time>
      </trkpt>
      <trkpt lat="36.53154" lon="-6.29271">
        <ele>11.443699</ele>
        <time>2022-04-14T10:58:14.000Z</time>
      </trkpt>
      <trkpt lat="36.53149" lon="-6.29273">
        <ele>11.455435</ele>
        <time>2022-04-14T10:58:16.000Z</time>
      </trkpt>
      <trkpt lat="36.53135" lon="-6.29274">
        <ele>11.482421</ele>
        <time>2022-04-14T10:58:19.000Z</time>
      </trkpt>
      <trkpt lat="36.5313" lon="-6.29276">
        <ele>11.493425</ele>
        <time>2022-04-14T10:58:22.000Z</time>
      </trkpt>
      <trkpt lat="36.5311" lon="-6.29277">
        <ele>11.531758</ele>
        <time>2022-04-14T10:58:27.000Z</time>
      </trkpt>
      <trkpt lat="36.53111" lon="-6.29277">
        <ele>11.532745</ele>
        <time>2022-04-14T10:58:28.000Z</time>
      </trkpt>
      <trkpt lat="36.53111" lon="-6.29277">
        <ele>11.533874</ele>
        <time>2022-04-14T10:58:29.000Z</time>
      </trkpt>
      <trkpt lat="36.5311" lon="-6.29276">
        <ele>11.536732</ele>
        <time>2022-04-14T10:58:32.000Z</time>
      </trkpt>
      <trkpt lat="36.53111" lon="-6.29279">
        <ele>11.541332</ele>
        <time>2022-04-14T10:58:34.000Z</time>
      </trkpt>
      <trkpt lat="36.53114" lon="-6.29282">
        <ele>11.549961</ele>
        <time>2022-04-14T10:58:36.000Z</time>
      </trkpt>
      <trkpt lat="36.53117" lon="-6.29285">
        <ele>11.55818</ele>
        <time>2022-04-14T10:58:37.000Z</time>
      </trkpt>
      <trkpt lat="36.5312" lon="-6.2929">
        <ele>11.566915</ele>
        <time>2022-04-14T10:58:39.000Z</time>
      </trkpt>
      <trkpt lat="36.53122" lon="-6.29297">
        <ele>11.57951</ele>
        <time>2022-04-14T10:58:42.000Z</time>
      </trkpt>
      <trkpt lat="36.53125" lon="-6.29294">
        <ele>11.587238</ele>
        <time>2022-04-14T10:58:43.000Z</time>
      </trkpt>
      <trkpt lat="36.53116" lon="-6.29297">
        <ele>11.605181</ele>
        <time>2022-04-14T10:58:45.000Z</time>
      </trkpt>
      <trkpt lat="36.53118" lon="-6.2929">
        <ele>11.617211</ele>
        <time>2022-04-14T10:58:46.000Z</time>
      </trkpt>
      <trkpt lat="36.53154" lon="-6.2929">
        <ele>11.68754</ele>
        <time>2022-04-14T10:59:14.000Z</time>
      </trkpt>
      <trkpt lat="36.5315" lon="-6.29288">
        <ele>11.69511</ele>
        <time>2022-04-14T10:59:17.000Z</time>
      </trkpt>
      <trkpt lat="36.5315" lon="-6.29286">
        <ele>11.697994</ele>
        <time>2022-04-14T10:59:18.000Z</time>
      </trkpt>
      <trkpt lat="36.53151" lon="-6.29285">
        <ele>11.700595</ele>
        <time>2022-04-14T10:59:20.000Z</time>
      </trkpt>
      <trkpt lat="36.53144" lon="-6.2927">
        <ele>11.714712</ele>
        <time>2022-04-14T10:59:24.000Z</time>
      </trkpt>
      <trkpt lat="36.53139" lon="-6.29269">
        <ele>11.717741</ele>
        <time>2022-04-14T10:59:25.000Z</time>
      </trkpt>
      <trkpt lat="36.53133" lon="-6.29267">
        <ele>11.721012</ele>
        <time>2022-04-14T10:59:27.000Z</time>
      </trkpt>
      <trkpt lat="36.53129" lon="-6.2926">
        <ele>11.724887</ele>
        <time>2022-04-14T10:59:31.000Z</time>
      </trkpt>
      <trkpt lat="36.53132" lon="-6.29266">
        <ele>11.728042</ele>
        <time>2022-04-14T10:59:36.000Z</time>
      </trkpt>
      <trkpt lat="36.53132" lon="-6.29265">
        <ele>11.728554</ele>
        <time>2022-04-14T10:59:37.000Z</time>
      </trkpt>
      <trkpt lat="36.53131" lon="-6.29267">
        <ele>11.729621</ele>
        <time>2022-04-14T10:59:40.000Z</time>
      </trkpt>
      <trkpt lat="36.53129" lon="-6.29268">
        <ele>11.730791</ele>
        <time>2022-04-14T10:59:43.000Z</time>
      </trkpt>
      <trkpt lat="36.53129" lon="-6.29267">
        <ele>11.730923</ele>
        <time>2022-04-14T10:59:46.000Z</time>
      </trkpt>
      <trkpt lat="36.53134" lon="-6.29271">
        <ele>11.73414</ele>
        <time>2022-04-14T10:59:53.000Z</time>
      </trkpt>
      <trkpt lat="36.53143" lon="-6.29275">
        <ele>11.739199</ele>
        <time>2022-04-14T10:59:54.000Z</time>
      </trkpt>
      <trkpt lat="36.53147" lon="-6.29275">
        <ele>11.741411</ele>
        <time>2022-04-14T10:59:55.000Z</time>
      </trkpt>
      <trkpt lat="36.53155" lon="-6.29276">
        <ele>11.745915</ele>
        <time>2022-04-14T10:59:57.000Z</time>
      </trkpt>
      <trkpt lat="36.53161" lon="-6.29268">
        <ele>11.750424</ele>
        <time>2022-04-14T11:00:00.000Z</time>
      </trkpt>
      <trkpt lat="36.53162" lon="-6.29261">
        <ele>11.753517</ele>
        <time>2022-04-14T11:00:02.000Z</time>
      </trkpt>
      <trkpt lat="36.53169" lon="-6.29269">
        <ele>11.758705</ele>
        <time>2022-04-14T11:00:04.000Z</time>
      </trkpt>
      <trkpt lat="36.53175" lon="-6.29274">
        <ele>11.762401</ele>
        <time>2022-04-14T11:00:06.000Z</time>
      </trkpt>
      <trkpt lat="36.53172" lon="-6.29279">
        <ele>11.76509</ele>
        <time>2022-04-14T11:00:08.000Z</time>
      </trkpt>
      <trkpt lat="36.53168" lon="-6.29282">
        <ele>11.767538</ele>
        <time>2022-04-14T11:00:11.000Z</time>
      </trkpt>
      <trkpt lat="36.53163" lon="-6.29278">
        <ele>11.770848</ele>
        <time>2022-04-14T11:00:12.000Z</time>
      </trkpt>
      <trkpt lat="36.5316" lon="-6.29274">
        <ele>11.773307</ele>
        <time>2022-04-14T11:00:14.000Z</time>
      </trkpt>
      <trkpt lat="36.53166" lon="-6.29275">
        <ele>11.776603</ele>
        <time>2022-04-14T11:00:16.000Z</time>
      </trkpt>
      <trkpt lat="36.5317" lon="-6.29283">
        <ele>11.780864</ele>
        <time>2022-04-14T11:00:20.000Z</time>
      </trkpt>
      <trkpt lat="36.53169" lon="-6.29284">
        <ele>11.781907</ele>
        <time>2022-04-14T11:00:23.000Z</time>
      </trkpt>
      <trkpt lat="36.53167" lon="-6.29286">
        <ele>11.783387</ele>
        <time>2022-04-14T11:00:29.000Z</time>
      </trkpt>
      <trkpt lat="36.53163" lon="-6.29279">
        <ele>11.787128</ele>
        <time>2022-04-14T11:00:34.000Z</time>
      </trkpt>
      <trkpt lat="36.5316" lon="-6.29274">
        <ele>11.789896</ele>
        <time>2022-04-14T11:00:38.000Z</time>
      </trkpt>
      <trkpt lat="36.53158" lon="-6.29271">
        <ele>11.791897</ele>
        <time>2022-04-14T11:00:39.000Z</time>
      </trkpt>
      <trkpt lat="36.53155" lon="-6.29272">
        <ele>11.793334</ele>
        <time>2022-04-14T11:00:41.000Z</time>
      </trkpt>
      <trkpt lat="36.53156" lon="-6.29272">
        <ele>11.793831</ele>
        <time>2022-04-14T11:00:42.000Z</time>
      </trkpt>
      <trkpt lat="36.53156" lon="-6.2927">
        <ele>11.794495</ele>
        <time>2022-04-14T11:00:43.000Z</time>
      </trkpt>
      <trkpt lat="36.53156" lon="-6.29269">
        <ele>11.795122</ele>
        <time>2022-04-14T11:00:44.000Z</time>
      </trkpt>
      <trkpt lat="36.53155" lon="-6.29267">
        <ele>11.796223</ele>
        <time>2022-04-14T11:00:46.000Z</time>
      </trkpt>
      <trkpt lat="36.53154" lon="-6.29266">
        <ele>11.797227</ele>
        <time>2022-04-14T11:00:47.000Z</time>
      </trkpt>
      <trkpt lat="36.5315" lon="-6.29264">
        <ele>11.799193</ele>
        <time>2022-04-14T11:00:54.000Z</time>
      </trkpt>
      <trkpt lat="36.53144" lon="-6.29257">
        <ele>11.803779</ele>
        <time>2022-04-14T11:01:01.000Z</time>
      </trkpt>
      <trkpt lat="36.53148" lon="-6.29259">
        <ele>11.805893</ele>
        <time>2022-04-14T11:01:04.000Z</time>
      </trkpt>
      <trkpt lat="36.53184" lon="-6.29232">
        <ele>11.811153</ele>
        <time>2022-04-14T11:01:54.000Z</time>
      </trkpt>
      <trkpt lat="36.53198" lon="-6.2923">
        <ele>11.81229</ele>
        <time>2022-04-14T11:01:58.000Z</time>
      </trkpt>
      <trkpt lat="36.53197" lon="-6.29235">
        <ele>11.812658</ele>
        <time>2022-04-14T11:01:59.000Z</time>
      </trkpt>
      <trkpt lat="36.53189" lon="-6.29255">
        <ele>11.814086</ele>
        <time>2022-04-14T11:02:02.000Z</time>
      </trkpt>
      <trkpt lat="36.53175" lon="-6.29264">
        <ele>11.815376</ele>
        <time>2022-04-14T11:02:04.000Z</time>
      </trkpt>
      <trkpt lat="36.53169" lon="-6.29264">
        <ele>11.815858</ele>
        <time>2022-04-14T11:02:05.000Z</time>
      </trkpt>
      <trkpt lat="36.53164" lon="-6.29269">
        <ele>11.816421</ele>
        <time>2022-04-14T11:02:08.000Z</time>
      </trkpt>
      <trkpt lat="36.53143" lon="-6.2928">
        <ele>11.818267</ele>
        <time>2022-04-14T11:02:11.000Z</time>
      </trkpt>
      <trkpt lat="36.5313" lon="-6.29266">
        <ele>11.819674</ele>
        <time>2022-04-14T11:04:20.000Z</time>
      </trkpt>
      <trkpt lat="36.5317" lon="-6.29307">
        <ele>11.77942</ele>
        <time>2022-04-14T11:04:21.000Z</time>
      </trkpt>
      <trkpt lat="36.53156" lon="-6.29271">
        <ele>11.688976</ele>
        <time>2022-04-14T11:04:23.000Z</time>
      </trkpt>
      <trkpt lat="36.53156" lon="-6.29282">
        <ele>11.663783</ele>
        <time>2022-04-14T11:04:29.000Z</time>
      </trkpt>
      <trkpt lat="36.53155" lon="-6.2928">
        <ele>11.65877</ele>
        <time>2022-04-14T11:04:32.000Z</time>
      </trkpt>
      <trkpt lat="36.53156" lon="-6.2928">
        <ele>11.6579</ele>
        <time>2022-04-14T11:04:34.000Z</time>
      </trkpt>
      <trkpt lat="36.53158" lon="-6.2928">
        <ele>11.651984</ele>
        <time>2022-04-14T11:04:40.000Z</time>
      </trkpt>
      <trkpt lat="36.53156" lon="-6.29279">
        <ele>11.647924</ele>
        <time>2022-04-14T11:04:45.000Z</time>
      </trkpt>
      <trkpt lat="36.53157" lon="-6.29279">
        <ele>11.647364</ele>
        <time>2022-04-14T11:04:51.000Z</time>
      </trkpt>
      <trkpt lat="36.53157" lon="-6.29279">
        <ele>11.647364</ele>
        <time>2022-04-14T11:04:58.000Z</time>
      </trkpt>
      <trkpt lat="36.53159" lon="-6.29277">
        <ele>11.638746</ele>
        <time>2022-04-14T11:05:11.000Z</time>
      </trkpt>
      <trkpt lat="36.5318" lon="-6.29272">
        <ele>11.57965</ele>
        <time>2022-04-14T11:06:38.000Z</time>
      </trkpt>
      <trkpt lat="36.53175" lon="-6.29269">
        <ele>11.564302</ele>
        <time>2022-04-14T11:06:40.000Z</time>
      </trkpt>
      <trkpt lat="36.53167" lon="-6.29269">
        <ele>11.54245</ele>
        <time>2022-04-14T11:06:42.000Z</time>
      </trkpt>
      <trkpt lat="36.53168" lon="-6.2927">
        <ele>11.53979</ele>
        <time>2022-04-14T11:06:43.000Z</time>
      </trkpt>
      <trkpt lat="36.53167" lon="-6.2927">
        <ele>11.537858</ele>
        <time>2022-04-14T11:06:46.000Z</time>
      </trkpt>
      <trkpt lat="36.53164" lon="-6.29269">
        <ele>11.529103</ele>
        <time>2022-04-14T11:06:47.000Z</time>
      </trkpt>
      <trkpt lat="36.53159" lon="-6.29269">
        <ele>11.51307</ele>
        <time>2022-04-14T11:06:49.000Z</time>
      </trkpt>
      <trkpt lat="36.53157" lon="-6.29269">
        <ele>11.50866</ele>
        <time>2022-04-14T11:06:50.000Z</time>
      </trkpt>
      <trkpt lat="36.53151" lon="-6.29269">
        <ele>11.490732</ele>
        <time>2022-04-14T11:06:51.000Z</time>
      </trkpt>
      <trkpt lat="36.53147" lon="-6.2927">
        <ele>11.479944</ele>
        <time>2022-04-14T11:06:53.000Z</time>
      </trkpt>
      <trkpt lat="36.53151" lon="-6.29279">
        <ele>11.45634</ele>
        <time>2022-04-14T11:07:00.000Z</time>
      </trkpt>
      <trkpt lat="36.53154" lon="-6.2928">
        <ele>11.44841</ele>
        <time>2022-04-14T11:07:01.000Z</time>
      </trkpt>
      <trkpt lat="36.53153" lon="-6.2928">
        <ele>11.445602</ele>
        <time>2022-04-14T11:07:02.000Z</time>
      </trkpt>
      <trkpt lat="36.53147" lon="-6.29278">
        <ele>11.42863</ele>
        <time>2022-04-14T11:07:05.000Z</time>
      </trkpt>
      <trkpt lat="36.53145" lon="-6.29278">
        <ele>11.424377</ele>
        <time>2022-04-14T11:07:06.000Z</time>
      </trkpt>
      <trkpt lat="36.53142" lon="-6.29276">
        <ele>11.412482</ele>
        <time>2022-04-14T11:07:07.000Z</time>
      </trkpt>
      <trkpt lat="36.53141" lon="-6.29272">
        <ele>11.40459</ele>
        <time>2022-04-14T11:07:09.000Z</time>
      </trkpt>
      <trkpt lat="36.53142" lon="-6.2927">
        <ele>11.400351</ele>
        <time>2022-04-14T11:07:10.000Z</time>
      </trkpt>
      <trkpt lat="36.53148" lon="-6.29268">
        <ele>11.384144</ele>
        <time>2022-04-14T11:07:13.000Z</time>
      </trkpt>
      <trkpt lat="36.53155" lon="-6.29272">
        <ele>11.360867</ele>
        <time>2022-04-14T11:07:18.000Z</time>
      </trkpt>
      <trkpt lat="36.53157" lon="-6.29273">
        <ele>11.355392</ele>
        <time>2022-04-14T11:07:23.000Z</time>
      </trkpt>
      <trkpt lat="36.53156" lon="-6.29275">
        <ele>11.351861</ele>
        <time>2022-04-14T11:07:25.000Z</time>
      </trkpt>
      <trkpt lat="36.53158" lon="-6.29276">
        <ele>11.345137</ele>
        <time>2022-04-14T11:07:28.000Z</time>
      </trkpt>
      <trkpt lat="36.53161" lon="-6.29279">
        <ele>11.333421</ele>
        <time>2022-04-14T11:07:31.000Z</time>
      </trkpt>
      <trkpt lat="36.5316" lon="-6.29281">
        <ele>11.328312</ele>
        <time>2022-04-14T11:08:07.000Z</time>
      </trkpt>
      <trkpt lat="36.5316" lon="-6.29281">
        <ele>11.327862</ele>
        <time>2022-04-14T11:08:10.000Z</time>
      </trkpt>
      <trkpt lat="36.5316" lon="-6.29281">
        <ele>11.327413</ele>
        <time>2022-04-14T11:08:13.000Z</time>
      </trkpt>
      <trkpt lat="36.53161" lon="-6.29278">
        <ele>11.321237</ele>
        <time>2022-04-14T11:08:27.000Z</time>
      </trkpt>
      <trkpt lat="36.53159" lon="-6.29278">
        <ele>11.319433</ele>
        <time>2022-04-14T11:08:30.000Z</time>
      </trkpt>
      <trkpt lat="36.53161" lon="-6.29278">
        <ele>11.320021</ele>
        <time>2022-04-14T11:08:35.000Z</time>
      </trkpt>
      <trkpt lat="36.53163" lon="-6.29276">
        <ele>11.321161</ele>
        <time>2022-04-14T11:08:40.000Z</time>
      </trkpt>
      <trkpt lat="36.53164" lon="-6.29275">
        <ele>11.321928</ele>
        <time>2022-04-14T11:08:44.000Z</time>
      </trkpt>
      <trkpt lat="36.53157" lon="-6.29273">
        <ele>11.324907</ele>
        <time>2022-04-14T11:08:50.000Z</time>
      </trkpt>
      <trkpt lat="36.53156" lon="-6.29271">
        <ele>11.325623</ele>
        <time>2022-04-14T11:08:55.000Z</time>
      </trkpt>
      <trkpt lat="36.5316" lon="-6.29274">
        <ele>11.327424</ele>
        <time>2022-04-14T11:08:59.000Z</time>
      </trkpt>
      <trkpt lat="36.53159" lon="-6.29275">
        <ele>11.327675</ele>
        <time>2022-04-14T11:09:04.000Z</time>
      </trkpt>
      <trkpt lat="36.53161" lon="-6.29277">
        <ele>11.328653</ele>
        <time>2022-04-14T11:09:08.000Z</time>
      </trkpt>
      <trkpt lat="36.53161" lon="-6.2928">
        <ele>11.329556</ele>
        <time>2022-04-14T11:09:14.000Z</time>
      </trkpt>
      <trkpt lat="36.53161" lon="-6.2928">
        <ele>11.329556</ele>
        <time>2022-04-14T11:09:22.000Z</time>
      </trkpt>
      <trkpt lat="36.53161" lon="-6.29284">
        <ele>11.330944</ele>
        <time>2022-04-14T11:09:25.000Z</time>
      </trkpt>
      <trkpt lat="36.5316" lon="-6.29291">
        <ele>11.333272</ele>
        <time>2022-04-14T11:09:27.000Z</time>
      </trkpt>
      <trkpt lat="36.53159" lon="-6.29293">
        <ele>11.334167</ele>
        <time>2022-04-14T11:09:28.000Z</time>
      </trkpt>
      <trkpt lat="36.53155" lon="-6.29298">
        <ele>11.336551</ele>
        <time>2022-04-14T11:09:30.000Z</time>
      </trkpt>
      <trkpt lat="36.53151" lon="-6.29302">
        <ele>11.338888</ele>
        <time>2022-04-14T11:09:32.000Z</time>
      </trkpt>
      <trkpt lat="36.53152" lon="-6.29311">
        <ele>11.341763</ele>
        <time>2022-04-14T11:09:34.000Z</time>
      </trkpt>
      <trkpt lat="36.53154" lon="-6.29317">
        <ele>11.34408</ele>
        <time>2022-04-14T11:09:36.000Z</time>
      </trkpt>
      <trkpt lat="36.53148" lon="-6.29316">
        <ele>11.346504</ele>
        <time>2022-04-14T11:09:40.000Z</time>
      </trkpt>
      <trkpt lat="36.53148" lon="-6.29317">
        <ele>11.347078</ele>
        <time>2022-04-14T11:09:43.000Z</time>
      </trkpt>
      <trkpt lat="36.53148" lon="-6.29319">
        <ele>11.347517</ele>
        <time>2022-04-14T11:09:45.000Z</time>
      </trkpt>
      <trkpt lat="36.53146" lon="-6.2932">
        <ele>11.34807</ele>
        <time>2022-04-14T11:09:46.000Z</time>
      </trkpt>
      <trkpt lat="36.53139" lon="-6.29316">
        <ele>11.351579</ele>
        <time>2022-04-14T11:09:49.000Z</time>
      </trkpt>
      <trkpt lat="36.53139" lon="-6.29331">
        <ele>11.35668</ele>
        <time>2022-04-14T11:09:52.000Z</time>
      </trkpt>
      <trkpt lat="36.53132" lon="-6.29333">
        <ele>11.359406</ele>
        <time>2022-04-14T11:09:54.000Z</time>
      </trkpt>
      <trkpt lat="36.53128" lon="-6.29331">
        <ele>11.361307</ele>
        <time>2022-04-14T11:09:55.000Z</time>
      </trkpt>
      <trkpt lat="36.53121" lon="-6.29329">
        <ele>11.364354</ele>
        <time>2022-04-14T11:09:57.000Z</time>
      </trkpt>
      <trkpt lat="36.53118" lon="-6.29331">
        <ele>11.365662</ele>
        <time>2022-04-14T11:09:58.000Z</time>
      </trkpt>
      <trkpt lat="36.53112" lon="-6.29335">
        <ele>11.368429</ele>
        <time>2022-04-14T11:10:01.000Z</time>
      </trkpt>
      <trkpt lat="36.5312" lon="-6.29351">
        <ele>11.374551</ele>
        <time>2022-04-14T11:10:06.000Z</time>
      </trkpt>
      <trkpt lat="36.5312" lon="-6.29354">
        <ele>11.37577</ele>
        <time>2022-04-14T11:10:08.000Z</time>
      </trkpt>
      <trkpt lat="36.53121" lon="-6.29355">
        <ele>11.376324</ele>
        <time>2022-04-14T11:10:09.000Z</time>
      </trkpt>
      <trkpt lat="36.53123" lon="-6.29356">
        <ele>11.376897</ele>
        <time>2022-04-14T11:10:10.000Z</time>
      </trkpt>
      <trkpt lat="36.53122" lon="-6.29354">
        <ele>11.377592</ele>
        <time>2022-04-14T11:10:11.000Z</time>
      </trkpt>
      <trkpt lat="36.53122" lon="-6.29354">
        <ele>11.377812</ele>
        <time>2022-04-14T11:10:12.000Z</time>
      </trkpt>
      <trkpt lat="36.5313" lon="-6.29361">
        <ele>11.381978</ele>
        <time>2022-04-14T11:10:14.000Z</time>
      </trkpt>
      <trkpt lat="36.53137" lon="-6.2937">
        <ele>11.386144</ele>
        <time>2022-04-14T11:10:17.000Z</time>
      </trkpt>
      <trkpt lat="36.53134" lon="-6.29371">
        <ele>11.38751</ele>
        <time>2022-04-14T11:10:18.000Z</time>
      </trkpt>
      <trkpt lat="36.53122" lon="-6.29374">
        <ele>11.392741</ele>
        <time>2022-04-14T11:10:20.000Z</time>
      </trkpt>
      <trkpt lat="36.53116" lon="-6.29383">
        <ele>11.395836</ele>
        <time>2022-04-14T11:10:23.000Z</time>
      </trkpt>
      <trkpt lat="36.53115" lon="-6.29386">
        <ele>11.396416</ele>
        <time>2022-04-14T11:10:24.000Z</time>
      </trkpt>
      <trkpt lat="36.53118" lon="-6.29397">
        <ele>11.398669</ele>
        <time>2022-04-14T11:10:26.000Z</time>
      </trkpt>
      <trkpt lat="36.53116" lon="-6.29404">
        <ele>11.400012</ele>
        <time>2022-04-14T11:10:27.000Z</time>
      </trkpt>
      <trkpt lat="36.53096" lon="-6.29406">
        <ele>11.404841</ele>
        <time>2022-04-14T11:10:29.000Z</time>
      </trkpt>
      <trkpt lat="36.5308" lon="-6.29399">
        <ele>11.408837</ele>
        <time>2022-04-14T11:10:32.000Z</time>
      </trkpt>
      <trkpt lat="36.53092" lon="-6.29404">
        <ele>11.411794</ele>
        <time>2022-04-14T11:10:35.000Z</time>
      </trkpt>
      <trkpt lat="36.53103" lon="-6.29413">
        <ele>11.415121</ele>
        <time>2022-04-14T11:10:38.000Z</time>
      </trkpt>
      <trkpt lat="36.531" lon="-6.29413">
        <ele>11.415831</ele>
        <time>2022-04-14T11:10:39.000Z</time>
      </trkpt>
      <trkpt lat="36.53097" lon="-6.29415">
        <ele>11.416723</ele>
        <time>2022-04-14T11:10:42.000Z</time>
      </trkpt>
      <trkpt lat="36.53098" lon="-6.29418">
        <ele>11.417189</ele>
        <time>2022-04-14T11:10:43.000Z</time>
      </trkpt>
      <trkpt lat="36.53098" lon="-6.29421">
        <ele>11.417856</ele>
        <time>2022-04-14T11:10:45.000Z</time>
      </trkpt>
      <trkpt lat="36.53096" lon="-6.29423">
        <ele>11.418508</ele>
        <time>2022-04-14T11:10:47.000Z</time>
      </trkpt>
      <trkpt lat="36.53093" lon="-6.29425">
        <ele>11.41915</ele>
        <time>2022-04-14T11:10:49.000Z</time>
      </trkpt>
      <trkpt lat="36.53091" lon="-6.29427">
        <ele>11.419862</ele>
        <time>2022-04-14T11:10:52.000Z</time>
      </trkpt>
      <trkpt lat="36.53091" lon="-6.29429">
        <ele>11.420203</ele>
        <time>2022-04-14T11:10:55.000Z</time>
      </trkpt>
      <trkpt lat="36.53093" lon="-6.2943">
        <ele>11.420705</ele>
        <time>2022-04-14T11:10:56.000Z</time>
      </trkpt>
      <trkpt lat="36.53098" lon="-6.29435">
        <ele>11.422169</ele>
        <time>2022-04-14T11:11:01.000Z</time>
      </trkpt>
      <trkpt lat="36.53102" lon="-6.2943">
        <ele>11.423337</ele>
        <time>2022-04-14T11:11:04.000Z</time>
      </trkpt>
      <trkpt lat="36.53088" lon="-6.2942">
        <ele>11.426975</ele>
        <time>2022-04-14T11:11:09.000Z</time>
      </trkpt>
      <trkpt lat="36.5307" lon="-6.29417">
        <ele>11.431433</ele>
        <time>2022-04-14T11:11:15.000Z</time>
      </trkpt>
      <trkpt lat="36.53069" lon="-6.29418">
        <ele>11.431612</ele>
        <time>2022-04-14T11:11:16.000Z</time>
      </trkpt>
      <trkpt lat="36.53068" lon="-6.29419">
        <ele>11.431884</ele>
        <time>2022-04-14T11:11:17.000Z</time>
      </trkpt>
      <trkpt lat="36.53067" lon="-6.29424">
        <ele>11.432944</ele>
        <time>2022-04-14T11:11:20.000Z</time>
      </trkpt>
      <trkpt lat="36.53064" lon="-6.29424">
        <ele>11.433771</ele>
        <time>2022-04-14T11:11:21.000Z</time>
      </trkpt>
      <trkpt lat="36.53038" lon="-6.29419">
        <ele>11.520658</ele>
        <time>2022-04-14T11:11:24.000Z</time>
      </trkpt>
      <trkpt lat="36.53038" lon="-6.29419">
        <ele>11.522554</ele>
        <time>2022-04-14T11:11:25.000Z</time>
      </trkpt>
      <trkpt lat="36.53033" lon="-6.29421">
        <ele>11.56632</ele>
        <time>2022-04-14T11:11:26.000Z</time>
      </trkpt>
      <trkpt lat="36.53043" lon="-6.29433">
        <ele>11.674101</ele>
        <time>2022-04-14T11:11:29.000Z</time>
      </trkpt>
      <trkpt lat="36.53043" lon="-6.29438">
        <ele>11.703346</ele>
        <time>2022-04-14T11:11:31.000Z</time>
      </trkpt>
      <trkpt lat="36.53045" lon="-6.29438">
        <ele>11.715229</ele>
        <time>2022-04-14T11:11:33.000Z</time>
      </trkpt>
      <trkpt lat="36.53046" lon="-6.29436">
        <ele>11.72888</ele>
        <time>2022-04-14T11:11:36.000Z</time>
      </trkpt>
      <trkpt lat="36.53043" lon="-6.29435">
        <ele>11.754841</ele>
        <time>2022-04-14T11:11:37.000Z</time>
      </trkpt>
      <trkpt lat="36.53035" lon="-6.29435">
        <ele>11.814005</ele>
        <time>2022-04-14T11:11:39.000Z</time>
      </trkpt>
      <trkpt lat="36.53016" lon="-6.29437">
        <ele>11.950598</ele>
        <time>2022-04-14T11:11:41.000Z</time>
      </trkpt>
      <trkpt lat="36.53001" lon="-6.2944">
        <ele>12.066072</ele>
        <time>2022-04-14T11:11:47.000Z</time>
      </trkpt>
      <trkpt lat="36.53" lon="-6.2945">
        <ele>12.123151</ele>
        <time>2022-04-14T11:11:49.000Z</time>
      </trkpt>
      <trkpt lat="36.53001" lon="-6.29454">
        <ele>12.146602</ele>
        <time>2022-04-14T11:11:50.000Z</time>
      </trkpt>
      <trkpt lat="36.52991" lon="-6.29455">
        <ele>12.220963</ele>
        <time>2022-04-14T11:11:52.000Z</time>
      </trkpt>
      <trkpt lat="36.52993" lon="-6.29454">
        <ele>12.238483</ele>
        <time>2022-04-14T11:11:53.000Z</time>
      </trkpt>
      <trkpt lat="36.52994" lon="-6.29451">
        <ele>12.254545</ele>
        <time>2022-04-14T11:11:54.000Z</time>
      </trkpt>
      <trkpt lat="36.52989" lon="-6.2945">
        <ele>12.289685</ele>
        <time>2022-04-14T11:11:56.000Z</time>
      </trkpt>
      <trkpt lat="36.52985" lon="-6.29453">
        <ele>12.324534</ele>
        <time>2022-04-14T11:11:57.000Z</time>
      </trkpt>
      <trkpt lat="36.52978" lon="-6.29457">
        <ele>12.381453</ele>
        <time>2022-04-14T11:11:59.000Z</time>
      </trkpt>
      <trkpt lat="36.52975" lon="-6.29458">
        <ele>12.401962</ele>
        <time>2022-04-14T11:12:00.000Z</time>
      </trkpt>
      <trkpt lat="36.52965" lon="-6.29461">
        <ele>12.477546</ele>
        <time>2022-04-14T11:12:05.000Z</time>
      </trkpt>
      <trkpt lat="36.52954" lon="-6.29459">
        <ele>12.563812</ele>
        <time>2022-04-14T11:12:09.000Z</time>
      </trkpt>
      <trkpt lat="36.52951" lon="-6.29458">
        <ele>12.581705</ele>
        <time>2022-04-14T11:12:10.000Z</time>
      </trkpt>
      <trkpt lat="36.5295" lon="-6.29459">
        <ele>12.591385</ele>
        <time>2022-04-14T11:12:11.000Z</time>
      </trkpt>
      <trkpt lat="36.52952" lon="-6.2946">
        <ele>12.607312</ele>
        <time>2022-04-14T11:12:13.000Z</time>
      </trkpt>
      <trkpt lat="36.52959" lon="-6.29465">
        <ele>12.66347</ele>
        <time>2022-04-14T11:12:17.000Z</time>
      </trkpt>
      <trkpt lat="36.52958" lon="-6.29464">
        <ele>12.669031</ele>
        <time>2022-04-14T11:12:18.000Z</time>
      </trkpt>
      <trkpt lat="36.52958" lon="-6.29464">
        <ele>12.672736</ele>
        <time>2022-04-14T11:12:23.000Z</time>
      </trkpt>
      <trkpt lat="36.52962" lon="-6.29465">
        <ele>12.696745</ele>
        <time>2022-04-14T11:12:27.000Z</time>
      </trkpt>
      <trkpt lat="36.5296" lon="-6.29463">
        <ele>12.711095</ele>
        <time>2022-04-14T11:12:30.000Z</time>
      </trkpt>
      <trkpt lat="36.52958" lon="-6.29462">
        <ele>12.72771</ele>
        <time>2022-04-14T11:12:34.000Z</time>
      </trkpt>
      <trkpt lat="36.52956" lon="-6.29463">
        <ele>12.743939</ele>
        <time>2022-04-14T11:12:37.000Z</time>
      </trkpt>
      <trkpt lat="36.5295" lon="-6.29459">
        <ele>12.756156</ele>
        <time>2022-04-14T11:12:43.000Z</time>
      </trkpt>
      <trkpt lat="36.52943" lon="-6.29453">
        <ele>12.735283</ele>
        <time>2022-04-14T11:12:50.000Z</time>
      </trkpt>
      <trkpt lat="36.52938" lon="-6.29447">
        <ele>12.717936</ele>
        <time>2022-04-14T11:12:56.000Z</time>
      </trkpt>
      <trkpt lat="36.52946" lon="-6.29453">
        <ele>12.694112</ele>
        <time>2022-04-14T11:13:01.000Z</time>
      </trkpt>
      <trkpt lat="36.52947" lon="-6.29456">
        <ele>12.688061</ele>
        <time>2022-04-14T11:13:05.000Z</time>
      </trkpt>
      <trkpt lat="36.52947" lon="-6.29458">
        <ele>12.683736</ele>
        <time>2022-04-14T11:13:08.000Z</time>
      </trkpt>
      <trkpt lat="36.52946" lon="-6.29459">
        <ele>12.681332</ele>
        <time>2022-04-14T11:13:15.000Z</time>
      </trkpt>
      <trkpt lat="36.52945" lon="-6.29461">
        <ele>12.67629</ele>
        <time>2022-04-14T11:13:21.000Z</time>
      </trkpt>
      <trkpt lat="36.52945" lon="-6.29461">
        <ele>12.675307</ele>
        <time>2022-04-14T11:13:35.000Z</time>
      </trkpt>
      <trkpt lat="36.52945" lon="-6.29459">
        <ele>12.671459</ele>
        <time>2022-04-14T11:13:45.000Z</time>
      </trkpt>
      <trkpt lat="36.52948" lon="-6.29457">
        <ele>12.662688</ele>
        <time>2022-04-14T11:13:47.000Z</time>
      </trkpt>
      <trkpt lat="36.52949" lon="-6.29456">
        <ele>12.65997</ele>
        <time>2022-04-14T11:13:48.000Z</time>
      </trkpt>
      <trkpt lat="36.5295" lon="-6.29456">
        <ele>12.656713</ele>
        <time>2022-04-14T11:13:49.000Z</time>
      </trkpt>
      <trkpt lat="36.52951" lon="-6.29454">
        <ele>12.653159</ele>
        <time>2022-04-14T11:13:50.000Z</time>
      </trkpt>
      <trkpt lat="36.52951" lon="-6.2945">
        <ele>12.644151</ele>
        <time>2022-04-14T11:13:53.000Z</time>
      </trkpt>
      <trkpt lat="36.5295" lon="-6.29446">
        <ele>12.636271</ele>
        <time>2022-04-14T11:13:55.000Z</time>
      </trkpt>
      <trkpt lat="36.52946" lon="-6.29441">
        <ele>12.622865</ele>
        <time>2022-04-14T11:13:58.000Z</time>
      </trkpt>
      <trkpt lat="36.52942" lon="-6.29436">
        <ele>12.60948</ele>
        <time>2022-04-14T11:14:01.000Z</time>
      </trkpt>
      <trkpt lat="36.52943" lon="-6.29434">
        <ele>12.604141</ele>
        <time>2022-04-14T11:14:02.000Z</time>
      </trkpt>
      <trkpt lat="36.52946" lon="-6.29431">
        <ele>12.595944</ele>
        <time>2022-04-14T11:14:04.000Z</time>
      </trkpt>
      <trkpt lat="36.52951" lon="-6.29432">
        <ele>12.582667</ele>
        <time>2022-04-14T11:14:06.000Z</time>
      </trkpt>
      <trkpt lat="36.52953" lon="-6.29431">
        <ele>12.577502</ele>
        <time>2022-04-14T11:14:07.000Z</time>
      </trkpt>
      <trkpt lat="36.52956" lon="-6.29431">
        <ele>12.569576</ele>
        <time>2022-04-14T11:14:08.000Z</time>
      </trkpt>
      <trkpt lat="36.52968" lon="-6.29432">
        <ele>12.541534</ele>
        <time>2022-04-14T11:14:10.000Z</time>
      </trkpt>
      <trkpt lat="36.52969" lon="-6.29429">
        <ele>12.536445</ele>
        <time>2022-04-14T11:14:11.000Z</time>
      </trkpt>
      <trkpt lat="36.52966" lon="-6.29425">
        <ele>12.52474</ele>
        <time>2022-04-14T11:14:13.000Z</time>
      </trkpt>
      <trkpt lat="36.52966" lon="-6.29423">
        <ele>12.520333</ele>
        <time>2022-04-14T11:14:15.000Z</time>
      </trkpt>
      <trkpt lat="36.52968" lon="-6.29423">
        <ele>12.515038</ele>
        <time>2022-04-14T11:14:17.000Z</time>
      </trkpt>
      <trkpt lat="36.52967" lon="-6.29418">
        <ele>12.504625</ele>
        <time>2022-04-14T11:14:19.000Z</time>
      </trkpt>
      <trkpt lat="36.52968" lon="-6.29415">
        <ele>12.497081</ele>
        <time>2022-04-14T11:14:21.000Z</time>
      </trkpt>
      <trkpt lat="36.52969" lon="-6.29413">
        <ele>12.492674</ele>
        <time>2022-04-14T11:14:22.000Z</time>
      </trkpt>
      <trkpt lat="36.5297" lon="-6.29398">
        <ele>12.464327</ele>
        <time>2022-04-14T11:14:26.000Z</time>
      </trkpt>
      <trkpt lat="36.52969" lon="-6.29394">
        <ele>12.456759</ele>
        <time>2022-04-14T11:14:28.000Z</time>
      </trkpt>
      <trkpt lat="36.52967" lon="-6.29389">
        <ele>12.443521</ele>
        <time>2022-04-14T11:14:31.000Z</time>
      </trkpt>
      <trkpt lat="36.52965" lon="-6.29386">
        <ele>12.436868</ele>
        <time>2022-04-14T11:14:32.000Z</time>
      </trkpt>
      <trkpt lat="36.52963" lon="-6.29381">
        <ele>12.424944</ele>
        <time>2022-04-14T11:14:34.000Z</time>
      </trkpt>
      <trkpt lat="36.52961" lon="-6.29376">
        <ele>12.414578</ele>
        <time>2022-04-14T11:14:37.000Z</time>
      </trkpt>
      <trkpt lat="36.52961" lon="-6.29374">
        <ele>12.410629</ele>
        <time>2022-04-14T11:14:39.000Z</time>
      </trkpt>
      <trkpt lat="36.52961" lon="-6.29372">
        <ele>12.405476</ele>
        <time>2022-04-14T11:14:40.000Z</time>
      </trkpt>
      <trkpt lat="36.52962" lon="-6.29368">
        <ele>12.398031</ele>
        <time>2022-04-14T11:14:42.000Z</time>
      </trkpt>
      <trkpt lat="36.52962" lon="-6.29365">
        <ele>12.392751</ele>
        <time>2022-04-14T11:14:44.000Z</time>
      </trkpt>
      <trkpt lat="36.52961" lon="-6.29364">
        <ele>12.390255</ele>
        <time>2022-04-14T11:14:46.000Z</time>
      </trkpt>
      <trkpt lat="36.52962" lon="-6.29363">
        <ele>12.38702</ele>
        <time>2022-04-14T11:14:49.000Z</time>
      </trkpt>
      <trkpt lat="36.52962" lon="-6.29363">
        <ele>12.38517</ele>
        <time>2022-04-14T11:14:50.000Z</time>
      </trkpt>
      <trkpt lat="36.52962" lon="-6.29362">
        <ele>12.383135</ele>
        <time>2022-04-14T11:14:51.000Z</time>
      </trkpt>
      <trkpt lat="36.52962" lon="-6.29359">
        <ele>12.3776</ele>
        <time>2022-04-14T11:14:53.000Z</time>
      </trkpt>
      <trkpt lat="36.52961" lon="-6.29357">
        <ele>12.373743</ele>
        <time>2022-04-14T11:14:54.000Z</time>
      </trkpt>
      <trkpt lat="36.5296" lon="-6.29355">
        <ele>12.369388</ele>
        <time>2022-04-14T11:14:55.000Z</time>
      </trkpt>
      <trkpt lat="36.5296" lon="-6.29353">
        <ele>12.364642</ele>
        <time>2022-04-14T11:14:56.000Z</time>
      </trkpt>
      <trkpt lat="36.5296" lon="-6.29349">
        <ele>12.355921</ele>
        <time>2022-04-14T11:14:58.000Z</time>
      </trkpt>
      <trkpt lat="36.52962" lon="-6.29344">
        <ele>12.344512</ele>
        <time>2022-04-14T11:15:00.000Z</time>
      </trkpt>
      <trkpt lat="36.52968" lon="-6.29338">
        <ele>12.326406</ele>
        <time>2022-04-14T11:15:03.000Z</time>
      </trkpt>
      <trkpt lat="36.52969" lon="-6.29334">
        <ele>12.313607</ele>
        <time>2022-04-14T11:15:05.000Z</time>
      </trkpt>
      <trkpt lat="36.5297" lon="-6.29331">
        <ele>12.299834</ele>
        <time>2022-04-14T11:15:07.000Z</time>
      </trkpt>
      <trkpt lat="36.52972" lon="-6.29327">
        <ele>12.281738</ele>
        <time>2022-04-14T11:15:09.000Z</time>
      </trkpt>
      <trkpt lat="36.52973" lon="-6.29322">
        <ele>12.260725</ele>
        <time>2022-04-14T11:15:11.000Z</time>
      </trkpt>
      <trkpt lat="36.52979" lon="-6.29311">
        <ele>12.211034</ele>
        <time>2022-04-14T11:15:15.000Z</time>
      </trkpt>
      <trkpt lat="36.52979" lon="-6.29307">
        <ele>12.19593</ele>
        <time>2022-04-14T11:15:16.000Z</time>
      </trkpt>
      <trkpt lat="36.52981" lon="-6.29298">
        <ele>12.159979</ele>
        <time>2022-04-14T11:15:19.000Z</time>
      </trkpt>
      <trkpt lat="36.52981" lon="-6.29296">
        <ele>12.151788</ele>
        <time>2022-04-14T11:15:20.000Z</time>
      </trkpt>
      <trkpt lat="36.52983" lon="-6.29286">
        <ele>12.11122</ele>
        <time>2022-04-14T11:15:25.000Z</time>
      </trkpt>
      <trkpt lat="36.52984" lon="-6.29285">
        <ele>12.103583</ele>
        <time>2022-04-14T11:15:26.000Z</time>
      </trkpt>
      <trkpt lat="36.52986" lon="-6.29283">
        <ele>12.091337</ele>
        <time>2022-04-14T11:15:28.000Z</time>
      </trkpt>
      <trkpt lat="36.52989" lon="-6.29279">
        <ele>12.072885</ele>
        <time>2022-04-14T11:15:31.000Z</time>
      </trkpt>
      <trkpt lat="36.52994" lon="-6.29277">
        <ele>12.044596</ele>
        <time>2022-04-14T11:15:36.000Z</time>
      </trkpt>
      <trkpt lat="36.52997" lon="-6.29274">
        <ele>12.027639</ele>
        <time>2022-04-14T11:15:38.000Z</time>
      </trkpt>
      <trkpt lat="36.5301" lon="-6.29263">
        <ele>11.949429</ele>
        <time>2022-04-14T11:15:46.000Z</time>
      </trkpt>
      <trkpt lat="36.53024" lon="-6.29247">
        <ele>11.86054</ele>
        <time>2022-04-14T11:15:53.000Z</time>
      </trkpt>
      <trkpt lat="36.53033" lon="-6.29238">
        <ele>11.804361</ele>
        <time>2022-04-14T11:15:59.000Z</time>
      </trkpt>
      <trkpt lat="36.53038" lon="-6.29223">
        <ele>11.742627</ele>
        <time>2022-04-14T11:16:06.000Z</time>
      </trkpt>
      <trkpt lat="36.53046" lon="-6.29208">
        <ele>11.670628</ele>
        <time>2022-04-14T11:16:13.000Z</time>
      </trkpt>
      <trkpt lat="36.53053" lon="-6.29195">
        <ele>11.610982</ele>
        <time>2022-04-14T11:16:20.000Z</time>
      </trkpt>
      <trkpt lat="36.53053" lon="-6.29194">
        <ele>11.604095</ele>
        <time>2022-04-14T11:16:21.000Z</time>
      </trkpt>
      <trkpt lat="36.53053" lon="-6.2919">
        <ele>11.591143</ele>
        <time>2022-04-14T11:16:23.000Z</time>
      </trkpt>
      <trkpt lat="36.53053" lon="-6.29188">
        <ele>11.581769</ele>
        <time>2022-04-14T11:16:24.000Z</time>
      </trkpt>
      <trkpt lat="36.53059" lon="-6.29171">
        <ele>11.508196</ele>
        <time>2022-04-14T11:16:30.000Z</time>
      </trkpt>
      <trkpt lat="36.53068" lon="-6.29157">
        <ele>11.452832</ele>
        <time>2022-04-14T11:16:35.000Z</time>
      </trkpt>
      <trkpt lat="36.53074" lon="-6.29149">
        <ele>11.458538</ele>
        <time>2022-04-14T11:16:40.000Z</time>
      </trkpt>
      <trkpt lat="36.53074" lon="-6.29146">
        <ele>11.460081</ele>
        <time>2022-04-14T11:16:46.000Z</time>
      </trkpt>
      <trkpt lat="36.53073" lon="-6.29146">
        <ele>11.460865</ele>
        <time>2022-04-14T11:16:54.000Z</time>
      </trkpt>
      <trkpt lat="36.53073" lon="-6.29146">
        <ele>11.460865</ele>
        <time>2022-04-14T11:16:59.000Z</time>
      </trkpt>
      <trkpt lat="36.53073" lon="-6.29146">
        <ele>11.461237</ele>
        <time>2022-04-14T11:17:03.000Z</time>
      </trkpt>
      <trkpt lat="36.53075" lon="-6.29151">
        <ele>11.464051</ele>
        <time>2022-04-14T11:17:05.000Z</time>
      </trkpt>
      <trkpt lat="36.53074" lon="-6.29152">
        <ele>11.465353</ele>
        <time>2022-04-14T11:17:06.000Z</time>
      </trkpt>
      <trkpt lat="36.53066" lon="-6.29156">
        <ele>11.47087</ele>
        <time>2022-04-14T11:17:10.000Z</time>
      </trkpt>
      <trkpt lat="36.53065" lon="-6.29158">
        <ele>11.472474</ele>
        <time>2022-04-14T11:17:11.000Z</time>
      </trkpt>
      <trkpt lat="36.53058" lon="-6.29172">
        <ele>11.481576</ele>
        <time>2022-04-14T11:17:16.000Z</time>
      </trkpt>
      <trkpt lat="36.53057" lon="-6.29175">
        <ele>11.483265</ele>
        <time>2022-04-14T11:17:17.000Z</time>
      </trkpt>
      <trkpt lat="36.53058" lon="-6.2919">
        <ele>11.491027</ele>
        <time>2022-04-14T11:17:22.000Z</time>
      </trkpt>
      <trkpt lat="36.53059" lon="-6.29191">
        <ele>11.492166</ele>
        <time>2022-04-14T11:17:23.000Z</time>
      </trkpt>
      <trkpt lat="36.53063" lon="-6.29188">
        <ele>11.495465</ele>
        <time>2022-04-14T11:17:26.000Z</time>
      </trkpt>
      <trkpt lat="36.5307" lon="-6.29184">
        <ele>11.500093</ele>
        <time>2022-04-14T11:17:29.000Z</time>
      </trkpt>
      <trkpt lat="36.53075" lon="-6.29184">
        <ele>11.503911</ele>
        <time>2022-04-14T11:17:31.000Z</time>
      </trkpt>
      <trkpt lat="36.53085" lon="-6.29192">
        <ele>11.511845</ele>
        <time>2022-04-14T11:17:35.000Z</time>
      </trkpt>
      <trkpt lat="36.53097" lon="-6.29204">
        <ele>11.521964</ele>
        <time>2022-04-14T11:17:40.000Z</time>
      </trkpt>
      <trkpt lat="36.53113" lon="-6.29215">
        <ele>11.534135</ele>
        <time>2022-04-14T11:17:47.000Z</time>
      </trkpt>
      <trkpt lat="36.53125" lon="-6.29221">
        <ele>11.542943</ele>
        <time>2022-04-14T11:17:53.000Z</time>
      </trkpt>
      <trkpt lat="36.53141" lon="-6.29228">
        <ele>11.554263</ele>
        <time>2022-04-14T11:18:00.000Z</time>
      </trkpt>
      <trkpt lat="36.53145" lon="-6.29232">
        <ele>11.557935</ele>
        <time>2022-04-14T11:18:03.000Z</time>
      </trkpt>
      <trkpt lat="36.5315" lon="-6.29235">
        <ele>11.561354</ele>
        <time>2022-04-14T11:18:05.000Z</time>
      </trkpt>
      <trkpt lat="36.53161" lon="-6.29248">
        <ele>11.571628</ele>
        <time>2022-04-14T11:18:11.000Z</time>
      </trkpt>
      <trkpt lat="36.53168" lon="-6.29258">
        <ele>11.545501</ele>
        <time>2022-04-14T11:18:15.000Z</time>
      </trkpt>
      <trkpt lat="36.53169" lon="-6.2926">
        <ele>11.540477</ele>
        <time>2022-04-14T11:18:16.000Z</time>
      </trkpt>
      <trkpt lat="36.5317" lon="-6.29261">
        <ele>11.53697</ele>
        <time>2022-04-14T11:18:17.000Z</time>
      </trkpt>
      <trkpt lat="36.53173" lon="-6.29263">
        <ele>11.528737</ele>
        <time>2022-04-14T11:18:19.000Z</time>
      </trkpt>
      <trkpt lat="36.5318" lon="-6.29273">
        <ele>11.502889</ele>
        <time>2022-04-14T11:18:23.000Z</time>
      </trkpt>
      <trkpt lat="36.53179" lon="-6.29276">
        <ele>11.495899</ele>
        <time>2022-04-14T11:18:24.000Z</time>
      </trkpt>
      <trkpt lat="36.53174" lon="-6.29291">
        <ele>11.462412</ele>
        <time>2022-04-14T11:18:29.000Z</time>
      </trkpt>
      <trkpt lat="36.53175" lon="-6.29293">
        <ele>11.458508</ele>
        <time>2022-04-14T11:18:30.000Z</time>
      </trkpt>
      <trkpt lat="36.53178" lon="-6.29296">
        <ele>11.446889</ele>
        <time>2022-04-14T11:18:32.000Z</time>
      </trkpt>
      <trkpt lat="36.53183" lon="-6.29298">
        <ele>11.435831</ele>
        <time>2022-04-14T11:18:34.000Z</time>
      </trkpt>
      <trkpt lat="36.53191" lon="-6.29303">
        <ele>11.411878</ele>
        <time>2022-04-14T11:18:38.000Z</time>
      </trkpt>
      <trkpt lat="36.532" lon="-6.29306">
        <ele>11.387543</ele>
        <time>2022-04-14T11:18:42.000Z</time>
      </trkpt>
      <trkpt lat="36.53215" lon="-6.2931">
        <ele>11.349585</ele>
        <time>2022-04-14T11:18:49.000Z</time>
      </trkpt>
      <trkpt lat="36.53227" lon="-6.2932">
        <ele>11.312767</ele>
        <time>2022-04-14T11:18:55.000Z</time>
      </trkpt>
      <trkpt lat="36.53232" lon="-6.29322">
        <ele>11.299375</ele>
        <time>2022-04-14T11:18:57.000Z</time>
      </trkpt>
      <trkpt lat="36.53239" lon="-6.29324">
        <ele>11.280158</ele>
        <time>2022-04-14T11:19:00.000Z</time>
      </trkpt>
      <trkpt lat="36.53242" lon="-6.29326">
        <ele>11.271404</ele>
        <time>2022-04-14T11:19:02.000Z</time>
      </trkpt>
      <trkpt lat="36.53243" lon="-6.29328">
        <ele>11.267071</ele>
        <time>2022-04-14T11:19:04.000Z</time>
      </trkpt>
      <trkpt lat="36.53245" lon="-6.29324">
        <ele>11.258965</ele>
        <time>2022-04-14T11:19:09.000Z</time>
      </trkpt>
      <trkpt lat="36.53247" lon="-6.29326">
        <ele>11.251992</ele>
        <time>2022-04-14T11:19:14.000Z</time>
      </trkpt>
      <trkpt lat="36.53248" lon="-6.29322">
        <ele>11.244526</ele>
        <time>2022-04-14T11:19:19.000Z</time>
      </trkpt>
      <trkpt lat="36.5325" lon="-6.29321">
        <ele>11.239653</ele>
        <time>2022-04-14T11:19:26.000Z</time>
      </trkpt>
      <trkpt lat="36.53249" lon="-6.2932">
        <ele>11.237999</ele>
        <time>2022-04-14T11:19:33.000Z</time>
      </trkpt>
      <trkpt lat="36.53249" lon="-6.29321">
        <ele>11.237143</ele>
        <time>2022-04-14T11:19:37.000Z</time>
      </trkpt>
      <trkpt lat="36.53246" lon="-6.29317">
        <ele>11.226376</ele>
        <time>2022-04-14T11:19:42.000Z</time>
      </trkpt>
      <trkpt lat="36.53247" lon="-6.29318">
        <ele>11.222763</ele>
        <time>2022-04-14T11:19:46.000Z</time>
      </trkpt>
      <trkpt lat="36.53247" lon="-6.29318">
        <ele>11.221245</ele>
        <time>2022-04-14T11:19:51.000Z</time>
      </trkpt>
      <trkpt lat="36.53247" lon="-6.29318">
        <ele>11.220763</ele>
        <time>2022-04-14T11:20:02.000Z</time>
      </trkpt>
      <trkpt lat="36.53248" lon="-6.29317">
        <ele>11.217533</ele>
        <time>2022-04-14T11:20:10.000Z</time>
      </trkpt>
      <trkpt lat="36.53248" lon="-6.29316">
        <ele>11.214503</ele>
        <time>2022-04-14T11:20:15.000Z</time>
      </trkpt>
      <trkpt lat="36.5325" lon="-6.29317">
        <ele>11.208456</ele>
        <time>2022-04-14T11:20:20.000Z</time>
      </trkpt>
      <trkpt lat="36.53242" lon="-6.29319">
        <ele>11.185877</ele>
        <time>2022-04-14T11:20:27.000Z</time>
      </trkpt>
      <trkpt lat="36.53242" lon="-6.29319">
        <ele>11.184424</ele>
        <time>2022-04-14T11:20:32.000Z</time>
      </trkpt>
      <trkpt lat="36.53243" lon="-6.29313">
        <ele>11.171778</ele>
        <time>2022-04-14T11:20:42.000Z</time>
      </trkpt>
      <trkpt lat="36.53243" lon="-6.29313">
        <ele>11.171296</ele>
        <time>2022-04-14T11:20:45.000Z</time>
      </trkpt>
      <trkpt lat="36.53243" lon="-6.29313">
        <ele>11.171296</ele>
        <time>2022-04-14T11:20:47.000Z</time>
      </trkpt>
      <trkpt lat="36.53244" lon="-6.29312">
        <ele>11.17097</ele>
        <time>2022-04-14T11:20:49.000Z</time>
      </trkpt>
      <trkpt lat="36.53244" lon="-6.29312">
        <ele>11.169932</ele>
        <time>2022-04-14T11:20:51.000Z</time>
      </trkpt>
      <trkpt lat="36.53244" lon="-6.29312">
        <ele>11.169384</ele>
        <time>2022-04-14T11:20:53.000Z</time>
      </trkpt>
      <trkpt lat="36.53244" lon="-6.29313">
        <ele>11.168266</ele>
        <time>2022-04-14T11:20:54.000Z</time>
      </trkpt>
      <trkpt lat="36.53245" lon="-6.29314">
        <ele>11.165849</ele>
        <time>2022-04-14T11:20:59.000Z</time>
      </trkpt>
      <trkpt lat="36.53245" lon="-6.29314">
        <ele>11.165052</ele>
        <time>2022-04-14T11:21:02.000Z</time>
      </trkpt>
      <trkpt lat="36.53244" lon="-6.29316">
        <ele>11.159933</ele>
        <time>2022-04-14T11:21:08.000Z</time>
      </trkpt>
      <trkpt lat="36.53245" lon="-6.29321">
        <ele>11.148021</ele>
        <time>2022-04-14T11:21:24.000Z</time>
      </trkpt>
      <trkpt lat="36.53245" lon="-6.29323">
        <ele>11.145176</ele>
        <time>2022-04-14T11:21:28.000Z</time>
      </trkpt>
      <trkpt lat="36.53245" lon="-6.29323">
        <ele>11.144694</ele>
        <time>2022-04-14T11:21:33.000Z</time>
      </trkpt>
      <trkpt lat="36.53245" lon="-6.29323">
        <ele>11.144694</ele>
        <time>2022-04-14T11:21:35.000Z</time>
      </trkpt>
      <trkpt lat="36.53245" lon="-6.29323">
        <ele>11.144694</ele>
        <time>2022-04-14T11:21:37.000Z</time>
      </trkpt>
      <trkpt lat="36.53245" lon="-6.29323">
        <ele>11.144031</ele>
        <time>2022-04-14T11:21:42.000Z</time>
      </trkpt>
      <trkpt lat="36.53245" lon="-6.29323">
        <ele>11.143776</ele>
        <time>2022-04-14T11:21:47.000Z</time>
      </trkpt>
      <trkpt lat="36.53245" lon="-6.29323">
        <ele>11.142658</ele>
        <time>2022-04-14T11:21:56.000Z</time>
      </trkpt>
      <trkpt lat="36.53245" lon="-6.29322">
        <ele>11.141636</ele>
        <time>2022-04-14T11:21:58.000Z</time>
      </trkpt>
      <trkpt lat="36.53245" lon="-6.29322">
        <ele>11.140819</ele>
        <time>2022-04-14T11:22:00.000Z</time>
      </trkpt>
      <trkpt lat="36.53245" lon="-6.29321">
        <ele>11.140001</ele>
        <time>2022-04-14T11:22:03.000Z</time>
      </trkpt>
      <trkpt lat="36.53245" lon="-6.29321">
        <ele>11.139593</ele>
        <time>2022-04-14T11:22:05.000Z</time>
      </trkpt>
      <trkpt lat="36.53245" lon="-6.29321">
        <ele>11.139593</ele>
        <time>2022-04-14T11:22:07.000Z</time>
      </trkpt>
      <trkpt lat="36.53245" lon="-6.29321">
        <ele>11.138575</ele>
        <time>2022-04-14T11:22:10.000Z</time>
      </trkpt>
      <trkpt lat="36.53245" lon="-6.29321">
        <ele>11.137812</ele>
        <time>2022-04-14T11:22:13.000Z</time>
      </trkpt>
      <trkpt lat="36.53245" lon="-6.29321">
        <ele>11.137558</ele>
        <time>2022-04-14T11:22:15.000Z</time>
      </trkpt>
      <trkpt lat="36.53243" lon="-6.29323">
        <ele>11.131283</ele>
        <time>2022-04-14T11:22:26.000Z</time>
      </trkpt>
      <trkpt lat="36.5324" lon="-6.29323">
        <ele>11.123144</ele>
        <time>2022-04-14T11:22:33.000Z</time>
      </trkpt>
      <trkpt lat="36.53239" lon="-6.29323">
        <ele>11.120855</ele>
        <time>2022-04-14T11:22:36.000Z</time>
      </trkpt>
      <trkpt lat="36.53229" lon="-6.29312">
        <ele>11.133394</ele>
        <time>2022-04-14T11:23:19.000Z</time>
      </trkpt>
      <trkpt lat="36.53229" lon="-6.29312">
        <ele>11.133394</ele>
        <time>2022-04-14T11:23:22.000Z</time>
      </trkpt>
      <trkpt lat="36.53229" lon="-6.29312">
        <ele>11.133394</ele>
        <time>2022-04-14T11:23:26.000Z</time>
      </trkpt>
      <trkpt lat="36.53229" lon="-6.29313">
        <ele>11.135399</ele>
        <time>2022-04-14T11:23:31.000Z</time>
      </trkpt>
      <trkpt lat="36.53229" lon="-6.29311">
        <ele>11.138396</ele>
        <time>2022-04-14T11:24:08.000Z</time>
      </trkpt>
      <trkpt lat="36.53231" lon="-6.2931">
        <ele>11.142341</ele>
        <time>2022-04-14T11:24:21.000Z</time>
      </trkpt>
      <trkpt lat="36.53232" lon="-6.2931">
        <ele>11.142696</ele>
        <time>2022-04-14T11:24:26.000Z</time>
      </trkpt>
      <trkpt lat="36.53232" lon="-6.2931">
        <ele>11.144294</ele>
        <time>2022-04-14T11:24:31.000Z</time>
      </trkpt>
      <trkpt lat="36.53233" lon="-6.29311">
        <ele>11.145591</ele>
        <time>2022-04-14T11:24:38.000Z</time>
      </trkpt>
      <trkpt lat="36.53233" lon="-6.29311">
        <ele>11.145876</ele>
        <time>2022-04-14T11:24:40.000Z</time>
      </trkpt>
      <trkpt lat="36.53233" lon="-6.29315">
        <ele>11.15188</ele>
        <time>2022-04-14T11:24:54.000Z</time>
      </trkpt>
      <trkpt lat="36.53233" lon="-6.29315">
        <ele>11.15188</ele>
        <time>2022-04-14T11:24:57.000Z</time>
      </trkpt>
      <trkpt lat="36.53233" lon="-6.29316">
        <ele>11.152451</ele>
        <time>2022-04-14T11:25:04.000Z</time>
      </trkpt>
      <trkpt lat="36.53233" lon="-6.29315">
        <ele>11.153783</ele>
        <time>2022-04-14T11:25:07.000Z</time>
      </trkpt>
      <trkpt lat="36.53233" lon="-6.29315">
        <ele>11.154335</ele>
        <time>2022-04-14T11:25:08.000Z</time>
      </trkpt>
      <trkpt lat="36.53233" lon="-6.29315">
        <ele>11.154671</ele>
        <time>2022-04-14T11:25:23.000Z</time>
      </trkpt>
      <trkpt lat="36.53233" lon="-6.29315">
        <ele>11.154849</ele>
        <time>2022-04-14T11:25:26.000Z</time>
      </trkpt>
      <trkpt lat="36.53233" lon="-6.29315">
        <ele>11.155312</ele>
        <time>2022-04-14T11:25:28.000Z</time>
      </trkpt>
      <trkpt lat="36.53235" lon="-6.29313">
        <ele>11.159598</ele>
        <time>2022-04-14T11:25:40.000Z</time>
      </trkpt>
      <trkpt lat="36.53235" lon="-6.29313">
        <ele>11.160308</ele>
        <time>2022-04-14T11:25:43.000Z</time>
      </trkpt>
      <trkpt lat="36.53236" lon="-6.29313">
        <ele>11.161374</ele>
        <time>2022-04-14T11:25:48.000Z</time>
      </trkpt>
      <trkpt lat="36.53236" lon="-6.29313">
        <ele>11.162359</ele>
        <time>2022-04-14T11:25:55.000Z</time>
      </trkpt>
      <trkpt lat="36.53237" lon="-6.29312">
        <ele>11.163568</ele>
        <time>2022-04-14T11:26:06.000Z</time>
      </trkpt>
      <trkpt lat="36.53237" lon="-6.29312">
        <ele>11.163854</ele>
        <time>2022-04-14T11:26:08.000Z</time>
      </trkpt>
      <trkpt lat="36.53236" lon="-6.29312">
        <ele>11.164386</ele>
        <time>2022-04-14T11:26:18.000Z</time>
      </trkpt>
      <trkpt lat="36.53236" lon="-6.29312">
        <ele>11.165286</ele>
        <time>2022-04-14T11:26:21.000Z</time>
      </trkpt>
      <trkpt lat="36.53235" lon="-6.29313">
        <ele>11.166967</ele>
        <time>2022-04-14T11:26:23.000Z</time>
      </trkpt>
      <trkpt lat="36.53235" lon="-6.29314">
        <ele>11.168576</ele>
        <time>2022-04-14T11:26:27.000Z</time>
      </trkpt>
      <trkpt lat="36.53235" lon="-6.29316">
        <ele>11.171311</ele>
        <time>2022-04-14T11:26:30.000Z</time>
      </trkpt>
      <trkpt lat="36.53234" lon="-6.2932">
        <ele>11.176805</ele>
        <time>2022-04-14T11:26:38.000Z</time>
      </trkpt>
      <trkpt lat="36.53234" lon="-6.2932">
        <ele>11.177662</ele>
        <time>2022-04-14T11:26:40.000Z</time>
      </trkpt>
      <trkpt lat="36.53235" lon="-6.29319">
        <ele>11.178589</ele>
        <time>2022-04-14T11:26:41.000Z</time>
      </trkpt>
      <trkpt lat="36.53235" lon="-6.29318">
        <ele>11.180444</ele>
        <time>2022-04-14T11:26:43.000Z</time>
      </trkpt>
      <trkpt lat="36.53235" lon="-6.29314">
        <ele>11.185771</ele>
        <time>2022-04-14T11:26:49.000Z</time>
      </trkpt>
      <trkpt lat="36.53235" lon="-6.29314">
        <ele>11.185999</ele>
        <time>2022-04-14T11:26:50.000Z</time>
      </trkpt>
      <trkpt lat="36.53235" lon="-6.29314">
        <ele>11.186382</ele>
        <time>2022-04-14T11:26:52.000Z</time>
      </trkpt>
      <trkpt lat="36.53235" lon="-6.29314">
        <ele>11.187117</ele>
        <time>2022-04-14T11:27:06.000Z</time>
      </trkpt>
      <trkpt lat="36.53237" lon="-6.2932">
        <ele>11.196453</ele>
        <time>2022-04-14T11:27:18.000Z</time>
      </trkpt>
      <trkpt lat="36.53238" lon="-6.29322">
        <ele>11.198771</ele>
        <time>2022-04-14T11:27:19.000Z</time>
      </trkpt>
      <trkpt lat="36.53239" lon="-6.29322">
        <ele>11.200369</ele>
        <time>2022-04-14T11:27:29.000Z</time>
      </trkpt>
      <trkpt lat="36.53238" lon="-6.2933">
        <ele>11.212119</ele>
        <time>2022-04-14T11:27:55.000Z</time>
      </trkpt>
      <trkpt lat="36.53237" lon="-6.29331">
        <ele>11.213932</ele>
        <time>2022-04-14T11:27:59.000Z</time>
      </trkpt>
      <trkpt lat="36.53236" lon="-6.29333">
        <ele>11.217583</ele>
        <time>2022-04-14T11:28:15.000Z</time>
      </trkpt>
      <trkpt lat="36.53237" lon="-6.29329">
        <ele>11.22374</ele>
        <time>2022-04-14T11:28:18.000Z</time>
      </trkpt>
      <trkpt lat="36.53237" lon="-6.29328">
        <ele>11.224537</ele>
        <time>2022-04-14T11:28:22.000Z</time>
      </trkpt>
      <trkpt lat="36.53237" lon="-6.29328">
        <ele>11.224537</ele>
        <time>2022-04-14T11:28:38.000Z</time>
      </trkpt>
      <trkpt lat="36.53237" lon="-6.29328">
        <ele>11.22468</ele>
        <time>2022-04-14T11:28:44.000Z</time>
      </trkpt>
      <trkpt lat="36.53236" lon="-6.29326">
        <ele>11.229386</ele>
        <time>2022-04-14T11:29:14.000Z</time>
      </trkpt>
      <trkpt lat="36.53236" lon="-6.29325">
        <ele>11.229984</ele>
        <time>2022-04-14T11:29:27.000Z</time>
      </trkpt>
      <trkpt lat="36.53236" lon="-6.29325">
        <ele>11.229984</ele>
        <time>2022-04-14T11:29:28.000Z</time>
      </trkpt>
      <trkpt lat="36.53236" lon="-6.29326">
        <ele>11.231125</ele>
        <time>2022-04-14T11:29:33.000Z</time>
      </trkpt>
      <trkpt lat="36.53238" lon="-6.29327">
        <ele>11.235047</ele>
        <time>2022-04-14T11:29:38.000Z</time>
      </trkpt>
      <trkpt lat="36.53238" lon="-6.29327">
        <ele>11.235402</ele>
        <time>2022-04-14T11:29:39.000Z</time>
      </trkpt>
      <trkpt lat="36.53239" lon="-6.29328">
        <ele>11.238082</ele>
        <time>2022-04-14T11:29:46.000Z</time>
      </trkpt>
      <trkpt lat="36.53239" lon="-6.29328">
        <ele>11.238082</ele>
        <time>2022-04-14T11:29:58.000Z</time>
      </trkpt>
      <trkpt lat="36.53239" lon="-6.29325">
        <ele>11.242648</ele>
        <time>2022-04-14T11:30:05.000Z</time>
      </trkpt>
      <trkpt lat="36.53239" lon="-6.29323">
        <ele>11.244818</ele>
        <time>2022-04-14T11:30:13.000Z</time>
      </trkpt>
      <trkpt lat="36.53238" lon="-6.29323">
        <ele>11.246968</ele>
        <time>2022-04-14T11:30:18.000Z</time>
      </trkpt>
      <trkpt lat="36.53236" lon="-6.29327">
        <ele>11.253722</ele>
        <time>2022-04-14T11:30:30.000Z</time>
      </trkpt>
      <trkpt lat="36.53236" lon="-6.29327">
        <ele>11.254274</ele>
        <time>2022-04-14T11:30:40.000Z</time>
      </trkpt>
      <trkpt lat="36.53236" lon="-6.29327">
        <ele>11.254274</ele>
        <time>2022-04-14T11:30:43.000Z</time>
      </trkpt>
      <trkpt lat="36.53236" lon="-6.29327">
        <ele>11.254559</ele>
        <time>2022-04-14T11:30:45.000Z</time>
      </trkpt>
      <trkpt lat="36.53233" lon="-6.29327">
        <ele>11.260111</ele>
        <time>2022-04-14T11:31:06.000Z</time>
      </trkpt>
      <trkpt lat="36.53232" lon="-6.29327">
        <ele>11.261892</ele>
        <time>2022-04-14T11:31:10.000Z</time>
      </trkpt>
      <trkpt lat="36.53232" lon="-6.29327">
        <ele>11.26207</ele>
        <time>2022-04-14T11:31:12.000Z</time>
      </trkpt>
      <trkpt lat="36.53232" lon="-6.29327">
        <ele>11.26207</ele>
        <time>2022-04-14T11:31:15.000Z</time>
      </trkpt>
      <trkpt lat="36.53232" lon="-6.29327">
        <ele>11.26207</ele>
        <time>2022-04-14T11:31:16.000Z</time>
      </trkpt>
      <trkpt lat="36.53232" lon="-6.29327">
        <ele>11.26207</ele>
        <time>2022-04-14T11:31:18.000Z</time>
      </trkpt>
      <trkpt lat="36.53233" lon="-6.29327">
        <ele>11.262674</ele>
        <time>2022-04-14T11:31:38.000Z</time>
      </trkpt>
      <trkpt lat="36.53233" lon="-6.29327">
        <ele>11.263279</ele>
        <time>2022-04-14T11:31:52.000Z</time>
      </trkpt>
      <trkpt lat="36.53234" lon="-6.29327">
        <ele>11.264488</ele>
        <time>2022-04-14T11:32:03.000Z</time>
      </trkpt>
      <trkpt lat="36.53235" lon="-6.29325">
        <ele>11.266936</ele>
        <time>2022-04-14T11:32:08.000Z</time>
      </trkpt>
      <trkpt lat="36.53235" lon="-6.29325">
        <ele>11.267319</ele>
        <time>2022-04-14T11:32:09.000Z</time>
      </trkpt>
      <trkpt lat="36.53236" lon="-6.29325">
        <ele>11.268924</ele>
        <time>2022-04-14T11:32:18.000Z</time>
      </trkpt>
      <trkpt lat="36.53235" lon="-6.29328">
        <ele>11.272531</ele>
        <time>2022-04-14T11:32:41.000Z</time>
      </trkpt>
      <trkpt lat="36.53235" lon="-6.29329">
        <ele>11.274963</ele>
        <time>2022-04-14T11:32:48.000Z</time>
      </trkpt>
      <trkpt lat="36.53235" lon="-6.29329">
        <ele>11.274963</ele>
        <time>2022-04-14T11:32:49.000Z</time>
      </trkpt>
      <trkpt lat="36.53235" lon="-6.29329">
        <ele>11.274963</ele>
        <time>2022-04-14T11:32:56.000Z</time>
      </trkpt>
      <trkpt lat="36.53235" lon="-6.2933">
        <ele>11.275534</ele>
        <time>2022-04-14T11:33:01.000Z</time>
      </trkpt>
      <trkpt lat="36.53236" lon="-6.29332">
        <ele>11.278109</ele>
        <time>2022-04-14T11:33:11.000Z</time>
      </trkpt>
      <trkpt lat="36.53236" lon="-6.29332">
        <ele>11.278572</ele>
        <time>2022-04-14T11:33:14.000Z</time>
      </trkpt>
      <trkpt lat="36.53236" lon="-6.29332">
        <ele>11.279105</ele>
        <time>2022-04-14T11:33:18.000Z</time>
      </trkpt>
      <trkpt lat="36.53236" lon="-6.29332">
        <ele>11.279935</ele>
        <time>2022-04-14T11:33:24.000Z</time>
      </trkpt>
      <trkpt lat="36.53234" lon="-6.29332">
        <ele>11.284916</ele>
        <time>2022-04-14T11:33:31.000Z</time>
      </trkpt>
      <trkpt lat="36.53234" lon="-6.29326">
        <ele>11.293261</ele>
        <time>2022-04-14T11:33:35.000Z</time>
      </trkpt>
      <trkpt lat="36.53235" lon="-6.29327">
        <ele>11.2954</ele>
        <time>2022-04-14T11:33:41.000Z</time>
      </trkpt>
      <trkpt lat="36.53235" lon="-6.29328">
        <ele>11.296256</ele>
        <time>2022-04-14T11:33:55.000Z</time>
      </trkpt>
      <trkpt lat="36.53235" lon="-6.29325">
        <ele>11.30053</ele>
        <time>2022-04-14T11:34:24.000Z</time>
      </trkpt>
      <trkpt lat="36.53235" lon="-6.29326">
        <ele>11.302109</ele>
        <time>2022-04-14T11:34:25.000Z</time>
      </trkpt>
      <trkpt lat="36.53236" lon="-6.29327">
        <ele>11.302984</ele>
        <time>2022-04-14T11:34:28.000Z</time>
      </trkpt>
      <trkpt lat="36.53236" lon="-6.29329">
        <ele>11.306621</ele>
        <time>2022-04-14T11:34:34.000Z</time>
      </trkpt>
      <trkpt lat="36.53237" lon="-6.29331">
        <ele>11.309519</ele>
        <time>2022-04-14T11:34:52.000Z</time>
      </trkpt>
      <trkpt lat="36.53237" lon="-6.29332">
        <ele>11.310661</ele>
        <time>2022-04-14T11:34:53.000Z</time>
      </trkpt>
      <trkpt lat="36.53237" lon="-6.29332">
        <ele>11.311668</ele>
        <time>2022-04-14T11:34:56.000Z</time>
      </trkpt>
      <trkpt lat="36.53237" lon="-6.29333">
        <ele>11.312809</ele>
        <time>2022-04-14T11:34:57.000Z</time>
      </trkpt>
      <trkpt lat="36.53237" lon="-6.29334">
        <ele>11.314826</ele>
        <time>2022-04-14T11:34:59.000Z</time>
      </trkpt>
      <trkpt lat="36.53236" lon="-6.29339">
        <ele>11.321728</ele>
        <time>2022-04-14T11:35:03.000Z</time>
      </trkpt>
      <trkpt lat="36.53235" lon="-6.29339">
        <ele>11.323333</ele>
        <time>2022-04-14T11:35:06.000Z</time>
      </trkpt>
      <trkpt lat="36.53234" lon="-6.29339">
        <ele>11.324927</ele>
        <time>2022-04-14T11:35:11.000Z</time>
      </trkpt>
      <trkpt lat="36.53234" lon="-6.29339">
        <ele>11.324927</ele>
        <time>2022-04-14T11:35:15.000Z</time>
      </trkpt>
      <trkpt lat="36.53234" lon="-6.29339">
        <ele>11.324927</ele>
        <time>2022-04-14T11:35:16.000Z</time>
      </trkpt>
      <trkpt lat="36.53234" lon="-6.29339">
        <ele>11.326153</ele>
        <time>2022-04-14T11:35:21.000Z</time>
      </trkpt>
      <trkpt lat="36.53235" lon="-6.29336">
        <ele>11.329298</ele>
        <time>2022-04-14T11:35:36.000Z</time>
      </trkpt>
      <trkpt lat="36.53235" lon="-6.29335">
        <ele>11.3313</ele>
        <time>2022-04-14T11:35:43.000Z</time>
      </trkpt>
      <trkpt lat="36.53235" lon="-6.29334">
        <ele>11.333012</ele>
        <time>2022-04-14T11:35:45.000Z</time>
      </trkpt>
      <trkpt lat="36.53236" lon="-6.29333">
        <ele>11.334606</ele>
        <time>2022-04-14T11:35:55.000Z</time>
      </trkpt>
      <trkpt lat="36.53236" lon="-6.29333">
        <ele>11.334892</ele>
        <time>2022-04-14T11:35:58.000Z</time>
      </trkpt>
      <trkpt lat="36.53236" lon="-6.29333">
        <ele>11.335035</ele>
        <time>2022-04-14T11:36:02.000Z</time>
      </trkpt>
      <trkpt lat="36.53236" lon="-6.29333">
        <ele>11.335035</ele>
        <time>2022-04-14T11:36:05.000Z</time>
      </trkpt>
      <trkpt lat="36.53236" lon="-6.29332">
        <ele>11.336319</ele>
        <time>2022-04-14T11:36:16.000Z</time>
      </trkpt>
      <trkpt lat="36.53236" lon="-6.29332">
        <ele>11.336462</ele>
        <time>2022-04-14T11:36:17.000Z</time>
      </trkpt>
      <trkpt lat="36.53236" lon="-6.29331">
        <ele>11.336925</ele>
        <time>2022-04-14T11:36:21.000Z</time>
      </trkpt>
      <trkpt lat="36.53236" lon="-6.29331">
        <ele>11.337523</ele>
        <time>2022-04-14T11:36:23.000Z</time>
      </trkpt>
      <trkpt lat="36.53236" lon="-6.29331">
        <ele>11.337666</ele>
        <time>2022-04-14T11:36:24.000Z</time>
      </trkpt>
      <trkpt lat="36.53236" lon="-6.29331">
        <ele>11.337893</ele>
        <time>2022-04-14T11:36:25.000Z</time>
      </trkpt>
      <trkpt lat="36.53236" lon="-6.2933">
        <ele>11.33882</ele>
        <time>2022-04-14T11:36:27.000Z</time>
      </trkpt>
      <trkpt lat="36.53236" lon="-6.29329">
        <ele>11.341104</ele>
        <time>2022-04-14T11:36:31.000Z</time>
      </trkpt>
      <trkpt lat="36.53236" lon="-6.29326">
        <ele>11.344831</ele>
        <time>2022-04-14T11:36:44.000Z</time>
      </trkpt>
      <trkpt lat="36.53233" lon="-6.29331">
        <ele>11.353295</ele>
        <time>2022-04-14T11:36:51.000Z</time>
      </trkpt>
      <trkpt lat="36.53232" lon="-6.29336">
        <ele>11.360787</ele>
        <time>2022-04-14T11:37:00.000Z</time>
      </trkpt>
      <trkpt lat="36.53236" lon="-6.29313">
        <ele>11.394824</ele>
        <time>2022-04-14T11:37:10.000Z</time>
      </trkpt>
      <trkpt lat="36.53239" lon="-6.29318">
        <ele>11.40354</ele>
        <time>2022-04-14T11:37:17.000Z</time>
      </trkpt>
      <trkpt lat="36.53242" lon="-6.29321">
        <ele>11.411058</ele>
        <time>2022-04-14T11:37:24.000Z</time>
      </trkpt>
      <trkpt lat="36.53245" lon="-6.2932">
        <ele>11.415263</ele>
        <time>2022-04-14T11:37:29.000Z</time>
      </trkpt>
      <trkpt lat="36.53243" lon="-6.2932">
        <ele>11.418108</ele>
        <time>2022-04-14T11:37:41.000Z</time>
      </trkpt>
      <trkpt lat="36.53242" lon="-6.29322">
        <ele>11.420451</ele>
        <time>2022-04-14T11:38:02.000Z</time>
      </trkpt>
      <trkpt lat="36.53242" lon="-6.29322">
        <ele>11.420593</ele>
        <time>2022-04-14T11:38:06.000Z</time>
      </trkpt>
      <trkpt lat="36.53242" lon="-6.29323">
        <ele>11.422031</ele>
        <time>2022-04-14T11:38:14.000Z</time>
      </trkpt>
      <trkpt lat="36.5324" lon="-6.29329">
        <ele>11.431433</ele>
        <time>2022-04-14T11:38:28.000Z</time>
      </trkpt>
      <trkpt lat="36.5324" lon="-6.29329">
        <ele>11.432105</ele>
        <time>2022-04-14T11:38:29.000Z</time>
      </trkpt>
      <trkpt lat="36.5324" lon="-6.29329">
        <ele>11.43246</ele>
        <time>2022-04-14T11:38:30.000Z</time>
      </trkpt>
      <trkpt lat="36.53238" lon="-6.29327">
        <ele>11.445395</ele>
        <time>2022-04-14T11:38:32.000Z</time>
      </trkpt>
      <trkpt lat="36.53235" lon="-6.29325">
        <ele>11.468602</ele>
        <time>2022-04-14T11:38:34.000Z</time>
      </trkpt>
      <trkpt lat="36.53234" lon="-6.29323">
        <ele>11.486131</ele>
        <time>2022-04-14T11:38:39.000Z</time>
      </trkpt>
      <trkpt lat="36.53234" lon="-6.29321">
        <ele>11.492602</ele>
        <time>2022-04-14T11:38:41.000Z</time>
      </trkpt>
      <trkpt lat="36.53234" lon="-6.29321">
        <ele>11.495614</ele>
        <time>2022-04-14T11:38:43.000Z</time>
      </trkpt>
      <trkpt lat="36.53234" lon="-6.29321">
        <ele>11.498813</ele>
        <time>2022-04-14T11:38:44.000Z</time>
      </trkpt>
      <trkpt lat="36.53236" lon="-6.2932">
        <ele>11.513928</ele>
        <time>2022-04-14T11:38:49.000Z</time>
      </trkpt>
      <trkpt lat="36.53238" lon="-6.29319">
        <ele>11.522266</ele>
        <time>2022-04-14T11:38:54.000Z</time>
      </trkpt>
      <trkpt lat="36.53238" lon="-6.29319">
        <ele>11.527652</ele>
        <time>2022-04-14T11:38:59.000Z</time>
      </trkpt>
      <trkpt lat="36.53239" lon="-6.29323">
        <ele>11.548229</ele>
        <time>2022-04-14T11:39:02.000Z</time>
      </trkpt>
      <trkpt lat="36.53239" lon="-6.29323">
        <ele>11.551736</ele>
        <time>2022-04-14T11:39:07.000Z</time>
      </trkpt>
      <trkpt lat="36.53239" lon="-6.29324">
        <ele>11.554536</ele>
        <time>2022-04-14T11:39:12.000Z</time>
      </trkpt>
      <trkpt lat="36.53239" lon="-6.29323">
        <ele>11.555913</ele>
        <time>2022-04-14T11:39:19.000Z</time>
      </trkpt>
      <trkpt lat="36.53239" lon="-6.29325">
        <ele>11.568276</ele>
        <time>2022-04-14T11:39:23.000Z</time>
      </trkpt>
      <trkpt lat="36.53239" lon="-6.29324">
        <ele>11.575875</ele>
        <time>2022-04-14T11:39:26.000Z</time>
      </trkpt>
      <trkpt lat="36.5324" lon="-6.29326">
        <ele>11.589153</ele>
        <time>2022-04-14T11:39:30.000Z</time>
      </trkpt>
      <trkpt lat="36.53241" lon="-6.29326">
        <ele>11.597177</ele>
        <time>2022-04-14T11:39:33.000Z</time>
      </trkpt>
      <trkpt lat="36.53241" lon="-6.29324">
        <ele>11.608892</ele>
        <time>2022-04-14T11:39:34.000Z</time>
      </trkpt>
      <trkpt lat="36.53239" lon="-6.2933">
        <ele>11.647137</ele>
        <time>2022-04-14T11:39:38.000Z</time>
      </trkpt>
      <trkpt lat="36.53239" lon="-6.2933">
        <ele>11.647137</ele>
        <time>2022-04-14T11:39:44.000Z</time>
      </trkpt>
      <trkpt lat="36.53239" lon="-6.2933">
        <ele>11.647137</ele>
        <time>2022-04-14T11:39:49.000Z</time>
      </trkpt>
      <trkpt lat="36.53239" lon="-6.29331">
        <ele>11.650645</ele>
        <time>2022-04-14T11:39:56.000Z</time>
      </trkpt>
      <trkpt lat="36.53239" lon="-6.29337">
        <ele>11.690397</ele>
        <time>2022-04-14T11:40:07.000Z</time>
      </trkpt>
      <trkpt lat="36.5324" lon="-6.29338">
        <ele>11.699873</ele>
        <time>2022-04-14T11:40:15.000Z</time>
      </trkpt>
      <trkpt lat="36.5324" lon="-6.29338">
        <ele>11.701328</ele>
        <time>2022-04-14T11:40:17.000Z</time>
      </trkpt>
      <trkpt lat="36.5324" lon="-6.29335">
        <ele>11.71491</ele>
        <time>2022-04-14T11:40:46.000Z</time>
      </trkpt>
      <trkpt lat="36.5324" lon="-6.29334">
        <ele>11.722647</ele>
        <time>2022-04-14T11:40:58.000Z</time>
      </trkpt>
      <trkpt lat="36.5324" lon="-6.29336">
        <ele>11.732443</ele>
        <time>2022-04-14T11:41:50.000Z</time>
      </trkpt>
      <trkpt lat="36.5324" lon="-6.29337">
        <ele>11.738289</ele>
        <time>2022-04-14T11:41:56.000Z</time>
      </trkpt>
      <trkpt lat="36.5324" lon="-6.2934">
        <ele>11.755827</ele>
        <time>2022-04-14T11:42:07.000Z</time>
      </trkpt>
      <trkpt lat="36.5324" lon="-6.2934">
        <ele>11.758627</ele>
        <time>2022-04-14T11:42:31.000Z</time>
      </trkpt>
      <trkpt lat="36.5324" lon="-6.2934">
        <ele>11.760905</ele>
        <time>2022-04-14T11:42:39.000Z</time>
      </trkpt>
      <trkpt lat="36.53239" lon="-6.2934">
        <ele>11.770112</ele>
        <time>2022-04-14T11:42:56.000Z</time>
      </trkpt>
      <trkpt lat="36.53239" lon="-6.29335">
        <ele>11.799935</ele>
        <time>2022-04-14T11:42:59.000Z</time>
      </trkpt>
      <trkpt lat="36.5324" lon="-6.29335">
        <ele>11.80406</ele>
        <time>2022-04-14T11:43:00.000Z</time>
      </trkpt>
      <trkpt lat="36.53239" lon="-6.29333">
        <ele>11.819415</ele>
        <time>2022-04-14T11:43:05.000Z</time>
      </trkpt>
      <trkpt lat="36.53239" lon="-6.29333">
        <ele>11.821694</ele>
        <time>2022-04-14T11:43:10.000Z</time>
      </trkpt>
      <trkpt lat="36.5324" lon="-6.29329">
        <ele>11.84654</ele>
        <time>2022-04-14T11:43:16.000Z</time>
      </trkpt>
      <trkpt lat="36.5324" lon="-6.29329">
        <ele>11.84654</ele>
        <time>2022-04-14T11:43:19.000Z</time>
      </trkpt>
      <trkpt lat="36.53239" lon="-6.29331">
        <ele>11.85957</ele>
        <time>2022-04-14T11:43:30.000Z</time>
      </trkpt>
      <trkpt lat="36.53239" lon="-6.2933">
        <ele>11.864881</ele>
        <time>2022-04-14T11:43:37.000Z</time>
      </trkpt>
      <trkpt lat="36.53238" lon="-6.29333">
        <ele>11.882254</ele>
        <time>2022-04-14T11:43:45.000Z</time>
      </trkpt>
      <trkpt lat="36.53238" lon="-6.29333">
        <ele>11.886891</ele>
        <time>2022-04-14T11:43:46.000Z</time>
      </trkpt>
      <trkpt lat="36.53238" lon="-6.29334">
        <ele>11.890474</ele>
        <time>2022-04-14T11:43:47.000Z</time>
      </trkpt>
      <trkpt lat="36.53237" lon="-6.29334">
        <ele>11.897252</ele>
        <time>2022-04-14T11:43:49.000Z</time>
      </trkpt>
      <trkpt lat="36.53237" lon="-6.29334">
        <ele>11.897252</ele>
        <time>2022-04-14T11:43:58.000Z</time>
      </trkpt>
      <trkpt lat="36.53237" lon="-6.29333">
        <ele>11.904852</ele>
        <time>2022-04-14T11:44:11.000Z</time>
      </trkpt>
      <trkpt lat="36.53238" lon="-6.29327">
        <ele>11.940198</ele>
        <time>2022-04-14T11:44:28.000Z</time>
      </trkpt>
      <trkpt lat="36.53238" lon="-6.29327">
        <ele>11.945291</ele>
        <time>2022-04-14T11:44:33.000Z</time>
      </trkpt>
      <trkpt lat="36.53238" lon="-6.29327">
        <ele>11.94755</ele>
        <time>2022-04-14T11:44:40.000Z</time>
      </trkpt>
      <trkpt lat="36.53239" lon="-6.29328">
        <ele>11.956224</ele>
        <time>2022-04-14T11:44:48.000Z</time>
      </trkpt>
      <trkpt lat="36.53239" lon="-6.29329">
        <ele>11.959489</ele>
        <time>2022-04-14T11:44:53.000Z</time>
      </trkpt>
      <trkpt lat="36.53239" lon="-6.29328">
        <ele>11.96596</ele>
        <time>2022-04-14T11:45:00.000Z</time>
      </trkpt>
      <trkpt lat="36.53239" lon="-6.29328">
        <ele>11.968299</ele>
        <time>2022-04-14T11:45:12.000Z</time>
      </trkpt>
      <trkpt lat="36.53239" lon="-6.29329">
        <ele>11.975687</ele>
        <time>2022-04-14T11:45:21.000Z</time>
      </trkpt>
      <trkpt lat="36.53237" lon="-6.29328">
        <ele>11.98651</ele>
        <time>2022-04-14T11:45:25.000Z</time>
      </trkpt>
      <trkpt lat="36.53237" lon="-6.29327">
        <ele>11.992522</ele>
        <time>2022-04-14T11:45:28.000Z</time>
      </trkpt>
      <trkpt lat="36.53237" lon="-6.29327">
        <ele>11.99617</ele>
        <time>2022-04-14T11:45:39.000Z</time>
      </trkpt>
      <trkpt lat="36.53237" lon="-6.29327">
        <ele>11.999369</ele>
        <time>2022-04-14T11:45:45.000Z</time>
      </trkpt>
      <trkpt lat="36.53237" lon="-6.29327">
        <ele>11.999953</ele>
        <time>2022-04-14T11:45:54.000Z</time>
      </trkpt>
      <trkpt lat="36.53237" lon="-6.2933">
        <ele>12.018885</ele>
        <time>2022-04-14T11:46:00.000Z</time>
      </trkpt>
      <trkpt lat="36.53238" lon="-6.29331">
        <ele>12.022924</ele>
        <time>2022-04-14T11:46:06.000Z</time>
      </trkpt>
      <trkpt lat="36.53238" lon="-6.29331">
        <ele>12.022924</ele>
        <time>2022-04-14T11:46:11.000Z</time>
      </trkpt>
      <trkpt lat="36.53238" lon="-6.29332">
        <ele>12.029454</ele>
        <time>2022-04-14T11:46:25.000Z</time>
      </trkpt>
      <trkpt lat="36.53237" lon="-6.29332">
        <ele>12.036753</ele>
        <time>2022-04-14T11:46:54.000Z</time>
      </trkpt>
      <trkpt lat="36.53237" lon="-6.29333">
        <ele>12.043768</ele>
        <time>2022-04-14T11:47:02.000Z</time>
      </trkpt>
      <trkpt lat="36.53239" lon="-6.29332">
        <ele>12.055641</ele>
        <time>2022-04-14T11:47:25.000Z</time>
      </trkpt>
      <trkpt lat="36.53238" lon="-6.29331">
        <ele>12.065677</ele>
        <time>2022-04-14T11:47:28.000Z</time>
      </trkpt>
      <trkpt lat="36.53238" lon="-6.29328">
        <ele>12.079876</ele>
        <time>2022-04-14T11:47:29.000Z</time>
      </trkpt>
      <trkpt lat="36.53237" lon="-6.29326">
        <ele>12.095869</ele>
        <time>2022-04-14T11:47:33.000Z</time>
      </trkpt>
      <trkpt lat="36.53237" lon="-6.29323">
        <ele>12.115284</ele>
        <time>2022-04-14T11:47:37.000Z</time>
      </trkpt>
      <trkpt lat="36.53237" lon="-6.29323">
        <ele>12.120337</ele>
        <time>2022-04-14T11:47:38.000Z</time>
      </trkpt>
      <trkpt lat="36.53236" lon="-6.29326">
        <ele>12.138888</ele>
        <time>2022-04-14T11:47:47.000Z</time>
      </trkpt>
      <trkpt lat="36.53237" lon="-6.29322">
        <ele>12.165746</ele>
        <time>2022-04-14T11:47:50.000Z</time>
      </trkpt>
      <trkpt lat="36.53239" lon="-6.29322">
        <ele>12.174084</ele>
        <time>2022-04-14T11:47:55.000Z</time>
      </trkpt>
      <trkpt lat="36.5324" lon="-6.29322">
        <ele>12.182892</ele>
        <time>2022-04-14T11:48:20.000Z</time>
      </trkpt>
      <trkpt lat="36.5324" lon="-6.29322">
        <ele>12.182892</ele>
        <time>2022-04-14T11:48:22.000Z</time>
      </trkpt>
      <trkpt lat="36.5324" lon="-6.29322">
        <ele>12.182892</ele>
        <time>2022-04-14T11:48:25.000Z</time>
      </trkpt>
      <trkpt lat="36.5324" lon="-6.29321">
        <ele>12.18523</ele>
        <time>2022-04-14T11:48:26.000Z</time>
      </trkpt>
      <trkpt lat="36.53238" lon="-6.29321">
        <ele>12.19895</ele>
        <time>2022-04-14T11:48:41.000Z</time>
      </trkpt>
      <trkpt lat="36.53238" lon="-6.29322">
        <ele>12.209306</ele>
        <time>2022-04-14T11:48:45.000Z</time>
      </trkpt>
      <trkpt lat="36.53236" lon="-6.29324">
        <ele>12.222526</ele>
        <time>2022-04-14T11:48:49.000Z</time>
      </trkpt>
      <trkpt lat="36.53236" lon="-6.29324">
        <ele>12.225924</ele>
        <time>2022-04-14T11:48:54.000Z</time>
      </trkpt>
      <trkpt lat="36.53235" lon="-6.29329">
        <ele>12.252145</ele>
        <time>2022-04-14T11:49:02.000Z</time>
      </trkpt>
      <trkpt lat="36.53236" lon="-6.29329">
        <ele>12.2536</ele>
        <time>2022-04-14T11:49:08.000Z</time>
      </trkpt>
      <trkpt lat="36.53236" lon="-6.29325">
        <ele>12.276759</ele>
        <time>2022-04-14T11:49:19.000Z</time>
      </trkpt>
      <trkpt lat="36.53237" lon="-6.29325">
        <ele>12.277487</ele>
        <time>2022-04-14T11:49:21.000Z</time>
      </trkpt>
      <trkpt lat="36.53236" lon="-6.29318">
        <ele>12.316823</ele>
        <time>2022-04-14T11:49:32.000Z</time>
      </trkpt>
      <trkpt lat="36.53236" lon="-6.29317">
        <ele>12.324561</ele>
        <time>2022-04-14T11:49:33.000Z</time>
      </trkpt>
      <trkpt lat="36.53234" lon="-6.29316">
        <ele>12.340004</ele>
        <time>2022-04-14T11:49:38.000Z</time>
      </trkpt>
      <trkpt lat="36.53236" lon="-6.29313">
        <ele>12.36012</ele>
        <time>2022-04-14T11:49:46.000Z</time>
      </trkpt>
      <trkpt lat="36.53237" lon="-6.29309">
        <ele>12.387617</ele>
        <time>2022-04-14T11:49:51.000Z</time>
      </trkpt>
      <trkpt lat="36.53236" lon="-6.29313">
        <ele>12.411549</ele>
        <time>2022-04-14T11:49:58.000Z</time>
      </trkpt>
      <trkpt lat="36.53238" lon="-6.29334">
        <ele>12.538656</ele>
        <time>2022-04-14T11:50:05.000Z</time>
      </trkpt>
      <trkpt lat="36.53236" lon="-6.29324">
        <ele>12.600227</ele>
        <time>2022-04-14T11:50:10.000Z</time>
      </trkpt>
      <trkpt lat="36.53237" lon="-6.29324">
        <ele>12.61048</ele>
        <time>2022-04-14T11:50:16.000Z</time>
      </trkpt>
      <trkpt lat="36.53236" lon="-6.29324">
        <ele>12.618556</ele>
        <time>2022-04-14T11:50:21.000Z</time>
      </trkpt>
      <trkpt lat="36.53236" lon="-6.29324">
        <ele>12.619933</ele>
        <time>2022-04-14T11:50:22.000Z</time>
      </trkpt>
      <trkpt lat="36.53236" lon="-6.29325">
        <ele>12.624277</ele>
        <time>2022-04-14T11:50:23.000Z</time>
      </trkpt>
      <trkpt lat="36.53236" lon="-6.29325">
        <ele>12.626536</ele>
        <time>2022-04-14T11:50:30.000Z</time>
      </trkpt>
      <trkpt lat="36.53235" lon="-6.29322">
        <ele>12.642019</ele>
        <time>2022-04-14T11:50:35.000Z</time>
      </trkpt>
      <trkpt lat="36.53235" lon="-6.29322">
        <ele>12.642604</ele>
        <time>2022-04-14T11:50:38.000Z</time>
      </trkpt>
      <trkpt lat="36.53233" lon="-6.29326">
        <ele>12.667711</ele>
        <time>2022-04-14T11:50:43.000Z</time>
      </trkpt>
      <trkpt lat="36.53233" lon="-6.29327">
        <ele>12.676023</ele>
        <time>2022-04-14T11:50:45.000Z</time>
      </trkpt>
      <trkpt lat="36.53233" lon="-6.29328">
        <ele>12.681914</ele>
        <time>2022-04-14T11:50:46.000Z</time>
      </trkpt>
      <trkpt lat="36.53242" lon="-6.29324">
        <ele>12.745525</ele>
        <time>2022-04-14T11:50:54.000Z</time>
      </trkpt>
      <trkpt lat="36.53246" lon="-6.29319">
        <ele>12.76008</ele>
        <time>2022-04-14T11:50:58.000Z</time>
      </trkpt>
      <trkpt lat="36.53237" lon="-6.2932">
        <ele>12.784822</ele>
        <time>2022-04-14T11:51:11.000Z</time>
      </trkpt>
      <trkpt lat="36.53239" lon="-6.2931">
        <ele>12.806827</ele>
        <time>2022-04-14T11:51:26.000Z</time>
      </trkpt>
      <trkpt lat="36.53239" lon="-6.29314">
        <ele>12.814894</ele>
        <time>2022-04-14T11:51:35.000Z</time>
      </trkpt>
      <trkpt lat="36.53237" lon="-6.29317">
        <ele>12.823119</ele>
        <time>2022-04-14T11:51:41.000Z</time>
      </trkpt>
      <trkpt lat="36.53235" lon="-6.2932">
        <ele>12.830911</ele>
        <time>2022-04-14T11:51:50.000Z</time>
      </trkpt>
      <trkpt lat="36.53236" lon="-6.2932">
        <ele>12.833538</ele>
        <time>2022-04-14T11:51:53.000Z</time>
      </trkpt>
      <trkpt lat="36.53237" lon="-6.29318">
        <ele>12.839329</ele>
        <time>2022-04-14T11:51:59.000Z</time>
      </trkpt>
      <trkpt lat="36.53233" lon="-6.29324">
        <ele>12.856094</ele>
        <time>2022-04-14T11:52:03.000Z</time>
      </trkpt>
      <trkpt lat="36.53233" lon="-6.29323">
        <ele>12.857159</ele>
        <time>2022-04-14T11:52:04.000Z</time>
      </trkpt>
      <trkpt lat="36.53235" lon="-6.29325">
        <ele>12.86413</ele>
        <time>2022-04-14T11:52:10.000Z</time>
      </trkpt>
      <trkpt lat="36.53235" lon="-6.29331">
        <ele>12.877177</ele>
        <time>2022-04-14T11:52:15.000Z</time>
      </trkpt>
      <trkpt lat="36.5324" lon="-6.29331">
        <ele>12.888801</ele>
        <time>2022-04-14T11:52:23.000Z</time>
      </trkpt>
      <trkpt lat="36.53237" lon="-6.2933">
        <ele>12.894239</ele>
        <time>2022-04-14T11:52:25.000Z</time>
      </trkpt>
      <trkpt lat="36.5324" lon="-6.29327">
        <ele>12.904747</ele>
        <time>2022-04-14T11:52:28.000Z</time>
      </trkpt>
      <trkpt lat="36.53257" lon="-6.29336">
        <ele>12.952804</ele>
        <time>2022-04-14T11:52:40.000Z</time>
      </trkpt>
      <trkpt lat="36.53243" lon="-6.29336">
        <ele>12.990381</ele>
        <time>2022-04-14T11:52:47.000Z</time>
      </trkpt>
      <trkpt lat="36.53241" lon="-6.29326">
        <ele>13.011866</ele>
        <time>2022-04-14T11:52:52.000Z</time>
      </trkpt>
      <trkpt lat="36.53238" lon="-6.2932">
        <ele>13.026341</ele>
        <time>2022-04-14T11:52:59.000Z</time>
      </trkpt>
      <trkpt lat="36.53241" lon="-6.29322">
        <ele>13.035464</ele>
        <time>2022-04-14T11:53:06.000Z</time>
      </trkpt>
      <trkpt lat="36.53241" lon="-6.29322">
        <ele>13.036529</ele>
        <time>2022-04-14T11:53:13.000Z</time>
      </trkpt>
      <trkpt lat="36.53243" lon="-6.29323">
        <ele>13.040338</ele>
        <time>2022-04-14T11:53:15.000Z</time>
      </trkpt>
      <trkpt lat="36.53245" lon="-6.29317">
        <ele>13.053287</ele>
        <time>2022-04-14T11:53:21.000Z</time>
      </trkpt>
      <trkpt lat="36.53242" lon="-6.29318">
        <ele>13.059629</ele>
        <time>2022-04-14T11:53:27.000Z</time>
      </trkpt>
      <trkpt lat="36.53242" lon="-6.29317">
        <ele>13.060505</ele>
        <time>2022-04-14T11:53:28.000Z</time>
      </trkpt>
      <trkpt lat="36.53239" lon="-6.29317">
        <ele>13.067992</ele>
        <time>2022-04-14T11:53:36.000Z</time>
      </trkpt>
      <trkpt lat="36.53238" lon="-6.29316">
        <ele>13.070837</ele>
        <time>2022-04-14T11:53:45.000Z</time>
      </trkpt>
      <trkpt lat="36.53238" lon="-6.29316">
        <ele>13.071167</ele>
        <time>2022-04-14T11:53:47.000Z</time>
      </trkpt>
      <trkpt lat="36.53235" lon="-6.29315">
        <ele>13.078861</ele>
        <time>2022-04-14T11:53:53.000Z</time>
      </trkpt>
      <trkpt lat="36.53234" lon="-6.29315">
        <ele>13.081177</ele>
        <time>2022-04-14T11:53:56.000Z</time>
      </trkpt>
      <trkpt lat="36.53234" lon="-6.29315">
        <ele>13.082721</ele>
        <time>2022-04-14T11:54:02.000Z</time>
      </trkpt>
      <trkpt lat="36.53233" lon="-6.29316">
        <ele>13.085825</ele>
        <time>2022-04-14T11:54:06.000Z</time>
      </trkpt>
      <trkpt lat="36.53233" lon="-6.29315">
        <ele>13.087685</ele>
        <time>2022-04-14T11:54:09.000Z</time>
      </trkpt>
      <trkpt lat="36.53234" lon="-6.29312">
        <ele>13.094986</ele>
        <time>2022-04-14T11:54:20.000Z</time>
      </trkpt>
      <trkpt lat="36.53234" lon="-6.2931">
        <ele>13.098087</ele>
        <time>2022-04-14T11:54:21.000Z</time>
      </trkpt>
      <trkpt lat="36.53236" lon="-6.29299">
        <ele>13.120703</ele>
        <time>2022-04-14T11:54:27.000Z</time>
      </trkpt>
      <trkpt lat="36.53236" lon="-6.29299">
        <ele>13.121857</ele>
        <time>2022-04-14T11:54:32.000Z</time>
      </trkpt>
      <trkpt lat="36.53236" lon="-6.29297">
        <ele>13.125992</ele>
        <time>2022-04-14T11:54:35.000Z</time>
      </trkpt>
      <trkpt lat="36.53236" lon="-6.29295">
        <ele>13.130212</ele>
        <time>2022-04-14T11:54:39.000Z</time>
      </trkpt>
      <trkpt lat="36.53237" lon="-6.29292">
        <ele>13.137078</ele>
        <time>2022-04-14T11:54:41.000Z</time>
      </trkpt>
      <trkpt lat="36.53237" lon="-6.29291">
        <ele>13.138506</ele>
        <time>2022-04-14T11:54:43.000Z</time>
      </trkpt>
      <trkpt lat="36.53237" lon="-6.29302">
        <ele>13.161253</ele>
        <time>2022-04-14T11:54:49.000Z</time>
      </trkpt>
      <trkpt lat="36.53236" lon="-6.29317">
        <ele>13.190681</ele>
        <time>2022-04-14T11:54:57.000Z</time>
      </trkpt>
      <trkpt lat="36.53236" lon="-6.29313">
        <ele>13.198334</ele>
        <time>2022-04-14T11:55:00.000Z</time>
      </trkpt>
      <trkpt lat="36.53237" lon="-6.29315">
        <ele>13.202283</ele>
        <time>2022-04-14T11:55:07.000Z</time>
      </trkpt>
      <trkpt lat="36.53237" lon="-6.29315">
        <ele>13.202614</ele>
        <time>2022-04-14T11:55:08.000Z</time>
      </trkpt>
      <trkpt lat="36.53237" lon="-6.29314">
        <ele>13.204628</ele>
        <time>2022-04-14T11:55:10.000Z</time>
      </trkpt>
      <trkpt lat="36.53239" lon="-6.29307">
        <ele>13.192779</ele>
        <time>2022-04-14T11:55:17.000Z</time>
      </trkpt>
      <trkpt lat="36.53241" lon="-6.29308">
        <ele>13.188882</ele>
        <time>2022-04-14T11:55:23.000Z</time>
      </trkpt>
      <trkpt lat="36.53241" lon="-6.29313">
        <ele>13.180407</ele>
        <time>2022-04-14T11:55:28.000Z</time>
      </trkpt>
      <trkpt lat="36.53237" lon="-6.29317">
        <ele>13.170699</ele>
        <time>2022-04-14T11:55:35.000Z</time>
      </trkpt>
      <trkpt lat="36.53234" lon="-6.29327">
        <ele>13.151382</ele>
        <time>2022-04-14T11:55:43.000Z</time>
      </trkpt>
      <trkpt lat="36.53238" lon="-6.29327">
        <ele>13.143918</ele>
        <time>2022-04-14T11:55:50.000Z</time>
      </trkpt>
      <trkpt lat="36.53236" lon="-6.2932">
        <ele>13.131129</ele>
        <time>2022-04-14T11:55:53.000Z</time>
      </trkpt>
      <trkpt lat="36.53237" lon="-6.29319">
        <ele>13.128483</ele>
        <time>2022-04-14T11:55:55.000Z</time>
      </trkpt>
      <trkpt lat="36.53239" lon="-6.29318">
        <ele>13.124307</ele>
        <time>2022-04-14T11:55:57.000Z</time>
      </trkpt>
      <trkpt lat="36.53241" lon="-6.29311">
        <ele>13.110617</ele>
        <time>2022-04-14T11:56:03.000Z</time>
      </trkpt>
      <trkpt lat="36.53242" lon="-6.2931">
        <ele>13.108837</ele>
        <time>2022-04-14T11:56:05.000Z</time>
      </trkpt>
      <trkpt lat="36.53242" lon="-6.2931">
        <ele>13.108267</ele>
        <time>2022-04-14T11:56:06.000Z</time>
      </trkpt>
      <trkpt lat="36.53238" lon="-6.29314">
        <ele>13.097109</ele>
        <time>2022-04-14T11:56:17.000Z</time>
      </trkpt>
      <trkpt lat="36.53238" lon="-6.29314">
        <ele>13.095797</ele>
        <time>2022-04-14T11:56:23.000Z</time>
      </trkpt>
      <trkpt lat="36.53237" lon="-6.29311">
        <ele>13.090836</ele>
        <time>2022-04-14T11:56:27.000Z</time>
      </trkpt>
      <trkpt lat="36.53235" lon="-6.29314">
        <ele>13.083854</ele>
        <time>2022-04-14T11:56:34.000Z</time>
      </trkpt>
      <trkpt lat="36.53235" lon="-6.29315">
        <ele>13.082874</ele>
        <time>2022-04-14T11:56:35.000Z</time>
      </trkpt>
      <trkpt lat="36.53237" lon="-6.2931">
        <ele>13.074202</ele>
        <time>2022-04-14T11:56:40.000Z</time>
      </trkpt>
      <trkpt lat="36.53235" lon="-6.29319">
        <ele>13.057914</ele>
        <time>2022-04-14T11:56:43.000Z</time>
      </trkpt>
      <trkpt lat="36.53237" lon="-6.2932">
        <ele>13.054347</ele>
        <time>2022-04-14T11:56:47.000Z</time>
      </trkpt>
      <trkpt lat="36.53237" lon="-6.29321">
        <ele>13.051803</ele>
        <time>2022-04-14T11:56:48.000Z</time>
      </trkpt>
      <trkpt lat="36.53241" lon="-6.2933">
        <ele>13.034496</ele>
        <time>2022-04-14T11:56:50.000Z</time>
      </trkpt>
      <trkpt lat="36.53242" lon="-6.29335">
        <ele>13.024799</ele>
        <time>2022-04-14T11:56:52.000Z</time>
      </trkpt>
      <trkpt lat="36.53238" lon="-6.29303">
        <ele>12.967746</ele>
        <time>2022-04-14T11:57:30.000Z</time>
      </trkpt>
      <trkpt lat="36.5324" lon="-6.29319">
        <ele>12.939656</ele>
        <time>2022-04-14T11:57:54.000Z</time>
      </trkpt>
      <trkpt lat="36.53242" lon="-6.2932">
        <ele>12.934387</ele>
        <time>2022-04-14T11:58:00.000Z</time>
      </trkpt>
      <trkpt lat="36.53242" lon="-6.29317">
        <ele>12.928616</ele>
        <time>2022-04-14T11:58:02.000Z</time>
      </trkpt>
      <trkpt lat="36.53242" lon="-6.29313">
        <ele>12.921928</ele>
        <time>2022-04-14T11:58:07.000Z</time>
      </trkpt>
      <trkpt lat="36.53242" lon="-6.29314">
        <ele>12.920535</ele>
        <time>2022-04-14T11:58:09.000Z</time>
      </trkpt>
      <trkpt lat="36.53242" lon="-6.29314">
        <ele>12.920254</ele>
        <time>2022-04-14T11:58:10.000Z</time>
      </trkpt>
      <trkpt lat="36.53239" lon="-6.29305">
        <ele>12.902896</ele>
        <time>2022-04-14T11:58:18.000Z</time>
      </trkpt>
      <trkpt lat="36.53239" lon="-6.29307">
        <ele>12.898816</ele>
        <time>2022-04-14T11:58:20.000Z</time>
      </trkpt>
      <trkpt lat="36.5324" lon="-6.29305">
        <ele>12.895705</ele>
        <time>2022-04-14T11:58:21.000Z</time>
      </trkpt>
      <trkpt lat="36.5324" lon="-6.29304">
        <ele>12.893226</ele>
        <time>2022-04-14T11:58:22.000Z</time>
      </trkpt>
      <trkpt lat="36.53241" lon="-6.29305">
        <ele>12.891708</ele>
        <time>2022-04-14T11:58:23.000Z</time>
      </trkpt>
      <trkpt lat="36.53241" lon="-6.29305">
        <ele>12.890026</ele>
        <time>2022-04-14T11:58:25.000Z</time>
      </trkpt>
      <trkpt lat="36.53243" lon="-6.29316">
        <ele>12.871507</ele>
        <time>2022-04-14T11:58:31.000Z</time>
      </trkpt>
      <trkpt lat="36.53238" lon="-6.29324">
        <ele>12.853135</ele>
        <time>2022-04-14T11:58:35.000Z</time>
      </trkpt>
      <trkpt lat="36.5324" lon="-6.29338">
        <ele>12.8282</ele>
        <time>2022-04-14T11:58:42.000Z</time>
      </trkpt>
      <trkpt lat="36.53238" lon="-6.29332">
        <ele>12.816777</ele>
        <time>2022-04-14T11:58:46.000Z</time>
      </trkpt>
      <trkpt lat="36.53239" lon="-6.29323">
        <ele>12.806129</ele>
        <time>2022-04-14T11:58:52.000Z</time>
      </trkpt>
      <trkpt lat="36.5324" lon="-6.29323">
        <ele>12.804947</ele>
        <time>2022-04-14T11:58:53.000Z</time>
      </trkpt>
      <trkpt lat="36.53239" lon="-6.29318">
        <ele>12.799977</ele>
        <time>2022-04-14T11:59:00.000Z</time>
      </trkpt>
      <trkpt lat="36.5324" lon="-6.29312">
        <ele>12.793451</ele>
        <time>2022-04-14T11:59:02.000Z</time>
      </trkpt>
      <trkpt lat="36.5324" lon="-6.29313">
        <ele>12.792475</ele>
        <time>2022-04-14T11:59:04.000Z</time>
      </trkpt>
      <trkpt lat="36.53241" lon="-6.2931">
        <ele>12.789576</ele>
        <time>2022-04-14T11:59:12.000Z</time>
      </trkpt>
      <trkpt lat="36.53244" lon="-6.29307">
        <ele>12.7851</ele>
        <time>2022-04-14T11:59:23.000Z</time>
      </trkpt>
      <trkpt lat="36.53241" lon="-6.29308">
        <ele>12.781275</ele>
        <time>2022-04-14T11:59:33.000Z</time>
      </trkpt>
      <trkpt lat="36.53243" lon="-6.29308">
        <ele>12.779784</ele>
        <time>2022-04-14T11:59:42.000Z</time>
      </trkpt>
      <trkpt lat="36.53245" lon="-6.29305">
        <ele>12.775993</ele>
        <time>2022-04-14T11:59:48.000Z</time>
      </trkpt>
      <trkpt lat="36.53234" lon="-6.29332">
        <ele>12.747247</ele>
        <time>2022-04-14T11:59:53.000Z</time>
      </trkpt>
      <trkpt lat="36.53234" lon="-6.29322">
        <ele>12.737484</ele>
        <time>2022-04-14T11:59:54.000Z</time>
      </trkpt>
      <trkpt lat="36.53238" lon="-6.29317">
        <ele>12.731153</ele>
        <time>2022-04-14T11:59:58.000Z</time>
      </trkpt>
      <trkpt lat="36.53246" lon="-6.29311">
        <ele>12.720445</ele>
        <time>2022-04-14T12:00:02.000Z</time>
      </trkpt>
      <trkpt lat="36.53248" lon="-6.29304">
        <ele>12.713593</ele>
        <time>2022-04-14T12:00:10.000Z</time>
      </trkpt>
      <trkpt lat="36.53248" lon="-6.29304">
        <ele>12.713119</ele>
        <time>2022-04-14T12:00:12.000Z</time>
      </trkpt>
      <trkpt lat="36.53241" lon="-6.29309">
        <ele>12.704214</ele>
        <time>2022-04-14T12:00:17.000Z</time>
      </trkpt>
      <trkpt lat="36.53227" lon="-6.29323">
        <ele>12.682569</ele>
        <time>2022-04-14T12:00:30.000Z</time>
      </trkpt>
      <trkpt lat="36.53229" lon="-6.29322">
        <ele>12.679661</ele>
        <time>2022-04-14T12:00:31.000Z</time>
      </trkpt>
      <trkpt lat="36.53233" lon="-6.29316">
        <ele>12.67287</ele>
        <time>2022-04-14T12:00:33.000Z</time>
      </trkpt>
      <trkpt lat="36.53238" lon="-6.29315">
        <ele>12.666684</ele>
        <time>2022-04-14T12:00:40.000Z</time>
      </trkpt>
      <trkpt lat="36.53239" lon="-6.29314">
        <ele>12.6649</ele>
        <time>2022-04-14T12:00:41.000Z</time>
      </trkpt>
      <trkpt lat="36.53241" lon="-6.29303">
        <ele>12.654967</ele>
        <time>2022-04-14T12:00:46.000Z</time>
      </trkpt>
      <trkpt lat="36.53238" lon="-6.29309">
        <ele>12.648761</ele>
        <time>2022-04-14T12:00:54.000Z</time>
      </trkpt>
      <trkpt lat="36.53239" lon="-6.29306">
        <ele>12.645534</ele>
        <time>2022-04-14T12:01:04.000Z</time>
      </trkpt>
      <trkpt lat="36.53238" lon="-6.29335">
        <ele>12.618065</ele>
        <time>2022-04-14T12:01:23.000Z</time>
      </trkpt>
      <trkpt lat="36.53242" lon="-6.29305">
        <ele>12.599357</ele>
        <time>2022-04-14T12:01:30.000Z</time>
      </trkpt>
      <trkpt lat="36.53242" lon="-6.29296">
        <ele>12.598775</ele>
        <time>2022-04-14T12:01:33.000Z</time>
      </trkpt>
      <trkpt lat="36.53241" lon="-6.29315">
        <ele>12.597598</ele>
        <time>2022-04-14T12:01:50.000Z</time>
      </trkpt>
      <trkpt lat="36.53244" lon="-6.29316">
        <ele>12.597417</ele>
        <time>2022-04-14T12:01:53.000Z</time>
      </trkpt>
      <trkpt lat="36.5325" lon="-6.29313">
        <ele>12.596891</ele>
        <time>2022-04-14T12:02:01.000Z</time>
      </trkpt>
      <trkpt lat="36.53251" lon="-6.29318">
        <ele>12.596581</ele>
        <time>2022-04-14T12:02:06.000Z</time>
      </trkpt>
      <trkpt lat="36.53252" lon="-6.29317">
        <ele>12.596478</ele>
        <time>2022-04-14T12:02:07.000Z</time>
      </trkpt>
      <trkpt lat="36.53252" lon="-6.29309">
        <ele>12.596013</ele>
        <time>2022-04-14T12:02:13.000Z</time>
      </trkpt>
      <trkpt lat="36.53239" lon="-6.29298">
        <ele>12.594772</ele>
        <time>2022-04-14T12:02:22.000Z</time>
      </trkpt>
      <trkpt lat="36.53238" lon="-6.29297">
        <ele>12.594655</ele>
        <time>2022-04-14T12:02:23.000Z</time>
      </trkpt>
      <trkpt lat="36.53238" lon="-6.29294">
        <ele>12.594451</ele>
        <time>2022-04-14T12:02:27.000Z</time>
      </trkpt>
      <trkpt lat="36.53239" lon="-6.29289">
        <ele>12.594153</ele>
        <time>2022-04-14T12:02:38.000Z</time>
      </trkpt>
      <trkpt lat="36.53236" lon="-6.29296">
        <ele>12.593668</ele>
        <time>2022-04-14T12:02:41.000Z</time>
      </trkpt>
      <trkpt lat="36.53223" lon="-6.29329">
        <ele>12.591371</ele>
        <time>2022-04-14T12:02:44.000Z</time>
      </trkpt>
      <trkpt lat="36.5322" lon="-6.29339">
        <ele>12.590706</ele>
        <time>2022-04-14T12:02:45.000Z</time>
      </trkpt>
      <trkpt lat="36.5322" lon="-6.29313">
        <ele>12.589086</ele>
        <time>2022-04-14T12:02:51.000Z</time>
      </trkpt>
      <trkpt lat="36.53225" lon="-6.29306">
        <ele>12.588508</ele>
        <time>2022-04-14T12:02:56.000Z</time>
      </trkpt>
      <trkpt lat="36.53228" lon="-6.29307">
        <ele>12.588237</ele>
        <time>2022-04-14T12:03:00.000Z</time>
      </trkpt>
      <trkpt lat="36.53232" lon="-6.29317">
        <ele>12.587529</ele>
        <time>2022-04-14T12:03:06.000Z</time>
      </trkpt>
      <trkpt lat="36.53233" lon="-6.29317">
        <ele>12.587381</ele>
        <time>2022-04-14T12:03:08.000Z</time>
      </trkpt>
      <trkpt lat="36.53236" lon="-6.29322">
        <ele>12.58701</ele>
        <time>2022-04-14T12:03:10.000Z</time>
      </trkpt>
      <trkpt lat="36.53237" lon="-6.29327">
        <ele>12.586648</ele>
        <time>2022-04-14T12:03:12.000Z</time>
      </trkpt>
      <trkpt lat="36.53238" lon="-6.29319">
        <ele>12.584326</ele>
        <time>2022-04-14T12:03:17.000Z</time>
      </trkpt>
      <trkpt lat="36.53238" lon="-6.2931">
        <ele>12.568953</ele>
        <time>2022-04-14T12:03:23.000Z</time>
      </trkpt>
      <trkpt lat="36.5324" lon="-6.29318">
        <ele>12.554926</ele>
        <time>2022-04-14T12:03:27.000Z</time>
      </trkpt>
      <trkpt lat="36.53239" lon="-6.29303">
        <ele>12.527977</ele>
        <time>2022-04-14T12:03:37.000Z</time>
      </trkpt>
      <trkpt lat="36.53238" lon="-6.29303">
        <ele>12.526488</ele>
        <time>2022-04-14T12:03:38.000Z</time>
      </trkpt>
      <trkpt lat="36.53235" lon="-6.29301">
        <ele>12.518592</ele>
        <time>2022-04-14T12:03:41.000Z</time>
      </trkpt>
      <trkpt lat="36.53235" lon="-6.29301">
        <ele>12.516846</ele>
        <time>2022-04-14T12:03:43.000Z</time>
      </trkpt>
      <trkpt lat="36.53235" lon="-6.29301">
        <ele>12.516407</ele>
        <time>2022-04-14T12:03:46.000Z</time>
      </trkpt>
      <trkpt lat="36.53237" lon="-6.29299">
        <ele>12.508896</ele>
        <time>2022-04-14T12:03:58.000Z</time>
      </trkpt>
      <trkpt lat="36.53244" lon="-6.2932">
        <ele>12.466071</ele>
        <time>2022-04-14T12:04:29.000Z</time>
      </trkpt>
      <trkpt lat="36.53242" lon="-6.29322">
        <ele>12.460159</ele>
        <time>2022-04-14T12:04:50.000Z</time>
      </trkpt>
      <trkpt lat="36.53239" lon="-6.29325">
        <ele>12.452133</ele>
        <time>2022-04-14T12:05:01.000Z</time>
      </trkpt>
      <trkpt lat="36.53243" lon="-6.29279">
        <ele>12.365869</ele>
        <time>2022-04-14T12:08:20.000Z</time>
      </trkpt>
      <trkpt lat="36.53231" lon="-6.29293">
        <ele>12.328554</ele>
        <time>2022-04-14T12:08:25.000Z</time>
      </trkpt>
      <trkpt lat="36.53258" lon="-6.29341">
        <ele>12.218195</ele>
        <time>2022-04-14T12:08:49.000Z</time>
      </trkpt>
      <trkpt lat="36.53218" lon="-6.29332">
        <ele>12.238731</ele>
        <time>2022-04-14T12:09:12.000Z</time>
      </trkpt>
      <trkpt lat="36.53219" lon="-6.29302">
        <ele>12.324934</ele>
        <time>2022-04-14T12:09:21.000Z</time>
      </trkpt>
      <trkpt lat="36.5322" lon="-6.29294">
        <ele>12.347609</ele>
        <time>2022-04-14T12:09:24.000Z</time>
      </trkpt>
      <trkpt lat="36.53229" lon="-6.29281">
        <ele>12.394659</ele>
        <time>2022-04-14T12:09:39.000Z</time>
      </trkpt>
      <trkpt lat="36.53251" lon="-6.29313">
        <ele>12.513896</ele>
        <time>2022-04-14T12:09:47.000Z</time>
      </trkpt>
      <trkpt lat="36.53249" lon="-6.29309">
        <ele>12.528114</ele>
        <time>2022-04-14T12:09:51.000Z</time>
      </trkpt>
      <trkpt lat="36.53247" lon="-6.29313">
        <ele>12.540249</ele>
        <time>2022-04-14T12:09:57.000Z</time>
      </trkpt>
      <trkpt lat="36.53247" lon="-6.29313">
        <ele>12.541424</ele>
        <time>2022-04-14T12:09:59.000Z</time>
      </trkpt>
      <trkpt lat="36.53248" lon="-6.29311">
        <ele>12.547564</ele>
        <time>2022-04-14T12:10:04.000Z</time>
      </trkpt>
      <trkpt lat="36.53247" lon="-6.29342">
        <ele>12.635155</ele>
        <time>2022-04-14T12:10:29.000Z</time>
      </trkpt>
      <trkpt lat="36.53242" lon="-6.29341">
        <ele>12.651069</ele>
        <time>2022-04-14T12:10:32.000Z</time>
      </trkpt>
      <trkpt lat="36.53241" lon="-6.29323">
        <ele>12.701157</ele>
        <time>2022-04-14T12:10:38.000Z</time>
      </trkpt>
      <trkpt lat="36.53243" lon="-6.29327">
        <ele>12.711217</ele>
        <time>2022-04-14T12:10:40.000Z</time>
      </trkpt>
      <trkpt lat="36.53241" lon="-6.29319">
        <ele>12.732672</ele>
        <time>2022-04-14T12:10:42.000Z</time>
      </trkpt>
      <trkpt lat="36.53242" lon="-6.29317">
        <ele>12.738536</ele>
        <time>2022-04-14T12:10:46.000Z</time>
      </trkpt>
      <trkpt lat="36.53254" lon="-6.29315">
        <ele>12.781234</ele>
        <time>2022-04-14T12:13:43.000Z</time>
      </trkpt>
      <trkpt lat="36.53245" lon="-6.29306">
        <ele>12.777154</ele>
        <time>2022-04-14T12:13:46.000Z</time>
      </trkpt>
      <trkpt lat="36.53245" lon="-6.29308">
        <ele>12.772671</ele>
        <time>2022-04-14T12:13:47.000Z</time>
      </trkpt>
      <trkpt lat="36.53242" lon="-6.2933">
        <ele>12.724161</ele>
        <time>2022-04-14T12:13:55.000Z</time>
      </trkpt>
      <trkpt lat="36.53243" lon="-6.29334">
        <ele>12.714325</ele>
        <time>2022-04-14T12:13:58.000Z</time>
      </trkpt>
      <trkpt lat="36.53244" lon="-6.29338">
        <ele>12.706336</ele>
        <time>2022-04-14T12:15:42.000Z</time>
      </trkpt>
      <trkpt lat="36.53247" lon="-6.29329">
        <ele>12.684485</ele>
        <time>2022-04-14T12:15:47.000Z</time>
      </trkpt>
      <trkpt lat="36.53242" lon="-6.29346">
        <ele>12.643925</ele>
        <time>2022-04-14T12:15:57.000Z</time>
      </trkpt>
      <trkpt lat="36.53243" lon="-6.29344">
        <ele>12.639507</ele>
        <time>2022-04-14T12:15:59.000Z</time>
      </trkpt>
      <trkpt lat="36.53244" lon="-6.29336">
        <ele>12.621994</ele>
        <time>2022-04-14T12:16:07.000Z</time>
      </trkpt>
      <trkpt lat="36.53242" lon="-6.29337">
        <ele>12.616554</ele>
        <time>2022-04-14T12:16:12.000Z</time>
      </trkpt>
      <trkpt lat="36.53245" lon="-6.29339">
        <ele>12.605928</ele>
        <time>2022-04-14T12:16:16.000Z</time>
      </trkpt>
      <trkpt lat="36.53246" lon="-6.29336">
        <ele>12.59925</ele>
        <time>2022-04-14T12:16:19.000Z</time>
      </trkpt>
      <trkpt lat="36.53247" lon="-6.29334">
        <ele>12.593987</ele>
        <time>2022-04-14T12:16:25.000Z</time>
      </trkpt>
      <trkpt lat="36.53247" lon="-6.29334">
        <ele>12.593987</ele>
        <time>2022-04-14T12:16:34.000Z</time>
      </trkpt>
      <trkpt lat="36.53244" lon="-6.29332">
        <ele>12.586458</ele>
        <time>2022-04-14T12:16:53.000Z</time>
      </trkpt>
      <trkpt lat="36.53243" lon="-6.29333">
        <ele>12.581941</ele>
        <time>2022-04-14T12:16:55.000Z</time>
      </trkpt>
      <trkpt lat="36.53242" lon="-6.29334">
        <ele>12.5799</ele>
        <time>2022-04-14T12:17:01.000Z</time>
      </trkpt>
      <trkpt lat="36.53243" lon="-6.29334">
        <ele>12.578856</ele>
        <time>2022-04-14T12:17:11.000Z</time>
      </trkpt>
      <trkpt lat="36.53242" lon="-6.29334">
        <ele>12.576814</ele>
        <time>2022-04-14T12:17:17.000Z</time>
      </trkpt>
      <trkpt lat="36.53242" lon="-6.29334">
        <ele>12.576106</ele>
        <time>2022-04-14T12:17:23.000Z</time>
      </trkpt>
      <trkpt lat="36.53243" lon="-6.29334">
        <ele>12.57252</ele>
        <time>2022-04-14T12:17:29.000Z</time>
      </trkpt>
      <trkpt lat="36.53242" lon="-6.29335">
        <ele>12.569098</ele>
        <time>2022-04-14T12:18:08.000Z</time>
      </trkpt>
      <trkpt lat="36.53242" lon="-6.29335">
        <ele>12.567991</ele>
        <time>2022-04-14T12:18:12.000Z</time>
      </trkpt>
      <trkpt lat="36.5324" lon="-6.29335">
        <ele>12.562562</ele>
        <time>2022-04-14T12:18:15.000Z</time>
      </trkpt>
      <trkpt lat="36.53238" lon="-6.29335">
        <ele>12.557659</ele>
        <time>2022-04-14T12:18:18.000Z</time>
      </trkpt>
      <trkpt lat="36.53238" lon="-6.29336">
        <ele>12.555418</ele>
        <time>2022-04-14T12:18:21.000Z</time>
      </trkpt>
      <trkpt lat="36.53237" lon="-6.29335">
        <ele>12.552259</ele>
        <time>2022-04-14T12:18:24.000Z</time>
      </trkpt>
      <trkpt lat="36.5324" lon="-6.29334">
        <ele>12.545744</ele>
        <time>2022-04-14T12:18:28.000Z</time>
      </trkpt>
      <trkpt lat="36.53241" lon="-6.29334">
        <ele>12.541582</ele>
        <time>2022-04-14T12:18:35.000Z</time>
      </trkpt>
      <trkpt lat="36.53241" lon="-6.29334">
        <ele>12.541582</ele>
        <time>2022-04-14T12:18:38.000Z</time>
      </trkpt>
      <trkpt lat="36.53241" lon="-6.29334">
        <ele>12.541582</ele>
        <time>2022-04-14T12:18:40.000Z</time>
      </trkpt>
      <trkpt lat="36.53241" lon="-6.29334">
        <ele>12.541582</ele>
        <time>2022-04-14T12:18:42.000Z</time>
      </trkpt>
      <trkpt lat="36.5324" lon="-6.29334">
        <ele>12.539493</ele>
        <time>2022-04-14T12:18:45.000Z</time>
      </trkpt>
      <trkpt lat="36.5324" lon="-6.29333">
        <ele>12.538785</ele>
        <time>2022-04-14T12:18:53.000Z</time>
      </trkpt>
      <trkpt lat="36.53241" lon="-6.29333">
        <ele>12.537045</ele>
        <time>2022-04-14T12:18:57.000Z</time>
      </trkpt>
      <trkpt lat="36.53241" lon="-6.29333">
        <ele>12.53596</ele>
        <time>2022-04-14T12:18:59.000Z</time>
      </trkpt>
      <trkpt lat="36.53242" lon="-6.29333">
        <ele>12.534604</ele>
        <time>2022-04-14T12:19:02.000Z</time>
      </trkpt>
      <trkpt lat="36.53242" lon="-6.2933">
        <ele>12.527841</ele>
        <time>2022-04-14T12:19:11.000Z</time>
      </trkpt>
      <trkpt lat="36.53241" lon="-6.29325">
        <ele>12.517664</ele>
        <time>2022-04-14T12:19:14.000Z</time>
      </trkpt>
      <trkpt lat="36.5324" lon="-6.29323">
        <ele>12.513704</ele>
        <time>2022-04-14T12:19:15.000Z</time>
      </trkpt>
      <trkpt lat="36.53247" lon="-6.29316">
        <ele>12.489944</ele>
        <time>2022-04-14T12:19:19.000Z</time>
      </trkpt>
      <trkpt lat="36.53251" lon="-6.2931">
        <ele>12.471947</ele>
        <time>2022-04-14T12:19:24.000Z</time>
      </trkpt>
      <trkpt lat="36.5326" lon="-6.29303">
        <ele>12.443157</ele>
        <time>2022-04-14T12:19:27.000Z</time>
      </trkpt>
      <trkpt lat="36.5327" lon="-6.29302">
        <ele>12.418124</ele>
        <time>2022-04-14T12:19:29.000Z</time>
      </trkpt>
      <trkpt lat="36.53281" lon="-6.29304">
        <ele>12.387131</ele>
        <time>2022-04-14T12:19:32.000Z</time>
      </trkpt>
      <trkpt lat="36.53288" lon="-6.29303">
        <ele>12.366525</ele>
        <time>2022-04-14T12:19:36.000Z</time>
      </trkpt>
      <trkpt lat="36.53288" lon="-6.29298">
        <ele>12.355356</ele>
        <time>2022-04-14T12:19:39.000Z</time>
      </trkpt>
      <trkpt lat="36.53286" lon="-6.29296">
        <ele>12.349574</ele>
        <time>2022-04-14T12:19:40.000Z</time>
      </trkpt>
      <trkpt lat="36.53272" lon="-6.29291">
        <ele>12.310074</ele>
        <time>2022-04-14T12:19:45.000Z</time>
      </trkpt>
      <trkpt lat="36.53256" lon="-6.29283">
        <ele>12.18891</ele>
        <time>2022-04-14T12:19:50.000Z</time>
      </trkpt>
      <trkpt lat="36.53252" lon="-6.29281">
        <ele>12.164144</ele>
        <time>2022-04-14T12:19:51.000Z</time>
      </trkpt>
      <trkpt lat="36.53231" lon="-6.29267">
        <ele>11.996031</ele>
        <time>2022-04-14T12:19:57.000Z</time>
      </trkpt>
      <trkpt lat="36.53228" lon="-6.29264">
        <ele>11.968873</ele>
        <time>2022-04-14T12:19:58.000Z</time>
      </trkpt>
      <trkpt lat="36.53209" lon="-6.29244">
        <ele>11.800469</ele>
        <time>2022-04-14T12:20:04.000Z</time>
      </trkpt>
      <trkpt lat="36.53202" lon="-6.29238">
        <ele>11.742267</ele>
        <time>2022-04-14T12:20:06.000Z</time>
      </trkpt>
      <trkpt lat="36.53187" lon="-6.2922">
        <ele>11.595406</ele>
        <time>2022-04-14T12:20:11.000Z</time>
      </trkpt>
      <trkpt lat="36.53177" lon="-6.29209">
        <ele>11.506717</ele>
        <time>2022-04-14T12:20:14.000Z</time>
      </trkpt>
      <trkpt lat="36.5314" lon="-6.29172">
        <ele>11.18012</ele>
        <time>2022-04-14T12:20:24.000Z</time>
      </trkpt>
      <trkpt lat="36.53125" lon="-6.29155">
        <ele>11.072034</ele>
        <time>2022-04-14T12:20:28.000Z</time>
      </trkpt>
      <trkpt lat="36.53107" lon="-6.29136">
        <ele>11.069003</ele>
        <time>2022-04-14T12:20:33.000Z</time>
      </trkpt>
      <trkpt lat="36.53104" lon="-6.29132">
        <ele>11.06837</ele>
        <time>2022-04-14T12:20:34.000Z</time>
      </trkpt>
      <trkpt lat="36.5307" lon="-6.29096">
        <ele>11.06256</ele>
        <time>2022-04-14T12:20:43.000Z</time>
      </trkpt>
      <trkpt lat="36.53048" lon="-6.29068">
        <ele>11.058442</ele>
        <time>2022-04-14T12:20:49.000Z</time>
      </trkpt>
      <trkpt lat="36.53042" lon="-6.29056">
        <ele>11.057012</ele>
        <time>2022-04-14T12:20:51.000Z</time>
      </trkpt>
      <trkpt lat="36.53033" lon="-6.29034">
        <ele>11.054352</ele>
        <time>2022-04-14T12:20:56.000Z</time>
      </trkpt>
      <trkpt lat="36.53029" lon="-6.29018">
        <ele>11.052625</ele>
        <time>2022-04-14T12:21:00.000Z</time>
      </trkpt>
      <trkpt lat="36.53026" lon="-6.29006">
        <ele>11.051326</ele>
        <time>2022-04-14T12:21:03.000Z</time>
      </trkpt>
      <trkpt lat="36.5302" lon="-6.28986">
        <ele>11.051278</ele>
        <time>2022-04-14T12:21:09.000Z</time>
      </trkpt>
      <trkpt lat="36.53016" lon="-6.28978">
        <ele>11.093449</ele>
        <time>2022-04-14T12:21:14.000Z</time>
      </trkpt>
      <trkpt lat="36.53012" lon="-6.28973">
        <ele>11.119395</ele>
        <time>2022-04-14T12:21:17.000Z</time>
      </trkpt>
      <trkpt lat="36.53012" lon="-6.28969">
        <ele>11.137065</ele>
        <time>2022-04-14T12:21:19.000Z</time>
      </trkpt>
      <trkpt lat="36.53019" lon="-6.28953">
        <ele>11.210116</ele>
        <time>2022-04-14T12:21:25.000Z</time>
      </trkpt>
      <trkpt lat="36.53025" lon="-6.28939">
        <ele>11.275523</ele>
        <time>2022-04-14T12:21:32.000Z</time>
      </trkpt>
      <trkpt lat="36.53025" lon="-6.28938">
        <ele>11.280472</ele>
        <time>2022-04-14T12:21:33.000Z</time>
      </trkpt>
      <trkpt lat="36.53024" lon="-6.28933">
        <ele>11.299995</ele>
        <time>2022-04-14T12:21:36.000Z</time>
      </trkpt>
      <trkpt lat="36.53025" lon="-6.28931">
        <ele>11.308434</ele>
        <time>2022-04-14T12:21:37.000Z</time>
      </trkpt>
      <trkpt lat="36.53027" lon="-6.28926">
        <ele>11.333637</ele>
        <time>2022-04-14T12:21:40.000Z</time>
      </trkpt>
      <trkpt lat="36.53027" lon="-6.28922">
        <ele>11.349301</ele>
        <time>2022-04-14T12:21:42.000Z</time>
      </trkpt>
      <trkpt lat="36.53025" lon="-6.28921">
        <ele>11.35847</ele>
        <time>2022-04-14T12:21:43.000Z</time>
      </trkpt>
      <trkpt lat="36.53015" lon="-6.28914">
        <ele>11.419995</ele>
        <time>2022-04-14T12:21:50.000Z</time>
      </trkpt>
      <trkpt lat="36.53015" lon="-6.28914">
        <ele>11.419995</ele>
        <time>2022-04-14T12:21:57.000Z</time>
      </trkpt>
      <trkpt lat="36.53015" lon="-6.28914">
        <ele>11.419995</ele>
        <time>2022-04-14T12:22:07.000Z</time>
      </trkpt>
      <trkpt lat="36.53015" lon="-6.28914">
        <ele>11.419995</ele>
        <time>2022-04-14T12:22:19.000Z</time>
      </trkpt>
      <trkpt lat="36.5301" lon="-6.28909">
        <ele>11.451722</ele>
        <time>2022-04-14T12:22:32.000Z</time>
      </trkpt>
      <trkpt lat="36.53008" lon="-6.28905">
        <ele>11.470052</ele>
        <time>2022-04-14T12:22:33.000Z</time>
      </trkpt>
      <trkpt lat="36.53008" lon="-6.28896">
        <ele>11.506383</ele>
        <time>2022-04-14T12:22:35.000Z</time>
      </trkpt>
      <trkpt lat="36.53013" lon="-6.28862">
        <ele>11.648271</ele>
        <time>2022-04-14T12:22:42.000Z</time>
      </trkpt>
      <trkpt lat="36.53014" lon="-6.28826">
        <ele>11.794465</ele>
        <time>2022-04-14T12:22:49.000Z</time>
      </trkpt>
      <trkpt lat="36.5301" lon="-6.28802">
        <ele>11.897026</ele>
        <time>2022-04-14T12:22:55.000Z</time>
      </trkpt>
      <trkpt lat="36.53009" lon="-6.28786">
        <ele>11.96142</ele>
        <time>2022-04-14T12:23:00.000Z</time>
      </trkpt>
      <trkpt lat="36.53017" lon="-6.28784">
        <ele>11.979512</ele>
        <time>2022-04-14T12:23:03.000Z</time>
      </trkpt>
      <trkpt lat="36.53019" lon="-6.28784">
        <ele>11.98321</ele>
        <time>2022-04-14T12:23:04.000Z</time>
      </trkpt>
      <trkpt lat="36.53021" lon="-6.28779">
        <ele>11.99029</ele>
        <time>2022-04-14T12:23:06.000Z</time>
      </trkpt>
      <trkpt lat="36.53019" lon="-6.28777">
        <ele>11.99325</ele>
        <time>2022-04-14T12:23:07.000Z</time>
      </trkpt>
      <trkpt lat="36.53013" lon="-6.2877">
        <ele>12.006852</ele>
        <time>2022-04-14T12:23:10.000Z</time>
      </trkpt>
      <trkpt lat="36.53008" lon="-6.28764">
        <ele>12.018103</ele>
        <time>2022-04-14T12:23:12.000Z</time>
      </trkpt>
      <trkpt lat="36.52997" lon="-6.28752">
        <ele>12.042126</ele>
        <time>2022-04-14T12:23:16.000Z</time>
      </trkpt>
      <trkpt lat="36.52974" lon="-6.28728">
        <ele>12.091177</ele>
        <time>2022-04-14T12:23:24.000Z</time>
      </trkpt>
      <trkpt lat="36.52946" lon="-6.28698">
        <ele>12.151387</ele>
        <time>2022-04-14T12:23:33.000Z</time>
      </trkpt>
      <trkpt lat="36.5294" lon="-6.28691">
        <ele>12.165317</ele>
        <time>2022-04-14T12:23:35.000Z</time>
      </trkpt>
      <trkpt lat="36.52905" lon="-6.28654">
        <ele>12.239241</ele>
        <time>2022-04-14T12:23:45.000Z</time>
      </trkpt>
      <trkpt lat="36.52879" lon="-6.28626">
        <ele>12.265853</ele>
        <time>2022-04-14T12:23:52.000Z</time>
      </trkpt>
      <trkpt lat="36.52837" lon="-6.28581">
        <ele>12.280604</ele>
        <time>2022-04-14T12:24:03.000Z</time>
      </trkpt>
      <trkpt lat="36.52833" lon="-6.28577">
        <ele>12.281969</ele>
        <time>2022-04-14T12:24:04.000Z</time>
      </trkpt>
      <trkpt lat="36.52821" lon="-6.28564">
        <ele>12.286102</ele>
        <time>2022-04-14T12:24:07.000Z</time>
      </trkpt>
      <trkpt lat="36.52796" lon="-6.28539">
        <ele>12.294334</ele>
        <time>2022-04-14T12:24:13.000Z</time>
      </trkpt>
      <trkpt lat="36.52762" lon="-6.28503">
        <ele>12.306154</ele>
        <time>2022-04-14T12:24:22.000Z</time>
      </trkpt>
      <trkpt lat="36.52758" lon="-6.28499">
        <ele>12.307466</ele>
        <time>2022-04-14T12:24:23.000Z</time>
      </trkpt>
      <trkpt lat="36.52738" lon="-6.2848">
        <ele>12.307771</ele>
        <time>2022-04-14T12:24:28.000Z</time>
      </trkpt>
      <trkpt lat="36.52733" lon="-6.28469">
        <ele>12.307894</ele>
        <time>2022-04-14T12:24:30.000Z</time>
      </trkpt>
      <trkpt lat="36.52722" lon="-6.28433">
        <ele>12.308267</ele>
        <time>2022-04-14T12:24:36.000Z</time>
      </trkpt>
      <trkpt lat="36.52716" lon="-6.28424">
        <ele>12.308376</ele>
        <time>2022-04-14T12:24:38.000Z</time>
      </trkpt>
      <trkpt lat="36.52708" lon="-6.2842">
        <ele>12.308482</ele>
        <time>2022-04-14T12:24:40.000Z</time>
      </trkpt>
      <trkpt lat="36.52701" lon="-6.28414">
        <ele>12.308591</ele>
        <time>2022-04-14T12:24:42.000Z</time>
      </trkpt>
      <trkpt lat="36.52692" lon="-6.28413">
        <ele>12.308695</ele>
        <time>2022-04-14T12:24:44.000Z</time>
      </trkpt>
      <trkpt lat="36.52687" lon="-6.28413">
        <ele>12.308756</ele>
        <time>2022-04-14T12:24:45.000Z</time>
      </trkpt>
      <trkpt lat="36.52682" lon="-6.28412">
        <ele>12.308814</ele>
        <time>2022-04-14T12:24:46.000Z</time>
      </trkpt>
      <trkpt lat="36.52674" lon="-6.28405">
        <ele>12.308929</ele>
        <time>2022-04-14T12:24:48.000Z</time>
      </trkpt>
      <trkpt lat="36.52663" lon="-6.28395">
        <ele>12.309099</ele>
        <time>2022-04-14T12:24:51.000Z</time>
      </trkpt>
      <trkpt lat="36.52654" lon="-6.28391">
        <ele>12.309213</ele>
        <time>2022-04-14T12:24:53.000Z</time>
      </trkpt>
      <trkpt lat="36.5265" lon="-6.28388">
        <ele>12.309273</ele>
        <time>2022-04-14T12:24:54.000Z</time>
      </trkpt>
      <trkpt lat="36.52619" lon="-6.28357">
        <ele>12.320782</ele>
        <time>2022-04-14T12:25:02.000Z</time>
      </trkpt>
      <trkpt lat="36.52585" lon="-6.28321">
        <ele>12.380738</ele>
        <time>2022-04-14T12:25:11.000Z</time>
      </trkpt>
      <trkpt lat="36.52549" lon="-6.28284">
        <ele>12.444026</ele>
        <time>2022-04-14T12:25:20.000Z</time>
      </trkpt>
      <trkpt lat="36.52506" lon="-6.28238">
        <ele>12.519875</ele>
        <time>2022-04-14T12:25:31.000Z</time>
      </trkpt>
      <trkpt lat="36.52474" lon="-6.28204">
        <ele>12.58144</ele>
        <time>2022-04-14T12:25:39.000Z</time>
      </trkpt>
      <trkpt lat="36.52465" lon="-6.28196">
        <ele>12.59866</ele>
        <time>2022-04-14T12:25:41.000Z</time>
      </trkpt>
      <trkpt lat="36.52431" lon="-6.28153">
        <ele>12.677144</ele>
        <time>2022-04-14T12:25:51.000Z</time>
      </trkpt>
      <trkpt lat="36.52421" lon="-6.28139">
        <ele>12.700335</ele>
        <time>2022-04-14T12:25:54.000Z</time>
      </trkpt>
      <trkpt lat="36.52416" lon="-6.28124">
        <ele>12.722383</ele>
        <time>2022-04-14T12:25:57.000Z</time>
      </trkpt>
      <trkpt lat="36.52403" lon="-6.28096">
        <ele>12.764345</ele>
        <time>2022-04-14T12:26:03.000Z</time>
      </trkpt>
      <trkpt lat="36.52401" lon="-6.28092">
        <ele>12.7701</ele>
        <time>2022-04-14T12:26:04.000Z</time>
      </trkpt>
      <trkpt lat="36.52394" lon="-6.28077">
        <ele>12.792506</ele>
        <time>2022-04-14T12:26:08.000Z</time>
      </trkpt>
      <trkpt lat="36.52379" lon="-6.28049">
        <ele>12.835533</ele>
        <time>2022-04-14T12:26:15.000Z</time>
      </trkpt>
      <trkpt lat="36.52371" lon="-6.28032">
        <ele>12.859899</ele>
        <time>2022-04-14T12:26:19.000Z</time>
      </trkpt>
      <trkpt lat="36.52365" lon="-6.28019">
        <ele>12.876948</ele>
        <time>2022-04-14T12:26:22.000Z</time>
      </trkpt>
      <trkpt lat="36.52362" lon="-6.28015">
        <ele>12.882847</ele>
        <time>2022-04-14T12:26:23.000Z</time>
      </trkpt>
      <trkpt lat="36.52358" lon="-6.28006">
        <ele>12.894247</ele>
        <time>2022-04-14T12:26:25.000Z</time>
      </trkpt>
      <trkpt lat="36.52353" lon="-6.27999">
        <ele>12.905347</ele>
        <time>2022-04-14T12:26:27.000Z</time>
      </trkpt>
      <trkpt lat="36.52346" lon="-6.27983">
        <ele>12.926609</ele>
        <time>2022-04-14T12:26:31.000Z</time>
      </trkpt>
      <trkpt lat="36.52339" lon="-6.27966">
        <ele>12.948314</ele>
        <time>2022-04-14T12:26:35.000Z</time>
      </trkpt>
      <trkpt lat="36.52335" lon="-6.27958">
        <ele>12.95984</ele>
        <time>2022-04-14T12:26:37.000Z</time>
      </trkpt>
      <trkpt lat="36.52331" lon="-6.2795">
        <ele>12.970824</ele>
        <time>2022-04-14T12:26:39.000Z</time>
      </trkpt>
      <trkpt lat="36.5233" lon="-6.27943">
        <ele>12.978299</ele>
        <time>2022-04-14T12:26:41.000Z</time>
      </trkpt>
      <trkpt lat="36.52332" lon="-6.27936">
        <ele>12.986721</ele>
        <time>2022-04-14T12:26:43.000Z</time>
      </trkpt>
      <trkpt lat="36.52336" lon="-6.27932">
        <ele>12.994196</ele>
        <time>2022-04-14T12:26:45.000Z</time>
      </trkpt>
      <trkpt lat="36.52353" lon="-6.27918">
        <ele>13.023851</ele>
        <time>2022-04-14T12:26:51.000Z</time>
      </trkpt>
      <trkpt lat="36.5236" lon="-6.27913">
        <ele>13.035284</ele>
        <time>2022-04-14T12:26:53.000Z</time>
      </trkpt>
      <trkpt lat="36.52371" lon="-6.27911">
        <ele>13.051483</ele>
        <time>2022-04-14T12:26:57.000Z</time>
      </trkpt>
      <trkpt lat="36.52374" lon="-6.2791">
        <ele>13.056795</ele>
        <time>2022-04-14T12:26:58.000Z</time>
      </trkpt>
      <trkpt lat="36.52382" lon="-6.27904">
        <ele>13.069627</ele>
        <time>2022-04-14T12:27:01.000Z</time>
      </trkpt>
      <trkpt lat="36.524" lon="-6.27889">
        <ele>13.094698</ele>
        <time>2022-04-14T12:27:09.000Z</time>
      </trkpt>
      <trkpt lat="36.52422" lon="-6.27871">
        <ele>13.027798</ele>
        <time>2022-04-14T12:27:18.000Z</time>
      </trkpt>
      <trkpt lat="36.52437" lon="-6.27856">
        <ele>12.978789</ele>
        <time>2022-04-14T12:27:23.000Z</time>
      </trkpt>
      <trkpt lat="36.52452" lon="-6.27828">
        <ele>12.907095</ele>
        <time>2022-04-14T12:27:31.000Z</time>
      </trkpt>
      <trkpt lat="36.52464" lon="-6.278">
        <ele>12.840967</ele>
        <time>2022-04-14T12:27:39.000Z</time>
      </trkpt>
      <trkpt lat="36.52475" lon="-6.27776">
        <ele>12.783221</ele>
        <time>2022-04-14T12:27:45.000Z</time>
      </trkpt>
      <trkpt lat="36.52483" lon="-6.2776">
        <ele>12.743159</ele>
        <time>2022-04-14T12:27:49.000Z</time>
      </trkpt>
      <trkpt lat="36.52494" lon="-6.27735">
        <ele>12.684874</ele>
        <time>2022-04-14T12:27:55.000Z</time>
      </trkpt>
      <trkpt lat="36.52502" lon="-6.2772">
        <ele>12.647887</ele>
        <time>2022-04-14T12:27:59.000Z</time>
      </trkpt>
      <trkpt lat="36.5251" lon="-6.27704">
        <ele>12.652534</ele>
        <time>2022-04-14T12:28:03.000Z</time>
      </trkpt>
      <trkpt lat="36.5252" lon="-6.27682">
        <ele>12.699074</ele>
        <time>2022-04-14T12:28:09.000Z</time>
      </trkpt>
      <trkpt lat="36.52532" lon="-6.27656">
        <ele>12.751953</ele>
        <time>2022-04-14T12:28:16.000Z</time>
      </trkpt>
      <trkpt lat="36.52548" lon="-6.27634">
        <ele>12.80472</ele>
        <time>2022-04-14T12:28:24.000Z</time>
      </trkpt>
      <trkpt lat="36.52547" lon="-6.27628">
        <ele>12.816272</ele>
        <time>2022-04-14T12:28:28.000Z</time>
      </trkpt>
      <trkpt lat="36.52546" lon="-6.27628">
        <ele>12.817116</ele>
        <time>2022-04-14T12:28:37.000Z</time>
      </trkpt>
      <trkpt lat="36.52546" lon="-6.27628">
        <ele>12.817116</ele>
        <time>2022-04-14T12:28:50.000Z</time>
      </trkpt>
      <trkpt lat="36.52546" lon="-6.27628">
        <ele>12.817116</ele>
        <time>2022-04-14T12:28:54.000Z</time>
      </trkpt>
      <trkpt lat="36.52546" lon="-6.27628">
        <ele>12.817116</ele>
        <time>2022-04-14T12:29:01.000Z</time>
      </trkpt>
      <trkpt lat="36.52546" lon="-6.27628">
        <ele>12.818025</ele>
        <time>2022-04-14T12:29:15.000Z</time>
      </trkpt>
      <trkpt lat="36.52539" lon="-6.27626">
        <ele>12.834421</ele>
        <time>2022-04-14T12:29:18.000Z</time>
      </trkpt>
      <trkpt lat="36.52519" lon="-6.27626">
        <ele>12.877923</ele>
        <time>2022-04-14T12:29:24.000Z</time>
      </trkpt>
      <trkpt lat="36.52499" lon="-6.27622">
        <ele>12.923473</ele>
        <time>2022-04-14T12:29:30.000Z</time>
      </trkpt>
      <trkpt lat="36.52472" lon="-6.27613">
        <ele>12.985413</ele>
        <time>2022-04-14T12:29:38.000Z</time>
      </trkpt>
      <trkpt lat="36.52469" lon="-6.27612">
        <ele>12.993078</ele>
        <time>2022-04-14T12:29:39.000Z</time>
      </trkpt>
      <trkpt lat="36.5244" lon="-6.27603">
        <ele>13.026184</ele>
        <time>2022-04-14T12:29:47.000Z</time>
      </trkpt>
      <trkpt lat="36.5242" lon="-6.27596">
        <ele>13.013224</ele>
        <time>2022-04-14T12:29:53.000Z</time>
      </trkpt>
      <trkpt lat="36.52422" lon="-6.27591">
        <ele>13.010797</ele>
        <time>2022-04-14T12:29:55.000Z</time>
      </trkpt>
      <trkpt lat="36.52424" lon="-6.27591">
        <ele>13.009446</ele>
        <time>2022-04-14T12:29:56.000Z</time>
      </trkpt>
      <trkpt lat="36.52427" lon="-6.27591">
        <ele>13.007296</ele>
        <time>2022-04-14T12:30:01.000Z</time>
      </trkpt>
      <trkpt lat="36.52427" lon="-6.27591">
        <ele>13.007296</ele>
        <time>2022-04-14T12:30:10.000Z</time>
      </trkpt>
      <trkpt lat="36.52429" lon="-6.27591">
        <ele>13.006016</ele>
        <time>2022-04-14T12:30:18.000Z</time>
      </trkpt>
      <trkpt lat="36.52433" lon="-6.27593">
        <ele>13.003813</ele>
        <time>2022-04-14T12:30:20.000Z</time>
      </trkpt>
      <trkpt lat="36.52434" lon="-6.27594">
        <ele>13.002819</ele>
        <time>2022-04-14T12:30:21.000Z</time>
      </trkpt>
      <trkpt lat="36.52433" lon="-6.27598">
        <ele>13.00091</ele>
        <time>2022-04-14T12:30:23.000Z</time>
      </trkpt>
      <trkpt lat="36.52422" lon="-6.27598">
        <ele>12.994143</ele>
        <time>2022-04-14T12:30:27.000Z</time>
      </trkpt>
      <trkpt lat="36.52416" lon="-6.27596">
        <ele>12.990169</ele>
        <time>2022-04-14T12:30:30.000Z</time>
      </trkpt>
      <trkpt lat="36.52409" lon="-6.27595">
        <ele>12.985635</ele>
        <time>2022-04-14T12:30:33.000Z</time>
      </trkpt>
      <trkpt lat="36.52391" lon="-6.27589">
        <ele>12.973928</ele>
        <time>2022-04-14T12:30:39.000Z</time>
      </trkpt>
      <trkpt lat="36.52367" lon="-6.27578">
        <ele>12.957759</ele>
        <time>2022-04-14T12:30:48.000Z</time>
      </trkpt>
      <trkpt lat="36.52344" lon="-6.2757">
        <ele>12.942977</ele>
        <time>2022-04-14T12:30:55.000Z</time>
      </trkpt>
      <trkpt lat="36.52338" lon="-6.27567">
        <ele>12.938829</ele>
        <time>2022-04-14T12:30:57.000Z</time>
      </trkpt>
      <trkpt lat="36.52309" lon="-6.27557">
        <ele>12.919697</ele>
        <time>2022-04-14T12:31:06.000Z</time>
      </trkpt>
      <trkpt lat="36.52291" lon="-6.2755">
        <ele>12.902583</ele>
        <time>2022-04-14T12:31:12.000Z</time>
      </trkpt>
      <trkpt lat="36.52267" lon="-6.27541">
        <ele>12.878492</ele>
        <time>2022-04-14T12:31:20.000Z</time>
      </trkpt>
      <trkpt lat="36.5224" lon="-6.27529">
        <ele>12.852011</ele>
        <time>2022-04-14T12:31:28.000Z</time>
      </trkpt>
      <trkpt lat="36.52215" lon="-6.27513">
        <ele>12.825617</ele>
        <time>2022-04-14T12:31:36.000Z</time>
      </trkpt>
      <trkpt lat="36.52198" lon="-6.27487">
        <ele>12.80077</ele>
        <time>2022-04-14T12:31:43.000Z</time>
      </trkpt>
      <trkpt lat="36.52195" lon="-6.27483">
        <ele>12.796915</ele>
        <time>2022-04-14T12:31:44.000Z</time>
      </trkpt>
      <trkpt lat="36.52186" lon="-6.27466">
        <ele>12.78186</ele>
        <time>2022-04-14T12:31:48.000Z</time>
      </trkpt>
      <trkpt lat="36.52179" lon="-6.27447">
        <ele>12.76625</ele>
        <time>2022-04-14T12:31:52.000Z</time>
      </trkpt>
      <trkpt lat="36.52173" lon="-6.27429">
        <ele>12.753593</ele>
        <time>2022-04-14T12:31:56.000Z</time>
      </trkpt>
      <trkpt lat="36.52173" lon="-6.27424">
        <ele>12.758583</ele>
        <time>2022-04-14T12:31:57.000Z</time>
      </trkpt>
      <trkpt lat="36.52171" lon="-6.27414">
        <ele>12.768152</ele>
        <time>2022-04-14T12:31:59.000Z</time>
      </trkpt>
      <trkpt lat="36.52171" lon="-6.27409">
        <ele>12.772557</ele>
        <time>2022-04-14T12:32:00.000Z</time>
      </trkpt>
      <trkpt lat="36.52166" lon="-6.27386">
        <ele>12.795498</ele>
        <time>2022-04-14T12:32:05.000Z</time>
      </trkpt>
      <trkpt lat="36.52166" lon="-6.27353">
        <ele>12.826856</ele>
        <time>2022-04-14T12:32:12.000Z</time>
      </trkpt>
      <trkpt lat="36.52162" lon="-6.27342">
        <ele>12.83857</ele>
        <time>2022-04-14T12:32:15.000Z</time>
      </trkpt>
      <trkpt lat="36.5216" lon="-6.2734">
        <ele>12.841298</ele>
        <time>2022-04-14T12:32:16.000Z</time>
      </trkpt>
      <trkpt lat="36.52144" lon="-6.27335">
        <ele>12.860889</ele>
        <time>2022-04-14T12:32:22.000Z</time>
      </trkpt>
      <trkpt lat="36.52132" lon="-6.27349">
        <ele>12.880735</ele>
        <time>2022-04-14T12:32:25.000Z</time>
      </trkpt>
      <trkpt lat="36.52118" lon="-6.27375">
        <ele>12.910329</ele>
        <time>2022-04-14T12:32:30.000Z</time>
      </trkpt>
      <trkpt lat="36.5211" lon="-6.27388">
        <ele>12.925936</ele>
        <time>2022-04-14T12:32:33.000Z</time>
      </trkpt>
      <trkpt lat="36.52099" lon="-6.27422">
        <ele>12.961098</ele>
        <time>2022-04-14T12:32:42.000Z</time>
      </trkpt>
      <trkpt lat="36.5208" lon="-6.27446">
        <ele>13.007929</ele>
        <time>2022-04-14T12:32:49.000Z</time>
      </trkpt>
      <trkpt lat="36.52057" lon="-6.27454">
        <ele>13.052133</ele>
        <time>2022-04-14T12:32:55.000Z</time>
      </trkpt>
      <trkpt lat="36.52041" lon="-6.27453">
        <ele>13.081214</ele>
        <time>2022-04-14T12:32:59.000Z</time>
      </trkpt>
      <trkpt lat="36.5203" lon="-6.27447">
        <ele>13.104377</ele>
        <time>2022-04-14T12:33:02.000Z</time>
      </trkpt>
      <trkpt lat="36.5202" lon="-6.27441">
        <ele>13.124576</ele>
        <time>2022-04-14T12:33:05.000Z</time>
      </trkpt>
      <trkpt lat="36.52008" lon="-6.27433">
        <ele>13.149819</ele>
        <time>2022-04-14T12:33:09.000Z</time>
      </trkpt>
      <trkpt lat="36.51999" lon="-6.27429">
        <ele>13.166194</ele>
        <time>2022-04-14T12:33:11.000Z</time>
      </trkpt>
      <trkpt lat="36.5199" lon="-6.27428">
        <ele>13.18433</ele>
        <time>2022-04-14T12:33:13.000Z</time>
      </trkpt>
      <trkpt lat="36.51985" lon="-6.27426">
        <ele>13.192831</ele>
        <time>2022-04-14T12:33:14.000Z</time>
      </trkpt>
      <trkpt lat="36.51971" lon="-6.27419">
        <ele>13.221104</ele>
        <time>2022-04-14T12:33:17.000Z</time>
      </trkpt>
      <trkpt lat="36.51935" lon="-6.27403">
        <ele>13.290685</ele>
        <time>2022-04-14T12:33:25.000Z</time>
      </trkpt>
      <trkpt lat="36.51927" lon="-6.27399">
        <ele>13.288614</ele>
        <time>2022-04-14T12:33:27.000Z</time>
      </trkpt>
      <trkpt lat="36.51905" lon="-6.27389">
        <ele>13.251882</ele>
        <time>2022-04-14T12:33:32.000Z</time>
      </trkpt>
      <trkpt lat="36.51883" lon="-6.27378">
        <ele>13.215514</ele>
        <time>2022-04-14T12:33:37.000Z</time>
      </trkpt>
      <trkpt lat="36.51871" lon="-6.27372">
        <ele>13.194565</ele>
        <time>2022-04-14T12:33:40.000Z</time>
      </trkpt>
      <trkpt lat="36.51826" lon="-6.27353">
        <ele>13.119915</ele>
        <time>2022-04-14T12:33:50.000Z</time>
      </trkpt>
      <trkpt lat="36.51782" lon="-6.27332">
        <ele>13.044546</ele>
        <time>2022-04-14T12:34:01.000Z</time>
      </trkpt>
      <trkpt lat="36.51769" lon="-6.27326">
        <ele>13.023453</ele>
        <time>2022-04-14T12:34:04.000Z</time>
      </trkpt>
      <trkpt lat="36.51764" lon="-6.27325">
        <ele>13.015629</ele>
        <time>2022-04-14T12:34:05.000Z</time>
      </trkpt>
      <trkpt lat="36.51756" lon="-6.27322">
        <ele>13.01557</ele>
        <time>2022-04-14T12:34:07.000Z</time>
      </trkpt>
      <trkpt lat="36.51743" lon="-6.27315">
        <ele>13.018087</ele>
        <time>2022-04-14T12:34:10.000Z</time>
      </trkpt>
      <trkpt lat="36.51697" lon="-6.27295">
        <ele>13.027301</ele>
        <time>2022-04-14T12:34:21.000Z</time>
      </trkpt>
      <trkpt lat="36.51693" lon="-6.27292">
        <ele>13.028094</ele>
        <time>2022-04-14T12:34:22.000Z</time>
      </trkpt>
      <trkpt lat="36.51672" lon="-6.27282">
        <ele>13.032294</ele>
        <time>2022-04-14T12:34:27.000Z</time>
      </trkpt>
      <trkpt lat="36.51644" lon="-6.2727">
        <ele>13.037764</ele>
        <time>2022-04-14T12:34:33.000Z</time>
      </trkpt>
      <trkpt lat="36.51612" lon="-6.27257">
        <ele>13.044069</ele>
        <time>2022-04-14T12:34:40.000Z</time>
      </trkpt>
      <trkpt lat="36.51602" lon="-6.27254">
        <ele>13.045909</ele>
        <time>2022-04-14T12:34:42.000Z</time>
      </trkpt>
      <trkpt lat="36.51591" lon="-6.27247">
        <ele>13.048317</ele>
        <time>2022-04-14T12:34:45.000Z</time>
      </trkpt>
      <trkpt lat="36.51574" lon="-6.27239">
        <ele>13.051938</ele>
        <time>2022-04-14T12:34:49.000Z</time>
      </trkpt>
      <trkpt lat="36.51561" lon="-6.27234">
        <ele>13.054741</ele>
        <time>2022-04-14T12:34:52.000Z</time>
      </trkpt>
      <trkpt lat="36.51549" lon="-6.27226">
        <ele>13.057445</ele>
        <time>2022-04-14T12:34:55.000Z</time>
      </trkpt>
      <trkpt lat="36.51545" lon="-6.27223">
        <ele>13.058425</ele>
        <time>2022-04-14T12:34:56.000Z</time>
      </trkpt>
      <trkpt lat="36.5154" lon="-6.27219">
        <ele>13.059439</ele>
        <time>2022-04-14T12:34:57.000Z</time>
      </trkpt>
      <trkpt lat="36.51525" lon="-6.27213">
        <ele>13.062743</ele>
        <time>2022-04-14T12:35:00.000Z</time>
      </trkpt>
      <trkpt lat="36.5152" lon="-6.27212">
        <ele>13.063836</ele>
        <time>2022-04-14T12:35:01.000Z</time>
      </trkpt>
      <trkpt lat="36.51514" lon="-6.27211">
        <ele>13.064945</ele>
        <time>2022-04-14T12:35:02.000Z</time>
      </trkpt>
      <trkpt lat="36.51505" lon="-6.27206">
        <ele>13.06699</ele>
        <time>2022-04-14T12:35:04.000Z</time>
      </trkpt>
      <trkpt lat="36.51499" lon="-6.27203">
        <ele>13.068232</ele>
        <time>2022-04-14T12:35:05.000Z</time>
      </trkpt>
      <trkpt lat="36.5146" lon="-6.27188">
        <ele>13.076452</ele>
        <time>2022-04-14T12:35:13.000Z</time>
      </trkpt>
      <trkpt lat="36.51431" lon="-6.27174">
        <ele>13.082712</ele>
        <time>2022-04-14T12:35:20.000Z</time>
      </trkpt>
      <trkpt lat="36.51402" lon="-6.2716">
        <ele>13.070918</ele>
        <time>2022-04-14T12:35:27.000Z</time>
      </trkpt>
      <trkpt lat="36.51357" lon="-6.27142">
        <ele>13.047391</ele>
        <time>2022-04-14T12:35:37.000Z</time>
      </trkpt>
      <trkpt lat="36.51352" lon="-6.2714">
        <ele>13.045064</ele>
        <time>2022-04-14T12:35:38.000Z</time>
      </trkpt>
      <trkpt lat="36.5134" lon="-6.27133">
        <ele>13.03815</ele>
        <time>2022-04-14T12:35:41.000Z</time>
      </trkpt>
      <trkpt lat="36.51335" lon="-6.27131">
        <ele>13.035862</ele>
        <time>2022-04-14T12:35:42.000Z</time>
      </trkpt>
      <trkpt lat="36.51331" lon="-6.2713">
        <ele>13.033441</ele>
        <time>2022-04-14T12:35:43.000Z</time>
      </trkpt>
      <trkpt lat="36.51317" lon="-6.27124">
        <ele>13.026527</ele>
        <time>2022-04-14T12:35:46.000Z</time>
      </trkpt>
      <trkpt lat="36.51309" lon="-6.27119">
        <ele>13.02207</ele>
        <time>2022-04-14T12:35:48.000Z</time>
      </trkpt>
      <trkpt lat="36.51291" lon="-6.27113">
        <ele>13.012462</ele>
        <time>2022-04-14T12:35:52.000Z</time>
      </trkpt>
      <trkpt lat="36.51278" lon="-6.27106">
        <ele>13.005595</ele>
        <time>2022-04-14T12:35:55.000Z</time>
      </trkpt>
      <trkpt lat="36.51242" lon="-6.27091">
        <ele>12.99544</ele>
        <time>2022-04-14T12:36:03.000Z</time>
      </trkpt>
      <trkpt lat="36.5122" lon="-6.27082">
        <ele>12.99705</ele>
        <time>2022-04-14T12:36:08.000Z</time>
      </trkpt>
      <trkpt lat="36.51211" lon="-6.27078">
        <ele>12.997712</ele>
        <time>2022-04-14T12:36:10.000Z</time>
      </trkpt>
      <trkpt lat="36.51182" lon="-6.27063">
        <ele>12.999908</ele>
        <time>2022-04-14T12:36:17.000Z</time>
      </trkpt>
      <trkpt lat="36.51164" lon="-6.27053">
        <ele>13.001284</ele>
        <time>2022-04-14T12:36:21.000Z</time>
      </trkpt>
      <trkpt lat="36.51155" lon="-6.27047">
        <ele>13.001981</ele>
        <time>2022-04-14T12:36:23.000Z</time>
      </trkpt>
      <trkpt lat="36.51151" lon="-6.27045">
        <ele>13.002311</ele>
        <time>2022-04-14T12:36:24.000Z</time>
      </trkpt>
      <trkpt lat="36.51133" lon="-6.27036">
        <ele>13.003665</ele>
        <time>2022-04-14T12:36:28.000Z</time>
      </trkpt>
      <trkpt lat="36.51124" lon="-6.27031">
        <ele>13.004336</ele>
        <time>2022-04-14T12:36:30.000Z</time>
      </trkpt>
      <trkpt lat="36.51102" lon="-6.27019">
        <ele>13.006026</ele>
        <time>2022-04-14T12:36:35.000Z</time>
      </trkpt>
      <trkpt lat="36.5109" lon="-6.27011">
        <ele>13.00454</ele>
        <time>2022-04-14T12:36:38.000Z</time>
      </trkpt>
      <trkpt lat="36.51064" lon="-6.26994">
        <ele>12.937744</ele>
        <time>2022-04-14T12:36:44.000Z</time>
      </trkpt>
      <trkpt lat="36.5106" lon="-6.26991">
        <ele>12.927044</ele>
        <time>2022-04-14T12:36:45.000Z</time>
      </trkpt>
      <trkpt lat="36.51023" lon="-6.26962">
        <ele>12.8268</ele>
        <time>2022-04-14T12:36:55.000Z</time>
      </trkpt>
      <trkpt lat="36.51019" lon="-6.26959">
        <ele>12.816504</ele>
        <time>2022-04-14T12:36:56.000Z</time>
      </trkpt>
      <trkpt lat="36.50982" lon="-6.26929">
        <ele>12.71563</ele>
        <time>2022-04-14T12:37:06.000Z</time>
      </trkpt>
      <trkpt lat="36.5094" lon="-6.26889">
        <ele>12.595635</ele>
        <time>2022-04-14T12:37:17.000Z</time>
      </trkpt>
      <trkpt lat="36.50918" lon="-6.26865">
        <ele>12.620626</ele>
        <time>2022-04-14T12:37:23.000Z</time>
      </trkpt>
      <trkpt lat="36.50911" lon="-6.26857">
        <ele>12.628926</ele>
        <time>2022-04-14T12:37:25.000Z</time>
      </trkpt>
      <trkpt lat="36.50879" lon="-6.26816">
        <ele>12.669226</ele>
        <time>2022-04-14T12:37:35.000Z</time>
      </trkpt>
      <trkpt lat="36.50848" lon="-6.26773">
        <ele>12.709378</ele>
        <time>2022-04-14T12:37:45.000Z</time>
      </trkpt>
      <trkpt lat="36.50823" lon="-6.26728">
        <ele>12.747771</ele>
        <time>2022-04-14T12:37:54.000Z</time>
      </trkpt>
      <trkpt lat="36.50801" lon="-6.26678">
        <ele>12.760837</ele>
        <time>2022-04-14T12:38:03.000Z</time>
      </trkpt>
      <trkpt lat="36.50799" lon="-6.26672">
        <ele>12.761979</ele>
        <time>2022-04-14T12:38:04.000Z</time>
      </trkpt>
      <trkpt lat="36.50797" lon="-6.26666">
        <ele>12.763102</ele>
        <time>2022-04-14T12:38:05.000Z</time>
      </trkpt>
      <trkpt lat="36.50795" lon="-6.26661">
        <ele>12.764217</ele>
        <time>2022-04-14T12:38:06.000Z</time>
      </trkpt>
      <trkpt lat="36.50785" lon="-6.26626">
        <ele>12.771087</ele>
        <time>2022-04-14T12:38:12.000Z</time>
      </trkpt>
      <trkpt lat="36.50782" lon="-6.26608">
        <ele>12.774373</ele>
        <time>2022-04-14T12:38:15.000Z</time>
      </trkpt>
      <trkpt lat="36.50775" lon="-6.26578">
        <ele>12.780187</ele>
        <time>2022-04-14T12:38:21.000Z</time>
      </trkpt>
      <trkpt lat="36.50772" lon="-6.26546">
        <ele>12.786236</ele>
        <time>2022-04-14T12:38:28.000Z</time>
      </trkpt>
      <trkpt lat="36.50773" lon="-6.26542">
        <ele>12.786915</ele>
        <time>2022-04-14T12:38:29.000Z</time>
      </trkpt>
      <trkpt lat="36.5078" lon="-6.26521">
        <ele>12.791212</ele>
        <time>2022-04-14T12:38:35.000Z</time>
      </trkpt>
      <trkpt lat="36.5078" lon="-6.26514">
        <ele>12.792439</ele>
        <time>2022-04-14T12:38:39.000Z</time>
      </trkpt>
      <trkpt lat="36.5078" lon="-6.26514">
        <ele>12.792439</ele>
        <time>2022-04-14T12:38:42.000Z</time>
      </trkpt>
      <trkpt lat="36.5078" lon="-6.26514">
        <ele>12.792439</ele>
        <time>2022-04-14T12:38:49.000Z</time>
      </trkpt>
      <trkpt lat="36.5078" lon="-6.26514">
        <ele>12.792439</ele>
        <time>2022-04-14T12:39:02.000Z</time>
      </trkpt>
      <trkpt lat="36.5078" lon="-6.26514">
        <ele>12.792439</ele>
        <time>2022-04-14T12:39:14.000Z</time>
      </trkpt>
      <trkpt lat="36.5078" lon="-6.26514">
        <ele>12.792439</ele>
        <time>2022-04-14T12:39:25.000Z</time>
      </trkpt>
      <trkpt lat="36.5078" lon="-6.26514">
        <ele>12.792439</ele>
        <time>2022-04-14T12:39:26.000Z</time>
      </trkpt>
      <trkpt lat="36.5078" lon="-6.26514">
        <ele>12.792439</ele>
        <time>2022-04-14T12:39:52.000Z</time>
      </trkpt>
      <trkpt lat="36.5078" lon="-6.26514">
        <ele>12.792439</ele>
        <time>2022-04-14T12:39:57.000Z</time>
      </trkpt>
      <trkpt lat="36.5078" lon="-6.26514">
        <ele>12.792439</ele>
        <time>2022-04-14T12:40:01.000Z</time>
      </trkpt>
      <trkpt lat="36.5078" lon="-6.26514">
        <ele>12.792439</ele>
        <time>2022-04-14T12:40:06.000Z</time>
      </trkpt>
      <trkpt lat="36.50779" lon="-6.26513">
        <ele>12.79675</ele>
        <time>2022-04-14T12:40:26.000Z</time>
      </trkpt>
      <trkpt lat="36.50776" lon="-6.26513">
        <ele>12.812851</ele>
        <time>2022-04-14T12:40:28.000Z</time>
      </trkpt>
      <trkpt lat="36.50775" lon="-6.26527">
        <ele>12.872919</ele>
        <time>2022-04-14T12:40:33.000Z</time>
      </trkpt>
      <trkpt lat="36.50773" lon="-6.2655">
        <ele>12.973522</ele>
        <time>2022-04-14T12:40:39.000Z</time>
      </trkpt>
      <trkpt lat="36.50775" lon="-6.26573">
        <ele>13.077879</ele>
        <time>2022-04-14T12:40:44.000Z</time>
      </trkpt>
      <trkpt lat="36.50777" lon="-6.26583">
        <ele>13.122774</ele>
        <time>2022-04-14T12:40:46.000Z</time>
      </trkpt>
      <trkpt lat="36.50785" lon="-6.26624">
        <ele>13.307108</ele>
        <time>2022-04-14T12:40:55.000Z</time>
      </trkpt>
      <trkpt lat="36.50789" lon="-6.26637">
        <ele>13.367078</ele>
        <time>2022-04-14T12:40:58.000Z</time>
      </trkpt>
      <trkpt lat="36.50793" lon="-6.2665">
        <ele>13.427048</ele>
        <time>2022-04-14T12:41:01.000Z</time>
      </trkpt>
      <trkpt lat="36.50799" lon="-6.26671">
        <ele>13.526239</ele>
        <time>2022-04-14T12:41:06.000Z</time>
      </trkpt>
      <trkpt lat="36.50815" lon="-6.26711">
        <ele>13.720802</ele>
        <time>2022-04-14T12:41:16.000Z</time>
      </trkpt>
      <trkpt lat="36.50818" lon="-6.26726">
        <ele>13.767043</ele>
        <time>2022-04-14T12:41:20.000Z</time>
      </trkpt>
      <trkpt lat="36.50816" lon="-6.2673">
        <ele>13.760802</ele>
        <time>2022-04-14T12:41:21.000Z</time>
      </trkpt>
      <trkpt lat="36.50812" lon="-6.26745">
        <ele>13.736969</ele>
        <time>2022-04-14T12:41:25.000Z</time>
      </trkpt>
      <trkpt lat="36.5081" lon="-6.26776">
        <ele>13.691817</ele>
        <time>2022-04-14T12:41:32.000Z</time>
      </trkpt>
      <trkpt lat="36.50806" lon="-6.26784">
        <ele>13.678303</ele>
        <time>2022-04-14T12:41:34.000Z</time>
      </trkpt>
      <trkpt lat="36.50797" lon="-6.26794">
        <ele>13.65672</ele>
        <time>2022-04-14T12:41:37.000Z</time>
      </trkpt>
      <trkpt lat="36.50778" lon="-6.26803">
        <ele>13.619742</ele>
        <time>2022-04-14T12:41:42.000Z</time>
      </trkpt>
      <trkpt lat="36.50736" lon="-6.26819">
        <ele>13.539638</ele>
        <time>2022-04-14T12:41:52.000Z</time>
      </trkpt>
      <trkpt lat="36.50705" lon="-6.26833">
        <ele>13.479086</ele>
        <time>2022-04-14T12:42:00.000Z</time>
      </trkpt>
      <trkpt lat="36.50702" lon="-6.26835">
        <ele>13.473399</ele>
        <time>2022-04-14T12:42:01.000Z</time>
      </trkpt>
      <trkpt lat="36.50695" lon="-6.26836">
        <ele>13.461632</ele>
        <time>2022-04-14T12:42:03.000Z</time>
      </trkpt>
      <trkpt lat="36.5069" lon="-6.26836">
        <ele>13.451672</ele>
        <time>2022-04-14T12:42:05.000Z</time>
      </trkpt>
      <trkpt lat="36.50676" lon="-6.26831">
        <ele>13.453729</ele>
        <time>2022-04-14T12:42:11.000Z</time>
      </trkpt>
      <trkpt lat="36.50674" lon="-6.2683">
        <ele>13.455203</ele>
        <time>2022-04-14T12:42:12.000Z</time>
      </trkpt>
      <trkpt lat="36.50669" lon="-6.26831">
        <ele>13.457647</ele>
        <time>2022-04-14T12:42:14.000Z</time>
      </trkpt>
      <trkpt lat="36.50666" lon="-6.26843">
        <ele>13.462939</ele>
        <time>2022-04-14T12:42:18.000Z</time>
      </trkpt>
      <trkpt lat="36.50656" lon="-6.26851">
        <ele>13.469529</ele>
        <time>2022-04-14T12:42:23.000Z</time>
      </trkpt>
      <trkpt lat="36.5065" lon="-6.26854">
        <ele>13.473155</ele>
        <time>2022-04-14T12:42:27.000Z</time>
      </trkpt>
      <trkpt lat="36.5065" lon="-6.26856">
        <ele>13.474002</ele>
        <time>2022-04-14T12:42:28.000Z</time>
      </trkpt>
      <trkpt lat="36.50647" lon="-6.26871">
        <ele>13.480796</ele>
        <time>2022-04-14T12:42:32.000Z</time>
      </trkpt>
      <trkpt lat="36.50643" lon="-6.26877">
        <ele>13.484141</ele>
        <time>2022-04-14T12:42:34.000Z</time>
      </trkpt>
      <trkpt lat="36.5064" lon="-6.26878">
        <ele>13.485998</ele>
        <time>2022-04-14T12:42:35.000Z</time>
      </trkpt>
      <trkpt lat="36.50615" lon="-6.26888">
        <ele>13.500151</ele>
        <time>2022-04-14T12:42:43.000Z</time>
      </trkpt>
      <trkpt lat="36.50604" lon="-6.269">
        <ele>13.508484</ele>
        <time>2022-04-14T12:42:47.000Z</time>
      </trkpt>
      <trkpt lat="36.506" lon="-6.26903">
        <ele>13.510843</ele>
        <time>2022-04-14T12:42:48.000Z</time>
      </trkpt>
      <trkpt lat="36.50592" lon="-6.26907">
        <ele>13.515652</ele>
        <time>2022-04-14T12:42:50.000Z</time>
      </trkpt>
      <trkpt lat="36.5058" lon="-6.2691">
        <ele>13.522683</ele>
        <time>2022-04-14T12:42:54.000Z</time>
      </trkpt>
      <trkpt lat="36.50562" lon="-6.26912">
        <ele>13.532271</ele>
        <time>2022-04-14T12:43:00.000Z</time>
      </trkpt>
      <trkpt lat="36.50539" lon="-6.26917">
        <ele>13.545537</ele>
        <time>2022-04-14T12:43:06.000Z</time>
      </trkpt>
      <trkpt lat="36.50516" lon="-6.26926">
        <ele>13.49826</ele>
        <time>2022-04-14T12:43:11.000Z</time>
      </trkpt>
      <trkpt lat="36.505" lon="-6.26935">
        <ele>13.461016</ele>
        <time>2022-04-14T12:43:15.000Z</time>
      </trkpt>
      <trkpt lat="36.50473" lon="-6.26944">
        <ele>13.401361</ele>
        <time>2022-04-14T12:43:21.000Z</time>
      </trkpt>
      <trkpt lat="36.50459" lon="-6.26949">
        <ele>13.370483</ele>
        <time>2022-04-14T12:43:24.000Z</time>
      </trkpt>
      <trkpt lat="36.50443" lon="-6.26953">
        <ele>13.336312</ele>
        <time>2022-04-14T12:43:28.000Z</time>
      </trkpt>
      <trkpt lat="36.50436" lon="-6.26962">
        <ele>13.313474</ele>
        <time>2022-04-14T12:43:32.000Z</time>
      </trkpt>
      <trkpt lat="36.50432" lon="-6.26967">
        <ele>13.303237</ele>
        <time>2022-04-14T12:43:34.000Z</time>
      </trkpt>
      <trkpt lat="36.5043" lon="-6.26967">
        <ele>13.29745</ele>
        <time>2022-04-14T12:43:35.000Z</time>
      </trkpt>
      <trkpt lat="36.50413" lon="-6.26965">
        <ele>13.261691</ele>
        <time>2022-04-14T12:43:40.000Z</time>
      </trkpt>
      <trkpt lat="36.50402" lon="-6.2697">
        <ele>13.237249</ele>
        <time>2022-04-14T12:43:43.000Z</time>
      </trkpt>
      <trkpt lat="36.50391" lon="-6.26975">
        <ele>13.212182</ele>
        <time>2022-04-14T12:43:46.000Z</time>
      </trkpt>
      <trkpt lat="36.50365" lon="-6.26983">
        <ele>13.15801</ele>
        <time>2022-04-14T12:43:53.000Z</time>
      </trkpt>
      <trkpt lat="36.50352" lon="-6.26986">
        <ele>13.137801</ele>
        <time>2022-04-14T12:43:57.000Z</time>
      </trkpt>
      <trkpt lat="36.50349" lon="-6.26985">
        <ele>13.13342</ele>
        <time>2022-04-14T12:43:58.000Z</time>
      </trkpt>
      <trkpt lat="36.50344" lon="-6.26981">
        <ele>13.123267</ele>
        <time>2022-04-14T12:44:00.000Z</time>
      </trkpt>
      <trkpt lat="36.5033" lon="-6.26977">
        <ele>13.102226</ele>
        <time>2022-04-14T12:44:05.000Z</time>
      </trkpt>
      <trkpt lat="36.50329" lon="-6.26977">
        <ele>13.099425</ele>
        <time>2022-04-14T12:44:06.000Z</time>
      </trkpt>
      <trkpt lat="36.50326" lon="-6.26975">
        <ele>13.094482</ele>
        <time>2022-04-14T12:44:10.000Z</time>
      </trkpt>
      <trkpt lat="36.50326" lon="-6.26974">
        <ele>13.093478</ele>
        <time>2022-04-14T12:44:15.000Z</time>
      </trkpt>
      <trkpt lat="36.50326" lon="-6.26974">
        <ele>13.093478</ele>
        <time>2022-04-14T12:44:19.000Z</time>
      </trkpt>
      <trkpt lat="36.50326" lon="-6.26974">
        <ele>13.093478</ele>
        <time>2022-04-14T12:44:30.000Z</time>
      </trkpt>
      <trkpt lat="36.50326" lon="-6.26974">
        <ele>13.093478</ele>
        <time>2022-04-14T12:44:31.000Z</time>
      </trkpt>
      <trkpt lat="36.50326" lon="-6.26974">
        <ele>13.093478</ele>
        <time>2022-04-14T12:44:39.000Z</time>
      </trkpt>
      <trkpt lat="36.50326" lon="-6.26974">
        <ele>13.093478</ele>
        <time>2022-04-14T12:44:41.000Z</time>
      </trkpt>
      <trkpt lat="36.50323" lon="-6.26972">
        <ele>13.087781</ele>
        <time>2022-04-14T12:44:52.000Z</time>
      </trkpt>
      <trkpt lat="36.50319" lon="-6.26969">
        <ele>13.080822</ele>
        <time>2022-04-14T12:44:54.000Z</time>
      </trkpt>
      <trkpt lat="36.50304" lon="-6.26963">
        <ele>13.057188</ele>
        <time>2022-04-14T12:44:59.000Z</time>
      </trkpt>
      <trkpt lat="36.50285" lon="-6.26949">
        <ele>13.022813</ele>
        <time>2022-04-14T12:45:06.000Z</time>
      </trkpt>
      <trkpt lat="36.50258" lon="-6.26944">
        <ele>12.98112</ele>
        <time>2022-04-14T12:45:13.000Z</time>
      </trkpt>
      <trkpt lat="36.50239" lon="-6.26938">
        <ele>12.95116</ele>
        <time>2022-04-14T12:45:18.000Z</time>
      </trkpt>
      <trkpt lat="36.50232" lon="-6.26935">
        <ele>12.939572</ele>
        <time>2022-04-14T12:45:20.000Z</time>
      </trkpt>
      <trkpt lat="36.50225" lon="-6.26931">
        <ele>12.927696</ele>
        <time>2022-04-14T12:45:22.000Z</time>
      </trkpt>
      <trkpt lat="36.50196" lon="-6.2692">
        <ele>12.888786</ele>
        <time>2022-04-14T12:45:30.000Z</time>
      </trkpt>
      <trkpt lat="36.50171" lon="-6.26908">
        <ele>12.896425</ele>
        <time>2022-04-14T12:45:38.000Z</time>
      </trkpt>
      <trkpt lat="36.50166" lon="-6.26918">
        <ele>12.899088</ele>
        <time>2022-04-14T12:45:42.000Z</time>
      </trkpt>
      <trkpt lat="36.50163" lon="-6.26931">
        <ele>12.902152</ele>
        <time>2022-04-14T12:45:47.000Z</time>
      </trkpt>
      <trkpt lat="36.50163" lon="-6.26931">
        <ele>12.902281</ele>
        <time>2022-04-14T12:45:48.000Z</time>
      </trkpt>
      <trkpt lat="36.50162" lon="-6.26931">
        <ele>12.902466</ele>
        <time>2022-04-14T12:45:52.000Z</time>
      </trkpt>
      <trkpt lat="36.50162" lon="-6.26931">
        <ele>12.902466</ele>
        <time>2022-04-14T12:45:54.000Z</time>
      </trkpt>
      <trkpt lat="36.50158" lon="-6.2693">
        <ele>12.903564</ele>
        <time>2022-04-14T12:46:01.000Z</time>
      </trkpt>
      <trkpt lat="36.50156" lon="-6.2693">
        <ele>12.904147</ele>
        <time>2022-04-14T12:46:02.000Z</time>
      </trkpt>
      <trkpt lat="36.50149" lon="-6.26925">
        <ele>12.906575</ele>
        <time>2022-04-14T12:46:05.000Z</time>
      </trkpt>
      <trkpt lat="36.50148" lon="-6.26923">
        <ele>12.906963</ele>
        <time>2022-04-14T12:46:06.000Z</time>
      </trkpt>
      <trkpt lat="36.50152" lon="-6.26908">
        <ele>12.910625</ele>
        <time>2022-04-14T12:46:11.000Z</time>
      </trkpt>
      <trkpt lat="36.50145" lon="-6.26899">
        <ele>12.913617</ele>
        <time>2022-04-14T12:46:14.000Z</time>
      </trkpt>
      <trkpt lat="36.50123" lon="-6.26887">
        <ele>12.920392</ele>
        <time>2022-04-14T12:46:20.000Z</time>
      </trkpt>
      <trkpt lat="36.50098" lon="-6.26873">
        <ele>12.928398</ele>
        <time>2022-04-14T12:46:27.000Z</time>
      </trkpt>
      <trkpt lat="36.50073" lon="-6.26861">
        <ele>12.936183</ele>
        <time>2022-04-14T12:46:33.000Z</time>
      </trkpt>
      <trkpt lat="36.50065" lon="-6.26855">
        <ele>12.938825</ele>
        <time>2022-04-14T12:46:35.000Z</time>
      </trkpt>
      <trkpt lat="36.50061" lon="-6.26853">
        <ele>12.932252</ele>
        <time>2022-04-14T12:46:36.000Z</time>
      </trkpt>
      <trkpt lat="36.50036" lon="-6.26842">
        <ele>12.869187</ele>
        <time>2022-04-14T12:46:42.000Z</time>
      </trkpt>
      <trkpt lat="36.50016" lon="-6.26829">
        <ele>12.813984</ele>
        <time>2022-04-14T12:46:48.000Z</time>
      </trkpt>
      <trkpt lat="36.50005" lon="-6.2682">
        <ele>12.782347</ele>
        <time>2022-04-14T12:46:53.000Z</time>
      </trkpt>
      <trkpt lat="36.5001" lon="-6.26807">
        <ele>12.754548</ele>
        <time>2022-04-14T12:46:57.000Z</time>
      </trkpt>
      <trkpt lat="36.50015" lon="-6.26799">
        <ele>12.733892</ele>
        <time>2022-04-14T12:47:00.000Z</time>
      </trkpt>
      <trkpt lat="36.50018" lon="-6.26798">
        <ele>12.7274</ele>
        <time>2022-04-14T12:47:01.000Z</time>
      </trkpt>
      <trkpt lat="36.5002" lon="-6.26796">
        <ele>12.720124</ele>
        <time>2022-04-14T12:47:02.000Z</time>
      </trkpt>
      <trkpt lat="36.50023" lon="-6.26788">
        <ele>12.704843</ele>
        <time>2022-04-14T12:47:04.000Z</time>
      </trkpt>
      <trkpt lat="36.5003" lon="-6.2676">
        <ele>12.646263</ele>
        <time>2022-04-14T12:47:10.000Z</time>
      </trkpt>
      <trkpt lat="36.50041" lon="-6.26725">
        <ele>12.572957</ele>
        <time>2022-04-14T12:47:17.000Z</time>
      </trkpt>
      <trkpt lat="36.50052" lon="-6.26688">
        <ele>12.508786</ele>
        <time>2022-04-14T12:47:26.000Z</time>
      </trkpt>
      <trkpt lat="36.50065" lon="-6.26643">
        <ele>12.594905</ele>
        <time>2022-04-14T12:47:35.000Z</time>
      </trkpt>
      <trkpt lat="36.50069" lon="-6.26623">
        <ele>12.632527</ele>
        <time>2022-04-14T12:47:39.000Z</time>
      </trkpt>
      <trkpt lat="36.50068" lon="-6.2662">
        <ele>12.637615</ele>
        <time>2022-04-14T12:47:40.000Z</time>
      </trkpt>
      <trkpt lat="36.50066" lon="-6.26617">
        <ele>12.646031</ele>
        <time>2022-04-14T12:47:41.000Z</time>
      </trkpt>
      <trkpt lat="36.50056" lon="-6.26611">
        <ele>12.670655</ele>
        <time>2022-04-14T12:47:44.000Z</time>
      </trkpt>
      <trkpt lat="36.50024" lon="-6.26597">
        <ele>12.746211</ele>
        <time>2022-04-14T12:47:51.000Z</time>
      </trkpt>
      <trkpt lat="36.49987" lon="-6.26579">
        <ele>12.835528</ele>
        <time>2022-04-14T12:47:59.000Z</time>
      </trkpt>
      <trkpt lat="36.49982" lon="-6.26577">
        <ele>12.846098</ele>
        <time>2022-04-14T12:48:00.000Z</time>
      </trkpt>
      <trkpt lat="36.49931" lon="-6.26554">
        <ele>12.931118</ele>
        <time>2022-04-14T12:48:11.000Z</time>
      </trkpt>
      <trkpt lat="36.49886" lon="-6.26532">
        <ele>12.974841</ele>
        <time>2022-04-14T12:48:20.000Z</time>
      </trkpt>
      <trkpt lat="36.49881" lon="-6.2653">
        <ele>12.979513</ele>
        <time>2022-04-14T12:48:21.000Z</time>
      </trkpt>
      <trkpt lat="36.4984" lon="-6.26512">
        <ele>13.018809</ele>
        <time>2022-04-14T12:48:29.000Z</time>
      </trkpt>
      <trkpt lat="36.49802" lon="-6.26494">
        <ele>13.055387</ele>
        <time>2022-04-14T12:48:37.000Z</time>
      </trkpt>
      <trkpt lat="36.49797" lon="-6.26492">
        <ele>13.060799</ele>
        <time>2022-04-14T12:48:38.000Z</time>
      </trkpt>
      <trkpt lat="36.49788" lon="-6.26487">
        <ele>13.066846</ele>
        <time>2022-04-14T12:48:40.000Z</time>
      </trkpt>
      <trkpt lat="36.49766" lon="-6.26478">
        <ele>13.032991</ele>
        <time>2022-04-14T12:48:45.000Z</time>
      </trkpt>
      <trkpt lat="36.49749" lon="-6.26471">
        <ele>13.007032</ele>
        <time>2022-04-14T12:48:49.000Z</time>
      </trkpt>
      <trkpt lat="36.49741" lon="-6.26466">
        <ele>12.994432</ele>
        <time>2022-04-14T12:48:51.000Z</time>
      </trkpt>
      <trkpt lat="36.49706" lon="-6.26452">
        <ele>12.94153</ele>
        <time>2022-04-14T12:49:00.000Z</time>
      </trkpt>
      <trkpt lat="36.49678" lon="-6.26438">
        <ele>12.896977</ele>
        <time>2022-04-14T12:49:08.000Z</time>
      </trkpt>
      <trkpt lat="36.49653" lon="-6.26433">
        <ele>12.860436</ele>
        <time>2022-04-14T12:49:14.000Z</time>
      </trkpt>
      <trkpt lat="36.49649" lon="-6.26431">
        <ele>12.854707</ele>
        <time>2022-04-14T12:49:15.000Z</time>
      </trkpt>
      <trkpt lat="36.49637" lon="-6.26426">
        <ele>12.836292</ele>
        <time>2022-04-14T12:49:18.000Z</time>
      </trkpt>
      <trkpt lat="36.49622" lon="-6.26418">
        <ele>12.812207</ele>
        <time>2022-04-14T12:49:22.000Z</time>
      </trkpt>
      <trkpt lat="36.49617" lon="-6.26411">
        <ele>12.812996</ele>
        <time>2022-04-14T12:49:24.000Z</time>
      </trkpt>
      <trkpt lat="36.49616" lon="-6.26407">
        <ele>12.818407</ele>
        <time>2022-04-14T12:49:25.000Z</time>
      </trkpt>
      <trkpt lat="36.49618" lon="-6.26399">
        <ele>12.829552</ele>
        <time>2022-04-14T12:49:27.000Z</time>
      </trkpt>
      <trkpt lat="36.49634" lon="-6.2637">
        <ele>12.875947</ele>
        <time>2022-04-14T12:49:34.000Z</time>
      </trkpt>
      <trkpt lat="36.4965" lon="-6.26344">
        <ele>12.919757</ele>
        <time>2022-04-14T12:49:40.000Z</time>
      </trkpt>
      <trkpt lat="36.49652" lon="-6.26339">
        <ele>12.92763</ele>
        <time>2022-04-14T12:49:41.000Z</time>
      </trkpt>
      <trkpt lat="36.49673" lon="-6.26303">
        <ele>12.986139</ele>
        <time>2022-04-14T12:49:48.000Z</time>
      </trkpt>
      <trkpt lat="36.49683" lon="-6.26283">
        <ele>13.017796</ele>
        <time>2022-04-14T12:49:52.000Z</time>
      </trkpt>
      <trkpt lat="36.49682" lon="-6.26275">
        <ele>13.02837</ele>
        <time>2022-04-14T12:49:54.000Z</time>
      </trkpt>
      <trkpt lat="36.49671" lon="-6.26263">
        <ele>13.052567</ele>
        <time>2022-04-14T12:49:58.000Z</time>
      </trkpt>
      <trkpt lat="36.49669" lon="-6.26259">
        <ele>13.058922</ele>
        <time>2022-04-14T12:49:59.000Z</time>
      </trkpt>
      <trkpt lat="36.4967" lon="-6.26249">
        <ele>13.071419</ele>
        <time>2022-04-14T12:50:01.000Z</time>
      </trkpt>
      <trkpt lat="36.4968" lon="-6.26227">
        <ele>13.101775</ele>
        <time>2022-04-14T12:50:06.000Z</time>
      </trkpt>
      <trkpt lat="36.49688" lon="-6.26214">
        <ele>13.085519</ele>
        <time>2022-04-14T12:50:09.000Z</time>
      </trkpt>
      <trkpt lat="36.49698" lon="-6.26202">
        <ele>13.067891</ele>
        <time>2022-04-14T12:50:12.000Z</time>
      </trkpt>
      <trkpt lat="36.497" lon="-6.26197">
        <ele>13.062027</ele>
        <time>2022-04-14T12:50:13.000Z</time>
      </trkpt>
      <trkpt lat="36.49725" lon="-6.26155">
        <ele>13.009247</ele>
        <time>2022-04-14T12:50:22.000Z</time>
      </trkpt>
      <trkpt lat="36.49752" lon="-6.26105">
        <ele>12.94821</ele>
        <time>2022-04-14T12:50:31.000Z</time>
      </trkpt>
      <trkpt lat="36.49782" lon="-6.26053">
        <ele>12.883425</ele>
        <time>2022-04-14T12:50:40.000Z</time>
      </trkpt>
      <trkpt lat="36.49795" lon="-6.26034">
        <ele>12.909304</ele>
        <time>2022-04-14T12:50:44.000Z</time>
      </trkpt>
      <trkpt lat="36.49801" lon="-6.26026">
        <ele>12.929378</ele>
        <time>2022-04-14T12:50:46.000Z</time>
      </trkpt>
      <trkpt lat="36.49811" lon="-6.2601">
        <ele>12.966568</ele>
        <time>2022-04-14T12:50:50.000Z</time>
      </trkpt>
      <trkpt lat="36.49811" lon="-6.26005">
        <ele>12.974723</ele>
        <time>2022-04-14T12:50:51.000Z</time>
      </trkpt>
      <trkpt lat="36.49813" lon="-6.26001">
        <ele>12.983733</ele>
        <time>2022-04-14T12:50:52.000Z</time>
      </trkpt>
      <trkpt lat="36.49821" lon="-6.25983">
        <ele>13.021247</ele>
        <time>2022-04-14T12:50:56.000Z</time>
      </trkpt>
      <trkpt lat="36.49827" lon="-6.25974">
        <ele>13.041613</ele>
        <time>2022-04-14T12:50:58.000Z</time>
      </trkpt>
      <trkpt lat="36.49833" lon="-6.25967">
        <ele>13.061737</ele>
        <time>2022-04-14T12:51:00.000Z</time>
      </trkpt>
      <trkpt lat="36.49838" lon="-6.25965">
        <ele>13.072209</ele>
        <time>2022-04-14T12:51:01.000Z</time>
      </trkpt>
      <trkpt lat="36.49842" lon="-6.25965">
        <ele>13.082495</ele>
        <time>2022-04-14T12:51:02.000Z</time>
      </trkpt>
      <trkpt lat="36.49854" lon="-6.25965">
        <ele>13.110246</ele>
        <time>2022-04-14T12:51:05.000Z</time>
      </trkpt>
      <trkpt lat="36.49865" lon="-6.25964">
        <ele>13.135586</ele>
        <time>2022-04-14T12:51:08.000Z</time>
      </trkpt>
      <trkpt lat="36.49868" lon="-6.2596">
        <ele>13.145842</ele>
        <time>2022-04-14T12:51:10.000Z</time>
      </trkpt>
      <trkpt lat="36.49876" lon="-6.25945">
        <ele>13.178858</ele>
        <time>2022-04-14T12:51:15.000Z</time>
      </trkpt>
      <trkpt lat="36.49879" lon="-6.25942">
        <ele>13.186382</ele>
        <time>2022-04-14T12:51:16.000Z</time>
      </trkpt>
      <trkpt lat="36.49883" lon="-6.25927">
        <ele>13.215334</ele>
        <time>2022-04-14T12:51:20.000Z</time>
      </trkpt>
      <trkpt lat="36.49887" lon="-6.25893">
        <ele>13.277428</ele>
        <time>2022-04-14T12:51:27.000Z</time>
      </trkpt>
      <trkpt lat="36.49894" lon="-6.25867">
        <ele>13.39252</ele>
        <time>2022-04-14T12:51:32.000Z</time>
      </trkpt>
      <trkpt lat="36.49897" lon="-6.25856">
        <ele>13.443716</ele>
        <time>2022-04-14T12:51:34.000Z</time>
      </trkpt>
      <trkpt lat="36.49913" lon="-6.25819">
        <ele>13.630839</ele>
        <time>2022-04-14T12:51:41.000Z</time>
      </trkpt>
      <trkpt lat="36.49923" lon="-6.25802">
        <ele>13.726653</ele>
        <time>2022-04-14T12:51:44.000Z</time>
      </trkpt>
      <trkpt lat="36.4993" lon="-6.2579">
        <ele>13.792451</ele>
        <time>2022-04-14T12:51:46.000Z</time>
      </trkpt>
      <trkpt lat="36.49938" lon="-6.25778">
        <ele>13.860956</ele>
        <time>2022-04-14T12:51:48.000Z</time>
      </trkpt>
      <trkpt lat="36.49961" lon="-6.25736">
        <ele>14.090591</ele>
        <time>2022-04-14T12:51:55.000Z</time>
      </trkpt>
      <trkpt lat="36.4997" lon="-6.25719">
        <ele>14.182382</ele>
        <time>2022-04-14T12:51:58.000Z</time>
      </trkpt>
      <trkpt lat="36.49985" lon="-6.2569">
        <ele>14.254393</ele>
        <time>2022-04-14T12:52:04.000Z</time>
      </trkpt>
      <trkpt lat="36.50004" lon="-6.25656">
        <ele>14.125967</ele>
        <time>2022-04-14T12:52:11.000Z</time>
      </trkpt>
      <trkpt lat="36.50007" lon="-6.25651">
        <ele>14.106998</ele>
        <time>2022-04-14T12:52:12.000Z</time>
      </trkpt>
      <trkpt lat="36.50018" lon="-6.2563">
        <ele>14.028074</ele>
        <time>2022-04-14T12:52:16.000Z</time>
      </trkpt>
      <trkpt lat="36.50036" lon="-6.25599">
        <ele>13.909809</ele>
        <time>2022-04-14T12:52:22.000Z</time>
      </trkpt>
      <trkpt lat="36.50047" lon="-6.25579">
        <ele>13.832824</ele>
        <time>2022-04-14T12:52:26.000Z</time>
      </trkpt>
      <trkpt lat="36.50056" lon="-6.25565">
        <ele>13.779421</ele>
        <time>2022-04-14T12:52:29.000Z</time>
      </trkpt>
      <trkpt lat="36.50061" lon="-6.25556">
        <ele>13.744665</ele>
        <time>2022-04-14T12:52:31.000Z</time>
      </trkpt>
      <trkpt lat="36.50064" lon="-6.25548">
        <ele>13.71657</ele>
        <time>2022-04-14T12:52:33.000Z</time>
      </trkpt>
      <trkpt lat="36.50064" lon="-6.25544">
        <ele>13.704405</ele>
        <time>2022-04-14T12:52:34.000Z</time>
      </trkpt>
      <trkpt lat="36.50066" lon="-6.25524">
        <ele>13.641567</ele>
        <time>2022-04-14T12:52:39.000Z</time>
      </trkpt>
      <trkpt lat="36.50067" lon="-6.2552">
        <ele>13.629846</ele>
        <time>2022-04-14T12:52:40.000Z</time>
      </trkpt>
      <trkpt lat="36.50073" lon="-6.25501">
        <ele>13.600132</ele>
        <time>2022-04-14T12:52:46.000Z</time>
      </trkpt>
      <trkpt lat="36.50075" lon="-6.25485">
        <ele>13.616293</ele>
        <time>2022-04-14T12:52:51.000Z</time>
      </trkpt>
      <trkpt lat="36.50084" lon="-6.25479">
        <ele>13.628369</ele>
        <time>2022-04-14T12:52:55.000Z</time>
      </trkpt>
      <trkpt lat="36.50092" lon="-6.25482">
        <ele>13.638956</ele>
        <time>2022-04-14T12:53:00.000Z</time>
      </trkpt>
      <trkpt lat="36.50092" lon="-6.25482">
        <ele>13.639457</ele>
        <time>2022-04-14T12:53:01.000Z</time>
      </trkpt>
      <trkpt lat="36.50092" lon="-6.25482">
        <ele>13.639457</ele>
        <time>2022-04-14T12:53:04.000Z</time>
      </trkpt>
      <trkpt lat="36.50092" lon="-6.25482">
        <ele>13.639457</ele>
        <time>2022-04-14T12:53:09.000Z</time>
      </trkpt>
      <trkpt lat="36.50092" lon="-6.25482">
        <ele>13.639457</ele>
        <time>2022-04-14T12:53:16.000Z</time>
      </trkpt>
      <trkpt lat="36.50092" lon="-6.25482">
        <ele>13.639457</ele>
        <time>2022-04-14T12:53:27.000Z</time>
      </trkpt>
      <trkpt lat="36.50092" lon="-6.25482">
        <ele>13.639457</ele>
        <time>2022-04-14T12:53:38.000Z</time>
      </trkpt>
      <trkpt lat="36.50092" lon="-6.25482">
        <ele>13.639457</ele>
        <time>2022-04-14T12:53:40.000Z</time>
      </trkpt>
      <trkpt lat="36.50092" lon="-6.25482">
        <ele>13.639457</ele>
        <time>2022-04-14T12:54:02.000Z</time>
      </trkpt>
      <trkpt lat="36.50093" lon="-6.25483">
        <ele>13.639922</ele>
        <time>2022-04-14T12:54:24.000Z</time>
      </trkpt>
      <trkpt lat="36.50093" lon="-6.25489">
        <ele>13.646143</ele>
        <time>2022-04-14T12:54:26.000Z</time>
      </trkpt>
      <trkpt lat="36.50084" lon="-6.25504">
        <ele>13.663787</ele>
        <time>2022-04-14T12:54:31.000Z</time>
      </trkpt>
      <trkpt lat="36.50079" lon="-6.25507">
        <ele>13.67094</ele>
        <time>2022-04-14T12:54:33.000Z</time>
      </trkpt>
      <trkpt lat="36.50076" lon="-6.25509">
        <ele>13.674747</ele>
        <time>2022-04-14T12:54:34.000Z</time>
      </trkpt>
      <trkpt lat="36.50072" lon="-6.25514">
        <ele>13.681585</ele>
        <time>2022-04-14T12:54:36.000Z</time>
      </trkpt>
      <trkpt lat="36.50069" lon="-6.25521">
        <ele>13.689793</ele>
        <time>2022-04-14T12:54:39.000Z</time>
      </trkpt>
      <trkpt lat="36.50069" lon="-6.25524">
        <ele>13.692795</ele>
        <time>2022-04-14T12:54:40.000Z</time>
      </trkpt>
      <trkpt lat="36.50068" lon="-6.25534">
        <ele>13.70299</ele>
        <time>2022-04-14T12:54:43.000Z</time>
      </trkpt>
      <trkpt lat="36.50063" lon="-6.25543">
        <ele>13.714104</ele>
        <time>2022-04-14T12:54:46.000Z</time>
      </trkpt>
      <trkpt lat="36.50061" lon="-6.25547">
        <ele>13.71849</ele>
        <time>2022-04-14T12:54:47.000Z</time>
      </trkpt>
      <trkpt lat="36.50047" lon="-6.25571">
        <ele>13.748094</ele>
        <time>2022-04-14T12:54:53.000Z</time>
      </trkpt>
      <trkpt lat="36.50028" lon="-6.25603">
        <ele>13.787514</ele>
        <time>2022-04-14T12:55:00.000Z</time>
      </trkpt>
      <trkpt lat="36.50024" lon="-6.25609">
        <ele>13.794214</ele>
        <time>2022-04-14T12:55:01.000Z</time>
      </trkpt>
      <trkpt lat="36.50007" lon="-6.25643">
        <ele>13.751429</ele>
        <time>2022-04-14T12:55:08.000Z</time>
      </trkpt>
      <trkpt lat="36.4999" lon="-6.25676">
        <ele>13.643894</ele>
        <time>2022-04-14T12:55:16.000Z</time>
      </trkpt>
      <trkpt lat="36.49983" lon="-6.2569">
        <ele>13.598247</ele>
        <time>2022-04-14T12:55:19.000Z</time>
      </trkpt>
      <trkpt lat="36.49978" lon="-6.257">
        <ele>13.568486</ele>
        <time>2022-04-14T12:55:21.000Z</time>
      </trkpt>
      <trkpt lat="36.4997" lon="-6.25715">
        <ele>13.516466</ele>
        <time>2022-04-14T12:55:25.000Z</time>
      </trkpt>
      <trkpt lat="36.49949" lon="-6.25752">
        <ele>13.393232</ele>
        <time>2022-04-14T12:55:34.000Z</time>
      </trkpt>
      <trkpt lat="36.49947" lon="-6.25756">
        <ele>13.3786</ele>
        <time>2022-04-14T12:55:35.000Z</time>
      </trkpt>
      <trkpt lat="36.49944" lon="-6.25761">
        <ele>13.363548</ele>
        <time>2022-04-14T12:55:36.000Z</time>
      </trkpt>
      <trkpt lat="36.49923" lon="-6.25796">
        <ele>13.241871</ele>
        <time>2022-04-14T12:55:44.000Z</time>
      </trkpt>
      <trkpt lat="36.49921" lon="-6.25801">
        <ele>13.225539</ele>
        <time>2022-04-14T12:55:45.000Z</time>
      </trkpt>
      <trkpt lat="36.49902" lon="-6.25836">
        <ele>13.072317</ele>
        <time>2022-04-14T12:55:53.000Z</time>
      </trkpt>
      <trkpt lat="36.49892" lon="-6.2586">
        <ele>12.960608</ele>
        <time>2022-04-14T12:55:59.000Z</time>
      </trkpt>
      <trkpt lat="36.49882" lon="-6.25894">
        <ele>12.814519</ele>
        <time>2022-04-14T12:56:06.000Z</time>
      </trkpt>
      <trkpt lat="36.49877" lon="-6.25939">
        <ele>12.627461</ele>
        <time>2022-04-14T12:56:15.000Z</time>
      </trkpt>
      <trkpt lat="36.49869" lon="-6.25952">
        <ele>12.562567</ele>
        <time>2022-04-14T12:56:19.000Z</time>
      </trkpt>
      <trkpt lat="36.49863" lon="-6.25963">
        <ele>12.508335</ele>
        <time>2022-04-14T12:56:23.000Z</time>
      </trkpt>
      <trkpt lat="36.49862" lon="-6.25965">
        <ele>12.495005</ele>
        <time>2022-04-14T12:56:24.000Z</time>
      </trkpt>
      <trkpt lat="36.49859" lon="-6.25968">
        <ele>12.478472</ele>
        <time>2022-04-14T12:56:25.000Z</time>
      </trkpt>
      <trkpt lat="36.49852" lon="-6.25969">
        <ele>12.444418</ele>
        <time>2022-04-14T12:56:27.000Z</time>
      </trkpt>
      <trkpt lat="36.49849" lon="-6.25969">
        <ele>12.426225</ele>
        <time>2022-04-14T12:56:28.000Z</time>
      </trkpt>
      <trkpt lat="36.49831" lon="-6.2597">
        <ele>12.335223</ele>
        <time>2022-04-14T12:56:33.000Z</time>
      </trkpt>
      <trkpt lat="36.49827" lon="-6.25973">
        <ele>12.315488</ele>
        <time>2022-04-14T12:56:34.000Z</time>
      </trkpt>
      <trkpt lat="36.49822" lon="-6.2598">
        <ele>12.292913</ele>
        <time>2022-04-14T12:56:36.000Z</time>
      </trkpt>
      <trkpt lat="36.49817" lon="-6.2599">
        <ele>12.307538</ele>
        <time>2022-04-14T12:56:38.000Z</time>
      </trkpt>
      <trkpt lat="36.49814" lon="-6.25994">
        <ele>12.314692</ele>
        <time>2022-04-14T12:56:39.000Z</time>
      </trkpt>
      <trkpt lat="36.49807" lon="-6.26006">
        <ele>12.333932</ele>
        <time>2022-04-14T12:56:42.000Z</time>
      </trkpt>
      <trkpt lat="36.49805" lon="-6.26015">
        <ele>12.346129</ele>
        <time>2022-04-14T12:56:44.000Z</time>
      </trkpt>
      <trkpt lat="36.49804" lon="-6.2602">
        <ele>12.35251</ele>
        <time>2022-04-14T12:56:45.000Z</time>
      </trkpt>
      <trkpt lat="36.49801" lon="-6.26024">
        <ele>12.359475</ele>
        <time>2022-04-14T12:56:46.000Z</time>
      </trkpt>
      <trkpt lat="36.49795" lon="-6.26031">
        <ele>12.373713</ele>
        <time>2022-04-14T12:56:48.000Z</time>
      </trkpt>
      <trkpt lat="36.49789" lon="-6.26038">
        <ele>12.386926</ele>
        <time>2022-04-14T12:56:50.000Z</time>
      </trkpt>
      <trkpt lat="36.49786" lon="-6.26042">
        <ele>12.393471</ele>
        <time>2022-04-14T12:56:51.000Z</time>
      </trkpt>
      <trkpt lat="36.4977" lon="-6.26068">
        <ele>12.43648</ele>
        <time>2022-04-14T12:56:57.000Z</time>
      </trkpt>
      <trkpt lat="36.49753" lon="-6.26098">
        <ele>12.484804</ele>
        <time>2022-04-14T12:57:04.000Z</time>
      </trkpt>
      <trkpt lat="36.49737" lon="-6.26127">
        <ele>12.531049</ele>
        <time>2022-04-14T12:57:11.000Z</time>
      </trkpt>
      <trkpt lat="36.4973" lon="-6.26139">
        <ele>12.55026</ele>
        <time>2022-04-14T12:57:14.000Z</time>
      </trkpt>
      <trkpt lat="36.49709" lon="-6.26174">
        <ele>12.617392</ele>
        <time>2022-04-14T12:57:23.000Z</time>
      </trkpt>
      <trkpt lat="36.49694" lon="-6.26202">
        <ele>12.681799</ele>
        <time>2022-04-14T12:57:31.000Z</time>
      </trkpt>
      <trkpt lat="36.49676" lon="-6.26229">
        <ele>12.744881</ele>
        <time>2022-04-14T12:57:38.000Z</time>
      </trkpt>
      <trkpt lat="36.49665" lon="-6.26257">
        <ele>12.803582</ele>
        <time>2022-04-14T12:57:45.000Z</time>
      </trkpt>
      <trkpt lat="36.49666" lon="-6.26265">
        <ele>12.818295</ele>
        <time>2022-04-14T12:57:47.000Z</time>
      </trkpt>
      <trkpt lat="36.49668" lon="-6.26269">
        <ele>12.826506</ele>
        <time>2022-04-14T12:57:48.000Z</time>
      </trkpt>
      <trkpt lat="36.49679" lon="-6.26281">
        <ele>12.861266</ele>
        <time>2022-04-14T12:57:52.000Z</time>
      </trkpt>
      <trkpt lat="36.4968" lon="-6.26286">
        <ele>12.870014</ele>
        <time>2022-04-14T12:57:53.000Z</time>
      </trkpt>
      <trkpt lat="36.4968" lon="-6.2629">
        <ele>12.878443</ele>
        <time>2022-04-14T12:57:54.000Z</time>
      </trkpt>
      <trkpt lat="36.49673" lon="-6.26303">
        <ele>12.907168</ele>
        <time>2022-04-14T12:57:57.000Z</time>
      </trkpt>
      <trkpt lat="36.49655" lon="-6.26332">
        <ele>12.973292</ele>
        <time>2022-04-14T12:58:04.000Z</time>
      </trkpt>
      <trkpt lat="36.49653" lon="-6.26336">
        <ele>12.982509</ele>
        <time>2022-04-14T12:58:05.000Z</time>
      </trkpt>
      <trkpt lat="36.49635" lon="-6.26366">
        <ele>12.905791</ele>
        <time>2022-04-14T12:58:13.000Z</time>
      </trkpt>
      <trkpt lat="36.49624" lon="-6.26386">
        <ele>12.83691</ele>
        <time>2022-04-14T12:58:18.000Z</time>
      </trkpt>
      <trkpt lat="36.49618" lon="-6.26396">
        <ele>12.801447</ele>
        <time>2022-04-14T12:58:21.000Z</time>
      </trkpt>
      <trkpt lat="36.49613" lon="-6.26414">
        <ele>12.747715</ele>
        <time>2022-04-14T12:58:27.000Z</time>
      </trkpt>
      <trkpt lat="36.4961" lon="-6.26418">
        <ele>12.732315</ele>
        <time>2022-04-14T12:58:29.000Z</time>
      </trkpt>
      <trkpt lat="36.49605" lon="-6.26417">
        <ele>12.714348</ele>
        <time>2022-04-14T12:58:31.000Z</time>
      </trkpt>
      <trkpt lat="36.49602" lon="-6.26415">
        <ele>12.70285</ele>
        <time>2022-04-14T12:58:32.000Z</time>
      </trkpt>
      <trkpt lat="36.49588" lon="-6.26409">
        <ele>12.650933</ele>
        <time>2022-04-14T12:58:36.000Z</time>
      </trkpt>
      <trkpt lat="36.49574" lon="-6.26409">
        <ele>12.600775</ele>
        <time>2022-04-14T12:58:40.000Z</time>
      </trkpt>
      <trkpt lat="36.49572" lon="-6.26412">
        <ele>12.589129</ele>
        <time>2022-04-14T12:58:41.000Z</time>
      </trkpt>
      <trkpt lat="36.49561" lon="-6.26436">
        <ele>12.50979</ele>
        <time>2022-04-14T12:58:47.000Z</time>
      </trkpt>
      <trkpt lat="36.49553" lon="-6.26455">
        <ele>12.44881</ele>
        <time>2022-04-14T12:58:51.000Z</time>
      </trkpt>
      <trkpt lat="36.49551" lon="-6.2646">
        <ele>12.433859</ele>
        <time>2022-04-14T12:58:52.000Z</time>
      </trkpt>
      <trkpt lat="36.49548" lon="-6.26464">
        <ele>12.417974</ele>
        <time>2022-04-14T12:58:53.000Z</time>
      </trkpt>
      <trkpt lat="36.49543" lon="-6.26472">
        <ele>12.385887</ele>
        <time>2022-04-14T12:58:55.000Z</time>
      </trkpt>
      <trkpt lat="36.49539" lon="-6.26483">
        <ele>12.355498</ele>
        <time>2022-04-14T12:58:57.000Z</time>
      </trkpt>
      <trkpt lat="36.4953" lon="-6.2651">
        <ele>12.397261</ele>
        <time>2022-04-14T12:59:03.000Z</time>
      </trkpt>
      <trkpt lat="36.49527" lon="-6.26537">
        <ele>12.435104</ele>
        <time>2022-04-14T12:59:08.000Z</time>
      </trkpt>
      <trkpt lat="36.49521" lon="-6.26577">
        <ele>12.491574</ele>
        <time>2022-04-14T12:59:17.000Z</time>
      </trkpt>
      <trkpt lat="36.49522" lon="-6.2658">
        <ele>12.495927</ele>
        <time>2022-04-14T12:59:18.000Z</time>
      </trkpt>
      <trkpt lat="36.49524" lon="-6.26587">
        <ele>12.506338</ele>
        <time>2022-04-14T12:59:21.000Z</time>
      </trkpt>
      <trkpt lat="36.49522" lon="-6.266">
        <ele>12.524169</ele>
        <time>2022-04-14T12:59:25.000Z</time>
      </trkpt>
      <trkpt lat="36.4952" lon="-6.26603">
        <ele>12.528974</ele>
        <time>2022-04-14T12:59:26.000Z</time>
      </trkpt>
      <trkpt lat="36.49517" lon="-6.26612">
        <ele>12.543519</ele>
        <time>2022-04-14T12:59:29.000Z</time>
      </trkpt>
      <trkpt lat="36.49518" lon="-6.26616">
        <ele>12.54884</ele>
        <time>2022-04-14T12:59:30.000Z</time>
      </trkpt>
      <trkpt lat="36.49517" lon="-6.2663">
        <ele>12.567516</ele>
        <time>2022-04-14T12:59:33.000Z</time>
      </trkpt>
      <trkpt lat="36.49518" lon="-6.26655">
        <ele>12.603482</ele>
        <time>2022-04-14T12:59:39.000Z</time>
      </trkpt>
      <trkpt lat="36.49517" lon="-6.26659">
        <ele>12.608981</ele>
        <time>2022-04-14T12:59:40.000Z</time>
      </trkpt>
      <trkpt lat="36.49511" lon="-6.26661">
        <ele>12.619368</ele>
        <time>2022-04-14T12:59:42.000Z</time>
      </trkpt>
      <trkpt lat="36.49509" lon="-6.26662">
        <ele>12.623547</ele>
        <time>2022-04-14T12:59:43.000Z</time>
      </trkpt>
      <trkpt lat="36.49507" lon="-6.26668">
        <ele>12.632471</ele>
        <time>2022-04-14T12:59:45.000Z</time>
      </trkpt>
      <trkpt lat="36.49507" lon="-6.26694">
        <ele>12.666048</ele>
        <time>2022-04-14T12:59:51.000Z</time>
      </trkpt>
      <trkpt lat="36.49509" lon="-6.26708">
        <ele>12.655552</ele>
        <time>2022-04-14T12:59:54.000Z</time>
      </trkpt>
      <trkpt lat="36.49511" lon="-6.26728">
        <ele>12.640723</ele>
        <time>2022-04-14T12:59:58.000Z</time>
      </trkpt>
      <trkpt lat="36.49517" lon="-6.2677">
        <ele>12.608962</ele>
        <time>2022-04-14T13:00:07.000Z</time>
      </trkpt>
      <trkpt lat="36.49517" lon="-6.26797">
        <ele>12.589158</ele>
        <time>2022-04-14T13:00:13.000Z</time>
      </trkpt>
      <trkpt lat="36.49514" lon="-6.26812">
        <ele>12.577708</ele>
        <time>2022-04-14T13:00:17.000Z</time>
      </trkpt>
      <trkpt lat="36.49507" lon="-6.26811">
        <ele>12.57092</ele>
        <time>2022-04-14T13:00:20.000Z</time>
      </trkpt>
      <trkpt lat="36.4948" lon="-6.26794">
        <ele>12.542993</ele>
        <time>2022-04-14T13:00:30.000Z</time>
      </trkpt>
      <trkpt lat="36.49466" lon="-6.26782">
        <ele>12.527421</ele>
        <time>2022-04-14T13:00:35.000Z</time>
      </trkpt>
      <trkpt lat="36.49461" lon="-6.26757">
        <ele>12.50879</ele>
        <time>2022-04-14T13:00:41.000Z</time>
      </trkpt>
      <trkpt lat="36.49459" lon="-6.26748">
        <ele>12.502103</ele>
        <time>2022-04-14T13:00:44.000Z</time>
      </trkpt>
      <trkpt lat="36.49458" lon="-6.26747">
        <ele>12.497753</ele>
        <time>2022-04-14T13:00:45.000Z</time>
      </trkpt>
      <trkpt lat="36.49458" lon="-6.26747">
        <ele>12.494705</ele>
        <time>2022-04-14T13:00:50.000Z</time>
      </trkpt>
      <trkpt lat="36.49458" lon="-6.26747">
        <ele>12.494705</ele>
        <time>2022-04-14T13:00:57.000Z</time>
      </trkpt>
      <trkpt lat="36.49458" lon="-6.26747">
        <ele>12.494705</ele>
        <time>2022-04-14T13:01:24.000Z</time>
      </trkpt>
      <trkpt lat="36.49458" lon="-6.26747">
        <ele>12.494705</ele>
        <time>2022-04-14T13:01:43.000Z</time>
      </trkpt>
      <trkpt lat="36.49458" lon="-6.26747">
        <ele>12.494705</ele>
        <time>2022-04-14T13:01:48.000Z</time>
      </trkpt>
      <trkpt lat="36.49458" lon="-6.26747">
        <ele>12.493272</ele>
        <time>2022-04-14T13:01:52.000Z</time>
      </trkpt>
      <trkpt lat="36.4946" lon="-6.26755">
        <ele>12.456969</ele>
        <time>2022-04-14T13:01:55.000Z</time>
      </trkpt>
      <trkpt lat="36.49461" lon="-6.26758">
        <ele>12.440984</ele>
        <time>2022-04-14T13:01:56.000Z</time>
      </trkpt>
      <trkpt lat="36.49467" lon="-6.26777">
        <ele>12.354122</ele>
        <time>2022-04-14T13:02:01.000Z</time>
      </trkpt>
      <trkpt lat="36.49478" lon="-6.26791">
        <ele>12.264996</ele>
        <time>2022-04-14T13:02:06.000Z</time>
      </trkpt>
      <trkpt lat="36.49492" lon="-6.26803">
        <ele>12.17149</ele>
        <time>2022-04-14T13:02:12.000Z</time>
      </trkpt>
      <trkpt lat="36.49492" lon="-6.26805">
        <ele>12.163377</ele>
        <time>2022-04-14T13:02:13.000Z</time>
      </trkpt>
      <trkpt lat="36.49521" lon="-6.26808">
        <ele>12.005226</ele>
        <time>2022-04-14T13:02:21.000Z</time>
      </trkpt>
      <trkpt lat="36.4952" lon="-6.26805">
        <ele>11.992137</ele>
        <time>2022-04-14T13:02:22.000Z</time>
      </trkpt>
      <trkpt lat="36.49519" lon="-6.26791">
        <ele>11.930056</ele>
        <time>2022-04-14T13:02:26.000Z</time>
      </trkpt>
      <trkpt lat="36.49519" lon="-6.2678">
        <ele>11.879717</ele>
        <time>2022-04-14T13:02:30.000Z</time>
      </trkpt>
      <trkpt lat="36.49521" lon="-6.26778">
        <ele>11.867667</ele>
        <time>2022-04-14T13:02:31.000Z</time>
      </trkpt>
      <trkpt lat="36.49525" lon="-6.26776">
        <ele>11.841136</ele>
        <time>2022-04-14T13:02:33.000Z</time>
      </trkpt>
      <trkpt lat="36.49528" lon="-6.26778">
        <ele>11.826448</ele>
        <time>2022-04-14T13:02:34.000Z</time>
      </trkpt>
      <trkpt lat="36.49529" lon="-6.26781">
        <ele>11.809589</ele>
        <time>2022-04-14T13:02:35.000Z</time>
      </trkpt>
      <trkpt lat="36.49533" lon="-6.26794">
        <ele>11.748166</ele>
        <time>2022-04-14T13:02:38.000Z</time>
      </trkpt>
      <trkpt lat="36.49534" lon="-6.2681">
        <ele>11.675876</ele>
        <time>2022-04-14T13:02:42.000Z</time>
      </trkpt>
      <trkpt lat="36.49538" lon="-6.26824">
        <ele>11.611735</ele>
        <time>2022-04-14T13:02:46.000Z</time>
      </trkpt>
      <trkpt lat="36.49543" lon="-6.26833">
        <ele>11.563397</ele>
        <time>2022-04-14T13:02:50.000Z</time>
      </trkpt>
      <trkpt lat="36.49544" lon="-6.26834">
        <ele>11.55645</ele>
        <time>2022-04-14T13:02:51.000Z</time>
      </trkpt>
      <trkpt lat="36.4955" lon="-6.26839">
        <ele>11.515793</ele>
        <time>2022-04-14T13:02:55.000Z</time>
      </trkpt>
      <trkpt lat="36.49561" lon="-6.26847">
        <ele>11.496711</ele>
        <time>2022-04-14T13:03:01.000Z</time>
      </trkpt>
      <trkpt lat="36.49563" lon="-6.26848">
        <ele>11.49385</ele>
        <time>2022-04-14T13:03:02.000Z</time>
      </trkpt>
      <trkpt lat="36.49565" lon="-6.26848">
        <ele>11.490865</ele>
        <time>2022-04-14T13:03:04.000Z</time>
      </trkpt>
      <trkpt lat="36.49565" lon="-6.26848">
        <ele>11.490865</ele>
        <time>2022-04-14T13:03:06.000Z</time>
      </trkpt>
      <trkpt lat="36.49565" lon="-6.26848">
        <ele>11.490865</ele>
        <time>2022-04-14T13:03:17.000Z</time>
      </trkpt>
      <trkpt lat="36.49565" lon="-6.26848">
        <ele>11.490865</ele>
        <time>2022-04-14T13:03:26.000Z</time>
      </trkpt>
      <trkpt lat="36.49565" lon="-6.26848">
        <ele>11.490865</ele>
        <time>2022-04-14T13:03:29.000Z</time>
      </trkpt>
      <trkpt lat="36.49565" lon="-6.26848">
        <ele>11.490865</ele>
        <time>2022-04-14T13:03:32.000Z</time>
      </trkpt>
      <trkpt lat="36.49565" lon="-6.26848">
        <ele>11.490637</ele>
        <time>2022-04-14T13:03:50.000Z</time>
      </trkpt>
      <trkpt lat="36.49569" lon="-6.26851">
        <ele>11.483938</ele>
        <time>2022-04-14T13:03:59.000Z</time>
      </trkpt>
      <trkpt lat="36.49578" lon="-6.26853">
        <ele>11.471532</ele>
        <time>2022-04-14T13:04:04.000Z</time>
      </trkpt>
      <trkpt lat="36.49579" lon="-6.26853">
        <ele>11.469389</ele>
        <time>2022-04-14T13:04:05.000Z</time>
      </trkpt>
      <trkpt lat="36.49583" lon="-6.26854">
        <ele>11.464369</ele>
        <time>2022-04-14T13:04:07.000Z</time>
      </trkpt>
      <trkpt lat="36.49585" lon="-6.26859">
        <ele>11.458362</ele>
        <time>2022-04-14T13:04:11.000Z</time>
      </trkpt>
      <trkpt lat="36.49589" lon="-6.2686">
        <ele>11.452009</ele>
        <time>2022-04-14T13:04:17.000Z</time>
      </trkpt>
      <trkpt lat="36.49601" lon="-6.26865">
        <ele>11.434284</ele>
        <time>2022-04-14T13:04:22.000Z</time>
      </trkpt>
      <trkpt lat="36.49607" lon="-6.26867">
        <ele>11.425753</ele>
        <time>2022-04-14T13:04:25.000Z</time>
      </trkpt>
      <trkpt lat="36.49611" lon="-6.26866">
        <ele>11.419784</ele>
        <time>2022-04-14T13:04:27.000Z</time>
      </trkpt>
      <trkpt lat="36.49626" lon="-6.26879">
        <ele>11.394012</ele>
        <time>2022-04-14T13:04:33.000Z</time>
      </trkpt>
      <trkpt lat="36.49638" lon="-6.26886">
        <ele>11.374752</ele>
        <time>2022-04-14T13:04:37.000Z</time>
      </trkpt>
      <trkpt lat="36.49645" lon="-6.26889">
        <ele>11.364599</ele>
        <time>2022-04-14T13:04:39.000Z</time>
      </trkpt>
      <trkpt lat="36.49647" lon="-6.26891">
        <ele>11.360921</ele>
        <time>2022-04-14T13:04:40.000Z</time>
      </trkpt>
      <trkpt lat="36.49651" lon="-6.26893">
        <ele>11.355402</ele>
        <time>2022-04-14T13:04:44.000Z</time>
      </trkpt>
      <trkpt lat="36.49653" lon="-6.26894">
        <ele>11.351595</ele>
        <time>2022-04-14T13:04:46.000Z</time>
      </trkpt>
      <trkpt lat="36.49655" lon="-6.26895">
        <ele>11.348645</ele>
        <time>2022-04-14T13:04:47.000Z</time>
      </trkpt>
      <trkpt lat="36.49661" lon="-6.26896">
        <ele>11.340553</ele>
        <time>2022-04-14T13:04:49.000Z</time>
      </trkpt>
      <trkpt lat="36.49681" lon="-6.26907">
        <ele>11.309188</ele>
        <time>2022-04-14T13:04:56.000Z</time>
      </trkpt>
      <trkpt lat="36.49699" lon="-6.26917">
        <ele>11.280798</ele>
        <time>2022-04-14T13:05:04.000Z</time>
      </trkpt>
      <trkpt lat="36.49704" lon="-6.26921">
        <ele>11.27229</ele>
        <time>2022-04-14T13:05:07.000Z</time>
      </trkpt>
      <trkpt lat="36.49708" lon="-6.26924">
        <ele>11.26612</ele>
        <time>2022-04-14T13:05:09.000Z</time>
      </trkpt>
      <trkpt lat="36.49708" lon="-6.26924">
        <ele>11.265374</ele>
        <time>2022-04-14T13:05:13.000Z</time>
      </trkpt>
      <trkpt lat="36.49713" lon="-6.26933">
        <ele>11.26912</ele>
        <time>2022-04-14T13:05:18.000Z</time>
      </trkpt>
      <trkpt lat="36.49719" lon="-6.26938">
        <ele>11.288562</ele>
        <time>2022-04-14T13:05:20.000Z</time>
      </trkpt>
      <trkpt lat="36.49734" lon="-6.26952">
        <ele>11.346012</ele>
        <time>2022-04-14T13:05:26.000Z</time>
      </trkpt>
      <trkpt lat="36.49746" lon="-6.26954">
        <ele>11.382763</ele>
        <time>2022-04-14T13:05:30.000Z</time>
      </trkpt>
      <trkpt lat="36.49754" lon="-6.26958">
        <ele>11.410639</ele>
        <time>2022-04-14T13:05:36.000Z</time>
      </trkpt>
      <trkpt lat="36.49756" lon="-6.26958">
        <ele>11.416203</ele>
        <time>2022-04-14T13:05:40.000Z</time>
      </trkpt>
      <trkpt lat="36.49759" lon="-6.2696">
        <ele>11.425042</ele>
        <time>2022-04-14T13:05:42.000Z</time>
      </trkpt>
      <trkpt lat="36.49765" lon="-6.26954">
        <ele>11.449996</ele>
        <time>2022-04-14T13:05:49.000Z</time>
      </trkpt>
      <trkpt lat="36.49767" lon="-6.26954">
        <ele>11.45422</ele>
        <time>2022-04-14T13:05:50.000Z</time>
      </trkpt>
      <trkpt lat="36.49773" lon="-6.26954">
        <ele>11.474186</ele>
        <time>2022-04-14T13:05:53.000Z</time>
      </trkpt>
      <trkpt lat="36.49791" lon="-6.2696">
        <ele>11.530287</ele>
        <time>2022-04-14T13:05:59.000Z</time>
      </trkpt>
      <trkpt lat="36.49808" lon="-6.26967">
        <ele>11.582158</ele>
        <time>2022-04-14T13:06:04.000Z</time>
      </trkpt>
      <trkpt lat="36.49812" lon="-6.26968">
        <ele>11.595357</ele>
        <time>2022-04-14T13:06:07.000Z</time>
      </trkpt>
      <trkpt lat="36.49818" lon="-6.2697">
        <ele>11.61423</ele>
        <time>2022-04-14T13:06:12.000Z</time>
      </trkpt>
      <trkpt lat="36.49821" lon="-6.26971">
        <ele>11.623309</ele>
        <time>2022-04-14T13:06:14.000Z</time>
      </trkpt>
      <trkpt lat="36.49824" lon="-6.26973">
        <ele>11.635252</ele>
        <time>2022-04-14T13:06:17.000Z</time>
      </trkpt>
      <trkpt lat="36.49827" lon="-6.26976">
        <ele>11.645732</ele>
        <time>2022-04-14T13:06:19.000Z</time>
      </trkpt>
      <trkpt lat="36.4983" lon="-6.26979">
        <ele>11.656242</ele>
        <time>2022-04-14T13:06:21.000Z</time>
      </trkpt>
      <trkpt lat="36.49837" lon="-6.26986">
        <ele>11.6842</ele>
        <time>2022-04-14T13:06:27.000Z</time>
      </trkpt>
      <trkpt lat="36.49838" lon="-6.26986">
        <ele>11.687255</ele>
        <time>2022-04-14T13:06:28.000Z</time>
      </trkpt>
      <trkpt lat="36.49839" lon="-6.26986">
        <ele>11.689422</ele>
        <time>2022-04-14T13:06:29.000Z</time>
      </trkpt>
      <trkpt lat="36.49841" lon="-6.26986">
        <ele>11.69617</ele>
        <time>2022-04-14T13:06:31.000Z</time>
      </trkpt>
      <trkpt lat="36.49842" lon="-6.26985">
        <ele>11.701004</ele>
        <time>2022-04-14T13:06:32.000Z</time>
      </trkpt>
      <trkpt lat="36.49843" lon="-6.26983">
        <ele>11.70573</ele>
        <time>2022-04-14T13:06:35.000Z</time>
      </trkpt>
      <trkpt lat="36.49843" lon="-6.26983">
        <ele>11.707031</ele>
        <time>2022-04-14T13:06:39.000Z</time>
      </trkpt>
      <trkpt lat="36.49852" lon="-6.26986">
        <ele>11.732098</ele>
        <time>2022-04-14T13:06:46.000Z</time>
      </trkpt>
      <trkpt lat="36.49858" lon="-6.26985">
        <ele>11.751559</ele>
        <time>2022-04-14T13:06:52.000Z</time>
      </trkpt>
      <trkpt lat="36.49872" lon="-6.26991">
        <ele>11.795951</ele>
        <time>2022-04-14T13:07:00.000Z</time>
      </trkpt>
      <trkpt lat="36.49887" lon="-6.26997">
        <ele>11.819997</ele>
        <time>2022-04-14T13:07:05.000Z</time>
      </trkpt>
      <trkpt lat="36.49912" lon="-6.27004">
        <ele>11.852946</ele>
        <time>2022-04-14T13:07:15.000Z</time>
      </trkpt>
      <trkpt lat="36.49916" lon="-6.27006">
        <ele>11.857816</ele>
        <time>2022-04-14T13:07:20.000Z</time>
      </trkpt>
      <trkpt lat="36.49919" lon="-6.27008">
        <ele>11.862675</ele>
        <time>2022-04-14T13:07:23.000Z</time>
      </trkpt>
      <trkpt lat="36.49921" lon="-6.27009">
        <ele>11.865012</ele>
        <time>2022-04-14T13:07:25.000Z</time>
      </trkpt>
      <trkpt lat="36.49935" lon="-6.27014">
        <ele>11.883657</ele>
        <time>2022-04-14T13:07:36.000Z</time>
      </trkpt>
      <trkpt lat="36.49938" lon="-6.27013">
        <ele>11.887549</ele>
        <time>2022-04-14T13:07:42.000Z</time>
      </trkpt>
      <trkpt lat="36.49941" lon="-6.27015">
        <ele>11.892103</ele>
        <time>2022-04-14T13:07:47.000Z</time>
      </trkpt>
      <trkpt lat="36.49942" lon="-6.27016">
        <ele>11.894232</ele>
        <time>2022-04-14T13:07:48.000Z</time>
      </trkpt>
      <trkpt lat="36.49946" lon="-6.27017">
        <ele>11.898934</ele>
        <time>2022-04-14T13:07:51.000Z</time>
      </trkpt>
      <trkpt lat="36.49959" lon="-6.27023">
        <ele>11.917233</ele>
        <time>2022-04-14T13:07:58.000Z</time>
      </trkpt>
      <trkpt lat="36.49969" lon="-6.2703">
        <ele>11.931326</ele>
        <time>2022-04-14T13:08:03.000Z</time>
      </trkpt>
      <trkpt lat="36.49972" lon="-6.27033">
        <ele>11.935969</ele>
        <time>2022-04-14T13:08:05.000Z</time>
      </trkpt>
      <trkpt lat="36.49977" lon="-6.27036">
        <ele>11.943821</ele>
        <time>2022-04-14T13:08:08.000Z</time>
      </trkpt>
      <trkpt lat="36.4998" lon="-6.2704">
        <ele>11.949073</ele>
        <time>2022-04-14T13:08:11.000Z</time>
      </trkpt>
      <trkpt lat="36.49982" lon="-6.2704">
        <ele>11.951099</ele>
        <time>2022-04-14T13:08:13.000Z</time>
      </trkpt>
      <trkpt lat="36.4999" lon="-6.2706">
        <ele>11.97404</ele>
        <time>2022-04-14T13:08:19.000Z</time>
      </trkpt>
      <trkpt lat="36.49996" lon="-6.2706">
        <ele>11.982146</ele>
        <time>2022-04-14T13:08:23.000Z</time>
      </trkpt>
      <trkpt lat="36.49998" lon="-6.27061">
        <ele>11.984604</ele>
        <time>2022-04-14T13:08:24.000Z</time>
      </trkpt>
      <trkpt lat="36.49998" lon="-6.27064">
        <ele>11.987084</ele>
        <time>2022-04-14T13:08:25.000Z</time>
      </trkpt>
      <trkpt lat="36.50001" lon="-6.27074">
        <ele>11.998549</ele>
        <time>2022-04-14T13:08:28.000Z</time>
      </trkpt>
      <trkpt lat="36.50001" lon="-6.27074">
        <ele>11.999348</ele>
        <time>2022-04-14T13:08:29.000Z</time>
      </trkpt>
      <trkpt lat="36.50005" lon="-6.27079">
        <ele>12.006282</ele>
        <time>2022-04-14T13:08:31.000Z</time>
      </trkpt>
      <trkpt lat="36.50013" lon="-6.27072">
        <ele>12.018512</ele>
        <time>2022-04-14T13:08:34.000Z</time>
      </trkpt>
      <trkpt lat="36.50019" lon="-6.27062">
        <ele>12.03178</ele>
        <time>2022-04-14T13:08:36.000Z</time>
      </trkpt>
      <trkpt lat="36.50022" lon="-6.27063">
        <ele>12.026618</ele>
        <time>2022-04-14T13:08:38.000Z</time>
      </trkpt>
      <trkpt lat="36.50022" lon="-6.27063">
        <ele>12.026618</ele>
        <time>2022-04-14T13:08:42.000Z</time>
      </trkpt>
      <trkpt lat="36.50022" lon="-6.27063">
        <ele>12.026618</ele>
        <time>2022-04-14T13:08:50.000Z</time>
      </trkpt>
      <trkpt lat="36.50022" lon="-6.27063">
        <ele>12.026618</ele>
        <time>2022-04-14T13:08:56.000Z</time>
      </trkpt>
      <trkpt lat="36.50022" lon="-6.27064">
        <ele>12.02622</ele>
        <time>2022-04-14T13:08:58.000Z</time>
      </trkpt>
      <trkpt lat="36.50024" lon="-6.27067">
        <ele>12.017849</ele>
        <time>2022-04-14T13:09:00.000Z</time>
      </trkpt>
      <trkpt lat="36.50031" lon="-6.27071">
        <ele>11.998673</ele>
        <time>2022-04-14T13:09:03.000Z</time>
      </trkpt>
      <trkpt lat="36.50034" lon="-6.27072">
        <ele>11.991158</ele>
        <time>2022-04-14T13:09:04.000Z</time>
      </trkpt>
      <trkpt lat="36.5004" lon="-6.27069">
        <ele>11.973941</ele>
        <time>2022-04-14T13:09:06.000Z</time>
      </trkpt>
      <trkpt lat="36.50053" lon="-6.27063">
        <ele>11.941344</ele>
        <time>2022-04-14T13:09:09.000Z</time>
      </trkpt>
      <trkpt lat="36.50057" lon="-6.27063">
        <ele>11.930702</ele>
        <time>2022-04-14T13:09:10.000Z</time>
      </trkpt>
      <trkpt lat="36.50062" lon="-6.27064">
        <ele>11.91932</ele>
        <time>2022-04-14T13:09:11.000Z</time>
      </trkpt>
      <trkpt lat="36.50066" lon="-6.27067">
        <ele>11.907769</ele>
        <time>2022-04-14T13:09:12.000Z</time>
      </trkpt>
      <trkpt lat="36.50069" lon="-6.27071">
        <ele>11.89718</ele>
        <time>2022-04-14T13:09:13.000Z</time>
      </trkpt>
      <trkpt lat="36.50072" lon="-6.27081">
        <ele>11.876223</ele>
        <time>2022-04-14T13:09:15.000Z</time>
      </trkpt>
      <trkpt lat="36.50074" lon="-6.2709">
        <ele>11.857399</ele>
        <time>2022-04-14T13:09:17.000Z</time>
      </trkpt>
      <trkpt lat="36.50072" lon="-6.27098">
        <ele>11.841046</ele>
        <time>2022-04-14T13:09:19.000Z</time>
      </trkpt>
      <trkpt lat="36.50069" lon="-6.27102">
        <ele>11.830276</ele>
        <time>2022-04-14T13:09:20.000Z</time>
      </trkpt>
      <trkpt lat="36.50067" lon="-6.27107">
        <ele>11.819564</ele>
        <time>2022-04-14T13:09:21.000Z</time>
      </trkpt>
      <trkpt lat="36.50063" lon="-6.27114">
        <ele>11.802364</ele>
        <time>2022-04-14T13:09:24.000Z</time>
      </trkpt>
      <trkpt lat="36.50062" lon="-6.27115">
        <ele>11.799499</ele>
        <time>2022-04-14T13:09:27.000Z</time>
      </trkpt>
      <trkpt lat="36.5006" lon="-6.27116">
        <ele>11.793251</ele>
        <time>2022-04-14T13:09:29.000Z</time>
      </trkpt>
      <trkpt lat="36.50049" lon="-6.27125">
        <ele>11.761623</ele>
        <time>2022-04-14T13:09:35.000Z</time>
      </trkpt>
      <trkpt lat="36.50045" lon="-6.27136">
        <ele>11.737306</ele>
        <time>2022-04-14T13:09:38.000Z</time>
      </trkpt>
      <trkpt lat="36.5004" lon="-6.27149">
        <ele>11.708548</ele>
        <time>2022-04-14T13:09:41.000Z</time>
      </trkpt>
      <trkpt lat="36.50029" lon="-6.27176">
        <ele>11.648434</ele>
        <time>2022-04-14T13:09:48.000Z</time>
      </trkpt>
      <trkpt lat="36.50025" lon="-6.2719">
        <ele>11.618225</ele>
        <time>2022-04-14T13:09:51.000Z</time>
      </trkpt>
      <trkpt lat="36.50021" lon="-6.27204">
        <ele>11.58934</ele>
        <time>2022-04-14T13:09:54.000Z</time>
      </trkpt>
      <trkpt lat="36.50018" lon="-6.27219">
        <ele>11.701024</ele>
        <time>2022-04-14T13:09:57.000Z</time>
      </trkpt>
      <trkpt lat="36.50006" lon="-6.27249">
        <ele>11.967375</ele>
        <time>2022-04-14T13:10:04.000Z</time>
      </trkpt>
      <trkpt lat="36.50004" lon="-6.27259">
        <ele>12.043524</ele>
        <time>2022-04-14T13:10:06.000Z</time>
      </trkpt>
      <trkpt lat="36.5" lon="-6.27272">
        <ele>12.155418</ele>
        <time>2022-04-14T13:10:09.000Z</time>
      </trkpt>
      <trkpt lat="36.49993" lon="-6.27289">
        <ele>12.302916</ele>
        <time>2022-04-14T13:10:14.000Z</time>
      </trkpt>
      <trkpt lat="36.49988" lon="-6.2729">
        <ele>12.357035</ele>
        <time>2022-04-14T13:10:16.000Z</time>
      </trkpt>
      <trkpt lat="36.49984" lon="-6.27288">
        <ele>12.392734</ele>
        <time>2022-04-14T13:10:17.000Z</time>
      </trkpt>
      <trkpt lat="36.49974" lon="-6.27286">
        <ele>12.489793</ele>
        <time>2022-04-14T13:10:20.000Z</time>
      </trkpt>
      <trkpt lat="36.4997" lon="-6.27289">
        <ele>12.537097</ele>
        <time>2022-04-14T13:10:22.000Z</time>
      </trkpt>
      <trkpt lat="36.49968" lon="-6.27291">
        <ele>12.559367</ele>
        <time>2022-04-14T13:10:23.000Z</time>
      </trkpt>
      <trkpt lat="36.49966" lon="-6.27291">
        <ele>12.582875</ele>
        <time>2022-04-14T13:10:24.000Z</time>
      </trkpt>
      <trkpt lat="36.49961" lon="-6.2729">
        <ele>12.625164</ele>
        <time>2022-04-14T13:10:26.000Z</time>
      </trkpt>
      <trkpt lat="36.4996" lon="-6.2729">
        <ele>12.639636</ele>
        <time>2022-04-14T13:10:30.000Z</time>
      </trkpt>
      <trkpt lat="36.49959" lon="-6.27289">
        <ele>12.649195</ele>
        <time>2022-04-14T13:10:38.000Z</time>
      </trkpt>
      <trkpt lat="36.49957" lon="-6.27288">
        <ele>12.67749</ele>
        <time>2022-04-14T13:10:41.000Z</time>
      </trkpt>
      <trkpt lat="36.49954" lon="-6.27292">
        <ele>12.717416</ele>
        <time>2022-04-14T13:10:43.000Z</time>
      </trkpt>
      <trkpt lat="36.49946" lon="-6.27302">
        <ele>12.828019</ele>
        <time>2022-04-14T13:10:47.000Z</time>
      </trkpt>
      <trkpt lat="36.49944" lon="-6.2731">
        <ele>12.896966</ele>
        <time>2022-04-14T13:10:50.000Z</time>
      </trkpt>
      <trkpt lat="36.49944" lon="-6.27313">
        <ele>12.924798</ele>
        <time>2022-04-14T13:10:51.000Z</time>
      </trkpt>
      <trkpt lat="36.49947" lon="-6.27322">
        <ele>12.994954</ele>
        <time>2022-04-14T13:10:54.000Z</time>
      </trkpt>
      <trkpt lat="36.49949" lon="-6.27327">
        <ele>13.039364</ele>
        <time>2022-04-14T13:10:56.000Z</time>
      </trkpt>
      <trkpt lat="36.49947" lon="-6.27337">
        <ele>13.124106</ele>
        <time>2022-04-14T13:10:59.000Z</time>
      </trkpt>
      <trkpt lat="36.49945" lon="-6.2734">
        <ele>13.150683</ele>
        <time>2022-04-14T13:11:00.000Z</time>
      </trkpt>
      <trkpt lat="36.49936" lon="-6.27363">
        <ele>13.345803</ele>
        <time>2022-04-14T13:11:06.000Z</time>
      </trkpt>
      <trkpt lat="36.4993" lon="-6.27389">
        <ele>13.353887</ele>
        <time>2022-04-14T13:11:12.000Z</time>
      </trkpt>
      <trkpt lat="36.49932" lon="-6.27394">
        <ele>13.355502</ele>
        <time>2022-04-14T13:11:13.000Z</time>
      </trkpt>
      <trkpt lat="36.49933" lon="-6.27399">
        <ele>13.357006</ele>
        <time>2022-04-14T13:11:14.000Z</time>
      </trkpt>
      <trkpt lat="36.49938" lon="-6.27402">
        <ele>13.359188</ele>
        <time>2022-04-14T13:11:16.000Z</time>
      </trkpt>
      <trkpt lat="36.49957" lon="-6.27416">
        <ele>13.367183</ele>
        <time>2022-04-14T13:11:22.000Z</time>
      </trkpt>
      <trkpt lat="36.4997" lon="-6.27423">
        <ele>13.372346</ele>
        <time>2022-04-14T13:11:27.000Z</time>
      </trkpt>
      <trkpt lat="36.49988" lon="-6.27435">
        <ele>13.380035</ele>
        <time>2022-04-14T13:11:34.000Z</time>
      </trkpt>
      <trkpt lat="36.50012" lon="-6.27449">
        <ele>13.389687</ele>
        <time>2022-04-14T13:11:42.000Z</time>
      </trkpt>
      <trkpt lat="36.50028" lon="-6.27463">
        <ele>13.397042</ele>
        <time>2022-04-14T13:11:48.000Z</time>
      </trkpt>
      <trkpt lat="36.50046" lon="-6.27474">
        <ele>13.404321</ele>
        <time>2022-04-14T13:11:54.000Z</time>
      </trkpt>
      <trkpt lat="36.50064" lon="-6.27487">
        <ele>13.411927</ele>
        <time>2022-04-14T13:12:00.000Z</time>
      </trkpt>
      <trkpt lat="36.50081" lon="-6.27496">
        <ele>13.466999</ele>
        <time>2022-04-14T13:12:06.000Z</time>
      </trkpt>
      <trkpt lat="36.50095" lon="-6.27504">
        <ele>13.514162</ele>
        <time>2022-04-14T13:12:11.000Z</time>
      </trkpt>
      <trkpt lat="36.50111" lon="-6.27511">
        <ele>13.563551</ele>
        <time>2022-04-14T13:12:16.000Z</time>
      </trkpt>
      <trkpt lat="36.50128" lon="-6.27519">
        <ele>13.617418</ele>
        <time>2022-04-14T13:12:22.000Z</time>
      </trkpt>
      <trkpt lat="36.50138" lon="-6.27523">
        <ele>13.650577</ele>
        <time>2022-04-14T13:12:26.000Z</time>
      </trkpt>
      <trkpt lat="36.5014" lon="-6.27525">
        <ele>13.657414</ele>
        <time>2022-04-14T13:12:27.000Z</time>
      </trkpt>
      <trkpt lat="36.50143" lon="-6.27526">
        <ele>13.666611</ele>
        <time>2022-04-14T13:12:28.000Z</time>
      </trkpt>
      <trkpt lat="36.5015" lon="-6.27527">
        <ele>13.686311</ele>
        <time>2022-04-14T13:12:31.000Z</time>
      </trkpt>
      <trkpt lat="36.50162" lon="-6.27531">
        <ele>13.723811</ele>
        <time>2022-04-14T13:12:37.000Z</time>
      </trkpt>
      <trkpt lat="36.5017" lon="-6.27532">
        <ele>13.748936</ele>
        <time>2022-04-14T13:12:41.000Z</time>
      </trkpt>
      <trkpt lat="36.5018" lon="-6.27537">
        <ele>13.780592</ele>
        <time>2022-04-14T13:12:45.000Z</time>
      </trkpt>
      <trkpt lat="36.50195" lon="-6.27545">
        <ele>13.828122</ele>
        <time>2022-04-14T13:12:51.000Z</time>
      </trkpt>
      <trkpt lat="36.50197" lon="-6.27544">
        <ele>13.835526</ele>
        <time>2022-04-14T13:12:52.000Z</time>
      </trkpt>
      <trkpt lat="36.50203" lon="-6.27545">
        <ele>13.852127</ele>
        <time>2022-04-14T13:12:54.000Z</time>
      </trkpt>
      <trkpt lat="36.50212" lon="-6.27549">
        <ele>13.879586</ele>
        <time>2022-04-14T13:12:57.000Z</time>
      </trkpt>
      <trkpt lat="36.50214" lon="-6.27549">
        <ele>13.888347</ele>
        <time>2022-04-14T13:12:58.000Z</time>
      </trkpt>
      <trkpt lat="36.50222" lon="-6.27552">
        <ele>13.911773</ele>
        <time>2022-04-14T13:13:00.000Z</time>
      </trkpt>
      <trkpt lat="36.50232" lon="-6.27557">
        <ele>13.944532</ele>
        <time>2022-04-14T13:13:03.000Z</time>
      </trkpt>
      <trkpt lat="36.50249" lon="-6.27576">
        <ele>13.951861</ele>
        <time>2022-04-14T13:13:09.000Z</time>
      </trkpt>
      <trkpt lat="36.50252" lon="-6.27579">
        <ele>13.952591</ele>
        <time>2022-04-14T13:13:10.000Z</time>
      </trkpt>
      <trkpt lat="36.50267" lon="-6.27596">
        <ele>13.956274</ele>
        <time>2022-04-14T13:13:15.000Z</time>
      </trkpt>
      <trkpt lat="36.50283" lon="-6.27607">
        <ele>13.959523</ele>
        <time>2022-04-14T13:13:21.000Z</time>
      </trkpt>
      <trkpt lat="36.50304" lon="-6.27622">
        <ele>13.963905</ele>
        <time>2022-04-14T13:13:27.000Z</time>
      </trkpt>
      <trkpt lat="36.50321" lon="-6.27634">
        <ele>13.967412</ele>
        <time>2022-04-14T13:13:33.000Z</time>
      </trkpt>
      <trkpt lat="36.50324" lon="-6.27635">
        <ele>13.967878</ele>
        <time>2022-04-14T13:13:34.000Z</time>
      </trkpt>
      <trkpt lat="36.50333" lon="-6.2764">
        <ele>13.969663</ele>
        <time>2022-04-14T13:13:37.000Z</time>
      </trkpt>
      <trkpt lat="36.50355" lon="-6.2766">
        <ele>13.974556</ele>
        <time>2022-04-14T13:13:45.000Z</time>
      </trkpt>
      <trkpt lat="36.50376" lon="-6.27678">
        <ele>13.979186</ele>
        <time>2022-04-14T13:13:52.000Z</time>
      </trkpt>
      <trkpt lat="36.50395" lon="-6.27695">
        <ele>13.980358</ele>
        <time>2022-04-14T13:13:59.000Z</time>
      </trkpt>
      <trkpt lat="36.50412" lon="-6.27709">
        <ele>13.980358</ele>
        <time>2022-04-14T13:14:05.000Z</time>
      </trkpt>
      <trkpt lat="36.50428" lon="-6.27719">
        <ele>13.980358</ele>
        <time>2022-04-14T13:14:10.000Z</time>
      </trkpt>
      <trkpt lat="36.50452" lon="-6.27738">
        <ele>13.980358</ele>
        <time>2022-04-14T13:14:18.000Z</time>
      </trkpt>
      <trkpt lat="36.50456" lon="-6.27741">
        <ele>13.980358</ele>
        <time>2022-04-14T13:14:19.000Z</time>
      </trkpt>
      <trkpt lat="36.5047" lon="-6.27751">
        <ele>13.980358</ele>
        <time>2022-04-14T13:14:24.000Z</time>
      </trkpt>
      <trkpt lat="36.5048" lon="-6.27751">
        <ele>13.980358</ele>
        <time>2022-04-14T13:14:29.000Z</time>
      </trkpt>
      <trkpt lat="36.50488" lon="-6.27747">
        <ele>13.980358</ele>
        <time>2022-04-14T13:14:32.000Z</time>
      </trkpt>
      <trkpt lat="36.50489" lon="-6.27745">
        <ele>13.980358</ele>
        <time>2022-04-14T13:14:33.000Z</time>
      </trkpt>
      <trkpt lat="36.50501" lon="-6.27736">
        <ele>13.980358</ele>
        <time>2022-04-14T13:14:38.000Z</time>
      </trkpt>
      <trkpt lat="36.50507" lon="-6.27729">
        <ele>13.980358</ele>
        <time>2022-04-14T13:14:42.000Z</time>
      </trkpt>
      <trkpt lat="36.50507" lon="-6.27729">
        <ele>13.980358</ele>
        <time>2022-04-14T13:14:43.000Z</time>
      </trkpt>
      <trkpt lat="36.50506" lon="-6.2773">
        <ele>13.980358</ele>
        <time>2022-04-14T13:14:49.000Z</time>
      </trkpt>
      <trkpt lat="36.50503" lon="-6.27727">
        <ele>13.980358</ele>
        <time>2022-04-14T13:14:54.000Z</time>
      </trkpt>
      <trkpt lat="36.505" lon="-6.27725">
        <ele>13.980358</ele>
        <time>2022-04-14T13:14:59.000Z</time>
      </trkpt>
      <trkpt lat="36.505" lon="-6.27725">
        <ele>13.980358</ele>
        <time>2022-04-14T13:15:00.000Z</time>
      </trkpt>
      <trkpt lat="36.505" lon="-6.27725">
        <ele>13.980358</ele>
        <time>2022-04-14T13:15:04.000Z</time>
      </trkpt>
      <trkpt lat="36.505" lon="-6.27723">
        <ele>13.980358</ele>
        <time>2022-04-14T13:15:11.000Z</time>
      </trkpt>
      <trkpt lat="36.50499" lon="-6.27724">
        <ele>13.980358</ele>
        <time>2022-04-14T13:15:19.000Z</time>
      </trkpt>
    </trkseg>
  </trk>
</gpx>